<?xml version='1.0' encoding='UTF-8'?><gpx version="1.1" creator="JPX - https://github.com/jenetics/jpx" xmlns="http://www.topografix.com/GPX/1/1"><trk><trkseg><trkpt lat="40.631954868244755" lon="15.802233419489463"><ele>741.0</ele><time>2026-04-26T07:36:42Z</time></trkpt><trkpt lat="40.631859308294885" lon="15.802263857188269"><ele>741.0</ele><time>2026-04-26T07:36:44Z</time></trkpt><trkpt lat="40.63178374699907" lon="15.80226440523649"><ele>741.0</ele><time>2026-04-26T07:36:46Z</time></trkpt><trkpt lat="40.631679524255496" lon="15.802403057081547"><ele>741.0</ele><time>2026-04-26T07:36:48Z</time></trkpt><trkpt lat="40.6316311302869" lon="15.802493407038874"><ele>741.0</ele><time>2026-04-26T07:36:49Z</time></trkpt><trkpt lat="40.63158220108655" lon="15.80258657744764"><ele>740.5999999999999</ele><time>2026-04-26T07:36:50Z</time></trkpt><trkpt lat="40.63153036821994" lon="15.802697700541591"><ele>740.2</ele><time>2026-04-26T07:36:51Z</time></trkpt><trkpt lat="40.631478919660935" lon="15.802822732891759"><ele>739.8</ele><time>2026-04-26T07:36:52Z</time></trkpt><trkpt lat="40.631433874157004" lon="15.802936933122796"><ele>739.4000000000001</ele><time>2026-04-26T07:36:53Z</time></trkpt><trkpt lat="40.63139433984894" lon="15.80304548068903"><ele>739.0</ele><time>2026-04-26T07:36:54Z</time></trkpt><trkpt lat="40.63134943505757" lon="15.803148986051527"><ele>739.0</ele><time>2026-04-26T07:36:55Z</time></trkpt><trkpt lat="40.63133966963361" lon="15.803271852482606"><ele>739.0</ele><time>2026-04-26T07:36:56Z</time></trkpt><trkpt lat="40.63128258840539" lon="15.803365818113615"><ele>739.0</ele><time>2026-04-26T07:36:57Z</time></trkpt><trkpt lat="40.63132576862421" lon="15.803476690553456"><ele>739.0</ele><time>2026-04-26T07:36:58Z</time></trkpt><trkpt lat="40.63133156347725" lon="15.803590042248873"><ele>739.0</ele><time>2026-04-26T07:36:59Z</time></trkpt><trkpt lat="40.63132715777299" lon="15.80370119545039"><ele>737.8333333333334</ele><time>2026-04-26T07:37:00Z</time></trkpt><trkpt lat="40.63138527572447" lon="15.803816594403541"><ele>736.6666666666667</ele><time>2026-04-26T07:37:01Z</time></trkpt><trkpt lat="40.631451954918816" lon="15.803903786894804"><ele>735.5</ele><time>2026-04-26T07:37:02Z</time></trkpt><trkpt lat="40.63149865377624" lon="15.803981960283327"><ele>734.3333333333334</ele><time>2026-04-26T07:37:03Z</time></trkpt><trkpt lat="40.63155922445275" lon="15.804063439827667"><ele>733.1666666666666</ele><time>2026-04-26T07:37:04Z</time></trkpt><trkpt lat="40.631548495273954" lon="15.804168657837733"><ele>732.0</ele><time>2026-04-26T07:37:05Z</time></trkpt><trkpt lat="40.6314996405395" lon="15.804253174528231"><ele>732.0</ele><time>2026-04-26T07:37:06Z</time></trkpt><trkpt lat="40.63142494048553" lon="15.80430812463532"><ele>732.0</ele><time>2026-04-26T07:37:07Z</time></trkpt><trkpt lat="40.631307284121476" lon="15.804305196309006"><ele>732.0</ele><time>2026-04-26T07:37:08Z</time></trkpt><trkpt lat="40.63119788176835" lon="15.804306245808666"><ele>732.0</ele><time>2026-04-26T07:37:09Z</time></trkpt><trkpt lat="40.63111189576595" lon="15.804265819781813"><ele>732.0</ele><time>2026-04-26T07:37:10Z</time></trkpt><trkpt lat="40.6310224704728" lon="15.804233588080672"><ele>730.6</ele><time>2026-04-26T07:37:11Z</time></trkpt><trkpt lat="40.63094544996788" lon="15.804198903168267"><ele>729.2</ele><time>2026-04-26T07:37:12Z</time></trkpt><trkpt lat="40.63085408271218" lon="15.804149622431048"><ele>727.8</ele><time>2026-04-26T07:37:13Z</time></trkpt><trkpt lat="40.63076887507867" lon="15.804099897163818"><ele>726.4</ele><time>2026-04-26T07:37:14Z</time></trkpt><trkpt lat="40.630684317635584" lon="15.804050551316122"><ele>725.0</ele><time>2026-04-26T07:37:15Z</time></trkpt><trkpt lat="40.63060346651365" lon="15.804019498934995"><ele>725.0</ele><time>2026-04-26T07:37:16Z</time></trkpt><trkpt lat="40.63052609936" lon="15.803967490026274"><ele>725.0</ele><time>2026-04-26T07:37:17Z</time></trkpt><trkpt lat="40.6304501154377" lon="15.803907447451472"><ele>725.0</ele><time>2026-04-26T07:37:18Z</time></trkpt><trkpt lat="40.63036608686958" lon="15.803847061854341"><ele>725.0</ele><time>2026-04-26T07:37:19Z</time></trkpt><trkpt lat="40.630299028896715" lon="15.803763882665063"><ele>725.0</ele><time>2026-04-26T07:37:20Z</time></trkpt><trkpt lat="40.63024062140125" lon="15.803678695975535"><ele>721.8</ele><time>2026-04-26T07:37:21Z</time></trkpt><trkpt lat="40.63017722439942" lon="15.803598058377784"><ele>718.6</ele><time>2026-04-26T07:37:22Z</time></trkpt><trkpt lat="40.630121782493426" lon="15.803488431507075"><ele>715.4000000000001</ele><time>2026-04-26T07:37:23Z</time></trkpt><trkpt lat="40.63011103315586" lon="15.803363513738784"><ele>712.2</ele><time>2026-04-26T07:37:24Z</time></trkpt><trkpt lat="40.630089956590744" lon="15.803243243437269"><ele>709.0</ele><time>2026-04-26T07:37:25Z</time></trkpt><trkpt lat="40.63009195778578" lon="15.80310684811913"><ele>708.8000000000001</ele><time>2026-04-26T07:37:26Z</time></trkpt><trkpt lat="40.63010356225568" lon="15.8029677795025"><ele>708.6</ele><time>2026-04-26T07:37:27Z</time></trkpt><trkpt lat="40.6301025157604" lon="15.802826378377764"><ele>708.4</ele><time>2026-04-26T07:37:28Z</time></trkpt><trkpt lat="40.630123464673424" lon="15.802683605887875"><ele>708.2</ele><time>2026-04-26T07:37:29Z</time></trkpt><trkpt lat="40.630151615363836" lon="15.802544369228556"><ele>708.0</ele><time>2026-04-26T07:37:30Z</time></trkpt><trkpt lat="40.63014317440954" lon="15.802389705439564"><ele>707.75</ele><time>2026-04-26T07:37:31Z</time></trkpt><trkpt lat="40.6300863959487" lon="15.802244795953925"><ele>707.5</ele><time>2026-04-26T07:37:32Z</time></trkpt><trkpt lat="40.629984091682125" lon="15.802136721858329"><ele>707.25</ele><time>2026-04-26T07:37:33Z</time></trkpt><trkpt lat="40.62985669020398" lon="15.802056232455442"><ele>707.0</ele><time>2026-04-26T07:37:34Z</time></trkpt><trkpt lat="40.62968527842692" lon="15.80201757287146"><ele>707.0</ele><time>2026-04-26T07:37:35Z</time></trkpt><trkpt lat="40.62950757148745" lon="15.802009977050615"><ele>707.0</ele><time>2026-04-26T07:37:36Z</time></trkpt><trkpt lat="40.62933968479915" lon="15.801981666836527"><ele>707.0</ele><time>2026-04-26T07:37:37Z</time></trkpt><trkpt lat="40.62920800066282" lon="15.80192951001866"><ele>707.8</ele><time>2026-04-26T07:37:38Z</time></trkpt><trkpt lat="40.62909275277528" lon="15.801868629828885"><ele>708.6</ele><time>2026-04-26T07:37:39Z</time></trkpt><trkpt lat="40.62899321983097" lon="15.80180674044697"><ele>709.4</ele><time>2026-04-26T07:37:40Z</time></trkpt><trkpt lat="40.62890518956621" lon="15.801742412963165"><ele>710.1999999999999</ele><time>2026-04-26T07:37:41Z</time></trkpt><trkpt lat="40.62881579581518" lon="15.801690107908419"><ele>711.0</ele><time>2026-04-26T07:37:42Z</time></trkpt><trkpt lat="40.62874895885455" lon="15.801623929224274"><ele>711.0</ele><time>2026-04-26T07:37:43Z</time></trkpt><trkpt lat="40.62869400016077" lon="15.801559035191003"><ele>711.0</ele><time>2026-04-26T07:37:44Z</time></trkpt><trkpt lat="40.62862951751351" lon="15.801482013866574"><ele>711.0</ele><time>2026-04-26T07:37:46Z</time></trkpt><trkpt lat="40.628576186685365" lon="15.80139227051136"><ele>711.0</ele><time>2026-04-26T07:37:51Z</time></trkpt><trkpt lat="40.62853898469517" lon="15.801299527881246"><ele>711.0</ele><time>2026-04-26T07:37:53Z</time></trkpt><trkpt lat="40.62848809470363" lon="15.801240985409507"><ele>711.0</ele><time>2026-04-26T07:37:55Z</time></trkpt><trkpt lat="40.6284197301822" lon="15.801242882524706"><ele>707.1666666666666</ele><time>2026-04-26T07:37:57Z</time></trkpt><trkpt lat="40.62836109027542" lon="15.801283411748518"><ele>703.3333333333334</ele><time>2026-04-26T07:38:01Z</time></trkpt><trkpt lat="40.628303498660934" lon="15.801376840135477"><ele>699.5</ele><time>2026-04-26T07:38:04Z</time></trkpt><trkpt lat="40.62830529133892" lon="15.801473207024802"><ele>695.6666666666667</ele><time>2026-04-26T07:38:05Z</time></trkpt><trkpt lat="40.62834864789359" lon="15.801565248633334"><ele>691.8333333333334</ele><time>2026-04-26T07:38:06Z</time></trkpt><trkpt lat="40.62834426657767" lon="15.80165738232464"><ele>688.0</ele><time>2026-04-26T07:38:07Z</time></trkpt><trkpt lat="40.6283720766823" lon="15.80175467702662"><ele>686.4</ele><time>2026-04-26T07:38:08Z</time></trkpt><trkpt lat="40.628406716682875" lon="15.801864119619736"><ele>684.8</ele><time>2026-04-26T07:38:09Z</time></trkpt><trkpt lat="40.62845211008865" lon="15.801969913264044"><ele>683.2</ele><time>2026-04-26T07:38:10Z</time></trkpt><trkpt lat="40.62851150291783" lon="15.802068908121292"><ele>681.6</ele><time>2026-04-26T07:38:11Z</time></trkpt><trkpt lat="40.62856325793042" lon="15.802172478699669"><ele>680.0</ele><time>2026-04-26T07:38:12Z</time></trkpt><trkpt lat="40.62859306953823" lon="15.80228248131576"><ele>680.0</ele><time>2026-04-26T07:38:13Z</time></trkpt><trkpt lat="40.628619302115204" lon="15.802403701084629"><ele>680.0</ele><time>2026-04-26T07:38:14Z</time></trkpt><trkpt lat="40.628692208145964" lon="15.80253043591124"><ele>680.0</ele><time>2026-04-26T07:38:15Z</time></trkpt><trkpt lat="40.62876728704502" lon="15.802689615605832"><ele>680.0</ele><time>2026-04-26T07:38:16Z</time></trkpt><trkpt lat="40.628854913759646" lon="15.80287701234776"><ele>683.3333333333333</ele><time>2026-04-26T07:38:17Z</time></trkpt><trkpt lat="40.628948254445376" lon="15.803078561238012"><ele>686.6666666666666</ele><time>2026-04-26T07:38:18Z</time></trkpt><trkpt lat="40.62900713657467" lon="15.803280361424266"><ele>690.0</ele><time>2026-04-26T07:38:19Z</time></trkpt><trkpt lat="40.629057692958575" lon="15.803450304583956"><ele>689.75</ele><time>2026-04-26T07:38:20Z</time></trkpt><trkpt lat="40.62908051424684" lon="15.803606385313019"><ele>689.5</ele><time>2026-04-26T07:38:21Z</time></trkpt><trkpt lat="40.62908237254574" lon="15.8037783244525"><ele>689.25</ele><time>2026-04-26T07:38:22Z</time></trkpt><trkpt lat="40.629042975145815" lon="15.80394016713182"><ele>689.0</ele><time>2026-04-26T07:38:23Z</time></trkpt><trkpt lat="40.628983584121606" lon="15.804097486633626"><ele>689.0</ele><time>2026-04-26T07:38:24Z</time></trkpt><trkpt lat="40.62888773839676" lon="15.804249932760154"><ele>689.0</ele><time>2026-04-26T07:38:25Z</time></trkpt><trkpt lat="40.62877605390333" lon="15.804401742417985"><ele>689.0</ele><time>2026-04-26T07:38:26Z</time></trkpt><trkpt lat="40.62865360311797" lon="15.804579981466881"><ele>684.3333333333333</ele><time>2026-04-26T07:38:27Z</time></trkpt><trkpt lat="40.6285228776958" lon="15.804741348440977"><ele>679.6666666666666</ele><time>2026-04-26T07:38:28Z</time></trkpt><trkpt lat="40.62839359530703" lon="15.804923579435673"><ele>675.0</ele><time>2026-04-26T07:38:29Z</time></trkpt><trkpt lat="40.62826498387541" lon="15.805100384651576"><ele>673.3333333333334</ele><time>2026-04-26T07:38:30Z</time></trkpt><trkpt lat="40.6281371879058" lon="15.805285108467555"><ele>671.6666666666667</ele><time>2026-04-26T07:38:31Z</time></trkpt><trkpt lat="40.62801195112824" lon="15.805464171441775"><ele>670.0</ele><time>2026-04-26T07:38:32Z</time></trkpt><trkpt lat="40.62788249416085" lon="15.80564052123921"><ele>667.3333333333334</ele><time>2026-04-26T07:38:33Z</time></trkpt><trkpt lat="40.62774545166577" lon="15.805796561962238"><ele>664.6666666666666</ele><time>2026-04-26T07:38:34Z</time></trkpt><trkpt lat="40.62763124755011" lon="15.805951880994677"><ele>662.0</ele><time>2026-04-26T07:38:35Z</time></trkpt><trkpt lat="40.62751932844624" lon="15.806104092371422"><ele>662.0</ele><time>2026-04-26T07:38:36Z</time></trkpt><trkpt lat="40.62741074205056" lon="15.806253262017076"><ele>662.0</ele><time>2026-04-26T07:38:37Z</time></trkpt><trkpt lat="40.627301685479665" lon="15.80640308079196"><ele>662.0</ele><time>2026-04-26T07:38:38Z</time></trkpt><trkpt lat="40.627193986439835" lon="15.806549560397695"><ele>662.0</ele><time>2026-04-26T07:38:39Z</time></trkpt><trkpt lat="40.62708635581278" lon="15.806693862442074"><ele>662.0</ele><time>2026-04-26T07:38:40Z</time></trkpt><trkpt lat="40.626984750387344" lon="15.806846595355506"><ele>662.0</ele><time>2026-04-26T07:38:41Z</time></trkpt><trkpt lat="40.62687869851788" lon="15.806980960970547"><ele>663.0</ele><time>2026-04-26T07:38:42Z</time></trkpt><trkpt lat="40.6267827910548" lon="15.807119093604511"><ele>664.0</ele><time>2026-04-26T07:38:43Z</time></trkpt><trkpt lat="40.62668626888322" lon="15.807256436541131"><ele>665.0</ele><time>2026-04-26T07:38:44Z</time></trkpt><trkpt lat="40.6265841707475" lon="15.807372992475345"><ele>666.0</ele><time>2026-04-26T07:38:45Z</time></trkpt><trkpt lat="40.62647251769528" lon="15.807471108013594"><ele>666.0</ele><time>2026-04-26T07:38:46Z</time></trkpt><trkpt lat="40.62636312834405" lon="15.807587787693759"><ele>666.0</ele><time>2026-04-26T07:38:47Z</time></trkpt><trkpt lat="40.62622397438301" lon="15.807654520982128"><ele>666.0</ele><time>2026-04-26T07:38:48Z</time></trkpt><trkpt lat="40.62610466577983" lon="15.807725602454706"><ele>666.0</ele><time>2026-04-26T07:38:49Z</time></trkpt><trkpt lat="40.625980209812425" lon="15.807746022955678"><ele>666.5</ele><time>2026-04-26T07:38:50Z</time></trkpt><trkpt lat="40.625865547984084" lon="15.807741064214612"><ele>667.0</ele><time>2026-04-26T07:38:51Z</time></trkpt><trkpt lat="40.62574905904587" lon="15.807709606542339"><ele>667.5</ele><time>2026-04-26T07:38:52Z</time></trkpt><trkpt lat="40.62563221042037" lon="15.807655984819469"><ele>668.0</ele><time>2026-04-26T07:38:53Z</time></trkpt><trkpt lat="40.62552438191663" lon="15.807572901852748"><ele>668.0</ele><time>2026-04-26T07:38:54Z</time></trkpt><trkpt lat="40.625418754354" lon="15.807485338159182"><ele>668.0</ele><time>2026-04-26T07:38:55Z</time></trkpt><trkpt lat="40.625337411861494" lon="15.807365860721136"><ele>668.0</ele><time>2026-04-26T07:38:56Z</time></trkpt><trkpt lat="40.625246565817676" lon="15.807260171314942"><ele>668.0</ele><time>2026-04-26T07:38:57Z</time></trkpt><trkpt lat="40.625173502490846" lon="15.80715313786307"><ele>668.5999999999999</ele><time>2026-04-26T07:38:58Z</time></trkpt><trkpt lat="40.62510323542254" lon="15.807065171783833"><ele>669.1999999999999</ele><time>2026-04-26T07:38:59Z</time></trkpt><trkpt lat="40.625058060199514" lon="15.806960074963675"><ele>669.8</ele><time>2026-04-26T07:39:00Z</time></trkpt><trkpt lat="40.62501354991797" lon="15.806848177659408"><ele>670.4</ele><time>2026-04-26T07:39:01Z</time></trkpt><trkpt lat="40.624959654623794" lon="15.806720831567349"><ele>671.0</ele><time>2026-04-26T07:39:02Z</time></trkpt><trkpt lat="40.62489243378694" lon="15.806561933932672"><ele>671.0</ele><time>2026-04-26T07:39:03Z</time></trkpt><trkpt lat="40.62482866985521" lon="15.806396555519527"><ele>671.0</ele><time>2026-04-26T07:39:04Z</time></trkpt><trkpt lat="40.62475818799957" lon="15.806198857220474"><ele>671.0</ele><time>2026-04-26T07:39:05Z</time></trkpt><trkpt lat="40.62468491598575" lon="15.805979254332508"><ele>669.6666666666666</ele><time>2026-04-26T07:39:06Z</time></trkpt><trkpt lat="40.62460912768143" lon="15.805732508111008"><ele>668.3333333333334</ele><time>2026-04-26T07:39:07Z</time></trkpt><trkpt lat="40.62452918852733" lon="15.805490002463506"><ele>667.0</ele><time>2026-04-26T07:39:08Z</time></trkpt><trkpt lat="40.62444521963992" lon="15.805235194284707"><ele>672.5</ele><time>2026-04-26T07:39:09Z</time></trkpt><trkpt lat="40.62435394920136" lon="15.8049600982378"><ele>678.0</ele><time>2026-04-26T07:39:10Z</time></trkpt><trkpt lat="40.624293644966535" lon="15.804660098979749"><ele>678.0</ele><time>2026-04-26T07:39:11Z</time></trkpt><trkpt lat="40.62424280232437" lon="15.804363303597153"><ele>678.0</ele><time>2026-04-26T07:39:12Z</time></trkpt><trkpt lat="40.62419419232254" lon="15.8040628929899"><ele>678.3333333333334</ele><time>2026-04-26T07:39:13Z</time></trkpt><trkpt lat="40.6241523338461" lon="15.803775990857313"><ele>678.6666666666667</ele><time>2026-04-26T07:39:14Z</time></trkpt><trkpt lat="40.62410990013912" lon="15.8035177873794"><ele>679.0</ele><time>2026-04-26T07:39:15Z</time></trkpt><trkpt lat="40.62407500167743" lon="15.803266229722354"><ele>678.3333333333334</ele><time>2026-04-26T07:39:16Z</time></trkpt><trkpt lat="40.62404710350766" lon="15.802998768110925"><ele>677.6666666666666</ele><time>2026-04-26T07:39:17Z</time></trkpt><trkpt lat="40.624023709814686" lon="15.80272174108747"><ele>677.0</ele><time>2026-04-26T07:39:18Z</time></trkpt><trkpt lat="40.62399004294871" lon="15.802430019075485"><ele>677.0</ele><time>2026-04-26T07:39:19Z</time></trkpt><trkpt lat="40.62395312503268" lon="15.802136925704493"><ele>677.0</ele><time>2026-04-26T07:39:20Z</time></trkpt><trkpt lat="40.62391553038877" lon="15.801859738168352"><ele>677.0</ele><time>2026-04-26T07:39:21Z</time></trkpt><trkpt lat="40.62388265119449" lon="15.801587248300379"><ele>675.3333333333333</ele><time>2026-04-26T07:39:22Z</time></trkpt><trkpt lat="40.62385352693477" lon="15.801315341491675"><ele>673.6666666666666</ele><time>2026-04-26T07:39:23Z</time></trkpt><trkpt lat="40.623821394595325" lon="15.801043013851492"><ele>672.0</ele><time>2026-04-26T07:39:24Z</time></trkpt><trkpt lat="40.62379283546786" lon="15.800766676020315"><ele>672.0</ele><time>2026-04-26T07:39:25Z</time></trkpt><trkpt lat="40.62376050470278" lon="15.800495285907434"><ele>672.0</ele><time>2026-04-26T07:39:26Z</time></trkpt><trkpt lat="40.6237264240576" lon="15.800225281441831"><ele>672.0</ele><time>2026-04-26T07:39:27Z</time></trkpt><trkpt lat="40.62368776434757" lon="15.799950545721293"><ele>674.6666666666666</ele><time>2026-04-26T07:39:28Z</time></trkpt><trkpt lat="40.62364225069542" lon="15.799678125710226"><ele>677.3333333333333</ele><time>2026-04-26T07:39:29Z</time></trkpt><trkpt lat="40.623596014696794" lon="15.799411113482792"><ele>680.0</ele><time>2026-04-26T07:39:30Z</time></trkpt><trkpt lat="40.62353850376728" lon="15.799147743864639"><ele>680.0</ele><time>2026-04-26T07:39:31Z</time></trkpt><trkpt lat="40.62347736908154" lon="15.798889077320947"><ele>680.0</ele><time>2026-04-26T07:39:32Z</time></trkpt><trkpt lat="40.62341400372205" lon="15.798626947388327"><ele>680.0</ele><time>2026-04-26T07:39:33Z</time></trkpt><trkpt lat="40.62334344789547" lon="15.798358139044607"><ele>678.5</ele><time>2026-04-26T07:39:34Z</time></trkpt><trkpt lat="40.62326799883183" lon="15.79807881103129"><ele>677.0</ele><time>2026-04-26T07:39:35Z</time></trkpt><trkpt lat="40.62319491225775" lon="15.797792078083607"><ele>677.0</ele><time>2026-04-26T07:39:36Z</time></trkpt><trkpt lat="40.62311944362029" lon="15.797497978623948"><ele>677.0</ele><time>2026-04-26T07:39:37Z</time></trkpt><trkpt lat="40.62304531446841" lon="15.79719630056674"><ele>677.0</ele><time>2026-04-26T07:39:38Z</time></trkpt><trkpt lat="40.622976505134254" lon="15.796893792473758"><ele>677.0</ele><time>2026-04-26T07:39:39Z</time></trkpt><trkpt lat="40.62291607964824" lon="15.79658311202138"><ele>677.0</ele><time>2026-04-26T07:39:40Z</time></trkpt><trkpt lat="40.62287034996171" lon="15.796274586052405"><ele>677.0</ele><time>2026-04-26T07:39:41Z</time></trkpt><trkpt lat="40.62283784623547" lon="15.79596778359423"><ele>677.0</ele><time>2026-04-26T07:39:42Z</time></trkpt><trkpt lat="40.6228044802277" lon="15.795672947651559"><ele>677.0</ele><time>2026-04-26T07:39:43Z</time></trkpt><trkpt lat="40.622772989368926" lon="15.795377357309574"><ele>677.3333333333333</ele><time>2026-04-26T07:39:44Z</time></trkpt><trkpt lat="40.62275208236623" lon="15.795085191814719"><ele>677.6666666666666</ele><time>2026-04-26T07:39:45Z</time></trkpt><trkpt lat="40.62273812522392" lon="15.794797668410524"><ele>678.0</ele><time>2026-04-26T07:39:46Z</time></trkpt><trkpt lat="40.62273364365555" lon="15.794510127495075"><ele>677.3333333333334</ele><time>2026-04-26T07:39:47Z</time></trkpt><trkpt lat="40.62273271130994" lon="15.794221752487832"><ele>676.6666666666667</ele><time>2026-04-26T07:39:48Z</time></trkpt><trkpt lat="40.62273307074375" lon="15.793929594129363"><ele>676.0</ele><time>2026-04-26T07:39:49Z</time></trkpt><trkpt lat="40.62273349020793" lon="15.793635678680479"><ele>677.5</ele><time>2026-04-26T07:39:50Z</time></trkpt><trkpt lat="40.62273512385695" lon="15.793339051081809"><ele>679.0</ele><time>2026-04-26T07:39:51Z</time></trkpt><trkpt lat="40.622735041925914" lon="15.793040427131658"><ele>679.0</ele><time>2026-04-26T07:39:52Z</time></trkpt><trkpt lat="40.62273368564303" lon="15.79274145786636"><ele>679.0</ele><time>2026-04-26T07:39:53Z</time></trkpt><trkpt lat="40.62273369449977" lon="15.792444281401544"><ele>681.5</ele><time>2026-04-26T07:39:54Z</time></trkpt><trkpt lat="40.62273554703735" lon="15.792144043516872"><ele>684.0</ele><time>2026-04-26T07:39:55Z</time></trkpt><trkpt lat="40.622734424666604" lon="15.791839800405304"><ele>687.0</ele><time>2026-04-26T07:39:56Z</time></trkpt><trkpt lat="40.62273227979718" lon="15.791528165162289"><ele>690.0</ele><time>2026-04-26T07:39:57Z</time></trkpt><trkpt lat="40.62273327499057" lon="15.79120670066069"><ele>690.0</ele><time>2026-04-26T07:39:58Z</time></trkpt><trkpt lat="40.622734746848664" lon="15.790884360659199"><ele>690.0</ele><time>2026-04-26T07:39:59Z</time></trkpt><trkpt lat="40.622734528102335" lon="15.790559279666876"><ele>690.0</ele><time>2026-04-26T07:40:00Z</time></trkpt><trkpt lat="40.622739020795805" lon="15.790238427794716"><ele>690.0</ele><time>2026-04-26T07:40:01Z</time></trkpt><trkpt lat="40.62274435337378" lon="15.78991840089777"><ele>691.5</ele><time>2026-04-26T07:40:02Z</time></trkpt><trkpt lat="40.62274550298383" lon="15.78959726484699"><ele>693.0</ele><time>2026-04-26T07:40:03Z</time></trkpt><trkpt lat="40.62275286402609" lon="15.789282285739779"><ele>695.5</ele><time>2026-04-26T07:40:04Z</time></trkpt><trkpt lat="40.622771820792806" lon="15.788967839617685"><ele>698.0</ele><time>2026-04-26T07:40:05Z</time></trkpt><trkpt lat="40.62280169188498" lon="15.788656200898322"><ele>688.0</ele><time>2026-04-26T07:40:06Z</time></trkpt><trkpt lat="40.62284572851139" lon="15.788346452634682"><ele>678.0</ele><time>2026-04-26T07:40:07Z</time></trkpt><trkpt lat="40.62289927822525" lon="15.788037057877727"><ele>678.0</ele><time>2026-04-26T07:40:08Z</time></trkpt><trkpt lat="40.62296397439646" lon="15.787730642751605"><ele>678.0</ele><time>2026-04-26T07:40:09Z</time></trkpt><trkpt lat="40.62304001824261" lon="15.787427714473514"><ele>678.5</ele><time>2026-04-26T07:40:10Z</time></trkpt><trkpt lat="40.62311418433543" lon="15.78713687392624"><ele>679.0</ele><time>2026-04-26T07:40:11Z</time></trkpt><trkpt lat="40.62319302884408" lon="15.786840878448166"><ele>682.0</ele><time>2026-04-26T07:40:12Z</time></trkpt><trkpt lat="40.62327104489793" lon="15.786538112646333"><ele>685.0</ele><time>2026-04-26T07:40:13Z</time></trkpt><trkpt lat="40.62335091531907" lon="15.786227237631456"><ele>684.0</ele><time>2026-04-26T07:40:14Z</time></trkpt><trkpt lat="40.62343916470257" lon="15.78592007901022"><ele>683.0</ele><time>2026-04-26T07:40:15Z</time></trkpt><trkpt lat="40.62352789734267" lon="15.7856017744967"><ele>683.0</ele><time>2026-04-26T07:40:16Z</time></trkpt><trkpt lat="40.62362888133524" lon="15.785284627457129"><ele>683.0</ele><time>2026-04-26T07:40:17Z</time></trkpt><trkpt lat="40.6237263078365" lon="15.78495744120729"><ele>682.0</ele><time>2026-04-26T07:40:18Z</time></trkpt><trkpt lat="40.62382138407677" lon="15.78462708528834"><ele>681.0</ele><time>2026-04-26T07:40:19Z</time></trkpt><trkpt lat="40.623899132721355" lon="15.784289979327705"><ele>683.5</ele><time>2026-04-26T07:40:20Z</time></trkpt><trkpt lat="40.62396620088663" lon="15.783954544510685"><ele>686.0</ele><time>2026-04-26T07:40:21Z</time></trkpt><trkpt lat="40.62402187602125" lon="15.783616393073611"><ele>689.0</ele><time>2026-04-26T07:40:22Z</time></trkpt><trkpt lat="40.62407354037236" lon="15.78328786763451"><ele>692.0</ele><time>2026-04-26T07:40:23Z</time></trkpt><trkpt lat="40.624114006433715" lon="15.782961630634029"><ele>692.5</ele><time>2026-04-26T07:40:24Z</time></trkpt><trkpt lat="40.62414420080539" lon="15.78263498875454"><ele>693.0</ele><time>2026-04-26T07:40:25Z</time></trkpt><trkpt lat="40.62416913389385" lon="15.782316259304334"><ele>693.0</ele><time>2026-04-26T07:40:26Z</time></trkpt><trkpt lat="40.62419719703544" lon="15.782003173927183"><ele>693.0</ele><time>2026-04-26T07:40:27Z</time></trkpt><trkpt lat="40.624230822609405" lon="15.78169804554711"><ele>691.0</ele><time>2026-04-26T07:40:28Z</time></trkpt><trkpt lat="40.62426285716902" lon="15.78139828251915"><ele>689.0</ele><time>2026-04-26T07:40:29Z</time></trkpt><trkpt lat="40.62429513736113" lon="15.781102646563108"><ele>687.5</ele><time>2026-04-26T07:40:30Z</time></trkpt><trkpt lat="40.62432158880163" lon="15.78080577995448"><ele>686.0</ele><time>2026-04-26T07:40:31Z</time></trkpt><trkpt lat="40.62434880297152" lon="15.780505318107869"><ele>686.0</ele><time>2026-04-26T07:40:32Z</time></trkpt><trkpt lat="40.62437606747814" lon="15.780200467360055"><ele>686.0</ele><time>2026-04-26T07:40:33Z</time></trkpt><trkpt lat="40.62440471002738" lon="15.779890157209527"><ele>685.0</ele><time>2026-04-26T07:40:34Z</time></trkpt><trkpt lat="40.624433916886076" lon="15.779577947639469"><ele>684.0</ele><time>2026-04-26T07:40:35Z</time></trkpt><trkpt lat="40.6244640778682" lon="15.779260767543397"><ele>689.0</ele><time>2026-04-26T07:40:36Z</time></trkpt><trkpt lat="40.62449514005748" lon="15.778939505852673"><ele>694.0</ele><time>2026-04-26T07:40:37Z</time></trkpt><trkpt lat="40.62452857011643" lon="15.778615211901586"><ele>696.5</ele><time>2026-04-26T07:40:38Z</time></trkpt><trkpt lat="40.62456192064046" lon="15.778289700810925"><ele>699.0</ele><time>2026-04-26T07:40:39Z</time></trkpt><trkpt lat="40.62459264273683" lon="15.77796195511883"><ele>699.0</ele><time>2026-04-26T07:40:40Z</time></trkpt><trkpt lat="40.624627630884824" lon="15.777630946221798"><ele>699.0</ele><time>2026-04-26T07:40:41Z</time></trkpt><trkpt lat="40.62467645842942" lon="15.777297559081147"><ele>699.0</ele><time>2026-04-26T07:40:42Z</time></trkpt><trkpt lat="40.62474139899384" lon="15.776967141660178"><ele>699.0</ele><time>2026-04-26T07:40:43Z</time></trkpt><trkpt lat="40.62482055292687" lon="15.776639696159336"><ele>695.5</ele><time>2026-04-26T07:40:44Z</time></trkpt><trkpt lat="40.62491590281256" lon="15.77631650319779"><ele>692.0</ele><time>2026-04-26T07:40:45Z</time></trkpt><trkpt lat="40.62502473856373" lon="15.775998490730705"><ele>691.0</ele><time>2026-04-26T07:40:46Z</time></trkpt><trkpt lat="40.625139591601915" lon="15.775680663135384"><ele>690.0</ele><time>2026-04-26T07:40:47Z</time></trkpt><trkpt lat="40.625253298125216" lon="15.775359287071792"><ele>698.5</ele><time>2026-04-26T07:40:48Z</time></trkpt><trkpt lat="40.625365348760525" lon="15.775040464273598"><ele>707.0</ele><time>2026-04-26T07:40:49Z</time></trkpt><trkpt lat="40.62547200473045" lon="15.774726030659643"><ele>707.0</ele><time>2026-04-26T07:40:50Z</time></trkpt><trkpt lat="40.62557370217336" lon="15.77441487933256"><ele>707.0</ele><time>2026-04-26T07:40:51Z</time></trkpt><trkpt lat="40.62567060081522" lon="15.77410485762334"><ele>701.5</ele><time>2026-04-26T07:40:52Z</time></trkpt><trkpt lat="40.62575030208979" lon="15.773783789697443"><ele>696.0</ele><time>2026-04-26T07:40:53Z</time></trkpt><trkpt lat="40.62582433409022" lon="15.773465410352681"><ele>694.5</ele><time>2026-04-26T07:40:54Z</time></trkpt><trkpt lat="40.62588213517226" lon="15.773139469283063"><ele>693.0</ele><time>2026-04-26T07:40:55Z</time></trkpt><trkpt lat="40.62592394286863" lon="15.77281065573118"><ele>692.5</ele><time>2026-04-26T07:40:56Z</time></trkpt><trkpt lat="40.62595164677578" lon="15.772480226648911"><ele>692.0</ele><time>2026-04-26T07:40:57Z</time></trkpt><trkpt lat="40.62595972423245" lon="15.77214352892027"><ele>692.5</ele><time>2026-04-26T07:40:58Z</time></trkpt><trkpt lat="40.62595589834311" lon="15.77180727978823"><ele>693.0</ele><time>2026-04-26T07:40:59Z</time></trkpt><trkpt lat="40.62593486777851" lon="15.771467187068465"><ele>693.0</ele><time>2026-04-26T07:41:00Z</time></trkpt><trkpt lat="40.62590763895123" lon="15.771126519615356"><ele>693.0</ele><time>2026-04-26T07:41:01Z</time></trkpt><trkpt lat="40.62586601340996" lon="15.770789528022004"><ele>693.0</ele><time>2026-04-26T07:41:02Z</time></trkpt><trkpt lat="40.62580821714469" lon="15.770452089793768"><ele>693.0</ele><time>2026-04-26T07:41:03Z</time></trkpt><trkpt lat="40.625731569339706" lon="15.770120804157953"><ele>694.0</ele><time>2026-04-26T07:41:04Z</time></trkpt><trkpt lat="40.62563784268155" lon="15.769794806334774"><ele>695.0</ele><time>2026-04-26T07:41:05Z</time></trkpt><trkpt lat="40.62552714149048" lon="15.769478847624532"><ele>693.5</ele><time>2026-04-26T07:41:06Z</time></trkpt><trkpt lat="40.625410127142864" lon="15.76916437509781"><ele>692.0</ele><time>2026-04-26T07:41:07Z</time></trkpt><trkpt lat="40.62529186685856" lon="15.768850055738213"><ele>692.0</ele><time>2026-04-26T07:41:08Z</time></trkpt><trkpt lat="40.625177500218165" lon="15.768541283192047"><ele>692.0</ele><time>2026-04-26T07:41:09Z</time></trkpt><trkpt lat="40.62506570674217" lon="15.768233978608423"><ele>694.0</ele><time>2026-04-26T07:41:10Z</time></trkpt><trkpt lat="40.62495188023047" lon="15.76792693246855"><ele>696.0</ele><time>2026-04-26T07:41:11Z</time></trkpt><trkpt lat="40.62483663004695" lon="15.767620644999047"><ele>701.0</ele><time>2026-04-26T07:41:12Z</time></trkpt><trkpt lat="40.62472503744553" lon="15.767320585864498"><ele>706.0</ele><time>2026-04-26T07:41:13Z</time></trkpt><trkpt lat="40.62460975890821" lon="15.767022295865331"><ele>702.5</ele><time>2026-04-26T07:41:14Z</time></trkpt><trkpt lat="40.62449606500449" lon="15.766725838143145"><ele>699.0</ele><time>2026-04-26T07:41:15Z</time></trkpt><trkpt lat="40.62438368546509" lon="15.766429201527334"><ele>699.0</ele><time>2026-04-26T07:41:16Z</time></trkpt><trkpt lat="40.62427015515516" lon="15.766127152786801"><ele>699.0</ele><time>2026-04-26T07:41:17Z</time></trkpt><trkpt lat="40.62415639984449" lon="15.765821538848828"><ele>701.0</ele><time>2026-04-26T07:41:18Z</time></trkpt><trkpt lat="40.624041790100065" lon="15.765516605111282"><ele>703.0</ele><time>2026-04-26T07:41:19Z</time></trkpt><trkpt lat="40.62392597649119" lon="15.765207320902338"><ele>706.5</ele><time>2026-04-26T07:41:20Z</time></trkpt><trkpt lat="40.62380938788006" lon="15.764899828617015"><ele>710.0</ele><time>2026-04-26T07:41:21Z</time></trkpt><trkpt lat="40.62369075496947" lon="15.764597387805996"><ele>705.5</ele><time>2026-04-26T07:41:22Z</time></trkpt><trkpt lat="40.623574730896685" lon="15.764298735454801"><ele>701.0</ele><time>2026-04-26T07:41:23Z</time></trkpt><trkpt lat="40.62346591019086" lon="15.763999013594516"><ele>701.0</ele><time>2026-04-26T07:41:24Z</time></trkpt><trkpt lat="40.623357137988435" lon="15.763707437037546"><ele>701.0</ele><time>2026-04-26T07:41:25Z</time></trkpt><trkpt lat="40.62324828433546" lon="15.763413940135578"><ele>703.0</ele><time>2026-04-26T07:41:26Z</time></trkpt><trkpt lat="40.623136547820955" lon="15.763125686438341"><ele>705.0</ele><time>2026-04-26T07:41:27Z</time></trkpt><trkpt lat="40.62302751444363" lon="15.762836466835749"><ele>709.5</ele><time>2026-04-26T07:41:28Z</time></trkpt><trkpt lat="40.62292203300937" lon="15.76254362854942"><ele>714.0</ele><time>2026-04-26T07:41:29Z</time></trkpt><trkpt lat="40.62282785870465" lon="15.762242341491866"><ele>708.5</ele><time>2026-04-26T07:41:30Z</time></trkpt><trkpt lat="40.622743961186856" lon="15.761940808017087"><ele>703.0</ele><time>2026-04-26T07:41:31Z</time></trkpt><trkpt lat="40.62266865165079" lon="15.761624812746366"><ele>703.0</ele><time>2026-04-26T07:41:32Z</time></trkpt><trkpt lat="40.62259763231462" lon="15.761302437784016"><ele>703.0</ele><time>2026-04-26T07:41:33Z</time></trkpt><trkpt lat="40.62252405756582" lon="15.760977703151696"><ele>704.0</ele><time>2026-04-26T07:41:34Z</time></trkpt><trkpt lat="40.62244927986049" lon="15.760649642812758"><ele>705.0</ele><time>2026-04-26T07:41:35Z</time></trkpt><trkpt lat="40.6223701210915" lon="15.760322155057464"><ele>709.5</ele><time>2026-04-26T07:41:36Z</time></trkpt><trkpt lat="40.62229284972455" lon="15.759987936002023"><ele>714.0</ele><time>2026-04-26T07:41:37Z</time></trkpt><trkpt lat="40.62221397775079" lon="15.75965377374704"><ele>718.0</ele><time>2026-04-26T07:41:38Z</time></trkpt><trkpt lat="40.6221314654491" lon="15.759318523128792"><ele>722.0</ele><time>2026-04-26T07:41:39Z</time></trkpt><trkpt lat="40.622039739249345" lon="15.758984535893344"><ele>718.0</ele><time>2026-04-26T07:41:40Z</time></trkpt><trkpt lat="40.62193449748864" lon="15.758655498749121"><ele>714.0</ele><time>2026-04-26T07:41:41Z</time></trkpt><trkpt lat="40.62181230909843" lon="15.758335331667835"><ele>714.0</ele><time>2026-04-26T07:41:42Z</time></trkpt><trkpt lat="40.62167510882528" lon="15.758023998047236"><ele>714.0</ele><time>2026-04-26T07:41:43Z</time></trkpt><trkpt lat="40.62152231143703" lon="15.757727093300897"><ele>717.5</ele><time>2026-04-26T07:41:44Z</time></trkpt><trkpt lat="40.6213571112422" lon="15.757441083542114"><ele>721.0</ele><time>2026-04-26T07:41:45Z</time></trkpt><trkpt lat="40.62117907544852" lon="15.757165294166263"><ele>719.0</ele><time>2026-04-26T07:41:46Z</time></trkpt><trkpt lat="40.6209890897755" lon="15.75690426659407"><ele>717.0</ele><time>2026-04-26T07:41:47Z</time></trkpt><trkpt lat="40.6207906620755" lon="15.756652861548492"><ele>717.0</ele><time>2026-04-26T07:41:48Z</time></trkpt><trkpt lat="40.62059154764837" lon="15.756402390940718"><ele>717.0</ele><time>2026-04-26T07:41:49Z</time></trkpt><trkpt lat="40.62039320567318" lon="15.75614646604056"><ele>717.5</ele><time>2026-04-26T07:41:50Z</time></trkpt><trkpt lat="40.62019572325394" lon="15.755887127805684"><ele>718.0</ele><time>2026-04-26T07:41:51Z</time></trkpt><trkpt lat="40.619999545971346" lon="15.755626451685988"><ele>718.0</ele><time>2026-04-26T07:41:52Z</time></trkpt><trkpt lat="40.6197991313746" lon="15.75536937733614"><ele>718.0</ele><time>2026-04-26T07:41:53Z</time></trkpt><trkpt lat="40.619594191839106" lon="15.75511578642693"><ele>719.0</ele><time>2026-04-26T07:41:54Z</time></trkpt><trkpt lat="40.61939572303463" lon="15.754852253637589"><ele>720.0</ele><time>2026-04-26T07:41:55Z</time></trkpt><trkpt lat="40.619200651284004" lon="15.754590279626795"><ele>723.0</ele><time>2026-04-26T07:41:56Z</time></trkpt><trkpt lat="40.61901300759358" lon="15.754325620018948"><ele>726.0</ele><time>2026-04-26T07:41:57Z</time></trkpt><trkpt lat="40.618838116485854" lon="15.754049060253116"><ele>726.0</ele><time>2026-04-26T07:41:58Z</time></trkpt><trkpt lat="40.61867633742295" lon="15.75375959781154"><ele>726.0</ele><time>2026-04-26T07:41:59Z</time></trkpt><trkpt lat="40.61852789971154" lon="15.753464882338534"><ele>726.5</ele><time>2026-04-26T07:42:00Z</time></trkpt><trkpt lat="40.61839187693239" lon="15.753163505607814"><ele>727.0</ele><time>2026-04-26T07:42:01Z</time></trkpt><trkpt lat="40.6182646899428" lon="15.752858240236048"><ele>728.5</ele><time>2026-04-26T07:42:02Z</time></trkpt><trkpt lat="40.61814479253796" lon="15.752549751586079"><ele>730.0</ele><time>2026-04-26T07:42:03Z</time></trkpt><trkpt lat="40.618027076999454" lon="15.752239405362634"><ele>730.0</ele><time>2026-04-26T07:42:04Z</time></trkpt><trkpt lat="40.617908245634425" lon="15.751932142222032"><ele>730.0</ele><time>2026-04-26T07:42:05Z</time></trkpt><trkpt lat="40.61778804746724" lon="15.751627268457108"><ele>730.0</ele><time>2026-04-26T07:42:06Z</time></trkpt><trkpt lat="40.617665840051814" lon="15.751326099766349"><ele>730.0</ele><time>2026-04-26T07:42:07Z</time></trkpt><trkpt lat="40.61754427345087" lon="15.751024690692903"><ele>730.0</ele><time>2026-04-26T07:42:08Z</time></trkpt><trkpt lat="40.617421972834315" lon="15.750725185544017"><ele>730.0</ele><time>2026-04-26T07:42:09Z</time></trkpt><trkpt lat="40.6172892660581" lon="15.75043444366005"><ele>732.0</ele><time>2026-04-26T07:42:10Z</time></trkpt><trkpt lat="40.61714474465559" lon="15.750154963590559"><ele>734.0</ele><time>2026-04-26T07:42:11Z</time></trkpt><trkpt lat="40.61698887010943" lon="15.749888636056589"><ele>733.5</ele><time>2026-04-26T07:42:12Z</time></trkpt><trkpt lat="40.61682046266946" lon="15.749629404694293"><ele>733.0</ele><time>2026-04-26T07:42:13Z</time></trkpt><trkpt lat="40.61663762684562" lon="15.749387488387015"><ele>734.0</ele><time>2026-04-26T07:42:14Z</time></trkpt><trkpt lat="40.61644305792171" lon="15.749156852561365"><ele>735.0</ele><time>2026-04-26T07:42:15Z</time></trkpt><trkpt lat="40.61623794296011" lon="15.748939136689977"><ele>737.0</ele><time>2026-04-26T07:42:16Z</time></trkpt><trkpt lat="40.61602773730986" lon="15.748727871476408"><ele>739.0</ele><time>2026-04-26T07:42:17Z</time></trkpt><trkpt lat="40.615818742264935" lon="15.748512331241196"><ele>739.0</ele><time>2026-04-26T07:42:18Z</time></trkpt><trkpt lat="40.61561476898534" lon="15.748285989013745"><ele>739.0</ele><time>2026-04-26T07:42:19Z</time></trkpt><trkpt lat="40.61541469664207" lon="15.748056149598913"><ele>738.5</ele><time>2026-04-26T07:42:20Z</time></trkpt><trkpt lat="40.615222313219114" lon="15.74781687595755"><ele>738.0</ele><time>2026-04-26T07:42:21Z</time></trkpt><trkpt lat="40.61504779402867" lon="15.74755405825653"><ele>738.0</ele><time>2026-04-26T07:42:22Z</time></trkpt><trkpt lat="40.61487974721997" lon="15.747286603042305"><ele>738.0</ele><time>2026-04-26T07:42:23Z</time></trkpt><trkpt lat="40.61472490946392" lon="15.747001399001165"><ele>738.5</ele><time>2026-04-26T07:42:24Z</time></trkpt><trkpt lat="40.61458029793983" lon="15.746706509273245"><ele>739.0</ele><time>2026-04-26T07:42:25Z</time></trkpt><trkpt lat="40.61444602399531" lon="15.746406253410388"><ele>737.0</ele><time>2026-04-26T07:42:26Z</time></trkpt><trkpt lat="40.614302649655116" lon="15.746113367276994"><ele>735.0</ele><time>2026-04-26T07:42:27Z</time></trkpt><trkpt lat="40.614156379053874" lon="15.745815501923037"><ele>739.0</ele><time>2026-04-26T07:42:28Z</time></trkpt><trkpt lat="40.614007435295946" lon="15.745519873952043"><ele>743.0</ele><time>2026-04-26T07:42:29Z</time></trkpt><trkpt lat="40.61386933625125" lon="15.74521685605763"><ele>745.0</ele><time>2026-04-26T07:42:30Z</time></trkpt><trkpt lat="40.61373359549586" lon="15.744909773731445"><ele>747.0</ele><time>2026-04-26T07:42:31Z</time></trkpt><trkpt lat="40.61360064861879" lon="15.744601180679188"><ele>752.5</ele><time>2026-04-26T07:42:32Z</time></trkpt><trkpt lat="40.61347504603693" lon="15.744291883792204"><ele>758.0</ele><time>2026-04-26T07:42:33Z</time></trkpt><trkpt lat="40.61335468498147" lon="15.743982933744917"><ele>758.0</ele><time>2026-04-26T07:42:34Z</time></trkpt><trkpt lat="40.61324629508367" lon="15.743678996261636"><ele>758.0</ele><time>2026-04-26T07:42:35Z</time></trkpt><trkpt lat="40.613153844056335" lon="15.743365723788907"><ele>760.5</ele><time>2026-04-26T07:42:36Z</time></trkpt><trkpt lat="40.61307487028878" lon="15.743047760799477"><ele>763.0</ele><time>2026-04-26T07:42:37Z</time></trkpt><trkpt lat="40.61300854004304" lon="15.74272666596111"><ele>763.5</ele><time>2026-04-26T07:42:38Z</time></trkpt><trkpt lat="40.61295359088665" lon="15.742400576188452"><ele>764.0</ele><time>2026-04-26T07:42:39Z</time></trkpt><trkpt lat="40.612905112437815" lon="15.742075534895088"><ele>765.5</ele><time>2026-04-26T07:42:40Z</time></trkpt><trkpt lat="40.612862633989415" lon="15.74175073947939"><ele>767.0</ele><time>2026-04-26T07:42:41Z</time></trkpt><trkpt lat="40.61281659915355" lon="15.741421724436167"><ele>762.5</ele><time>2026-04-26T07:42:42Z</time></trkpt><trkpt lat="40.61276351715856" lon="15.741092545501843"><ele>758.0</ele><time>2026-04-26T07:42:43Z</time></trkpt><trkpt lat="40.61270400723417" lon="15.740763611480313"><ele>758.0</ele><time>2026-04-26T07:42:44Z</time></trkpt><trkpt lat="40.612636434246085" lon="15.740438638652007"><ele>758.0</ele><time>2026-04-26T07:42:45Z</time></trkpt><trkpt lat="40.612558846286234" lon="15.740112795655328"><ele>758.5</ele><time>2026-04-26T07:42:46Z</time></trkpt><trkpt lat="40.61247187836107" lon="15.739790679872625"><ele>759.0</ele><time>2026-04-26T07:42:47Z</time></trkpt><trkpt lat="40.61237839562804" lon="15.739466004526653"><ele>759.5</ele><time>2026-04-26T07:42:48Z</time></trkpt><trkpt lat="40.61228906710491" lon="15.739138756760154"><ele>760.0</ele><time>2026-04-26T07:42:49Z</time></trkpt><trkpt lat="40.6122015686732" lon="15.738808420036362"><ele>761.0</ele><time>2026-04-26T07:42:50Z</time></trkpt><trkpt lat="40.612120031681265" lon="15.7384708450112"><ele>762.0</ele><time>2026-04-26T07:42:51Z</time></trkpt><trkpt lat="40.61204349696662" lon="15.738131890712847"><ele>764.0</ele><time>2026-04-26T07:42:52Z</time></trkpt><trkpt lat="40.611969590011704" lon="15.737792041161786"><ele>766.0</ele><time>2026-04-26T07:42:53Z</time></trkpt><trkpt lat="40.61189772719859" lon="15.737448174923047"><ele>766.0</ele><time>2026-04-26T07:42:54Z</time></trkpt><trkpt lat="40.61182594992618" lon="15.73710321716432"><ele>766.0</ele><time>2026-04-26T07:42:55Z</time></trkpt><trkpt lat="40.611752094396" lon="15.736757875146257"><ele>768.5</ele><time>2026-04-26T07:42:56Z</time></trkpt><trkpt lat="40.61168310787653" lon="15.736411487876286"><ele>771.0</ele><time>2026-04-26T07:42:57Z</time></trkpt><trkpt lat="40.61161409300797" lon="15.736066913111456"><ele>772.0</ele><time>2026-04-26T07:42:58Z</time></trkpt><trkpt lat="40.61154783571219" lon="15.735726694156686"><ele>773.0</ele><time>2026-04-26T07:42:59Z</time></trkpt><trkpt lat="40.61147857902794" lon="15.735390071536708"><ele>774.0</ele><time>2026-04-26T07:43:00Z</time></trkpt><trkpt lat="40.61140487055704" lon="15.7350511004582"><ele>775.0</ele><time>2026-04-26T07:43:01Z</time></trkpt><trkpt lat="40.611334247668495" lon="15.734711379254763"><ele>776.5</ele><time>2026-04-26T07:43:02Z</time></trkpt><trkpt lat="40.61126205367577" lon="15.73436790204951"><ele>778.0</ele><time>2026-04-26T07:43:03Z</time></trkpt><trkpt lat="40.6111926556893" lon="15.734026272658175"><ele>779.0</ele><time>2026-04-26T07:43:04Z</time></trkpt><trkpt lat="40.6111208864624" lon="15.733681965867202"><ele>780.0</ele><time>2026-04-26T07:43:05Z</time></trkpt><trkpt lat="40.61104653624673" lon="15.733338159163837"><ele>780.0</ele><time>2026-04-26T07:43:06Z</time></trkpt><trkpt lat="40.610976368877644" lon="15.732996910665001"><ele>780.0</ele><time>2026-04-26T07:43:07Z</time></trkpt><trkpt lat="40.61090771576592" lon="15.732652542784134"><ele>780.5</ele><time>2026-04-26T07:43:08Z</time></trkpt><trkpt lat="40.61083401258848" lon="15.732310716058667"><ele>781.0</ele><time>2026-04-26T07:43:09Z</time></trkpt><trkpt lat="40.61076278233611" lon="15.73196693802167"><ele>780.0</ele><time>2026-04-26T07:43:10Z</time></trkpt><trkpt lat="40.61068967056459" lon="15.731623733681763"><ele>779.0</ele><time>2026-04-26T07:43:11Z</time></trkpt><trkpt lat="40.610617670268304" lon="15.731279302640958"><ele>779.0</ele><time>2026-04-26T07:43:12Z</time></trkpt><trkpt lat="40.6105454344264" lon="15.730934379399834"><ele>779.0</ele><time>2026-04-26T07:43:13Z</time></trkpt><trkpt lat="40.61047344397315" lon="15.730586585515786"><ele>779.0</ele><time>2026-04-26T07:43:14Z</time></trkpt><trkpt lat="40.610400166492205" lon="15.730239814170975"><ele>779.0</ele><time>2026-04-26T07:43:15Z</time></trkpt><trkpt lat="40.61032815844914" lon="15.729891772742489"><ele>776.0</ele><time>2026-04-26T07:43:16Z</time></trkpt><trkpt lat="40.610254691147254" lon="15.729543777610761"><ele>773.0</ele><time>2026-04-26T07:43:17Z</time></trkpt><trkpt lat="40.61018172424666" lon="15.729192302634697"><ele>772.5</ele><time>2026-04-26T07:43:18Z</time></trkpt><trkpt lat="40.61010774143244" lon="15.728842833313504"><ele>772.0</ele><time>2026-04-26T07:43:19Z</time></trkpt><trkpt lat="40.61003206339734" lon="15.728491597778774"><ele>774.0</ele><time>2026-04-26T07:43:20Z</time></trkpt><trkpt lat="40.60995681007224" lon="15.72813951723084"><ele>776.0</ele><time>2026-04-26T07:43:21Z</time></trkpt><trkpt lat="40.60988255443665" lon="15.727784939053711"><ele>778.0</ele><time>2026-04-26T07:43:22Z</time></trkpt><trkpt lat="40.609808409819536" lon="15.72742776341173"><ele>780.0</ele><time>2026-04-26T07:43:23Z</time></trkpt><trkpt lat="40.60973280727091" lon="15.727070524950722"><ele>781.5</ele><time>2026-04-26T07:43:24Z</time></trkpt><trkpt lat="40.609663177769676" lon="15.726715179371967"><ele>783.0</ele><time>2026-04-26T07:43:25Z</time></trkpt><trkpt lat="40.60958985702788" lon="15.726359793872183"><ele>783.0</ele><time>2026-04-26T07:43:26Z</time></trkpt><trkpt lat="40.609514573070186" lon="15.725998955351617"><ele>783.0</ele><time>2026-04-26T07:43:27Z</time></trkpt><trkpt lat="40.60944229185025" lon="15.725638024135867"><ele>782.5</ele><time>2026-04-26T07:43:28Z</time></trkpt><trkpt lat="40.60937156394994" lon="15.725276850388958"><ele>782.0</ele><time>2026-04-26T07:43:29Z</time></trkpt><trkpt lat="40.6093048844412" lon="15.72491755723534"><ele>782.0</ele><time>2026-04-26T07:43:30Z</time></trkpt><trkpt lat="40.609239281034235" lon="15.724559578448833"><ele>782.0</ele><time>2026-04-26T07:43:31Z</time></trkpt><trkpt lat="40.609173720854315" lon="15.724201146825603"><ele>782.0</ele><time>2026-04-26T07:43:32Z</time></trkpt><trkpt lat="40.60911259398045" lon="15.723843667135922"><ele>782.0</ele><time>2026-04-26T07:43:33Z</time></trkpt><trkpt lat="40.60905468403019" lon="15.723485939036935"><ele>782.0</ele><time>2026-04-26T07:43:34Z</time></trkpt><trkpt lat="40.60899809990549" lon="15.72312773036751"><ele>782.0</ele><time>2026-04-26T07:43:35Z</time></trkpt><trkpt lat="40.60894068373253" lon="15.722771072366765"><ele>782.5</ele><time>2026-04-26T07:43:36Z</time></trkpt><trkpt lat="40.60888579234455" lon="15.722416193177162"><ele>783.0</ele><time>2026-04-26T07:43:37Z</time></trkpt><trkpt lat="40.608831721479575" lon="15.722062821848809"><ele>783.0</ele><time>2026-04-26T07:43:38Z</time></trkpt><trkpt lat="40.608779131105024" lon="15.721710777762713"><ele>783.0</ele><time>2026-04-26T07:43:39Z</time></trkpt><trkpt lat="40.60872591557243" lon="15.721358440632642"><ele>784.0</ele><time>2026-04-26T07:43:40Z</time></trkpt><trkpt lat="40.60867311907381" lon="15.721006270977414"><ele>785.0</ele><time>2026-04-26T07:43:41Z</time></trkpt><trkpt lat="40.60862015926288" lon="15.720655269294857"><ele>783.5</ele><time>2026-04-26T07:43:42Z</time></trkpt><trkpt lat="40.60856842365379" lon="15.720304524318518"><ele>782.0</ele><time>2026-04-26T07:43:43Z</time></trkpt><trkpt lat="40.60851673463809" lon="15.719955180280817"><ele>782.0</ele><time>2026-04-26T07:43:44Z</time></trkpt><trkpt lat="40.60846339654331" lon="15.71960668657354"><ele>782.0</ele><time>2026-04-26T07:43:45Z</time></trkpt><trkpt lat="40.60840916991102" lon="15.719257939104786"><ele>781.0</ele><time>2026-04-26T07:43:46Z</time></trkpt><trkpt lat="40.60835196969544" lon="15.71891204496873"><ele>780.0</ele><time>2026-04-26T07:43:47Z</time></trkpt><trkpt lat="40.608295017894136" lon="15.718564479085872"><ele>780.0</ele><time>2026-04-26T07:43:48Z</time></trkpt><trkpt lat="40.60823845438431" lon="15.718214543025471"><ele>780.0</ele><time>2026-04-26T07:43:49Z</time></trkpt><trkpt lat="40.608183755990126" lon="15.717865877993587"><ele>779.5</ele><time>2026-04-26T07:43:50Z</time></trkpt><trkpt lat="40.60813157295996" lon="15.717514504047239"><ele>779.0</ele><time>2026-04-26T07:43:51Z</time></trkpt><trkpt lat="40.608078391414736" lon="15.717165795542977"><ele>779.0</ele><time>2026-04-26T07:43:52Z</time></trkpt><trkpt lat="40.60802657983196" lon="15.716819575188365"><ele>779.0</ele><time>2026-04-26T07:43:53Z</time></trkpt><trkpt lat="40.607978726091176" lon="15.716473173379221"><ele>779.0</ele><time>2026-04-26T07:43:54Z</time></trkpt><trkpt lat="40.607933635606045" lon="15.716125991632074"><ele>779.0</ele><time>2026-04-26T07:43:55Z</time></trkpt><trkpt lat="40.60789414583476" lon="15.715777654973657"><ele>779.0</ele><time>2026-04-26T07:43:56Z</time></trkpt><trkpt lat="40.60785682500917" lon="15.715432387300257"><ele>779.0</ele><time>2026-04-26T07:43:57Z</time></trkpt><trkpt lat="40.60782706926473" lon="15.715077205511877"><ele>779.5</ele><time>2026-04-26T07:43:58Z</time></trkpt><trkpt lat="40.607798071332475" lon="15.714721539046167"><ele>780.0</ele><time>2026-04-26T07:43:59Z</time></trkpt><trkpt lat="40.60776931291582" lon="15.714363080840457"><ele>780.0</ele><time>2026-04-26T07:44:00Z</time></trkpt><trkpt lat="40.60774769173623" lon="15.714002657520512"><ele>780.0</ele><time>2026-04-26T07:44:01Z</time></trkpt><trkpt lat="40.60773075631972" lon="15.713642478225001"><ele>781.0</ele><time>2026-04-26T07:44:02Z</time></trkpt><trkpt lat="40.607714617609375" lon="15.713279154722144"><ele>782.0</ele><time>2026-04-26T07:44:03Z</time></trkpt><trkpt lat="40.60770264891803" lon="15.712912862990795"><ele>781.0</ele><time>2026-04-26T07:44:04Z</time></trkpt><trkpt lat="40.60769462058217" lon="15.712547191589096"><ele>780.0</ele><time>2026-04-26T07:44:05Z</time></trkpt><trkpt lat="40.607692021436144" lon="15.712179195658356"><ele>780.0</ele><time>2026-04-26T07:44:06Z</time></trkpt><trkpt lat="40.60769380778282" lon="15.711806602212562"><ele>780.0</ele><time>2026-04-26T07:44:07Z</time></trkpt><trkpt lat="40.60769667725094" lon="15.711432092642086"><ele>781.5</ele><time>2026-04-26T07:44:08Z</time></trkpt><trkpt lat="40.6076989291254" lon="15.711057905424903"><ele>783.0</ele><time>2026-04-26T07:44:09Z</time></trkpt><trkpt lat="40.6077054110195" lon="15.710681543835458"><ele>783.0</ele><time>2026-04-26T07:44:10Z</time></trkpt><trkpt lat="40.607716822580166" lon="15.710304178301879"><ele>783.0</ele><time>2026-04-26T07:44:11Z</time></trkpt><trkpt lat="40.607728550323635" lon="15.70992608808923"><ele>782.5</ele><time>2026-04-26T07:44:12Z</time></trkpt><trkpt lat="40.60774303362616" lon="15.709550630594348"><ele>782.0</ele><time>2026-04-26T07:44:13Z</time></trkpt><trkpt lat="40.607755834570874" lon="15.709177589248553"><ele>783.5</ele><time>2026-04-26T07:44:14Z</time></trkpt><trkpt lat="40.60776671654119" lon="15.708804105972344"><ele>785.0</ele><time>2026-04-26T07:44:15Z</time></trkpt><trkpt lat="40.60777836316404" lon="15.708430550747721"><ele>785.5</ele><time>2026-04-26T07:44:16Z</time></trkpt><trkpt lat="40.607790840293084" lon="15.708057533183311"><ele>786.0</ele><time>2026-04-26T07:44:17Z</time></trkpt><trkpt lat="40.60780321432549" lon="15.707688295494947"><ele>785.0</ele><time>2026-04-26T07:44:18Z</time></trkpt><trkpt lat="40.60781475744897" lon="15.707319186442206"><ele>784.0</ele><time>2026-04-26T07:44:19Z</time></trkpt><trkpt lat="40.60782721689039" lon="15.706948655531994"><ele>787.5</ele><time>2026-04-26T07:44:20Z</time></trkpt><trkpt lat="40.607841360907756" lon="15.706582745756013"><ele>791.0</ele><time>2026-04-26T07:44:21Z</time></trkpt><trkpt lat="40.60785411129458" lon="15.706216023255614"><ele>791.5</ele><time>2026-04-26T07:44:22Z</time></trkpt><trkpt lat="40.60786829498976" lon="15.70585041210544"><ele>792.0</ele><time>2026-04-26T07:44:23Z</time></trkpt><trkpt lat="40.60788336867681" lon="15.705485264016886"><ele>793.0</ele><time>2026-04-26T07:44:24Z</time></trkpt><trkpt lat="40.60790397776554" lon="15.705122338159997"><ele>794.0</ele><time>2026-04-26T07:44:25Z</time></trkpt><trkpt lat="40.60792861516701" lon="15.704757466436021"><ele>796.0</ele><time>2026-04-26T07:44:26Z</time></trkpt><trkpt lat="40.607940013890385" lon="15.704390742567059"><ele>798.0</ele><time>2026-04-26T07:44:27Z</time></trkpt><trkpt lat="40.60795183926462" lon="15.704022027563326"><ele>798.0</ele><time>2026-04-26T07:44:28Z</time></trkpt><trkpt lat="40.60796293640018" lon="15.703652355189618"><ele>798.0</ele><time>2026-04-26T07:44:29Z</time></trkpt><trkpt lat="40.60796593850381" lon="15.703278896673543"><ele>798.5</ele><time>2026-04-26T07:44:30Z</time></trkpt><trkpt lat="40.60797035315204" lon="15.702908158118143"><ele>799.0</ele><time>2026-04-26T07:44:31Z</time></trkpt><trkpt lat="40.607979354383616" lon="15.702534498437357"><ele>800.0</ele><time>2026-04-26T07:44:32Z</time></trkpt><trkpt lat="40.60798893646764" lon="15.702165872247635"><ele>801.0</ele><time>2026-04-26T07:44:33Z</time></trkpt><trkpt lat="40.608006283515934" lon="15.701797903019484"><ele>801.0</ele><time>2026-04-26T07:44:34Z</time></trkpt><trkpt lat="40.608027234293786" lon="15.701429851341478"><ele>801.0</ele><time>2026-04-26T07:44:35Z</time></trkpt><trkpt lat="40.60805497156843" lon="15.701061735345391"><ele>801.0</ele><time>2026-04-26T07:44:36Z</time></trkpt><trkpt lat="40.6080887459299" lon="15.700691981008495"><ele>801.0</ele><time>2026-04-26T07:44:37Z</time></trkpt><trkpt lat="40.60812518422549" lon="15.70032161569058"><ele>800.5</ele><time>2026-04-26T07:44:38Z</time></trkpt><trkpt lat="40.60816561184266" lon="15.699951969606103"><ele>800.0</ele><time>2026-04-26T07:44:39Z</time></trkpt><trkpt lat="40.608211152148364" lon="15.699582136717716"><ele>799.5</ele><time>2026-04-26T07:44:40Z</time></trkpt><trkpt lat="40.60826278390504" lon="15.699214789575803"><ele>799.0</ele><time>2026-04-26T07:44:41Z</time></trkpt><trkpt lat="40.60832584682912" lon="15.698853046234229"><ele>800.0</ele><time>2026-04-26T07:44:42Z</time></trkpt><trkpt lat="40.60840225249185" lon="15.698496214821441"><ele>801.0</ele><time>2026-04-26T07:44:43Z</time></trkpt><trkpt lat="40.608481766278786" lon="15.698140095683005"><ele>801.0</ele><time>2026-04-26T07:44:44Z</time></trkpt><trkpt lat="40.60855898037888" lon="15.697788689743147"><ele>801.0</ele><time>2026-04-26T07:44:45Z</time></trkpt><trkpt lat="40.60864250263073" lon="15.697436018802884"><ele>802.0</ele><time>2026-04-26T07:44:46Z</time></trkpt><trkpt lat="40.608724937963565" lon="15.697081115524716"><ele>803.0</ele><time>2026-04-26T07:44:47Z</time></trkpt><trkpt lat="40.60879778641043" lon="15.696721261165385"><ele>803.0</ele><time>2026-04-26T07:44:48Z</time></trkpt><trkpt lat="40.608848204377495" lon="15.696358192722217"><ele>803.0</ele><time>2026-04-26T07:44:49Z</time></trkpt><trkpt lat="40.60887539653551" lon="15.696021735274275"><ele>803.5</ele><time>2026-04-26T07:44:50Z</time></trkpt><trkpt lat="40.608895874831795" lon="15.695702899624216"><ele>804.0</ele><time>2026-04-26T07:44:51Z</time></trkpt><trkpt lat="40.60890141444643" lon="15.695388424373327"><ele>803.3333333333333</ele><time>2026-04-26T07:44:52Z</time></trkpt><trkpt lat="40.608897491280715" lon="15.695094056334888"><ele>802.6666666666666</ele><time>2026-04-26T07:44:53Z</time></trkpt><trkpt lat="40.608890076869926" lon="15.69481090363675"><ele>802.0</ele><time>2026-04-26T07:44:54Z</time></trkpt><trkpt lat="40.608880880915684" lon="15.694530818345603"><ele>802.6666666666666</ele><time>2026-04-26T07:44:55Z</time></trkpt><trkpt lat="40.60887091094724" lon="15.694258431967354"><ele>803.3333333333333</ele><time>2026-04-26T07:44:56Z</time></trkpt><trkpt lat="40.60886370013269" lon="15.69401106650266"><ele>804.0</ele><time>2026-04-26T07:44:57Z</time></trkpt><trkpt lat="40.608859417125835" lon="15.693767075406763"><ele>804.3333333333333</ele><time>2026-04-26T07:44:58Z</time></trkpt><trkpt lat="40.60885742009899" lon="15.693531721449077"><ele>804.6666666666666</ele><time>2026-04-26T07:44:59Z</time></trkpt><trkpt lat="40.60886405776831" lon="15.693305177991698"><ele>805.0</ele><time>2026-04-26T07:45:00Z</time></trkpt><trkpt lat="40.60886598717059" lon="15.693090983473466"><ele>805.0</ele><time>2026-04-26T07:45:01Z</time></trkpt><trkpt lat="40.6088585699109" lon="15.692888253610635"><ele>805.0</ele><time>2026-04-26T07:45:02Z</time></trkpt><trkpt lat="40.60885927335224" lon="15.692698440514258"><ele>805.0</ele><time>2026-04-26T07:45:03Z</time></trkpt><trkpt lat="40.60886851686432" lon="15.692524223323346"><ele>805.0</ele><time>2026-04-26T07:45:04Z</time></trkpt><trkpt lat="40.60890739832781" lon="15.692364189146474"><ele>805.0</ele><time>2026-04-26T07:45:05Z</time></trkpt><trkpt lat="40.60899660958504" lon="15.69222313497355"><ele>805.0</ele><time>2026-04-26T07:45:06Z</time></trkpt><trkpt lat="40.60912547354414" lon="15.692105133001185"><ele>805.0</ele><time>2026-04-26T07:45:07Z</time></trkpt><trkpt lat="40.6092765632159" lon="15.692045909569746"><ele>805.0</ele><time>2026-04-26T07:45:08Z</time></trkpt><trkpt lat="40.609417218390746" lon="15.692017527584763"><ele>805.0</ele><time>2026-04-26T07:45:09Z</time></trkpt><trkpt lat="40.609548748723675" lon="15.691950676685872"><ele>805.0</ele><time>2026-04-26T07:45:10Z</time></trkpt><trkpt lat="40.609648497261645" lon="15.69182443724033"><ele>805.0</ele><time>2026-04-26T07:45:11Z</time></trkpt><trkpt lat="40.609717940190635" lon="15.691665339286716"><ele>805.25</ele><time>2026-04-26T07:45:12Z</time></trkpt><trkpt lat="40.609753887626674" lon="15.691497142451768"><ele>805.5</ele><time>2026-04-26T07:45:13Z</time></trkpt><trkpt lat="40.60975021615123" lon="15.691329969540504"><ele>805.75</ele><time>2026-04-26T07:45:14Z</time></trkpt><trkpt lat="40.609712637114654" lon="15.691172706607496"><ele>806.0</ele><time>2026-04-26T07:45:15Z</time></trkpt><trkpt lat="40.609642235016295" lon="15.691041070775015"><ele>808.25</ele><time>2026-04-26T07:45:16Z</time></trkpt><trkpt lat="40.60955143386228" lon="15.690927924527076"><ele>810.5</ele><time>2026-04-26T07:45:17Z</time></trkpt><trkpt lat="40.609435738042315" lon="15.690858390139454"><ele>812.75</ele><time>2026-04-26T07:45:18Z</time></trkpt><trkpt lat="40.6093129654519" lon="15.690833060367147"><ele>815.0</ele><time>2026-04-26T07:45:19Z</time></trkpt><trkpt lat="40.60918801183639" lon="15.69083881519353"><ele>815.0</ele><time>2026-04-26T07:45:20Z</time></trkpt><trkpt lat="40.60905565472076" lon="15.690828583873012"><ele>815.0</ele><time>2026-04-26T07:45:21Z</time></trkpt><trkpt lat="40.60891136877698" lon="15.690833030550941"><ele>815.0</ele><time>2026-04-26T07:45:22Z</time></trkpt><trkpt lat="40.60874938427788" lon="15.690837337826542"><ele>815.0</ele><time>2026-04-26T07:45:23Z</time></trkpt><trkpt lat="40.60858714185108" lon="15.690842723718651"><ele>815.25</ele><time>2026-04-26T07:45:24Z</time></trkpt><trkpt lat="40.60843360053672" lon="15.690847524124978"><ele>815.5</ele><time>2026-04-26T07:45:25Z</time></trkpt><trkpt lat="40.608292340658025" lon="15.690851940560055"><ele>815.75</ele><time>2026-04-26T07:45:26Z</time></trkpt><trkpt lat="40.60816549970035" lon="15.690855877462583"><ele>816.0</ele><time>2026-04-26T07:45:27Z</time></trkpt><trkpt lat="40.60805203935556" lon="15.690856942859801"><ele>816.0</ele><time>2026-04-26T07:45:28Z</time></trkpt><trkpt lat="40.607956396461546" lon="15.690851280199677"><ele>816.0</ele><time>2026-04-26T07:45:29Z</time></trkpt><trkpt lat="40.60788179066995" lon="15.690827344967662"><ele>816.0</ele><time>2026-04-26T07:45:30Z</time></trkpt><trkpt lat="40.6078073239157" lon="15.690788987953416"><ele>816.0</ele><time>2026-04-26T07:45:31Z</time></trkpt><trkpt lat="40.60774059197625" lon="15.690746477822728"><ele>816.0</ele><time>2026-04-26T07:45:32Z</time></trkpt><trkpt lat="40.60769386710396" lon="15.690685782120383"><ele>816.0</ele><time>2026-04-26T07:45:33Z</time></trkpt><trkpt lat="40.60765139587699" lon="15.69062062148138"><ele>816.4</ele><time>2026-04-26T07:45:34Z</time></trkpt><trkpt lat="40.60759002217744" lon="15.690531783349925"><ele>816.8</ele><time>2026-04-26T07:45:36Z</time></trkpt><trkpt lat="40.60752869368923" lon="15.690471052572217"><ele>817.1999999999999</ele><time>2026-04-26T07:45:39Z</time></trkpt><trkpt lat="40.60750178018669" lon="15.690378120189765"><ele>817.5999999999999</ele><time>2026-04-26T07:45:43Z</time></trkpt><trkpt lat="40.6073642959587" lon="15.690365391280656"><ele>818.0</ele><time>2026-04-26T07:45:44Z</time></trkpt><trkpt lat="40.60727341514196" lon="15.690417099241873"><ele>818.0</ele><time>2026-04-26T07:45:45Z</time></trkpt><trkpt lat="40.60716538223888" lon="15.690453376866298"><ele>818.0</ele><time>2026-04-26T07:45:46Z</time></trkpt><trkpt lat="40.607032084121975" lon="15.690479414337508"><ele>818.0</ele><time>2026-04-26T07:45:47Z</time></trkpt><trkpt lat="40.6068888233064" lon="15.690545843839805"><ele>818.0</ele><time>2026-04-26T07:45:48Z</time></trkpt><trkpt lat="40.60673074358021" lon="15.690595281265336"><ele>818.5</ele><time>2026-04-26T07:45:49Z</time></trkpt><trkpt lat="40.60658613461254" lon="15.690616842019137"><ele>819.0</ele><time>2026-04-26T07:45:50Z</time></trkpt><trkpt lat="40.60644850793581" lon="15.690652160195587"><ele>819.5</ele><time>2026-04-26T07:45:51Z</time></trkpt><trkpt lat="40.60631192263012" lon="15.690682083847957"><ele>820.0</ele><time>2026-04-26T07:45:52Z</time></trkpt><trkpt lat="40.60617562276898" lon="15.690709605564402"><ele>820.5</ele><time>2026-04-26T07:45:53Z</time></trkpt><trkpt lat="40.60603648874746" lon="15.690732121579325"><ele>821.0</ele><time>2026-04-26T07:45:54Z</time></trkpt><trkpt lat="40.605894334433" lon="15.690755220846988"><ele>821.5</ele><time>2026-04-26T07:45:55Z</time></trkpt><trkpt lat="40.605749286733065" lon="15.690778826464415"><ele>822.0</ele><time>2026-04-26T07:45:56Z</time></trkpt><trkpt lat="40.60558950843103" lon="15.690852005460496"><ele>822.0</ele><time>2026-04-26T07:45:57Z</time></trkpt><trkpt lat="40.60543047640617" lon="15.690879882025397"><ele>822.0</ele><time>2026-04-26T07:45:58Z</time></trkpt><trkpt lat="40.60526237424815" lon="15.690897731906286"><ele>822.0</ele><time>2026-04-26T07:45:59Z</time></trkpt><trkpt lat="40.605086412401306" lon="15.690912525644745"><ele>822.3333333333333</ele><time>2026-04-26T07:46:00Z</time></trkpt><trkpt lat="40.60491134659069" lon="15.690925849237084"><ele>822.6666666666666</ele><time>2026-04-26T07:46:01Z</time></trkpt><trkpt lat="40.60473641608612" lon="15.690867469138619"><ele>823.0</ele><time>2026-04-26T07:46:02Z</time></trkpt><trkpt lat="40.604560696262595" lon="15.690866549880814"><ele>823.6666666666666</ele><time>2026-04-26T07:46:03Z</time></trkpt><trkpt lat="40.60438666130237" lon="15.690863664916666"><ele>824.3333333333333</ele><time>2026-04-26T07:46:04Z</time></trkpt><trkpt lat="40.60419935126465" lon="15.690858163030951"><ele>825.0</ele><time>2026-04-26T07:46:05Z</time></trkpt><trkpt lat="40.60401270612884" lon="15.690845749570785"><ele>825.0</ele><time>2026-04-26T07:46:06Z</time></trkpt><trkpt lat="40.60382440060098" lon="15.690831302618959"><ele>825.0</ele><time>2026-04-26T07:46:07Z</time></trkpt><trkpt lat="40.60364014159664" lon="15.690812039614618"><ele>825.0</ele><time>2026-04-26T07:46:08Z</time></trkpt><trkpt lat="40.6034552987654" lon="15.690793891250491"><ele>825.3333333333333</ele><time>2026-04-26T07:46:09Z</time></trkpt><trkpt lat="40.60326843181201" lon="15.690773907971666"><ele>825.6666666666666</ele><time>2026-04-26T07:46:10Z</time></trkpt><trkpt lat="40.60308775602013" lon="15.690754588453306"><ele>826.0</ele><time>2026-04-26T07:46:11Z</time></trkpt><trkpt lat="40.602915504050074" lon="15.690734702305322"><ele>825.0</ele><time>2026-04-26T07:46:12Z</time></trkpt><trkpt lat="40.60275098461385" lon="15.690715372513983"><ele>824.0</ele><time>2026-04-26T07:46:13Z</time></trkpt><trkpt lat="40.602587816927304" lon="15.690695386518104"><ele>823.0</ele><time>2026-04-26T07:46:14Z</time></trkpt><trkpt lat="40.60241664557429" lon="15.690748954617932"><ele>823.0</ele><time>2026-04-26T07:46:15Z</time></trkpt><trkpt lat="40.602254447896726" lon="15.690729251442413"><ele>823.0</ele><time>2026-04-26T07:46:16Z</time></trkpt><trkpt lat="40.60209171120162" lon="15.69071171250132"><ele>823.0</ele><time>2026-04-26T07:46:17Z</time></trkpt><trkpt lat="40.601927180974755" lon="15.690690577080732"><ele>821.3333333333333</ele><time>2026-04-26T07:46:18Z</time></trkpt><trkpt lat="40.60175941041481" lon="15.690597255691408"><ele>819.6666666666667</ele><time>2026-04-26T07:46:19Z</time></trkpt><trkpt lat="40.60157908577658" lon="15.690576056517916"><ele>818.0</ele><time>2026-04-26T07:46:20Z</time></trkpt><trkpt lat="40.601383523523815" lon="15.690554604109971"><ele>818.0</ele><time>2026-04-26T07:46:21Z</time></trkpt><trkpt lat="40.60117687415008" lon="15.690532856568964"><ele>818.0</ele><time>2026-04-26T07:46:22Z</time></trkpt><trkpt lat="40.60096399868343" lon="15.69051111718094"><ele>818.0</ele><time>2026-04-26T07:46:23Z</time></trkpt><trkpt lat="40.600743012801786" lon="15.690488926895874"><ele>819.0</ele><time>2026-04-26T07:46:24Z</time></trkpt><trkpt lat="40.600514377504574" lon="15.690464929992995"><ele>820.0</ele><time>2026-04-26T07:46:25Z</time></trkpt><trkpt lat="40.60027831079094" lon="15.690439959217153"><ele>822.0</ele><time>2026-04-26T07:46:26Z</time></trkpt><trkpt lat="40.600035251368396" lon="15.690416861727128"><ele>824.0</ele><time>2026-04-26T07:46:27Z</time></trkpt><trkpt lat="40.59978510027709" lon="15.690394598966087"><ele>824.0</ele><time>2026-04-26T07:46:28Z</time></trkpt><trkpt lat="40.59953762629195" lon="15.690373130302339"><ele>824.0</ele><time>2026-04-26T07:46:29Z</time></trkpt><trkpt lat="40.59930571293276" lon="15.690352710416928"><ele>822.3333333333334</ele><time>2026-04-26T07:46:30Z</time></trkpt><trkpt lat="40.59908058306889" lon="15.690329508782652"><ele>820.6666666666667</ele><time>2026-04-26T07:46:31Z</time></trkpt><trkpt lat="40.59885824106926" lon="15.69031614256869"><ele>819.0</ele><time>2026-04-26T07:46:32Z</time></trkpt><trkpt lat="40.59864241092581" lon="15.690240329023661"><ele>813.0</ele><time>2026-04-26T07:46:33Z</time></trkpt><trkpt lat="40.59842907339569" lon="15.690153210484304"><ele>807.0</ele><time>2026-04-26T07:46:34Z</time></trkpt><trkpt lat="40.59820813759418" lon="15.690082412827957"><ele>807.0</ele><time>2026-04-26T07:46:35Z</time></trkpt><trkpt lat="40.597971307184" lon="15.690039573331232"><ele>807.0</ele><time>2026-04-26T07:46:36Z</time></trkpt><trkpt lat="40.59773031304369" lon="15.689995839557483"><ele>806.5</ele><time>2026-04-26T07:46:37Z</time></trkpt><trkpt lat="40.59750098034674" lon="15.68994380558104"><ele>806.0</ele><time>2026-04-26T07:46:38Z</time></trkpt><trkpt lat="40.59727940059375" lon="15.689875689365556"><ele>806.0</ele><time>2026-04-26T07:46:39Z</time></trkpt><trkpt lat="40.59706215102618" lon="15.689796595147687"><ele>806.0</ele><time>2026-04-26T07:46:40Z</time></trkpt><trkpt lat="40.59684355056929" lon="15.689712535668292"><ele>803.5</ele><time>2026-04-26T07:46:41Z</time></trkpt><trkpt lat="40.59662443616686" lon="15.689591190778632"><ele>801.0</ele><time>2026-04-26T07:46:42Z</time></trkpt><trkpt lat="40.59639106319792" lon="15.689496057738548"><ele>796.0</ele><time>2026-04-26T07:46:43Z</time></trkpt><trkpt lat="40.596156186847125" lon="15.68938256940596"><ele>791.0</ele><time>2026-04-26T07:46:44Z</time></trkpt><trkpt lat="40.59592096516221" lon="15.689250919646367"><ele>791.0</ele><time>2026-04-26T07:46:45Z</time></trkpt><trkpt lat="40.5956891091026" lon="15.689105007529285"><ele>791.0</ele><time>2026-04-26T07:46:46Z</time></trkpt><trkpt lat="40.59547566492849" lon="15.688951522587782"><ele>792.5</ele><time>2026-04-26T07:46:47Z</time></trkpt><trkpt lat="40.59526767819432" lon="15.688792501592893"><ele>794.0</ele><time>2026-04-26T07:46:48Z</time></trkpt><trkpt lat="40.595067457486834" lon="15.688613342605668"><ele>790.0</ele><time>2026-04-26T07:46:49Z</time></trkpt><trkpt lat="40.59487485339396" lon="15.688428272789029"><ele>786.0</ele><time>2026-04-26T07:46:50Z</time></trkpt><trkpt lat="40.594685990984935" lon="15.688226984727605"><ele>788.0</ele><time>2026-04-26T07:46:51Z</time></trkpt><trkpt lat="40.59449834194969" lon="15.688011139412888"><ele>790.0</ele><time>2026-04-26T07:46:52Z</time></trkpt><trkpt lat="40.59430968793437" lon="15.687788745171638"><ele>785.5</ele><time>2026-04-26T07:46:53Z</time></trkpt><trkpt lat="40.59411954725641" lon="15.6875639281836"><ele>781.0</ele><time>2026-04-26T07:46:54Z</time></trkpt><trkpt lat="40.593935854582206" lon="15.687346203164827"><ele>781.0</ele><time>2026-04-26T07:46:55Z</time></trkpt><trkpt lat="40.593753278333246" lon="15.687128365118008"><ele>781.0</ele><time>2026-04-26T07:46:56Z</time></trkpt><trkpt lat="40.59357037171481" lon="15.686912850496862"><ele>781.5</ele><time>2026-04-26T07:46:57Z</time></trkpt><trkpt lat="40.59335047281581" lon="15.686753160988035"><ele>782.0</ele><time>2026-04-26T07:46:58Z</time></trkpt><trkpt lat="40.59316966286172" lon="15.686531525271292"><ele>782.0</ele><time>2026-04-26T07:46:59Z</time></trkpt><trkpt lat="40.59298790473004" lon="15.686308596488738"><ele>782.0</ele><time>2026-04-26T07:47:00Z</time></trkpt><trkpt lat="40.59280920236112" lon="15.686085416659454"><ele>778.0</ele><time>2026-04-26T07:47:01Z</time></trkpt><trkpt lat="40.59262795849232" lon="15.685865845031"><ele>774.0</ele><time>2026-04-26T07:47:02Z</time></trkpt><trkpt lat="40.59247054607826" lon="15.685611872081488"><ele>774.0</ele><time>2026-04-26T07:47:03Z</time></trkpt><trkpt lat="40.59228595499295" lon="15.685394761005123"><ele>774.0</ele><time>2026-04-26T07:47:04Z</time></trkpt><trkpt lat="40.59209857589234" lon="15.685180863513631"><ele>772.5</ele><time>2026-04-26T07:47:05Z</time></trkpt><trkpt lat="40.59190430584326" lon="15.68497620171687"><ele>771.0</ele><time>2026-04-26T07:47:06Z</time></trkpt><trkpt lat="40.5917028337005" lon="15.684780705200364"><ele>771.0</ele><time>2026-04-26T07:47:07Z</time></trkpt><trkpt lat="40.59149361718058" lon="15.684596459376088"><ele>771.0</ele><time>2026-04-26T07:47:08Z</time></trkpt><trkpt lat="40.591278493466135" lon="15.68442183951486"><ele>767.5</ele><time>2026-04-26T07:47:09Z</time></trkpt><trkpt lat="40.59105763066042" lon="15.684255350871073"><ele>764.0</ele><time>2026-04-26T07:47:10Z</time></trkpt><trkpt lat="40.59083128230892" lon="15.684099264110655"><ele>764.0</ele><time>2026-04-26T07:47:11Z</time></trkpt><trkpt lat="40.590600274032646" lon="15.683947468639374"><ele>764.0</ele><time>2026-04-26T07:47:12Z</time></trkpt><trkpt lat="40.59036249635614" lon="15.683802078354347"><ele>764.5</ele><time>2026-04-26T07:47:13Z</time></trkpt><trkpt lat="40.59011559998546" lon="15.68366944579124"><ele>765.0</ele><time>2026-04-26T07:47:14Z</time></trkpt><trkpt lat="40.589867277752546" lon="15.683545083022697"><ele>760.0</ele><time>2026-04-26T07:47:15Z</time></trkpt><trkpt lat="40.58962123769924" lon="15.683435098253925"><ele>755.0</ele><time>2026-04-26T07:47:16Z</time></trkpt><trkpt lat="40.589374532943445" lon="15.683337327568664"><ele>755.0</ele><time>2026-04-26T07:47:17Z</time></trkpt><trkpt lat="40.58912805601333" lon="15.683249935695043"><ele>755.0</ele><time>2026-04-26T07:47:18Z</time></trkpt><trkpt lat="40.58887873577461" lon="15.683169941293933"><ele>752.5</ele><time>2026-04-26T07:47:19Z</time></trkpt><trkpt lat="40.58863073743699" lon="15.68309133225265"><ele>750.0</ele><time>2026-04-26T07:47:20Z</time></trkpt><trkpt lat="40.58838472776368" lon="15.683013353566476"><ele>750.0</ele><time>2026-04-26T07:47:21Z</time></trkpt><trkpt lat="40.588117852948045" lon="15.683038029407816"><ele>750.0</ele><time>2026-04-26T07:47:22Z</time></trkpt><trkpt lat="40.58786322557419" lon="15.683002673195086"><ele>748.5</ele><time>2026-04-26T07:47:23Z</time></trkpt><trkpt lat="40.587601079777556" lon="15.682980236214917"><ele>747.0</ele><time>2026-04-26T07:47:24Z</time></trkpt><trkpt lat="40.58733381808892" lon="15.682973836271112"><ele>747.0</ele><time>2026-04-26T07:47:25Z</time></trkpt><trkpt lat="40.58705793866813" lon="15.68296839514847"><ele>747.0</ele><time>2026-04-26T07:47:26Z</time></trkpt><trkpt lat="40.586774456416485" lon="15.682973078308736"><ele>745.0</ele><time>2026-04-26T07:47:27Z</time></trkpt><trkpt lat="40.586485218391395" lon="15.682973715984284"><ele>743.0</ele><time>2026-04-26T07:47:28Z</time></trkpt><trkpt lat="40.58618961376026" lon="15.682973584810805"><ele>741.0</ele><time>2026-04-26T07:47:29Z</time></trkpt><trkpt lat="40.58588970965488" lon="15.682968096654763"><ele>739.0</ele><time>2026-04-26T07:47:30Z</time></trkpt><trkpt lat="40.58558445785384" lon="15.68296909586717"><ele>739.5</ele><time>2026-04-26T07:47:31Z</time></trkpt><trkpt lat="40.58527393466162" lon="15.682971104156692"><ele>740.0</ele><time>2026-04-26T07:47:32Z</time></trkpt><trkpt lat="40.58496694758407" lon="15.682976447451647"><ele>740.0</ele><time>2026-04-26T07:47:33Z</time></trkpt><trkpt lat="40.58467316679714" lon="15.682976702091727"><ele>740.0</ele><time>2026-04-26T07:47:34Z</time></trkpt><trkpt lat="40.58438655999598" lon="15.682973084265972"><ele>732.0</ele><time>2026-04-26T07:47:35Z</time></trkpt><trkpt lat="40.58410770827849" lon="15.682970880745986"><ele>724.0</ele><time>2026-04-26T07:47:36Z</time></trkpt><trkpt lat="40.583834319451796" lon="15.682975352852857"><ele>727.0</ele><time>2026-04-26T07:47:37Z</time></trkpt><trkpt lat="40.58356634395172" lon="15.682979067700645"><ele>730.0</ele><time>2026-04-26T07:47:38Z</time></trkpt><trkpt lat="40.58329954024883" lon="15.682978921522148"><ele>730.0</ele><time>2026-04-26T07:47:39Z</time></trkpt><trkpt lat="40.583031887374545" lon="15.682980289625219"><ele>730.0</ele><time>2026-04-26T07:47:40Z</time></trkpt><trkpt lat="40.582762323414485" lon="15.682981548176326"><ele>726.5</ele><time>2026-04-26T07:47:41Z</time></trkpt><trkpt lat="40.582485466059" lon="15.682977494229707"><ele>723.0</ele><time>2026-04-26T07:47:42Z</time></trkpt><trkpt lat="40.58220328269147" lon="15.682980449701711"><ele>713.5</ele><time>2026-04-26T07:47:43Z</time></trkpt><trkpt lat="40.5819174556226" lon="15.68298159556145"><ele>704.0</ele><time>2026-04-26T07:47:44Z</time></trkpt><trkpt lat="40.581628500415654" lon="15.682977798569382"><ele>704.0</ele><time>2026-04-26T07:47:45Z</time></trkpt><trkpt lat="40.58132917514726" lon="15.682987499880278"><ele>704.0</ele><time>2026-04-26T07:47:46Z</time></trkpt><trkpt lat="40.581026455782045" lon="15.683006834096659"><ele>699.5</ele><time>2026-04-26T07:47:47Z</time></trkpt><trkpt lat="40.58072128485338" lon="15.683030962001904"><ele>695.0</ele><time>2026-04-26T07:47:48Z</time></trkpt><trkpt lat="40.58041434564903" lon="15.683066970744921"><ele>701.0</ele><time>2026-04-26T07:47:49Z</time></trkpt><trkpt lat="40.58010728629286" lon="15.68310993393808"><ele>707.0</ele><time>2026-04-26T07:47:50Z</time></trkpt><trkpt lat="40.57979365836402" lon="15.683168856330932"><ele>704.0</ele><time>2026-04-26T07:47:51Z</time></trkpt><trkpt lat="40.579483941754596" lon="15.683247595386803"><ele>701.0</ele><time>2026-04-26T07:47:52Z</time></trkpt><trkpt lat="40.579173423148745" lon="15.683338211737041"><ele>701.0</ele><time>2026-04-26T07:47:53Z</time></trkpt><trkpt lat="40.57886448826878" lon="15.68344266659984"><ele>701.0</ele><time>2026-04-26T07:47:54Z</time></trkpt><trkpt lat="40.57856057967419" lon="15.68356276609834"><ele>702.0</ele><time>2026-04-26T07:47:55Z</time></trkpt><trkpt lat="40.57824926509941" lon="15.683667993671856"><ele>703.0</ele><time>2026-04-26T07:47:56Z</time></trkpt><trkpt lat="40.57796610361048" lon="15.683749533573005"><ele>700.0</ele><time>2026-04-26T07:47:57Z</time></trkpt><trkpt lat="40.57768665575244" lon="15.683827761251498"><ele>697.0</ele><time>2026-04-26T07:47:58Z</time></trkpt><trkpt lat="40.57741320630653" lon="15.683909722091366"><ele>697.0</ele><time>2026-04-26T07:47:59Z</time></trkpt><trkpt lat="40.57714272486836" lon="15.683977767237755"><ele>697.0</ele><time>2026-04-26T07:48:00Z</time></trkpt><trkpt lat="40.57687233143066" lon="15.684025002207585"><ele>693.0</ele><time>2026-04-26T07:48:01Z</time></trkpt><trkpt lat="40.57660226710758" lon="15.684047244560386"><ele>689.0</ele><time>2026-04-26T07:48:02Z</time></trkpt><trkpt lat="40.57633286887203" lon="15.684049311050268"><ele>685.0</ele><time>2026-04-26T07:48:03Z</time></trkpt><trkpt lat="40.57606130728958" lon="15.684030986149669"><ele>681.0</ele><time>2026-04-26T07:48:04Z</time></trkpt><trkpt lat="40.57578716600733" lon="15.683991108172632"><ele>681.0</ele><time>2026-04-26T07:48:05Z</time></trkpt><trkpt lat="40.575516750157085" lon="15.683932538479858"><ele>681.0</ele><time>2026-04-26T07:48:06Z</time></trkpt><trkpt lat="40.57524334284436" lon="15.683858613538755"><ele>671.0</ele><time>2026-04-26T07:48:07Z</time></trkpt><trkpt lat="40.57496718925121" lon="15.683785113739342"><ele>661.0</ele><time>2026-04-26T07:48:08Z</time></trkpt><trkpt lat="40.57468802159012" lon="15.68370856589836"><ele>662.0</ele><time>2026-04-26T07:48:09Z</time></trkpt><trkpt lat="40.574417483651594" lon="15.683634624070871"><ele>663.0</ele><time>2026-04-26T07:48:10Z</time></trkpt><trkpt lat="40.57415221266217" lon="15.683565777762334"><ele>663.0</ele><time>2026-04-26T07:48:11Z</time></trkpt><trkpt lat="40.57388183012516" lon="15.683496629605342"><ele>663.0</ele><time>2026-04-26T07:48:12Z</time></trkpt><trkpt lat="40.57360860947592" lon="15.683432887422395"><ele>662.5</ele><time>2026-04-26T07:48:13Z</time></trkpt><trkpt lat="40.57333945079017" lon="15.683398630300934"><ele>662.0</ele><time>2026-04-26T07:48:14Z</time></trkpt><trkpt lat="40.5730787672414" lon="15.683411180242096"><ele>655.0</ele><time>2026-04-26T07:48:15Z</time></trkpt><trkpt lat="40.57282940941817" lon="15.683445905642378"><ele>648.0</ele><time>2026-04-26T07:48:16Z</time></trkpt><trkpt lat="40.57258708007814" lon="15.683503315841618"><ele>648.0</ele><time>2026-04-26T07:48:17Z</time></trkpt><trkpt lat="40.57235906644965" lon="15.683596018522847"><ele>648.0</ele><time>2026-04-26T07:48:18Z</time></trkpt><trkpt lat="40.57213836564238" lon="15.683708663768051"><ele>652.0</ele><time>2026-04-26T07:48:19Z</time></trkpt><trkpt lat="40.57192406871645" lon="15.683824537599522"><ele>656.0</ele><time>2026-04-26T07:48:20Z</time></trkpt><trkpt lat="40.57171113769914" lon="15.683957307559385"><ele>656.0</ele><time>2026-04-26T07:48:21Z</time></trkpt><trkpt lat="40.571497158123925" lon="15.684070884883985"><ele>656.0</ele><time>2026-04-26T07:48:22Z</time></trkpt><trkpt lat="40.57128016182282" lon="15.684164162522801"><ele>644.5</ele><time>2026-04-26T07:48:23Z</time></trkpt><trkpt lat="40.57105407091879" lon="15.684245351571624"><ele>633.0</ele><time>2026-04-26T07:48:24Z</time></trkpt><trkpt lat="40.57081791968258" lon="15.684301370253744"><ele>633.0</ele><time>2026-04-26T07:48:25Z</time></trkpt><trkpt lat="40.570577788891896" lon="15.68432982897811"><ele>633.0</ele><time>2026-04-26T07:48:26Z</time></trkpt><trkpt lat="40.570327601252245" lon="15.68424598206704"><ele>626.0</ele><time>2026-04-26T07:48:27Z</time></trkpt><trkpt lat="40.570078858824864" lon="15.684216378052229"><ele>619.0</ele><time>2026-04-26T07:48:28Z</time></trkpt><trkpt lat="40.56983035269742" lon="15.684156406668908"><ele>619.0</ele><time>2026-04-26T07:48:29Z</time></trkpt><trkpt lat="40.5695775041153" lon="15.684081776150112"><ele>619.0</ele><time>2026-04-26T07:48:30Z</time></trkpt><trkpt lat="40.56932551862018" lon="15.684002207117013"><ele>616.5</ele><time>2026-04-26T07:48:31Z</time></trkpt><trkpt lat="40.56907017022034" lon="15.683918112592577"><ele>614.0</ele><time>2026-04-26T07:48:32Z</time></trkpt><trkpt lat="40.56881235188953" lon="15.683831775184021"><ele>616.0</ele><time>2026-04-26T07:48:33Z</time></trkpt><trkpt lat="40.568553809235084" lon="15.683745195231799"><ele>618.0</ele><time>2026-04-26T07:48:34Z</time></trkpt><trkpt lat="40.568295325376816" lon="15.683658398609278"><ele>621.0</ele><time>2026-04-26T07:48:35Z</time></trkpt><trkpt lat="40.56803801914815" lon="15.683570045433862"><ele>624.0</ele><time>2026-04-26T07:48:36Z</time></trkpt><trkpt lat="40.56778604047752" lon="15.68347070475632"><ele>630.0</ele><time>2026-04-26T07:48:37Z</time></trkpt><trkpt lat="40.56754533988611" lon="15.683343779196267"><ele>636.0</ele><time>2026-04-26T07:48:38Z</time></trkpt><trkpt lat="40.567310803483664" lon="15.683190470514964"><ele>636.0</ele><time>2026-04-26T07:48:39Z</time></trkpt><trkpt lat="40.56709243433199" lon="15.683008583187025"><ele>636.0</ele><time>2026-04-26T07:48:40Z</time></trkpt><trkpt lat="40.5668888171637" lon="15.68279997670643"><ele>636.5</ele><time>2026-04-26T07:48:41Z</time></trkpt><trkpt lat="40.56669947724057" lon="15.682564498739389"><ele>637.0</ele><time>2026-04-26T07:48:42Z</time></trkpt><trkpt lat="40.566522143463054" lon="15.682313332809176"><ele>637.0</ele><time>2026-04-26T07:48:43Z</time></trkpt><trkpt lat="40.566354983125755" lon="15.682052642140317"><ele>637.0</ele><time>2026-04-26T07:48:44Z</time></trkpt><trkpt lat="40.56619367964695" lon="15.681796162769183"><ele>645.0</ele><time>2026-04-26T07:48:45Z</time></trkpt><trkpt lat="40.566039328202415" lon="15.68155232215365"><ele>653.0</ele><time>2026-04-26T07:48:46Z</time></trkpt><trkpt lat="40.56589344279292" lon="15.681307481085001"><ele>657.0</ele><time>2026-04-26T07:48:47Z</time></trkpt><trkpt lat="40.56575691275594" lon="15.681058176958913"><ele>661.0</ele><time>2026-04-26T07:48:48Z</time></trkpt><trkpt lat="40.56563191906363" lon="15.68080517819107"><ele>661.0</ele><time>2026-04-26T07:48:49Z</time></trkpt><trkpt lat="40.565512144848576" lon="15.680550542298937"><ele>661.0</ele><time>2026-04-26T07:48:50Z</time></trkpt><trkpt lat="40.56543070238359" lon="15.680278020179296"><ele>663.0</ele><time>2026-04-26T07:48:51Z</time></trkpt><trkpt lat="40.56536280738171" lon="15.679985254632898"><ele>665.0</ele><time>2026-04-26T07:48:52.014Z</time></trkpt><trkpt lat="40.565319558845026" lon="15.679684273513189"><ele>692.5</ele><time>2026-04-26T07:48:53.015Z</time></trkpt><trkpt lat="40.56529578110811" lon="15.679376232452936"><ele>720.0</ele><time>2026-04-26T07:48:54.016Z</time></trkpt><trkpt lat="40.56529171938376" lon="15.679064606043157"><ele>720.0</ele><time>2026-04-26T07:48:55.015Z</time></trkpt><trkpt lat="40.565308356915274" lon="15.678755622317404"><ele>720.0</ele><time>2026-04-26T07:48:56.014Z</time></trkpt><trkpt lat="40.5661656924445" lon="15.676291818077074"><ele>726.5</ele><time>2026-04-26T07:49:00.744Z</time></trkpt><trkpt lat="40.56645042169541" lon="15.675834434735311"><ele>733.0</ele><time>2026-04-26T07:49:01.744Z</time></trkpt><trkpt lat="40.56673659322794" lon="15.675379142268058"><ele>741.0</ele><time>2026-04-26T07:49:02.744Z</time></trkpt><trkpt lat="40.56702340258947" lon="15.67492348750128"><ele>739.5</ele><time>2026-04-26T07:49:03.744Z</time></trkpt><trkpt lat="40.56730938613296" lon="15.674468075577925"><ele>738.0</ele><time>2026-04-26T07:49:04.743Z</time></trkpt><trkpt lat="40.56759653000946" lon="15.674012883343208"><ele>726.0</ele><time>2026-04-26T07:49:05.744Z</time></trkpt><trkpt lat="40.56788134624162" lon="15.673555654105197"><ele>714.0</ele><time>2026-04-26T07:49:06.744Z</time></trkpt><trkpt lat="40.568154983713946" lon="15.673087154317757"><ele>714.0</ele><time>2026-04-26T07:49:07.744Z</time></trkpt><trkpt lat="40.568338" lon="15.6727421"><ele>714.0</ele><time>2026-04-26T07:49:08.744Z</time></trkpt><trkpt lat="40.56875429585629" lon="15.671511506676367"><ele>709.0</ele><time>2026-04-26T07:49:22Z</time></trkpt><trkpt lat="40.568880943489376" lon="15.671209761606644"><ele>704.0</ele><time>2026-04-26T07:49:23Z</time></trkpt><trkpt lat="40.56907977241286" lon="15.67090796472055"><ele>704.0</ele><time>2026-04-26T07:49:24Z</time></trkpt><trkpt lat="40.56918602636481" lon="15.670598265937492"><ele>704.0</ele><time>2026-04-26T07:49:25Z</time></trkpt><trkpt lat="40.56933127021545" lon="15.67029916752697"><ele>710.0</ele><time>2026-04-26T07:49:26Z</time></trkpt><trkpt lat="40.56942304047587" lon="15.669973147391763"><ele>716.0</ele><time>2026-04-26T07:49:27Z</time></trkpt><trkpt lat="40.56950681317153" lon="15.669641933066472"><ele>715.5</ele><time>2026-04-26T07:49:28Z</time></trkpt><trkpt lat="40.56958070771722" lon="15.669306889914834"><ele>715.0</ele><time>2026-04-26T07:49:29Z</time></trkpt><trkpt lat="40.56964811314318" lon="15.668975549821674"><ele>715.0</ele><time>2026-04-26T07:49:30Z</time></trkpt><trkpt lat="40.56970903557926" lon="15.668642485369086"><ele>715.0</ele><time>2026-04-26T07:49:31Z</time></trkpt><trkpt lat="40.56976170581776" lon="15.668306182590237"><ele>720.5</ele><time>2026-04-26T07:49:32Z</time></trkpt><trkpt lat="40.56980574131082" lon="15.667977384381622"><ele>726.0</ele><time>2026-04-26T07:49:33Z</time></trkpt><trkpt lat="40.56984305337998" lon="15.667658044286185"><ele>734.5</ele><time>2026-04-26T07:49:34Z</time></trkpt><trkpt lat="40.569872456505344" lon="15.667350608624277"><ele>743.0</ele><time>2026-04-26T07:49:35Z</time></trkpt><trkpt lat="40.569895775240866" lon="15.667048872047765"><ele>746.3333333333333</ele><time>2026-04-26T07:49:36.014Z</time></trkpt><trkpt lat="40.56990366392705" lon="15.666756436557156"><ele>749.6666666666666</ele><time>2026-04-26T07:49:37.014Z</time></trkpt><trkpt lat="40.569927371675" lon="15.66645987280998"><ele>753.0</ele><time>2026-04-26T07:49:38.015Z</time></trkpt><trkpt lat="40.56994688137236" lon="15.666166896911726"><ele>753.0</ele><time>2026-04-26T07:49:39.014Z</time></trkpt><trkpt lat="40.56995916307277" lon="15.665869013061466"><ele>753.0</ele><time>2026-04-26T07:49:40.012Z</time></trkpt><trkpt lat="40.56997022330861" lon="15.665572326423526"><ele>745.0</ele><time>2026-04-26T07:49:41.011Z</time></trkpt><trkpt lat="40.569972052468344" lon="15.665271560231453"><ele>737.0</ele><time>2026-04-26T07:49:42.011Z</time></trkpt><trkpt lat="40.56996874803321" lon="15.664970327857137"><ele>737.0</ele><time>2026-04-26T07:49:43.013Z</time></trkpt><trkpt lat="40.569838303741975" lon="15.664533091480822"><ele>737.0</ele><time>2026-04-26T07:49:44Z</time></trkpt><trkpt lat="40.56980305809532" lon="15.664213673450915"><ele>733.0</ele><time>2026-04-26T07:49:45Z</time></trkpt><trkpt lat="40.56975522426615" lon="15.663880387797231"><ele>729.0</ele><time>2026-04-26T07:49:46Z</time></trkpt><trkpt lat="40.56970222332368" lon="15.663563391566042"><ele>727.5</ele><time>2026-04-26T07:49:47Z</time></trkpt><trkpt lat="40.56964502071524" lon="15.66325078800274"><ele>726.0</ele><time>2026-04-26T07:49:48Z</time></trkpt><trkpt lat="40.56958461087009" lon="15.662945653621488"><ele>728.0</ele><time>2026-04-26T07:49:49Z</time></trkpt><trkpt lat="40.5695141696647" lon="15.662635435425301"><ele>730.0</ele><time>2026-04-26T07:49:50Z</time></trkpt><trkpt lat="40.56943439271902" lon="15.662322929749834"><ele>730.0</ele><time>2026-04-26T07:49:51Z</time></trkpt><trkpt lat="40.56934800919111" lon="15.662008822204589"><ele>730.0</ele><time>2026-04-26T07:49:52Z</time></trkpt><trkpt lat="40.569254592350404" lon="15.661697498002365"><ele>730.0</ele><time>2026-04-26T07:49:53Z</time></trkpt><trkpt lat="40.56915275812196" lon="15.66138795437703"><ele>730.0</ele><time>2026-04-26T07:49:54Z</time></trkpt><trkpt lat="40.569044585101416" lon="15.661080473105232"><ele>733.5</ele><time>2026-04-26T07:49:55Z</time></trkpt><trkpt lat="40.56892707479131" lon="15.660774610291742"><ele>737.0</ele><time>2026-04-26T07:49:56Z</time></trkpt><trkpt lat="40.5688027560446" lon="15.660471724677024"><ele>745.0</ele><time>2026-04-26T07:49:57Z</time></trkpt><trkpt lat="40.568673903598054" lon="15.660169373817496"><ele>753.0</ele><time>2026-04-26T07:49:58Z</time></trkpt><trkpt lat="40.56853671859733" lon="15.65986815307258"><ele>753.0</ele><time>2026-04-26T07:49:59Z</time></trkpt><trkpt lat="40.568389066730525" lon="15.659575132184953"><ele>753.0</ele><time>2026-04-26T07:50:00Z</time></trkpt><trkpt lat="40.56823337796701" lon="15.659284698669621"><ele>758.5</ele><time>2026-04-26T07:50:01Z</time></trkpt><trkpt lat="40.56807066170336" lon="15.65900256707903"><ele>764.0</ele><time>2026-04-26T07:50:02Z</time></trkpt><trkpt lat="40.567905102733356" lon="15.658728254623023"><ele>773.5</ele><time>2026-04-26T07:50:03.014Z</time></trkpt><trkpt lat="40.56773865135337" lon="15.658468019240397"><ele>783.0</ele><time>2026-04-26T07:50:04.015Z</time></trkpt><trkpt lat="40.567566571857" lon="15.65821672665844"><ele>783.0</ele><time>2026-04-26T07:50:05.013Z</time></trkpt><trkpt lat="40.56737802946139" lon="15.657979558549195"><ele>783.0</ele><time>2026-04-26T07:50:06.014Z</time></trkpt><trkpt lat="40.55870594460569" lon="15.647765491172343"><ele>778.3333333333333</ele><time>2026-04-26T07:50:49Z</time></trkpt><trkpt lat="40.55851296728586" lon="15.64764771622011"><ele>773.6666666666666</ele><time>2026-04-26T07:50:50Z</time></trkpt><trkpt lat="40.55833987206299" lon="15.647587670304457"><ele>769.0</ele><time>2026-04-26T07:50:51Z</time></trkpt><trkpt lat="40.558151733023614" lon="15.647515788189986"><ele>769.0</ele><time>2026-04-26T07:50:52Z</time></trkpt><trkpt lat="40.55797235978481" lon="15.647458856683299"><ele>769.0</ele><time>2026-04-26T07:50:53Z</time></trkpt><trkpt lat="40.55780749970922" lon="15.647413713185221"><ele>769.0</ele><time>2026-04-26T07:50:54Z</time></trkpt><trkpt lat="40.557651305710735" lon="15.647378974940214"><ele>768.3333333333333</ele><time>2026-04-26T07:50:55Z</time></trkpt><trkpt lat="40.557497784757906" lon="15.647357876562719"><ele>767.6666666666666</ele><time>2026-04-26T07:50:56Z</time></trkpt><trkpt lat="40.557347855386745" lon="15.647339861046284"><ele>767.0</ele><time>2026-04-26T07:50:57Z</time></trkpt><trkpt lat="40.55719578282035" lon="15.64732801795105"><ele>767.0</ele><time>2026-04-26T07:50:58Z</time></trkpt><trkpt lat="40.55703981494419" lon="15.647325685577357"><ele>767.0</ele><time>2026-04-26T07:50:59Z</time></trkpt><trkpt lat="40.55689195181157" lon="15.647327306401595"><ele>767.0</ele><time>2026-04-26T07:51:00Z</time></trkpt><trkpt lat="40.556749413598574" lon="15.647335455584022"><ele>767.0</ele><time>2026-04-26T07:51:01Z</time></trkpt><trkpt lat="40.556613671442484" lon="15.647348715132539"><ele>765.0</ele><time>2026-04-26T07:51:02Z</time></trkpt><trkpt lat="40.55647947011037" lon="15.647367603086877"><ele>763.0</ele><time>2026-04-26T07:51:03Z</time></trkpt><trkpt lat="40.55634703424853" lon="15.647390352495002"><ele>761.0</ele><time>2026-04-26T07:51:04Z</time></trkpt><trkpt lat="40.55621796414419" lon="15.64741535511011"><ele>759.0</ele><time>2026-04-26T07:51:05Z</time></trkpt><trkpt lat="40.55608573319868" lon="15.647447647863833"><ele>756.0</ele><time>2026-04-26T07:51:06Z</time></trkpt><trkpt lat="40.55594803819668" lon="15.647487894123001"><ele>753.0</ele><time>2026-04-26T07:51:07Z</time></trkpt><trkpt lat="40.555793410239346" lon="15.647536802124064"><ele>750.0</ele><time>2026-04-26T07:51:08Z</time></trkpt><trkpt lat="40.55561976505493" lon="15.647596177076476"><ele>750.0</ele><time>2026-04-26T07:51:09Z</time></trkpt><trkpt lat="40.55543226686655" lon="15.647668438425885"><ele>750.0</ele><time>2026-04-26T07:51:10Z</time></trkpt><trkpt lat="40.55524367118008" lon="15.64774435182555"><ele>750.0</ele><time>2026-04-26T07:51:11Z</time></trkpt><trkpt lat="40.555052038058534" lon="15.647817036034569"><ele>750.0</ele><time>2026-04-26T07:51:12Z</time></trkpt><trkpt lat="40.554856152105266" lon="15.647888070386058"><ele>750.0</ele><time>2026-04-26T07:51:13Z</time></trkpt><trkpt lat="40.55465847396978" lon="15.647956817943626"><ele>750.0</ele><time>2026-04-26T07:51:14Z</time></trkpt><trkpt lat="40.554457603542815" lon="15.648036661338022"><ele>745.6666666666666</ele><time>2026-04-26T07:51:15Z</time></trkpt><trkpt lat="40.55425045484456" lon="15.648114237958785"><ele>741.3333333333333</ele><time>2026-04-26T07:51:16Z</time></trkpt><trkpt lat="40.554034005560226" lon="15.648193984020619"><ele>737.0</ele><time>2026-04-26T07:51:17Z</time></trkpt><trkpt lat="40.553814236174226" lon="15.648249340015807"><ele>734.3333333333333</ele><time>2026-04-26T07:51:18Z</time></trkpt><trkpt lat="40.5535995331422" lon="15.648318367304784"><ele>731.6666666666666</ele><time>2026-04-26T07:51:19Z</time></trkpt><trkpt lat="40.55338465191859" lon="15.648384842423061"><ele>729.0</ele><time>2026-04-26T07:51:20Z</time></trkpt><trkpt lat="40.553168026118996" lon="15.648446461657183"><ele>729.0</ele><time>2026-04-26T07:51:21Z</time></trkpt><trkpt lat="40.55295129815004" lon="15.648508116535067"><ele>729.0</ele><time>2026-04-26T07:51:22Z</time></trkpt><trkpt lat="40.55273364332252" lon="15.648568267538568"><ele>729.0</ele><time>2026-04-26T07:51:23Z</time></trkpt><trkpt lat="40.55252021033094" lon="15.648621578365534"><ele>728.3333333333334</ele><time>2026-04-26T07:51:24Z</time></trkpt><trkpt lat="40.552309378737114" lon="15.648670947632807"><ele>727.6666666666667</ele><time>2026-04-26T07:51:25Z</time></trkpt><trkpt lat="40.55210190454824" lon="15.648716650719226"><ele>727.0</ele><time>2026-04-26T07:51:26Z</time></trkpt><trkpt lat="40.55189730949464" lon="15.64876021766995"><ele>727.0</ele><time>2026-04-26T07:51:27Z</time></trkpt><trkpt lat="40.55169397806799" lon="15.648802523444445"><ele>727.0</ele><time>2026-04-26T07:51:28Z</time></trkpt><trkpt lat="40.55149533457863" lon="15.648840703283355"><ele>727.0</ele><time>2026-04-26T07:51:29Z</time></trkpt><trkpt lat="40.551295000037776" lon="15.64887493077029"><ele>720.3333333333334</ele><time>2026-04-26T07:51:30Z</time></trkpt><trkpt lat="40.55109510498232" lon="15.648907489742875"><ele>713.6666666666666</ele><time>2026-04-26T07:51:31Z</time></trkpt><trkpt lat="40.550888795838155" lon="15.648936667803373"><ele>707.0</ele><time>2026-04-26T07:51:32Z</time></trkpt><trkpt lat="40.55067750463397" lon="15.648964797249732"><ele>707.0</ele><time>2026-04-26T07:51:33Z</time></trkpt><trkpt lat="40.550460426678754" lon="15.648992425888895"><ele>707.0</ele><time>2026-04-26T07:51:34Z</time></trkpt><trkpt lat="40.550236208434015" lon="15.649018649570829"><ele>707.0</ele><time>2026-04-26T07:51:35Z</time></trkpt><trkpt lat="40.550006469576196" lon="15.649040419047498"><ele>699.5</ele><time>2026-04-26T07:51:36Z</time></trkpt><trkpt lat="40.54977138912325" lon="15.649058709946683"><ele>692.0</ele><time>2026-04-26T07:51:37Z</time></trkpt><trkpt lat="40.549530435089146" lon="15.64907487072074"><ele>690.5</ele><time>2026-04-26T07:51:38Z</time></trkpt><trkpt lat="40.549285198269395" lon="15.649089901753443"><ele>689.0</ele><time>2026-04-26T07:51:39Z</time></trkpt><trkpt lat="40.54903479144441" lon="15.649098158816097"><ele>689.0</ele><time>2026-04-26T07:51:40Z</time></trkpt><trkpt lat="40.54877944553722" lon="15.649102014832927"><ele>689.0</ele><time>2026-04-26T07:51:41Z</time></trkpt><trkpt lat="40.54851730967396" lon="15.649104301230054"><ele>689.0</ele><time>2026-04-26T07:51:42Z</time></trkpt><trkpt lat="40.54825580695361" lon="15.649102667621946"><ele>689.0</ele><time>2026-04-26T07:51:43Z</time></trkpt><trkpt lat="40.54799348306764" lon="15.649096640747686"><ele>687.0</ele><time>2026-04-26T07:51:44Z</time></trkpt><trkpt lat="40.54772729608745" lon="15.649085232729183"><ele>685.0</ele><time>2026-04-26T07:51:45Z</time></trkpt><trkpt lat="40.54746112435607" lon="15.64907350702293"><ele>685.0</ele><time>2026-04-26T07:51:46Z</time></trkpt><trkpt lat="40.54719412283851" lon="15.649054270218922"><ele>685.0</ele><time>2026-04-26T07:51:47Z</time></trkpt><trkpt lat="40.5469196800197" lon="15.649026068357044"><ele>680.5</ele><time>2026-04-26T07:51:48Z</time></trkpt><trkpt lat="40.54664361339248" lon="15.648996949633101"><ele>676.0</ele><time>2026-04-26T07:51:49Z</time></trkpt><trkpt lat="40.54636679412825" lon="15.648964129568633"><ele>672.5</ele><time>2026-04-26T07:51:50Z</time></trkpt><trkpt lat="40.54609458780402" lon="15.648926056176835"><ele>669.0</ele><time>2026-04-26T07:51:51Z</time></trkpt><trkpt lat="40.54582437798044" lon="15.648883275274462"><ele>669.0</ele><time>2026-04-26T07:51:52Z</time></trkpt><trkpt lat="40.54555747912326" lon="15.648835738121516"><ele>669.0</ele><time>2026-04-26T07:51:53Z</time></trkpt><trkpt lat="40.54529773032682" lon="15.648786962274437"><ele>667.0</ele><time>2026-04-26T07:51:54Z</time></trkpt><trkpt lat="40.545045750549804" lon="15.648736658611693"><ele>665.0</ele><time>2026-04-26T07:51:55Z</time></trkpt><trkpt lat="40.54479574263652" lon="15.648682332320817"><ele>661.5</ele><time>2026-04-26T07:51:56Z</time></trkpt><trkpt lat="40.54454799202569" lon="15.648622068937142"><ele>658.0</ele><time>2026-04-26T07:51:57Z</time></trkpt><trkpt lat="40.54429545635715" lon="15.64855577830811"><ele>655.5</ele><time>2026-04-26T07:51:58Z</time></trkpt><trkpt lat="40.544039872267874" lon="15.648487079012463"><ele>653.0</ele><time>2026-04-26T07:51:59Z</time></trkpt><trkpt lat="40.54378337714583" lon="15.648414475764369"><ele>659.0</ele><time>2026-04-26T07:52:00Z</time></trkpt><trkpt lat="40.54352762923603" lon="15.648335027254836"><ele>665.0</ele><time>2026-04-26T07:52:01Z</time></trkpt><trkpt lat="40.54326761472653" lon="15.648251049125497"><ele>665.0</ele><time>2026-04-26T07:52:02Z</time></trkpt><trkpt lat="40.54301287405882" lon="15.648164421360047"><ele>665.0</ele><time>2026-04-26T07:52:03Z</time></trkpt><trkpt lat="40.54276130983228" lon="15.648079246313118"><ele>674.0</ele><time>2026-04-26T07:52:04Z</time></trkpt><trkpt lat="40.54251181734257" lon="15.647994772751154"><ele>683.0</ele><time>2026-04-26T07:52:05Z</time></trkpt><trkpt lat="40.542259981987456" lon="15.647909505918705"><ele>686.0</ele><time>2026-04-26T07:52:06Z</time></trkpt><trkpt lat="40.54200802567712" lon="15.6478240063658"><ele>689.0</ele><time>2026-04-26T07:52:07Z</time></trkpt><trkpt lat="40.541754354049175" lon="15.647737945728565"><ele>689.0</ele><time>2026-04-26T07:52:08Z</time></trkpt><trkpt lat="40.54150233863033" lon="15.64765268712348"><ele>689.0</ele><time>2026-04-26T07:52:09Z</time></trkpt><trkpt lat="40.541250754071584" lon="15.647567574276243"><ele>694.0</ele><time>2026-04-26T07:52:10Z</time></trkpt><trkpt lat="40.540998779355384" lon="15.647482364696785"><ele>699.0</ele><time>2026-04-26T07:52:11Z</time></trkpt><trkpt lat="40.54074703431282" lon="15.64739762365717"><ele>699.0</ele><time>2026-04-26T07:52:12Z</time></trkpt><trkpt lat="40.54049572085889" lon="15.647313028013114"><ele>699.0</ele><time>2026-04-26T07:52:13Z</time></trkpt><trkpt lat="40.54024478373278" lon="15.647226754248797"><ele>704.5</ele><time>2026-04-26T07:52:14Z</time></trkpt><trkpt lat="40.53999455733327" lon="15.647140848684565"><ele>710.0</ele><time>2026-04-26T07:52:15Z</time></trkpt><trkpt lat="40.539743060137425" lon="15.647054479774363"><ele>714.0</ele><time>2026-04-26T07:52:16Z</time></trkpt><trkpt lat="40.53949379349908" lon="15.646968876864813"><ele>718.0</ele><time>2026-04-26T07:52:17Z</time></trkpt><trkpt lat="40.53924670955877" lon="15.646883244299511"><ele>718.0</ele><time>2026-04-26T07:52:18Z</time></trkpt><trkpt lat="40.539000682713926" lon="15.646794939205991"><ele>718.0</ele><time>2026-04-26T07:52:19Z</time></trkpt><trkpt lat="40.538757729658435" lon="15.646698619606315"><ele>720.5</ele><time>2026-04-26T07:52:20Z</time></trkpt><trkpt lat="40.538521427038205" lon="15.646603755689599"><ele>723.0</ele><time>2026-04-26T07:52:21Z</time></trkpt><trkpt lat="40.53829397410422" lon="15.64651244448699"><ele>723.0</ele><time>2026-04-26T07:52:22Z</time></trkpt><trkpt lat="40.538065792130325" lon="15.646417874924095"><ele>723.0</ele><time>2026-04-26T07:52:23Z</time></trkpt><trkpt lat="40.537855739" lon="15.64627683906808"><ele>722.5</ele><time>2026-04-26T07:52:24Z</time></trkpt><trkpt lat="40.53764646321089" lon="15.64611773724739"><ele>722.0</ele><time>2026-04-26T07:52:25Z</time></trkpt><trkpt lat="40.53743757371613" lon="15.645947569996109"><ele>722.0</ele><time>2026-04-26T07:52:26Z</time></trkpt><trkpt lat="40.53723085991563" lon="15.645765100097634"><ele>722.0</ele><time>2026-04-26T07:52:27Z</time></trkpt><trkpt lat="40.53702606791314" lon="15.64557703192787"><ele>724.5</ele><time>2026-04-26T07:52:28Z</time></trkpt><trkpt lat="40.536825804493574" lon="15.645376605228652"><ele>727.0</ele><time>2026-04-26T07:52:29Z</time></trkpt><trkpt lat="40.53663291706164" lon="15.645164692630548"><ele>727.0</ele><time>2026-04-26T07:52:30Z</time></trkpt><trkpt lat="40.536449544461995" lon="15.64493556205369"><ele>727.0</ele><time>2026-04-26T07:52:31Z</time></trkpt><trkpt lat="40.53627040628741" lon="15.644699879571423"><ele>732.5</ele><time>2026-04-26T07:52:32Z</time></trkpt><trkpt lat="40.536095479157616" lon="15.64446701577319"><ele>738.0</ele><time>2026-04-26T07:52:33Z</time></trkpt><trkpt lat="40.535920886707686" lon="15.644236689020543"><ele>738.0</ele><time>2026-04-26T07:52:34Z</time></trkpt><trkpt lat="40.53574360056179" lon="15.64400549510473"><ele>738.0</ele><time>2026-04-26T07:52:35Z</time></trkpt><trkpt lat="40.535565662612846" lon="15.64377563891029"><ele>737.5</ele><time>2026-04-26T07:52:36Z</time></trkpt><trkpt lat="40.535387773236835" lon="15.643546528367908"><ele>737.0</ele><time>2026-04-26T07:52:37Z</time></trkpt><trkpt lat="40.53520714210706" lon="15.643315880634484"><ele>739.5</ele><time>2026-04-26T07:52:38Z</time></trkpt><trkpt lat="40.53503324893277" lon="15.643082279577696"><ele>742.0</ele><time>2026-04-26T07:52:39Z</time></trkpt><trkpt lat="40.534859800872304" lon="15.642847985972907"><ele>739.0</ele><time>2026-04-26T07:52:40Z</time></trkpt><trkpt lat="40.53468572872324" lon="15.642616011432043"><ele>736.0</ele><time>2026-04-26T07:52:41Z</time></trkpt><trkpt lat="40.534509294406625" lon="15.64238828815515"><ele>736.0</ele><time>2026-04-26T07:52:42Z</time></trkpt><trkpt lat="40.534327193636024" lon="15.642165759275024"><ele>736.0</ele><time>2026-04-26T07:52:43Z</time></trkpt><trkpt lat="40.53414078627171" lon="15.641946361224884"><ele>733.0</ele><time>2026-04-26T07:52:44Z</time></trkpt><trkpt lat="40.53394756227385" lon="15.64173466276663"><ele>730.0</ele><time>2026-04-26T07:52:45Z</time></trkpt><trkpt lat="40.53374529548569" lon="15.641539433500496"><ele>737.0</ele><time>2026-04-26T07:52:46Z</time></trkpt><trkpt lat="40.53354223134168" lon="15.641358212977236"><ele>744.0</ele><time>2026-04-26T07:52:47Z</time></trkpt><trkpt lat="40.53332811169829" lon="15.641185373275652"><ele>744.0</ele><time>2026-04-26T07:52:48Z</time></trkpt><trkpt lat="40.533105382379624" lon="15.641023732482504"><ele>744.0</ele><time>2026-04-26T07:52:49Z</time></trkpt><trkpt lat="40.532873442389395" lon="15.640875031442212"><ele>744.0</ele><time>2026-04-26T07:52:50Z</time></trkpt><trkpt lat="40.5326339048293" lon="15.640741004584045"><ele>744.0</ele><time>2026-04-26T07:52:51Z</time></trkpt><trkpt lat="40.53238762093784" lon="15.64061883120775"><ele>744.0</ele><time>2026-04-26T07:52:52Z</time></trkpt><trkpt lat="40.53213240510174" lon="15.64051269624893"><ele>744.0</ele><time>2026-04-26T07:52:53Z</time></trkpt><trkpt lat="40.531873924748915" lon="15.640415634883496"><ele>743.0</ele><time>2026-04-26T07:52:54Z</time></trkpt><trkpt lat="40.531609441848076" lon="15.640335313850949"><ele>742.0</ele><time>2026-04-26T07:52:55Z</time></trkpt><trkpt lat="40.531338427406986" lon="15.6402758443869"><ele>743.5</ele><time>2026-04-26T07:52:56Z</time></trkpt><trkpt lat="40.5310623499398" lon="15.64024239395196"><ele>745.0</ele><time>2026-04-26T07:52:57Z</time></trkpt><trkpt lat="40.53078347857898" lon="15.640225451987744"><ele>745.0</ele><time>2026-04-26T07:52:58Z</time></trkpt><trkpt lat="40.530503016694276" lon="15.64022447640318"><ele>745.0</ele><time>2026-04-26T07:52:59Z</time></trkpt><trkpt lat="40.53023228186873" lon="15.6402389112817"><ele>746.0</ele><time>2026-04-26T07:53:00Z</time></trkpt><trkpt lat="40.52997776709843" lon="15.640262651083031"><ele>747.0</ele><time>2026-04-26T07:53:01Z</time></trkpt><trkpt lat="40.52973382620018" lon="15.640291290662702"><ele>752.0</ele><time>2026-04-26T07:53:02Z</time></trkpt><trkpt lat="40.529500491311474" lon="15.640316765444856"><ele>757.0</ele><time>2026-04-26T07:53:03Z</time></trkpt><trkpt lat="40.52927388239464" lon="15.64033332105455"><ele>757.0</ele><time>2026-04-26T07:53:04Z</time></trkpt><trkpt lat="40.52904156819512" lon="15.640355256698829"><ele>757.0</ele><time>2026-04-26T07:53:05Z</time></trkpt><trkpt lat="40.528802918066276" lon="15.640373646569815"><ele>755.0</ele><time>2026-04-26T07:53:06Z</time></trkpt><trkpt lat="40.52855966658582" lon="15.640400831442308"><ele>753.0</ele><time>2026-04-26T07:53:07Z</time></trkpt><trkpt lat="40.52831382426428" lon="15.640424197804494"><ele>753.0</ele><time>2026-04-26T07:53:08Z</time></trkpt><trkpt lat="40.528066244464036" lon="15.640441450998193"><ele>753.0</ele><time>2026-04-26T07:53:09Z</time></trkpt><trkpt lat="40.527817066048925" lon="15.640465321593515"><ele>750.0</ele><time>2026-04-26T07:53:10Z</time></trkpt><trkpt lat="40.52757116041054" lon="15.640488606690866"><ele>747.0</ele><time>2026-04-26T07:53:11Z</time></trkpt><trkpt lat="40.52733007552866" lon="15.640510696907326"><ele>747.0</ele><time>2026-04-26T07:53:12Z</time></trkpt><trkpt lat="40.52708922311091" lon="15.640532416629043"><ele>747.0</ele><time>2026-04-26T07:53:13Z</time></trkpt><trkpt lat="40.526843431353974" lon="15.640552250024362"><ele>745.5</ele><time>2026-04-26T07:53:14Z</time></trkpt><trkpt lat="40.526592535425976" lon="15.640576535561808"><ele>744.0</ele><time>2026-04-26T07:53:15Z</time></trkpt><trkpt lat="40.52633717780616" lon="15.640601655829164"><ele>742.5</ele><time>2026-04-26T07:53:16Z</time></trkpt><trkpt lat="40.526077497137265" lon="15.640633547709264"><ele>741.0</ele><time>2026-04-26T07:53:17Z</time></trkpt><trkpt lat="40.525812845734826" lon="15.640684188604476"><ele>741.0</ele><time>2026-04-26T07:53:18Z</time></trkpt><trkpt lat="40.52555053124089" lon="15.64073859814625"><ele>741.0</ele><time>2026-04-26T07:53:19Z</time></trkpt><trkpt lat="40.525281249804756" lon="15.64080731213239"><ele>740.0</ele><time>2026-04-26T07:53:20Z</time></trkpt><trkpt lat="40.52501134199188" lon="15.640887208987664"><ele>739.0</ele><time>2026-04-26T07:53:21Z</time></trkpt><trkpt lat="40.52474314908218" lon="15.64097301245301"><ele>737.0</ele><time>2026-04-26T07:53:22Z</time></trkpt><trkpt lat="40.52448768943207" lon="15.641047922731989"><ele>735.0</ele><time>2026-04-26T07:53:23Z</time></trkpt><trkpt lat="40.524245890773265" lon="15.641121638561877"><ele>744.0</ele><time>2026-04-26T07:53:24Z</time></trkpt><trkpt lat="40.52401415235651" lon="15.641188818073363"><ele>753.0</ele><time>2026-04-26T07:53:25Z</time></trkpt><trkpt lat="40.52378262040864" lon="15.641260549748754"><ele>745.5</ele><time>2026-04-26T07:53:26Z</time></trkpt><trkpt lat="40.523549241045906" lon="15.641334782067906"><ele>738.0</ele><time>2026-04-26T07:53:27Z</time></trkpt><trkpt lat="40.52330665399786" lon="15.641405761336173"><ele>738.0</ele><time>2026-04-26T07:53:28Z</time></trkpt><trkpt lat="40.52305791865886" lon="15.641468678746017"><ele>738.0</ele><time>2026-04-26T07:53:29Z</time></trkpt><trkpt lat="40.52279580828684" lon="15.64147532562998"><ele>730.5</ele><time>2026-04-26T07:53:30Z</time></trkpt><trkpt lat="40.522534475149975" lon="15.641504289619842"><ele>723.0</ele><time>2026-04-26T07:53:31Z</time></trkpt><trkpt lat="40.52226429080672" lon="15.641517354993558"><ele>719.0</ele><time>2026-04-26T07:53:32Z</time></trkpt><trkpt lat="40.52199125435762" lon="15.641503030469982"><ele>715.0</ele><time>2026-04-26T07:53:33Z</time></trkpt><trkpt lat="40.521712583235335" lon="15.641474951716393"><ele>715.0</ele><time>2026-04-26T07:53:34Z</time></trkpt><trkpt lat="40.521443463349776" lon="15.641424729184124"><ele>715.0</ele><time>2026-04-26T07:53:35Z</time></trkpt><trkpt lat="40.5211772905465" lon="15.641353706063155"><ele>715.0</ele><time>2026-04-26T07:53:36Z</time></trkpt><trkpt lat="40.52091744384035" lon="15.641266990714303"><ele>715.0</ele><time>2026-04-26T07:53:37Z</time></trkpt><trkpt lat="40.52066064081424" lon="15.641163535576794"><ele>713.0</ele><time>2026-04-26T07:53:38Z</time></trkpt><trkpt lat="40.520401065433084" lon="15.6410402142958"><ele>711.0</ele><time>2026-04-26T07:53:39Z</time></trkpt><trkpt lat="40.52014474307265" lon="15.640893033876992"><ele>711.0</ele><time>2026-04-26T07:53:40Z</time></trkpt><trkpt lat="40.51989584271292" lon="15.640729652517853"><ele>711.0</ele><time>2026-04-26T07:53:41Z</time></trkpt><trkpt lat="40.519665054197205" lon="15.640557379167312"><ele>712.5</ele><time>2026-04-26T07:53:42Z</time></trkpt><trkpt lat="40.5194520576339" lon="15.640378405520325"><ele>714.0</ele><time>2026-04-26T07:53:43Z</time></trkpt><trkpt lat="40.51924747041381" lon="15.640184311069735"><ele>714.0</ele><time>2026-04-26T07:53:44Z</time></trkpt><trkpt lat="40.51906213913574" lon="15.6399782112361"><ele>714.0</ele><time>2026-04-26T07:53:45Z</time></trkpt><trkpt lat="40.51888899314481" lon="15.63976774920118"><ele>713.5</ele><time>2026-04-26T07:53:46Z</time></trkpt><trkpt lat="40.51871924452658" lon="15.639552520714794"><ele>713.0</ele><time>2026-04-26T07:53:47Z</time></trkpt><trkpt lat="40.518551256915934" lon="15.639328504615353"><ele>713.0</ele><time>2026-04-26T07:53:48Z</time></trkpt><trkpt lat="40.51838316714533" lon="15.639097486438795"><ele>713.0</ele><time>2026-04-26T07:53:49Z</time></trkpt><trkpt lat="40.51821497058986" lon="15.638863943179325"><ele>712.0</ele><time>2026-04-26T07:53:50Z</time></trkpt><trkpt lat="40.51803964854151" lon="15.638619398674024"><ele>711.0</ele><time>2026-04-26T07:53:51Z</time></trkpt><trkpt lat="40.51785932378439" lon="15.638370415386404"><ele>711.0</ele><time>2026-04-26T07:53:52Z</time></trkpt><trkpt lat="40.51767530019343" lon="15.638115672865025"><ele>711.0</ele><time>2026-04-26T07:53:53Z</time></trkpt><trkpt lat="40.517487070720904" lon="15.63785432143815"><ele>708.5</ele><time>2026-04-26T07:53:54Z</time></trkpt><trkpt lat="40.51729401115325" lon="15.637586263574978"><ele>706.0</ele><time>2026-04-26T07:53:55Z</time></trkpt><trkpt lat="40.51709750837966" lon="15.637313424911751"><ele>705.5</ele><time>2026-04-26T07:53:56Z</time></trkpt><trkpt lat="40.51689963312941" lon="15.637038273251257"><ele>705.0</ele><time>2026-04-26T07:53:57Z</time></trkpt><trkpt lat="40.516699642592506" lon="15.636760785480151"><ele>703.5</ele><time>2026-04-26T07:53:58Z</time></trkpt><trkpt lat="40.516497613417194" lon="15.636480578999095"><ele>702.0</ele><time>2026-04-26T07:53:59Z</time></trkpt><trkpt lat="40.51629380273136" lon="15.63619739363983"><ele>699.0</ele><time>2026-04-26T07:54:00Z</time></trkpt><trkpt lat="40.516087562034954" lon="15.63591208033855"><ele>696.0</ele><time>2026-04-26T07:54:01Z</time></trkpt><trkpt lat="40.51588373389137" lon="15.635629658654869"><ele>696.0</ele><time>2026-04-26T07:54:02Z</time></trkpt><trkpt lat="40.51568880098366" lon="15.635355382013751"><ele>696.0</ele><time>2026-04-26T07:54:03Z</time></trkpt><trkpt lat="40.51550145020853" lon="15.635089854067001"><ele>693.5</ele><time>2026-04-26T07:54:04Z</time></trkpt><trkpt lat="40.51532197429253" lon="15.634831501840196"><ele>691.0</ele><time>2026-04-26T07:54:05Z</time></trkpt><trkpt lat="40.51515155792834" lon="15.634570297844192"><ele>690.0</ele><time>2026-04-26T07:54:06Z</time></trkpt><trkpt lat="40.514991224504506" lon="15.634306960385512"><ele>689.0</ele><time>2026-04-26T07:54:07Z</time></trkpt><trkpt lat="40.514835917188805" lon="15.634038223208837"><ele>689.0</ele><time>2026-04-26T07:54:08Z</time></trkpt><trkpt lat="40.51468453354892" lon="15.633758258125006"><ele>689.0</ele><time>2026-04-26T07:54:09Z</time></trkpt><trkpt lat="40.514536877850105" lon="15.633464411191047"><ele>687.5</ele><time>2026-04-26T07:54:10Z</time></trkpt><trkpt lat="40.51439597325196" lon="15.633159665208108"><ele>686.0</ele><time>2026-04-26T07:54:11Z</time></trkpt><trkpt lat="40.514255986721594" lon="15.632845621386078"><ele>687.0</ele><time>2026-04-26T07:54:12Z</time></trkpt><trkpt lat="40.514117964178354" lon="15.632526042235918"><ele>688.0</ele><time>2026-04-26T07:54:13Z</time></trkpt><trkpt lat="40.513992965703515" lon="15.632190965533665"><ele>687.5</ele><time>2026-04-26T07:54:14Z</time></trkpt><trkpt lat="40.51387639326665" lon="15.631846469366597"><ele>687.0</ele><time>2026-04-26T07:54:15Z</time></trkpt><trkpt lat="40.51376461290354" lon="15.63150544509806"><ele>681.5</ele><time>2026-04-26T07:54:16Z</time></trkpt><trkpt lat="40.51365636605071" lon="15.631167737741027"><ele>676.0</ele><time>2026-04-26T07:54:17Z</time></trkpt><trkpt lat="40.51354580757981" lon="15.630822075596642"><ele>676.0</ele><time>2026-04-26T07:54:18Z</time></trkpt><trkpt lat="40.51343640903497" lon="15.630476546772627"><ele>676.0</ele><time>2026-04-26T07:54:19Z</time></trkpt><trkpt lat="40.51332923475956" lon="15.63013271302806"><ele>677.5</ele><time>2026-04-26T07:54:20Z</time></trkpt><trkpt lat="40.513221642064124" lon="15.629787778676246"><ele>679.0</ele><time>2026-04-26T07:54:21Z</time></trkpt><trkpt lat="40.51311365967977" lon="15.629445220571823"><ele>680.0</ele><time>2026-04-26T07:54:22Z</time></trkpt><trkpt lat="40.51300819372792" lon="15.629108362294433"><ele>681.0</ele><time>2026-04-26T07:54:23Z</time></trkpt><trkpt lat="40.51290376954069" lon="15.628773747161427"><ele>669.5</ele><time>2026-04-26T07:54:24Z</time></trkpt><trkpt lat="40.51280001244406" lon="15.628441269612201"><ele>658.0</ele><time>2026-04-26T07:54:25Z</time></trkpt><trkpt lat="40.512695322364415" lon="15.628105936032757"><ele>660.5</ele><time>2026-04-26T07:54:26Z</time></trkpt><trkpt lat="40.51258654443333" lon="15.627766080581027"><ele>663.0</ele><time>2026-04-26T07:54:27Z</time></trkpt><trkpt lat="40.51247851850841" lon="15.627427371502973"><ele>663.0</ele><time>2026-04-26T07:54:28Z</time></trkpt><trkpt lat="40.51236923776649" lon="15.627090492729616"><ele>663.0</ele><time>2026-04-26T07:54:29Z</time></trkpt><trkpt lat="40.51225118923239" lon="15.626774695532633"><ele>664.0</ele><time>2026-04-26T07:54:30Z</time></trkpt><trkpt lat="40.51212691390838" lon="15.626470416924922"><ele>665.0</ele><time>2026-04-26T07:54:31Z</time></trkpt><trkpt lat="40.51198834113272" lon="15.62616862694659"><ele>657.5</ele><time>2026-04-26T07:54:32Z</time></trkpt><trkpt lat="40.511835606487224" lon="15.625871392396252"><ele>650.0</ele><time>2026-04-26T07:54:33Z</time></trkpt><trkpt lat="40.511668338063615" lon="15.625586949464928"><ele>651.0</ele><time>2026-04-26T07:54:34Z</time></trkpt><trkpt lat="40.51149291945888" lon="15.625312136097703"><ele>652.0</ele><time>2026-04-26T07:54:35Z</time></trkpt><trkpt lat="40.511308184972194" lon="15.625044230957155"><ele>640.0</ele><time>2026-04-26T07:54:36Z</time></trkpt><trkpt lat="40.51110693433518" lon="15.624793916382465"><ele>628.0</ele><time>2026-04-26T07:54:37Z</time></trkpt><trkpt lat="40.5109016275542" lon="15.624556497330717"><ele>622.0</ele><time>2026-04-26T07:54:38Z</time></trkpt><trkpt lat="40.510682052280195" lon="15.624332815841743"><ele>616.0</ele><time>2026-04-26T07:54:39Z</time></trkpt><trkpt lat="40.51045945303631" lon="15.624124213062899"><ele>619.0</ele><time>2026-04-26T07:54:40Z</time></trkpt><trkpt lat="40.51023038288523" lon="15.623927440091235"><ele>622.0</ele><time>2026-04-26T07:54:41Z</time></trkpt><trkpt lat="40.51000367169434" lon="15.623733858430647"><ele>630.0</ele><time>2026-04-26T07:54:42Z</time></trkpt><trkpt lat="40.50977427220615" lon="15.623545863441974"><ele>638.0</ele><time>2026-04-26T07:54:43Z</time></trkpt><trkpt lat="40.509546786296525" lon="15.62336654000149"><ele>638.0</ele><time>2026-04-26T07:54:44Z</time></trkpt><trkpt lat="40.50922070131934" lon="15.623382760981704"><ele>638.0</ele><time>2026-04-26T07:54:45Z</time></trkpt><trkpt lat="40.508962914607935" lon="15.623274305544024"><ele>639.5</ele><time>2026-04-26T07:54:46Z</time></trkpt><trkpt lat="40.50870641510204" lon="15.623178141865523"><ele>641.0</ele><time>2026-04-26T07:54:47Z</time></trkpt><trkpt lat="40.508445255016746" lon="15.623098220352976"><ele>641.0</ele><time>2026-04-26T07:54:48Z</time></trkpt><trkpt lat="40.50818309458642" lon="15.623041799199918"><ele>641.0</ele><time>2026-04-26T07:54:49Z</time></trkpt><trkpt lat="40.50792243734804" lon="15.623001205261636"><ele>648.0</ele><time>2026-04-26T07:54:50Z</time></trkpt><trkpt lat="40.50766309020062" lon="15.622970636643707"><ele>655.0</ele><time>2026-04-26T07:54:51Z</time></trkpt><trkpt lat="40.507402563531244" lon="15.622962695632697"><ele>655.0</ele><time>2026-04-26T07:54:52Z</time></trkpt><trkpt lat="40.507139995588155" lon="15.622972670780268"><ele>655.0</ele><time>2026-04-26T07:54:53Z</time></trkpt><trkpt lat="40.506875566829" lon="15.622990372622546"><ele>662.5</ele><time>2026-04-26T07:54:54Z</time></trkpt><trkpt lat="40.506610784371304" lon="15.623027149312486"><ele>670.0</ele><time>2026-04-26T07:54:55Z</time></trkpt><trkpt lat="40.5063485840318" lon="15.623085456925345"><ele>678.0</ele><time>2026-04-26T07:54:56Z</time></trkpt><trkpt lat="40.50608798445571" lon="15.623160223451956"><ele>686.0</ele><time>2026-04-26T07:54:57Z</time></trkpt><trkpt lat="40.50583118546473" lon="15.623251601531619"><ele>686.0</ele><time>2026-04-26T07:54:58Z</time></trkpt><trkpt lat="40.505578065600595" lon="15.62336115824027"><ele>686.0</ele><time>2026-04-26T07:54:59Z</time></trkpt><trkpt lat="40.50532736108393" lon="15.623488086561778"><ele>687.0</ele><time>2026-04-26T07:55:00Z</time></trkpt><trkpt lat="40.505082170220625" lon="15.623630562500214"><ele>688.0</ele><time>2026-04-26T07:55:01Z</time></trkpt><trkpt lat="40.50484194649076" lon="15.62378839859652"><ele>688.0</ele><time>2026-04-26T07:55:02Z</time></trkpt><trkpt lat="40.50460456445381" lon="15.623955610245881"><ele>688.0</ele><time>2026-04-26T07:55:03Z</time></trkpt><trkpt lat="40.504374415074324" lon="15.624144663430048"><ele>695.5</ele><time>2026-04-26T07:55:04Z</time></trkpt><trkpt lat="40.504150243290255" lon="15.6243421084855"><ele>703.0</ele><time>2026-04-26T07:55:05Z</time></trkpt><trkpt lat="40.50392465969279" lon="15.624554538079968"><ele>707.0</ele><time>2026-04-26T07:55:06Z</time></trkpt><trkpt lat="40.503701545992826" lon="15.624764726734957"><ele>711.0</ele><time>2026-04-26T07:55:07Z</time></trkpt><trkpt lat="40.503472434151526" lon="15.62497405711191"><ele>711.0</ele><time>2026-04-26T07:55:08Z</time></trkpt><trkpt lat="40.503239317323036" lon="15.625184213943532"><ele>711.0</ele><time>2026-04-26T07:55:09.011Z</time></trkpt><trkpt lat="40.50300801798288" lon="15.62539000178907"><ele>711.5</ele><time>2026-04-26T07:55:10.013Z</time></trkpt><trkpt lat="40.502773260797284" lon="15.625594132618087"><ele>712.0</ele><time>2026-04-26T07:55:11.014Z</time></trkpt><trkpt lat="40.50253664688478" lon="15.625793295904302"><ele>715.0</ele><time>2026-04-26T07:55:12.013Z</time></trkpt><trkpt lat="40.501362495162056" lon="15.626291222884902"><ele>710.5</ele><time>2026-04-26T07:55:18Z</time></trkpt><trkpt lat="40.50114840953316" lon="15.626374421735227"><ele>706.0</ele><time>2026-04-26T07:55:19Z</time></trkpt><trkpt lat="40.50088907377208" lon="15.62653193556057"><ele>706.0</ele><time>2026-04-26T07:55:20Z</time></trkpt><trkpt lat="40.50066936160793" lon="15.626549096522758"><ele>706.0</ele><time>2026-04-26T07:55:21Z</time></trkpt><trkpt lat="40.50045341503018" lon="15.626567572133407"><ele>706.0</ele><time>2026-04-26T07:55:22Z</time></trkpt><trkpt lat="40.50025591231665" lon="15.626561359443956"><ele>706.0</ele><time>2026-04-26T07:55:23Z</time></trkpt><trkpt lat="40.50006988476101" lon="15.626553074770047"><ele>706.0</ele><time>2026-04-26T07:55:24Z</time></trkpt><trkpt lat="40.499886864688904" lon="15.626536338760761"><ele>706.0</ele><time>2026-04-26T07:55:25Z</time></trkpt><trkpt lat="40.499711021423096" lon="15.626508032380045"><ele>709.0</ele><time>2026-04-26T07:55:26Z</time></trkpt><trkpt lat="40.499529278918374" lon="15.626462718319983"><ele>712.0</ele><time>2026-04-26T07:55:27Z</time></trkpt><trkpt lat="40.49934750709867" lon="15.626405626424983"><ele>715.0</ele><time>2026-04-26T07:55:28Z</time></trkpt><trkpt lat="40.499161007651736" lon="15.626357782297564"><ele>715.0</ele><time>2026-04-26T07:55:29Z</time></trkpt><trkpt lat="40.498968090141915" lon="15.626296687287036"><ele>715.0</ele><time>2026-04-26T07:55:30Z</time></trkpt><trkpt lat="40.49878376970239" lon="15.626240699078641"><ele>715.0</ele><time>2026-04-26T07:55:31Z</time></trkpt><trkpt lat="40.498613579167774" lon="15.626182656747446"><ele>710.0</ele><time>2026-04-26T07:55:32Z</time></trkpt><trkpt lat="40.498449558707904" lon="15.626130608612158"><ele>705.0</ele><time>2026-04-26T07:55:33Z</time></trkpt><trkpt lat="40.4982846516108" lon="15.626078817826176"><ele>700.0</ele><time>2026-04-26T07:55:34Z</time></trkpt><trkpt lat="40.49811661784103" lon="15.62602791864033"><ele>700.0</ele><time>2026-04-26T07:55:35Z</time></trkpt><trkpt lat="40.497934905955525" lon="15.625982889798992"><ele>700.0</ele><time>2026-04-26T07:55:36Z</time></trkpt><trkpt lat="40.49774157432037" lon="15.625948139526539"><ele>700.0</ele><time>2026-04-26T07:55:37Z</time></trkpt><trkpt lat="40.49753837918532" lon="15.62591818298661"><ele>703.0</ele><time>2026-04-26T07:55:38Z</time></trkpt><trkpt lat="40.49732482782553" lon="15.625890510262309"><ele>706.0</ele><time>2026-04-26T07:55:39Z</time></trkpt><trkpt lat="40.497104074747355" lon="15.625872587560519"><ele>709.0</ele><time>2026-04-26T07:55:40Z</time></trkpt><trkpt lat="40.49687711761756" lon="15.625864988782654"><ele>710.0</ele><time>2026-04-26T07:55:41Z</time></trkpt><trkpt lat="40.49664211524481" lon="15.625866116706698"><ele>711.0</ele><time>2026-04-26T07:55:42Z</time></trkpt><trkpt lat="40.49640190678602" lon="15.625878245671842"><ele>710.5</ele><time>2026-04-26T07:55:43Z</time></trkpt><trkpt lat="40.49615612149464" lon="15.625899562815492"><ele>710.0</ele><time>2026-04-26T07:55:44Z</time></trkpt><trkpt lat="40.495903509840666" lon="15.625926135476842"><ele>710.0</ele><time>2026-04-26T07:55:45Z</time></trkpt><trkpt lat="40.495645675795764" lon="15.625960778258897"><ele>710.0</ele><time>2026-04-26T07:55:46Z</time></trkpt><trkpt lat="40.4953825744004" lon="15.626004648588788"><ele>708.0</ele><time>2026-04-26T07:55:47Z</time></trkpt><trkpt lat="40.49511565207939" lon="15.626054450679083"><ele>706.0</ele><time>2026-04-26T07:55:48Z</time></trkpt><trkpt lat="40.49484590679962" lon="15.62611065031415"><ele>714.5</ele><time>2026-04-26T07:55:49Z</time></trkpt><trkpt lat="40.49456993796574" lon="15.626178021974885"><ele>723.0</ele><time>2026-04-26T07:55:50Z</time></trkpt><trkpt lat="40.49429740147224" lon="15.626248984171195"><ele>723.0</ele><time>2026-04-26T07:55:51Z</time></trkpt><trkpt lat="40.4940219912647" lon="15.62632524181634"><ele>723.0</ele><time>2026-04-26T07:55:52Z</time></trkpt><trkpt lat="40.493742615127495" lon="15.626408562959298"><ele>710.0</ele><time>2026-04-26T07:55:53Z</time></trkpt><trkpt lat="40.49345781343614" lon="15.626499938927234"><ele>697.0</ele><time>2026-04-26T07:55:54Z</time></trkpt><trkpt lat="40.49316596039928" lon="15.62656205717845"><ele>690.5</ele><time>2026-04-26T07:55:55Z</time></trkpt><trkpt lat="40.49288904553167" lon="15.626656881234592"><ele>684.0</ele><time>2026-04-26T07:55:56Z</time></trkpt><trkpt lat="40.49261680551465" lon="15.626756837536497"><ele>684.0</ele><time>2026-04-26T07:55:57Z</time></trkpt><trkpt lat="40.492356329528505" lon="15.626855908808272"><ele>684.0</ele><time>2026-04-26T07:55:58Z</time></trkpt><trkpt lat="40.492100476078306" lon="15.626953194480532"><ele>697.0</ele><time>2026-04-26T07:55:59Z</time></trkpt><trkpt lat="40.49184155771631" lon="15.627045990953095"><ele>710.0</ele><time>2026-04-26T07:56:00Z</time></trkpt><trkpt lat="40.49158691284957" lon="15.627137345362273"><ele>710.0</ele><time>2026-04-26T07:56:01Z</time></trkpt><trkpt lat="40.49133424089848" lon="15.627228956791718"><ele>710.0</ele><time>2026-04-26T07:56:02Z</time></trkpt><trkpt lat="40.49108276404032" lon="15.627321591813272"><ele>713.5</ele><time>2026-04-26T07:56:03Z</time></trkpt><trkpt lat="40.490830320929504" lon="15.627418160440294"><ele>717.0</ele><time>2026-04-26T07:56:04Z</time></trkpt><trkpt lat="40.49058183038266" lon="15.62751501203216"><ele>714.0</ele><time>2026-04-26T07:56:05Z</time></trkpt><trkpt lat="40.49034421373701" lon="15.627606732074764"><ele>711.0</ele><time>2026-04-26T07:56:06Z</time></trkpt><trkpt lat="40.49010283922859" lon="15.62769677134478"><ele>711.0</ele><time>2026-04-26T07:56:07Z</time></trkpt><trkpt lat="40.48985784139533" lon="15.62778311580734"><ele>711.0</ele><time>2026-04-26T07:56:08Z</time></trkpt><trkpt lat="40.48961633868644" lon="15.627862221729728"><ele>719.0</ele><time>2026-04-26T07:56:09Z</time></trkpt><trkpt lat="40.48938036204746" lon="15.627932078125118"><ele>727.0</ele><time>2026-04-26T07:56:10Z</time></trkpt><trkpt lat="40.48914366247024" lon="15.627989842702984"><ele>727.0</ele><time>2026-04-26T07:56:11Z</time></trkpt><trkpt lat="40.488912094847976" lon="15.62802813071286"><ele>727.0</ele><time>2026-04-26T07:56:12Z</time></trkpt><trkpt lat="40.48868313099722" lon="15.628059409017958"><ele>728.6666666666667</ele><time>2026-04-26T07:56:13Z</time></trkpt><trkpt lat="40.48846684752249" lon="15.628083643917188"><ele>730.3333333333334</ele><time>2026-04-26T07:56:14Z</time></trkpt><trkpt lat="40.48825563540073" lon="15.628104203752532"><ele>732.0</ele><time>2026-04-26T07:56:15Z</time></trkpt><trkpt lat="40.48804142602951" lon="15.628125657994667"><ele>727.6666666666666</ele><time>2026-04-26T07:56:16Z</time></trkpt><trkpt lat="40.48782396094887" lon="15.628151374350585"><ele>723.3333333333333</ele><time>2026-04-26T07:56:17Z</time></trkpt><trkpt lat="40.48760213649774" lon="15.628183993118672"><ele>719.0</ele><time>2026-04-26T07:56:18Z</time></trkpt><trkpt lat="40.487377748563034" lon="15.628223178343532"><ele>719.0</ele><time>2026-04-26T07:56:19Z</time></trkpt><trkpt lat="40.48715268896548" lon="15.628267040126541"><ele>719.0</ele><time>2026-04-26T07:56:20Z</time></trkpt><trkpt lat="40.486935996796426" lon="15.628316377321056"><ele>719.0</ele><time>2026-04-26T07:56:21Z</time></trkpt><trkpt lat="40.486724868593896" lon="15.6283733061154"><ele>715.0</ele><time>2026-04-26T07:56:22Z</time></trkpt><trkpt lat="40.48651538396806" lon="15.628448085620798"><ele>711.0</ele><time>2026-04-26T07:56:23Z</time></trkpt><trkpt lat="40.48630719531518" lon="15.628529683454822"><ele>707.0</ele><time>2026-04-26T07:56:24Z</time></trkpt><trkpt lat="40.4861064356151" lon="15.628624097321278"><ele>711.3333333333333</ele><time>2026-04-26T07:56:25Z</time></trkpt><trkpt lat="40.48592063208159" lon="15.628728974220879"><ele>715.6666666666666</ele><time>2026-04-26T07:56:26Z</time></trkpt><trkpt lat="40.48574618063193" lon="15.628836091462938"><ele>720.0</ele><time>2026-04-26T07:56:27Z</time></trkpt><trkpt lat="40.48558361427141" lon="15.628939255845648"><ele>720.0</ele><time>2026-04-26T07:56:28Z</time></trkpt><trkpt lat="40.485434748627014" lon="15.629044549744119"><ele>720.0</ele><time>2026-04-26T07:56:29Z</time></trkpt><trkpt lat="40.48528528311967" lon="15.629132718583406"><ele>720.0</ele><time>2026-04-26T07:56:30Z</time></trkpt><trkpt lat="40.48514106431907" lon="15.629222775335514"><ele>720.6666666666666</ele><time>2026-04-26T07:56:31Z</time></trkpt><trkpt lat="40.48499521599763" lon="15.629319814761207"><ele>721.3333333333333</ele><time>2026-04-26T07:56:32Z</time></trkpt><trkpt lat="40.48485184805158" lon="15.629423662451089"><ele>722.0</ele><time>2026-04-26T07:56:33Z</time></trkpt><trkpt lat="40.484708047046944" lon="15.62953386659434"><ele>716.6666666666666</ele><time>2026-04-26T07:56:34Z</time></trkpt><trkpt lat="40.484566303141364" lon="15.629645334368178"><ele>711.3333333333334</ele><time>2026-04-26T07:56:35Z</time></trkpt><trkpt lat="40.48443454344071" lon="15.629761151260938"><ele>706.0</ele><time>2026-04-26T07:56:36Z</time></trkpt><trkpt lat="40.48430487230879" lon="15.629856702662485"><ele>706.0</ele><time>2026-04-26T07:56:37Z</time></trkpt><trkpt lat="40.48417822814879" lon="15.629949680759452"><ele>706.0</ele><time>2026-04-26T07:56:38Z</time></trkpt><trkpt lat="40.484055086711564" lon="15.630048364639212"><ele>706.0</ele><time>2026-04-26T07:56:39Z</time></trkpt><trkpt lat="40.48393836503589" lon="15.630136058219822"><ele>706.0</ele><time>2026-04-26T07:56:40Z</time></trkpt><trkpt lat="40.48382153025249" lon="15.630205107880437"><ele>711.5</ele><time>2026-04-26T07:56:41Z</time></trkpt><trkpt lat="40.48370241813307" lon="15.630241648787196"><ele>717.0</ele><time>2026-04-26T07:56:42Z</time></trkpt><trkpt lat="40.48358672987876" lon="15.630173872894641"><ele>722.5</ele><time>2026-04-26T07:56:43Z</time></trkpt><trkpt lat="40.48348713240846" lon="15.630121576760114"><ele>728.0</ele><time>2026-04-26T07:56:44Z</time></trkpt><trkpt lat="40.48341090555666" lon="15.630041728620807"><ele>728.0</ele><time>2026-04-26T07:56:45Z</time></trkpt><trkpt lat="40.48335102927612" lon="15.629949140512734"><ele>728.0</ele><time>2026-04-26T07:56:46Z</time></trkpt><trkpt lat="40.48329153248342" lon="15.629828749429779"><ele>728.0</ele><time>2026-04-26T07:56:47Z</time></trkpt><trkpt lat="40.483272101026245" lon="15.629678740867604"><ele>728.0</ele><time>2026-04-26T07:56:48Z</time></trkpt><trkpt lat="40.48326236115776" lon="15.629532982199278"><ele>728.0</ele><time>2026-04-26T07:56:49.015Z</time></trkpt><trkpt lat="40.48326289091565" lon="15.629416165237098"><ele>724.6666666666666</ele><time>2026-04-26T07:56:50.014Z</time></trkpt><trkpt lat="40.48328143493417" lon="15.629317216318897"><ele>721.3333333333333</ele><time>2026-04-26T07:56:51Z</time></trkpt><trkpt lat="40.483312843176265" lon="15.629233139570331"><ele>718.0</ele><time>2026-04-26T07:56:52Z</time></trkpt><trkpt lat="40.48330090688087" lon="15.62908978789287"><ele>714.6666666666666</ele><time>2026-04-26T07:56:54Z</time></trkpt><trkpt lat="40.48327070825335" lon="15.629011760085094"><ele>711.3333333333334</ele><time>2026-04-26T07:56:55Z</time></trkpt><trkpt lat="40.48317424193716" lon="15.629048233920766"><ele>708.0</ele><time>2026-04-26T07:56:56Z</time></trkpt><trkpt lat="40.4830832604098" lon="15.629086854520425"><ele>708.0</ele><time>2026-04-26T07:56:57Z</time></trkpt><trkpt lat="40.48297131864536" lon="15.629095822590621"><ele>708.0</ele><time>2026-04-26T07:56:58Z</time></trkpt><trkpt lat="40.48286616134546" lon="15.629108899062647"><ele>708.0</ele><time>2026-04-26T07:56:59Z</time></trkpt><trkpt lat="40.482717561121035" lon="15.629116000102233"><ele>708.0</ele><time>2026-04-26T07:57:00Z</time></trkpt><trkpt lat="40.482564256405574" lon="15.629185311437777"><ele>708.0</ele><time>2026-04-26T07:57:01Z</time></trkpt><trkpt lat="40.482403098156894" lon="15.629230800878014"><ele>708.0</ele><time>2026-04-26T07:57:02Z</time></trkpt><trkpt lat="40.48222132565662" lon="15.629250440116566"><ele>708.0</ele><time>2026-04-26T07:57:03Z</time></trkpt><trkpt lat="40.48205408008829" lon="15.629263616475736"><ele>705.75</ele><time>2026-04-26T07:57:04Z</time></trkpt><trkpt lat="40.48191368654197" lon="15.629274517899134"><ele>703.5</ele><time>2026-04-26T07:57:05Z</time></trkpt><trkpt lat="40.48179097128434" lon="15.629284046624944"><ele>701.25</ele><time>2026-04-26T07:57:06Z</time></trkpt><trkpt lat="40.48167564282412" lon="15.629288586068574"><ele>699.0</ele><time>2026-04-26T07:57:07Z</time></trkpt><trkpt lat="40.48156336835799" lon="15.629281073492558"><ele>699.0</ele><time>2026-04-26T07:57:08Z</time></trkpt><trkpt lat="40.4814653343936" lon="15.629245133596871"><ele>699.0</ele><time>2026-04-26T07:57:09Z</time></trkpt><trkpt lat="40.481351278227294" lon="15.629196479560191"><ele>699.0</ele><time>2026-04-26T07:57:10Z</time></trkpt><trkpt lat="40.48121859077742" lon="15.629143138286565"><ele>699.0</ele><time>2026-04-26T07:57:11Z</time></trkpt><trkpt lat="40.481082280547696" lon="15.62914907137261"><ele>697.5</ele><time>2026-04-26T07:57:12Z</time></trkpt><trkpt lat="40.48096626942148" lon="15.62922501869154"><ele>696.0</ele><time>2026-04-26T07:57:13Z</time></trkpt><trkpt lat="40.48085866106228" lon="15.629307469917542"><ele>694.5</ele><time>2026-04-26T07:57:14Z</time></trkpt><trkpt lat="40.480749980257784" lon="15.629396643601327"><ele>693.0</ele><time>2026-04-26T07:57:15Z</time></trkpt><trkpt lat="40.480626286049954" lon="15.629498711408779"><ele>693.75</ele><time>2026-04-26T07:57:16Z</time></trkpt><trkpt lat="40.480505814670664" lon="15.629592024098462"><ele>694.5</ele><time>2026-04-26T07:57:17Z</time></trkpt><trkpt lat="40.480391108087645" lon="15.629672849097224"><ele>695.25</ele><time>2026-04-26T07:57:18Z</time></trkpt><trkpt lat="40.480282803311496" lon="15.629740748269587"><ele>696.0</ele><time>2026-04-26T07:57:19Z</time></trkpt><trkpt lat="40.48019056733699" lon="15.6298265310889"><ele>696.0</ele><time>2026-04-26T07:57:20Z</time></trkpt><trkpt lat="40.48011474903926" lon="15.629932489371821"><ele>696.0</ele><time>2026-04-26T07:57:21Z</time></trkpt><trkpt lat="40.480050797865594" lon="15.630040909216385"><ele>696.0</ele><time>2026-04-26T07:57:22Z</time></trkpt><trkpt lat="40.47996972562942" lon="15.630129889437695"><ele>696.0</ele><time>2026-04-26T07:57:23Z</time></trkpt><trkpt lat="40.4799062602501" lon="15.630225382087843"><ele>696.0</ele><time>2026-04-26T07:57:24Z</time></trkpt><trkpt lat="40.479843504794275" lon="15.630319174418942"><ele>697.0</ele><time>2026-04-26T07:57:25Z</time></trkpt><trkpt lat="40.47978852205001" lon="15.630394395487992"><ele>698.0</ele><time>2026-04-26T07:57:26Z</time></trkpt><trkpt lat="40.47968090718193" lon="15.630413937140352"><ele>699.0</ele><time>2026-04-26T07:57:28Z</time></trkpt><trkpt lat="40.4796138707553" lon="15.630406517059692"><ele>700.0</ele><time>2026-04-26T07:57:29Z</time></trkpt><trkpt lat="40.47954630896913" lon="15.63037266654906"><ele>701.0</ele><time>2026-04-26T07:57:30Z</time></trkpt><trkpt lat="40.47947671132308" lon="15.63032214136631"><ele>702.0</ele><time>2026-04-26T07:57:31Z</time></trkpt><trkpt lat="40.479479786947245" lon="15.63018828353688"><ele>702.5</ele><time>2026-04-26T07:57:32Z</time></trkpt><trkpt lat="40.47944111590788" lon="15.630033991585059"><ele>703.0</ele><time>2026-04-26T07:57:33Z</time></trkpt><trkpt lat="40.47938177904088" lon="15.629893731543667"><ele>703.5</ele><time>2026-04-26T07:57:34Z</time></trkpt><trkpt lat="40.47932715257225" lon="15.629719157552323"><ele>704.0</ele><time>2026-04-26T07:57:35Z</time></trkpt><trkpt lat="40.47923756990145" lon="15.629558228889282"><ele>702.8000000000001</ele><time>2026-04-26T07:57:36Z</time></trkpt><trkpt lat="40.479142093393406" lon="15.629436562421683"><ele>701.6</ele><time>2026-04-26T07:57:37Z</time></trkpt><trkpt lat="40.47904239557402" lon="15.62935177455168"><ele>700.4</ele><time>2026-04-26T07:57:38Z</time></trkpt><trkpt lat="40.47895381510981" lon="15.629282907362178"><ele>699.2</ele><time>2026-04-26T07:57:39Z</time></trkpt><trkpt lat="40.47888962272759" lon="15.629230351899704"><ele>698.0</ele><time>2026-04-26T07:57:40Z</time></trkpt><trkpt lat="40.47883038918635" lon="15.629186239668947"><ele>698.0</ele><time>2026-04-26T07:57:41Z</time></trkpt><trkpt lat="40.47875083721611" lon="15.629103941374414"><ele>698.0</ele><time>2026-04-26T07:57:43Z</time></trkpt><trkpt lat="40.478764087941016" lon="15.628936172408336"><ele>698.0</ele><time>2026-04-26T07:57:45Z</time></trkpt><trkpt lat="40.478812528448124" lon="15.628831232563742"><ele>698.0</ele><time>2026-04-26T07:57:46Z</time></trkpt><trkpt lat="40.47885487720069" lon="15.628718923249245"><ele>698.0</ele><time>2026-04-26T07:57:47Z</time></trkpt><trkpt lat="40.47889500950052" lon="15.628616468229014"><ele>697.5</ele><time>2026-04-26T07:57:48Z</time></trkpt><trkpt lat="40.47893676278019" lon="15.628523182120858"><ele>697.0</ele><time>2026-04-26T07:57:49Z</time></trkpt><trkpt lat="40.47897815982139" lon="15.628439868551615"><ele>696.5</ele><time>2026-04-26T07:57:50Z</time></trkpt><trkpt lat="40.47901397780348" lon="15.628352541170083"><ele>696.0</ele><time>2026-04-26T07:57:51Z</time></trkpt><trkpt lat="40.47904659061497" lon="15.628262496791015"><ele>695.5</ele><time>2026-04-26T07:57:52Z</time></trkpt><trkpt lat="40.47908503893177" lon="15.628186811070817"><ele>695.0</ele><time>2026-04-26T07:57:53Z</time></trkpt><trkpt lat="40.479129839211765" lon="15.628087168021064"><ele>695.0</ele><time>2026-04-26T07:57:54Z</time></trkpt><trkpt lat="40.47919359319982" lon="15.627971729125708"><ele>695.0</ele><time>2026-04-26T07:57:55Z</time></trkpt><trkpt lat="40.47922408630749" lon="15.62788851716547"><ele>695.0</ele><time>2026-04-26T07:57:56Z</time></trkpt><trkpt lat="40.47921770961074" lon="15.627794801696687"><ele>695.0</ele><time>2026-04-26T07:57:57Z</time></trkpt><trkpt lat="40.479181784603455" lon="15.627717841682724"><ele>695.0</ele><time>2026-04-26T07:57:58Z</time></trkpt><trkpt lat="40.47912149491829" lon="15.627666903710809"><ele>695.0</ele><time>2026-04-26T07:57:59Z</time></trkpt><trkpt lat="40.47904723846348" lon="15.627668749255212"><ele>695.0</ele><time>2026-04-26T07:58:00Z</time></trkpt><trkpt lat="40.4789662997105" lon="15.62772256458615"><ele>695.0</ele><time>2026-04-26T07:58:01Z</time></trkpt><trkpt lat="40.47888311104885" lon="15.627800080778085"><ele>695.0</ele><time>2026-04-26T07:58:02Z</time></trkpt><trkpt lat="40.478812474274655" lon="15.627859734656717"><ele>695.0</ele><time>2026-04-26T07:58:03Z</time></trkpt><trkpt lat="40.4787569014879" lon="15.627906942634432"><ele>695.0</ele><time>2026-04-26T07:58:04Z</time></trkpt><trkpt lat="40.478694140903954" lon="15.627963570086933"><ele>695.0</ele><time>2026-04-26T07:58:05Z</time></trkpt><trkpt lat="40.47863208443728" lon="15.628020379532778"><ele>694.5</ele><time>2026-04-26T07:58:06Z</time></trkpt><trkpt lat="40.478570491824414" lon="15.62807249678724"><ele>694.0</ele><time>2026-04-26T07:58:07Z</time></trkpt><trkpt lat="40.47851254894753" lon="15.628127994030306"><ele>693.5</ele><time>2026-04-26T07:58:08Z</time></trkpt><trkpt lat="40.47845385115797" lon="15.628184965087522"><ele>693.0</ele><time>2026-04-26T07:58:09Z</time></trkpt><trkpt lat="40.47838151023571" lon="15.628219515677415"><ele>692.5</ele><time>2026-04-26T07:58:10Z</time></trkpt><trkpt lat="40.478309765574764" lon="15.628277688033146"><ele>692.0</ele><time>2026-04-26T07:58:11Z</time></trkpt><trkpt lat="40.47822864968168" lon="15.628323942654195"><ele>692.0</ele><time>2026-04-26T07:58:12Z</time></trkpt><trkpt lat="40.47815031478909" lon="15.628350256057828"><ele>692.0</ele><time>2026-04-26T07:58:13Z</time></trkpt><trkpt lat="40.4780729035764" lon="15.6283724540375"><ele>692.0</ele><time>2026-04-26T07:58:14Z</time></trkpt><trkpt lat="40.477999199472066" lon="15.628401697954594"><ele>692.0</ele><time>2026-04-26T07:58:15Z</time></trkpt><trkpt lat="40.47792410511292" lon="15.628418722296086"><ele>692.0</ele><time>2026-04-26T07:58:16Z</time></trkpt><trkpt lat="40.47784852010701" lon="15.628446487977795"><ele>692.0</ele><time>2026-04-26T07:58:17Z</time></trkpt><trkpt lat="40.4777535235143" lon="15.628473148070425"><ele>692.5</ele><time>2026-04-26T07:58:18Z</time></trkpt><trkpt lat="40.47765827212931" lon="15.628530608467202"><ele>693.0</ele><time>2026-04-26T07:58:19Z</time></trkpt><trkpt lat="40.47757458322201" lon="15.628546818547097"><ele>693.5</ele><time>2026-04-26T07:58:20Z</time></trkpt><trkpt lat="40.4775053532693" lon="15.628580356110083"><ele>694.0</ele><time>2026-04-26T07:58:21Z</time></trkpt><trkpt lat="40.47742368497922" lon="15.628602193864204"><ele>694.5</ele><time>2026-04-26T07:58:22Z</time></trkpt><trkpt lat="40.477332942473296" lon="15.628634242848221"><ele>695.0</ele><time>2026-04-26T07:58:23Z</time></trkpt><trkpt lat="40.477237071754246" lon="15.628649896422393"><ele>695.0</ele><time>2026-04-26T07:58:24Z</time></trkpt><trkpt lat="40.47714177350087" lon="15.628664418669674"><ele>695.0</ele><time>2026-04-26T07:58:25Z</time></trkpt><trkpt lat="40.47705828441729" lon="15.628681750615305"><ele>695.0</ele><time>2026-04-26T07:58:26Z</time></trkpt><trkpt lat="40.47697933017651" lon="15.628675280165877"><ele>695.0</ele><time>2026-04-26T07:58:27Z</time></trkpt><trkpt lat="40.47689204230046" lon="15.628639583401561"><ele>695.0</ele><time>2026-04-26T07:58:28Z</time></trkpt><trkpt lat="40.47683913000332" lon="15.628538790356092"><ele>695.0</ele><time>2026-04-26T07:58:29Z</time></trkpt><trkpt lat="40.4768074595246" lon="15.628430001969914"><ele>692.2</ele><time>2026-04-26T07:58:30Z</time></trkpt><trkpt lat="40.47677953040986" lon="15.628308291115763"><ele>689.4</ele><time>2026-04-26T07:58:31Z</time></trkpt><trkpt lat="40.476737014551965" lon="15.62820823494562"><ele>686.5999999999999</ele><time>2026-04-26T07:58:32Z</time></trkpt><trkpt lat="40.476705322149314" lon="15.628120583865075"><ele>683.8</ele><time>2026-04-26T07:58:33Z</time></trkpt><trkpt lat="40.47665455640793" lon="15.627985853298078"><ele>681.0</ele><time>2026-04-26T07:58:35Z</time></trkpt><trkpt lat="40.47661657234534" lon="15.627872190561298"><ele>681.0</ele><time>2026-04-26T07:58:37Z</time></trkpt><trkpt lat="40.47658132465361" lon="15.627798080043918"><ele>681.0</ele><time>2026-04-26T07:58:39Z</time></trkpt><trkpt lat="40.47651061456287" lon="15.627755115261694"><ele>681.0</ele><time>2026-04-26T07:58:41Z</time></trkpt><trkpt lat="40.476353775537675" lon="15.627778710705766"><ele>681.0</ele><time>2026-04-26T07:58:43Z</time></trkpt><trkpt lat="40.4762772549413" lon="15.627828306859788"><ele>681.0</ele><time>2026-04-26T07:58:44Z</time></trkpt><trkpt lat="40.47618273844194" lon="15.627890597981322"><ele>681.3333333333334</ele><time>2026-04-26T07:58:46Z</time></trkpt><trkpt lat="40.4760934783195" lon="15.627946438718366"><ele>681.6666666666666</ele><time>2026-04-26T07:58:48Z</time></trkpt><trkpt lat="40.47601092892164" lon="15.627996682801834"><ele>682.0</ele><time>2026-04-26T07:58:50Z</time></trkpt><trkpt lat="40.47593104418044" lon="15.628045305095696"><ele>682.3333333333333</ele><time>2026-04-26T07:58:53Z</time></trkpt><trkpt lat="40.47586753232848" lon="15.628083961930557"><ele>682.6666666666666</ele><time>2026-04-26T07:58:56Z</time></trkpt><trkpt lat="40.475800687455184" lon="15.628124647357446"><ele>683.0</ele><time>2026-04-26T07:59:00Z</time></trkpt><trkpt lat="40.47572728998098" lon="15.628169321142925"><ele>683.0</ele><time>2026-04-26T07:59:09Z</time></trkpt><trkpt lat="40.47566632469144" lon="15.628206913390505"><ele>683.0</ele><time>2026-04-26T07:59:10Z</time></trkpt><trkpt lat="40.475570149458065" lon="15.628266812866254"><ele>683.0</ele><time>2026-04-26T07:59:12Z</time></trkpt><trkpt lat="40.47551935286907" lon="15.628318812432788"><ele>683.0</ele><time>2026-04-26T07:59:15Z</time></trkpt><trkpt lat="40.47558351682868" lon="15.628292354475033"><ele>683.0</ele><time>2026-04-26T08:00:29Z</time></trkpt><trkpt lat="40.47564734843187" lon="15.62827440351173"><ele>683.0</ele><time>2026-04-26T08:00:34Z</time></trkpt></trkseg><trkseg><trkpt lat="40.47547524346059" lon="15.6284703403529"><ele>682.6666666666666</ele><time>2026-04-26T08:11:01Z</time></trkpt><trkpt lat="40.47537332196137" lon="15.628518764194958"><ele>682.3333333333333</ele><time>2026-04-26T08:11:03Z</time></trkpt><trkpt lat="40.475309508430534" lon="15.628536635165842"><ele>682.0</ele><time>2026-04-26T08:11:04Z</time></trkpt><trkpt lat="40.475247630770276" lon="15.628566862578168"><ele>681.6666666666666</ele><time>2026-04-26T08:11:05Z</time></trkpt><trkpt lat="40.47518272359161" lon="15.628608761387028"><ele>681.3333333333334</ele><time>2026-04-26T08:11:06Z</time></trkpt><trkpt lat="40.47510637580779" lon="15.628646537081698"><ele>681.0</ele><time>2026-04-26T08:11:07Z</time></trkpt><trkpt lat="40.475028830671945" lon="15.628675753808384"><ele>681.0</ele><time>2026-04-26T08:11:08Z</time></trkpt><trkpt lat="40.47495191977086" lon="15.628715880492871"><ele>681.0</ele><time>2026-04-26T08:11:09Z</time></trkpt><trkpt lat="40.47487762848337" lon="15.628754352542392"><ele>681.0</ele><time>2026-04-26T08:11:10Z</time></trkpt><trkpt lat="40.474798797518105" lon="15.628812810498586"><ele>681.0</ele><time>2026-04-26T08:11:11Z</time></trkpt><trkpt lat="40.4747184647585" lon="15.628856739065629"><ele>681.0</ele><time>2026-04-26T08:11:12Z</time></trkpt><trkpt lat="40.47462715480334" lon="15.628912242793401"><ele>681.0</ele><time>2026-04-26T08:11:13Z</time></trkpt><trkpt lat="40.47453102241407" lon="15.628960344117326"><ele>682.8</ele><time>2026-04-26T08:11:14Z</time></trkpt><trkpt lat="40.47443411034795" lon="15.629015995660515"><ele>684.5999999999999</ele><time>2026-04-26T08:11:15Z</time></trkpt><trkpt lat="40.474342025754225" lon="15.629059067239691"><ele>686.4</ele><time>2026-04-26T08:11:16Z</time></trkpt><trkpt lat="40.47425856036978" lon="15.62909444554519"><ele>688.2</ele><time>2026-04-26T08:11:17Z</time></trkpt><trkpt lat="40.47416275851178" lon="15.629128052140226"><ele>690.0</ele><time>2026-04-26T08:11:18Z</time></trkpt><trkpt lat="40.474068277657516" lon="15.629156033017797"><ele>690.0</ele><time>2026-04-26T08:11:19Z</time></trkpt><trkpt lat="40.473960395313426" lon="15.629212838267135"><ele>690.0</ele><time>2026-04-26T08:11:20Z</time></trkpt><trkpt lat="40.47383706585951" lon="15.629280190487298"><ele>690.0</ele><time>2026-04-26T08:11:21Z</time></trkpt><trkpt lat="40.47370459297451" lon="15.629350556114051"><ele>690.0</ele><time>2026-04-26T08:11:22Z</time></trkpt><trkpt lat="40.473592761571595" lon="15.629460827749169"><ele>690.5</ele><time>2026-04-26T08:11:23Z</time></trkpt><trkpt lat="40.47348051905086" lon="15.62954113948828"><ele>691.0</ele><time>2026-04-26T08:11:24Z</time></trkpt><trkpt lat="40.47338185136555" lon="15.62964839437666"><ele>691.5</ele><time>2026-04-26T08:11:25Z</time></trkpt><trkpt lat="40.47329231529451" lon="15.62974852642021"><ele>692.0</ele><time>2026-04-26T08:11:26Z</time></trkpt><trkpt lat="40.47321229120979" lon="15.62983801824188"><ele>692.0</ele><time>2026-04-26T08:11:27Z</time></trkpt><trkpt lat="40.47312726237973" lon="15.629926264692486"><ele>692.0</ele><time>2026-04-26T08:11:28Z</time></trkpt><trkpt lat="40.473025145127686" lon="15.630013919845696"><ele>692.0</ele><time>2026-04-26T08:11:29Z</time></trkpt><trkpt lat="40.472917519654686" lon="15.630109952061348"><ele>692.0</ele><time>2026-04-26T08:11:30Z</time></trkpt><trkpt lat="40.472795525310445" lon="15.630177149964817"><ele>691.5</ele><time>2026-04-26T08:11:31Z</time></trkpt><trkpt lat="40.4726703530884" lon="15.630274305674176"><ele>691.0</ele><time>2026-04-26T08:11:32Z</time></trkpt><trkpt lat="40.472546376522594" lon="15.630360660416919"><ele>690.5</ele><time>2026-04-26T08:11:33Z</time></trkpt><trkpt lat="40.472422069264894" lon="15.630459846684507"><ele>690.0</ele><time>2026-04-26T08:11:34Z</time></trkpt><trkpt lat="40.472302539328034" lon="15.630549981300257"><ele>690.0</ele><time>2026-04-26T08:11:35Z</time></trkpt><trkpt lat="40.472175173890115" lon="15.63063583496256"><ele>690.0</ele><time>2026-04-26T08:11:36Z</time></trkpt><trkpt lat="40.47203501623251" lon="15.63070413083339"><ele>690.0</ele><time>2026-04-26T08:11:37Z</time></trkpt><trkpt lat="40.4718784319476" lon="15.630758285422012"><ele>692.5</ele><time>2026-04-26T08:11:38Z</time></trkpt><trkpt lat="40.47173150188243" lon="15.630808275064222"><ele>695.0</ele><time>2026-04-26T08:11:39Z</time></trkpt><trkpt lat="40.47162317054879" lon="15.63088465012192"><ele>697.5</ele><time>2026-04-26T08:11:40Z</time></trkpt><trkpt lat="40.47155383345385" lon="15.630993270108059"><ele>700.0</ele><time>2026-04-26T08:11:41Z</time></trkpt><trkpt lat="40.471515049568666" lon="15.631120602103977"><ele>697.75</ele><time>2026-04-26T08:11:42Z</time></trkpt><trkpt lat="40.47148377988293" lon="15.631263795915945"><ele>695.5</ele><time>2026-04-26T08:11:43Z</time></trkpt><trkpt lat="40.47145981144277" lon="15.631427273025638"><ele>693.25</ele><time>2026-04-26T08:11:44Z</time></trkpt><trkpt lat="40.47143137327871" lon="15.631582971763088"><ele>691.0</ele><time>2026-04-26T08:11:45Z</time></trkpt><trkpt lat="40.47137383597789" lon="15.631726342453593"><ele>691.0</ele><time>2026-04-26T08:11:46Z</time></trkpt><trkpt lat="40.47128854552316" lon="15.631833793665587"><ele>691.0</ele><time>2026-04-26T08:11:47Z</time></trkpt><trkpt lat="40.47118790396329" lon="15.631920705752439"><ele>691.0</ele><time>2026-04-26T08:11:48Z</time></trkpt><trkpt lat="40.47107969529952" lon="15.632025763790448"><ele>691.0</ele><time>2026-04-26T08:11:49Z</time></trkpt><trkpt lat="40.470951608151964" lon="15.632143714946611"><ele>692.6666666666667</ele><time>2026-04-26T08:11:50Z</time></trkpt><trkpt lat="40.4708060214359" lon="15.632263584595545"><ele>694.3333333333334</ele><time>2026-04-26T08:11:51Z</time></trkpt><trkpt lat="40.47065876797337" lon="15.632383645998997"><ele>696.0</ele><time>2026-04-26T08:11:52Z</time></trkpt><trkpt lat="40.47052457232776" lon="15.632511284007723"><ele>696.5</ele><time>2026-04-26T08:11:53Z</time></trkpt><trkpt lat="40.47040220028198" lon="15.632632050870244"><ele>697.0</ele><time>2026-04-26T08:11:54Z</time></trkpt><trkpt lat="40.47029536749643" lon="15.632756351987682"><ele>697.5</ele><time>2026-04-26T08:11:55Z</time></trkpt><trkpt lat="40.470203094377354" lon="15.63288986702438"><ele>698.0</ele><time>2026-04-26T08:11:56Z</time></trkpt><trkpt lat="40.470131450882214" lon="15.63304008422329"><ele>698.0</ele><time>2026-04-26T08:11:57Z</time></trkpt><trkpt lat="40.470071939874515" lon="15.633196661766691"><ele>698.0</ele><time>2026-04-26T08:11:58Z</time></trkpt><trkpt lat="40.470007658286555" lon="15.63333905579811"><ele>698.0</ele><time>2026-04-26T08:11:59Z</time></trkpt><trkpt lat="40.469926622600354" lon="15.633467603993868"><ele>698.0</ele><time>2026-04-26T08:12:00Z</time></trkpt><trkpt lat="40.46982567295765" lon="15.633580913648853"><ele>700.3333333333333</ele><time>2026-04-26T08:12:01Z</time></trkpt><trkpt lat="40.469711989919084" lon="15.63369607998719"><ele>702.6666666666666</ele><time>2026-04-26T08:12:02Z</time></trkpt><trkpt lat="40.46959065219499" lon="15.633832533687295"><ele>705.0</ele><time>2026-04-26T08:12:03Z</time></trkpt><trkpt lat="40.469465941914756" lon="15.633974963564695"><ele>705.0</ele><time>2026-04-26T08:12:04Z</time></trkpt><trkpt lat="40.46934983756685" lon="15.634109430565804"><ele>705.0</ele><time>2026-04-26T08:12:05Z</time></trkpt><trkpt lat="40.46923830624281" lon="15.634224982284287"><ele>705.0</ele><time>2026-04-26T08:12:06Z</time></trkpt><trkpt lat="40.46912838423256" lon="15.634321648288374"><ele>705.0</ele><time>2026-04-26T08:12:07Z</time></trkpt><trkpt lat="40.469025564284344" lon="15.634392604726244"><ele>705.0</ele><time>2026-04-26T08:12:08Z</time></trkpt><trkpt lat="40.468925187241496" lon="15.634428592631247"><ele>705.0</ele><time>2026-04-26T08:12:09Z</time></trkpt><trkpt lat="40.46883303514467" lon="15.634437439742403"><ele>705.0</ele><time>2026-04-26T08:12:10Z</time></trkpt><trkpt lat="40.46875398433313" lon="15.634405823529232"><ele>705.0</ele><time>2026-04-26T08:12:11Z</time></trkpt><trkpt lat="40.46867605305856" lon="15.634332548183385"><ele>705.0</ele><time>2026-04-26T08:12:12Z</time></trkpt><trkpt lat="40.468592797016605" lon="15.63424977202068"><ele>706.0</ele><time>2026-04-26T08:12:13Z</time></trkpt><trkpt lat="40.46852119628206" lon="15.634159144517282"><ele>707.0</ele><time>2026-04-26T08:12:14Z</time></trkpt><trkpt lat="40.468462108894855" lon="15.63407504231006"><ele>708.0</ele><time>2026-04-26T08:12:15Z</time></trkpt><trkpt lat="40.46839973542754" lon="15.634037302040756"><ele>709.0</ele><time>2026-04-26T08:12:16Z</time></trkpt><trkpt lat="40.46833376788418" lon="15.634050567560038"><ele>710.0</ele><time>2026-04-26T08:12:17Z</time></trkpt><trkpt lat="40.46826482098573" lon="15.63410964569756"><ele>711.0</ele><time>2026-04-26T08:12:18Z</time></trkpt><trkpt lat="40.46821469927924" lon="15.63420074932202"><ele>711.0</ele><time>2026-04-26T08:12:19Z</time></trkpt><trkpt lat="40.46816534318543" lon="15.634292308534395"><ele>711.0</ele><time>2026-04-26T08:12:20Z</time></trkpt><trkpt lat="40.46809671147554" lon="15.634360203690798"><ele>711.0</ele><time>2026-04-26T08:12:21Z</time></trkpt><trkpt lat="40.46800154157105" lon="15.634376636960098"><ele>711.0</ele><time>2026-04-26T08:12:22Z</time></trkpt><trkpt lat="40.46789546701792" lon="15.634370366715544"><ele>711.0</ele><time>2026-04-26T08:12:23Z</time></trkpt><trkpt lat="40.46779781161022" lon="15.634343452528434"><ele>712.4</ele><time>2026-04-26T08:12:24Z</time></trkpt><trkpt lat="40.46773896189968" lon="15.63426954850955"><ele>713.8</ele><time>2026-04-26T08:12:25Z</time></trkpt><trkpt lat="40.46771667102732" lon="15.634165074130204"><ele>715.1999999999999</ele><time>2026-04-26T08:12:26Z</time></trkpt><trkpt lat="40.46774799791461" lon="15.634054753658765"><ele>716.5999999999999</ele><time>2026-04-26T08:12:27Z</time></trkpt><trkpt lat="40.467813241702146" lon="15.63394933797995"><ele>718.0</ele><time>2026-04-26T08:12:28Z</time></trkpt><trkpt lat="40.46788697934811" lon="15.633842522655858"><ele>716.25</ele><time>2026-04-26T08:12:29Z</time></trkpt><trkpt lat="40.46796325237161" lon="15.633714884423267"><ele>714.5</ele><time>2026-04-26T08:12:30Z</time></trkpt><trkpt lat="40.46803698412774" lon="15.633592038674225"><ele>712.75</ele><time>2026-04-26T08:12:31Z</time></trkpt><trkpt lat="40.468106343540384" lon="15.633474072991488"><ele>711.0</ele><time>2026-04-26T08:12:32Z</time></trkpt><trkpt lat="40.46817532638918" lon="15.633355192504654"><ele>714.5</ele><time>2026-04-26T08:12:33Z</time></trkpt><trkpt lat="40.46825804422664" lon="15.633217378415576"><ele>718.0</ele><time>2026-04-26T08:12:34Z</time></trkpt><trkpt lat="40.46835321092811" lon="15.633078843633275"><ele>721.5</ele><time>2026-04-26T08:12:35Z</time></trkpt><trkpt lat="40.46845288376384" lon="15.63292771509007"><ele>725.0</ele><time>2026-04-26T08:12:36Z</time></trkpt><trkpt lat="40.46856703909517" lon="15.632751163503686"><ele>724.6666666666666</ele><time>2026-04-26T08:12:37Z</time></trkpt><trkpt lat="40.46868725869391" lon="15.632590962449171"><ele>724.3333333333334</ele><time>2026-04-26T08:12:38Z</time></trkpt><trkpt lat="40.468821107138744" lon="15.632416038004225"><ele>724.0</ele><time>2026-04-26T08:12:39Z</time></trkpt><trkpt lat="40.468953710483504" lon="15.632234280892538"><ele>724.0</ele><time>2026-04-26T08:12:40Z</time></trkpt><trkpt lat="40.46908253764686" lon="15.632033203348454"><ele>724.0</ele><time>2026-04-26T08:12:41Z</time></trkpt><trkpt lat="40.46921765312478" lon="15.631828371635025"><ele>724.0</ele><time>2026-04-26T08:12:42Z</time></trkpt><trkpt lat="40.46936241662823" lon="15.631624574313685"><ele>725.3333333333334</ele><time>2026-04-26T08:12:43Z</time></trkpt><trkpt lat="40.46949727519379" lon="15.631399323445564"><ele>726.6666666666666</ele><time>2026-04-26T08:12:44Z</time></trkpt><trkpt lat="40.46963322201099" lon="15.631162797014872"><ele>728.0</ele><time>2026-04-26T08:12:45Z</time></trkpt><trkpt lat="40.469764583624205" lon="15.63091709114839"><ele>736.5</ele><time>2026-04-26T08:12:46Z</time></trkpt><trkpt lat="40.46988901604427" lon="15.63066344909902"><ele>745.0</ele><time>2026-04-26T08:12:47Z</time></trkpt><trkpt lat="40.470009751526554" lon="15.630400621466404"><ele>752.0</ele><time>2026-04-26T08:12:48Z</time></trkpt><trkpt lat="40.47011345941881" lon="15.630132922103495"><ele>759.0</ele><time>2026-04-26T08:12:49Z</time></trkpt><trkpt lat="40.470223559689956" lon="15.629875543587035"><ele>759.0</ele><time>2026-04-26T08:12:50Z</time></trkpt><trkpt lat="40.470338438821884" lon="15.62961108739997"><ele>759.0</ele><time>2026-04-26T08:12:51Z</time></trkpt><trkpt lat="40.47043721772115" lon="15.62933489359509"><ele>749.5</ele><time>2026-04-26T08:12:52Z</time></trkpt><trkpt lat="40.470527221958385" lon="15.62905487725322"><ele>740.0</ele><time>2026-04-26T08:12:53Z</time></trkpt><trkpt lat="40.47060923173705" lon="15.628776706577376"><ele>742.6666666666666</ele><time>2026-04-26T08:12:54Z</time></trkpt><trkpt lat="40.47068522899767" lon="15.628506509347686"><ele>745.3333333333334</ele><time>2026-04-26T08:12:55Z</time></trkpt><trkpt lat="40.47075052770185" lon="15.628258249754678"><ele>748.0</ele><time>2026-04-26T08:12:56Z</time></trkpt><trkpt lat="40.47081039920575" lon="15.628003111921561"><ele>744.6666666666667</ele><time>2026-04-26T08:12:57Z</time></trkpt><trkpt lat="40.470863107409926" lon="15.627741510468146"><ele>741.3333333333334</ele><time>2026-04-26T08:12:58Z</time></trkpt><trkpt lat="40.470910069079245" lon="15.627489978092576"><ele>738.0</ele><time>2026-04-26T08:12:59Z</time></trkpt><trkpt lat="40.47095301047305" lon="15.627238986403745"><ele>738.0</ele><time>2026-04-26T08:13:00Z</time></trkpt><trkpt lat="40.47099219818378" lon="15.626979781548151"><ele>738.0</ele><time>2026-04-26T08:13:01Z</time></trkpt><trkpt lat="40.47101007208252" lon="15.62671386999275"><ele>738.0</ele><time>2026-04-26T08:13:02Z</time></trkpt><trkpt lat="40.471043496796504" lon="15.626443703253045"><ele>737.6666666666666</ele><time>2026-04-26T08:13:03Z</time></trkpt><trkpt lat="40.4710676883943" lon="15.626163040860014"><ele>737.3333333333333</ele><time>2026-04-26T08:13:04Z</time></trkpt><trkpt lat="40.47108845664382" lon="15.625877168509057"><ele>737.0</ele><time>2026-04-26T08:13:05Z</time></trkpt><trkpt lat="40.47110406013694" lon="15.6255945431449"><ele>744.3333333333333</ele><time>2026-04-26T08:13:06Z</time></trkpt><trkpt lat="40.471107768063526" lon="15.62530375151436"><ele>751.6666666666666</ele><time>2026-04-26T08:13:07Z</time></trkpt><trkpt lat="40.471107473466084" lon="15.625007913767226"><ele>759.0</ele><time>2026-04-26T08:13:08Z</time></trkpt><trkpt lat="40.47109960435179" lon="15.624711897663435"><ele>762.0</ele><time>2026-04-26T08:13:09Z</time></trkpt><trkpt lat="40.471090701140476" lon="15.624424272792862"><ele>765.0</ele><time>2026-04-26T08:13:10Z</time></trkpt><trkpt lat="40.47106426792781" lon="15.62414021922119"><ele>768.0</ele><time>2026-04-26T08:13:11Z</time></trkpt><trkpt lat="40.47104287434769" lon="15.623844752599487"><ele>772.0</ele><time>2026-04-26T08:13:12Z</time></trkpt><trkpt lat="40.47101727486087" lon="15.623551129749208"><ele>776.0</ele><time>2026-04-26T08:13:13Z</time></trkpt><trkpt lat="40.47097990438741" lon="15.62325276845503"><ele>776.0</ele><time>2026-04-26T08:13:14Z</time></trkpt><trkpt lat="40.470935387582095" lon="15.622959694415332"><ele>776.0</ele><time>2026-04-26T08:13:15Z</time></trkpt><trkpt lat="40.47088339507966" lon="15.62266459665171"><ele>779.5</ele><time>2026-04-26T08:13:16Z</time></trkpt><trkpt lat="40.470825508810854" lon="15.622365290139838"><ele>783.0</ele><time>2026-04-26T08:13:17Z</time></trkpt><trkpt lat="40.47075978786819" lon="15.622068009617996"><ele>785.5</ele><time>2026-04-26T08:13:18Z</time></trkpt><trkpt lat="40.47068448689645" lon="15.621770575082099"><ele>788.0</ele><time>2026-04-26T08:13:19Z</time></trkpt><trkpt lat="40.47060700417051" lon="15.621474977122471"><ele>788.0</ele><time>2026-04-26T08:13:20Z</time></trkpt><trkpt lat="40.47052143917326" lon="15.62118127634899"><ele>788.0</ele><time>2026-04-26T08:13:21Z</time></trkpt><trkpt lat="40.47042835109854" lon="15.6208946807908"><ele>790.5</ele><time>2026-04-26T08:13:22Z</time></trkpt><trkpt lat="40.470325867681666" lon="15.620609808692151"><ele>793.0</ele><time>2026-04-26T08:13:23Z</time></trkpt><trkpt lat="40.47022806482262" lon="15.620335522378562"><ele>795.0</ele><time>2026-04-26T08:13:24Z</time></trkpt><trkpt lat="40.470118887947585" lon="15.620069776896399"><ele>797.0</ele><time>2026-04-26T08:13:25Z</time></trkpt><trkpt lat="40.469992771550736" lon="15.619809290872826"><ele>797.0</ele><time>2026-04-26T08:13:26Z</time></trkpt><trkpt lat="40.469863278369445" lon="15.619552323813588"><ele>797.0</ele><time>2026-04-26T08:13:27Z</time></trkpt><trkpt lat="40.46973486097239" lon="15.619291152170288"><ele>798.5</ele><time>2026-04-26T08:13:28Z</time></trkpt><trkpt lat="40.469587570313045" lon="15.619036013154618"><ele>800.0</ele><time>2026-04-26T08:13:29Z</time></trkpt><trkpt lat="40.46944008572407" lon="15.6188003707748"><ele>803.0</ele><time>2026-04-26T08:13:30Z</time></trkpt><trkpt lat="40.46928833809695" lon="15.618548730867339"><ele>806.0</ele><time>2026-04-26T08:13:31Z</time></trkpt><trkpt lat="40.46912992274757" lon="15.61829811035335"><ele>806.0</ele><time>2026-04-26T08:13:32Z</time></trkpt><trkpt lat="40.468966474494344" lon="15.618047598435611"><ele>806.0</ele><time>2026-04-26T08:13:33Z</time></trkpt><trkpt lat="40.46880727172254" lon="15.617799811697669"><ele>806.0</ele><time>2026-04-26T08:13:34Z</time></trkpt><trkpt lat="40.46864662803562" lon="15.61755608157044"><ele>806.0</ele><time>2026-04-26T08:13:35Z</time></trkpt><trkpt lat="40.468491152726976" lon="15.617288106400819"><ele>806.0</ele><time>2026-04-26T08:13:36Z</time></trkpt><trkpt lat="40.468343752772306" lon="15.617057025752045"><ele>806.0</ele><time>2026-04-26T08:13:37Z</time></trkpt><trkpt lat="40.468194000979786" lon="15.616829725529021"><ele>805.5</ele><time>2026-04-26T08:13:38Z</time></trkpt><trkpt lat="40.468042355892685" lon="15.61659990443574"><ele>805.0</ele><time>2026-04-26T08:13:39Z</time></trkpt><trkpt lat="40.467898975271275" lon="15.616378663984232"><ele>805.0</ele><time>2026-04-26T08:13:40Z</time></trkpt><trkpt lat="40.467757446568335" lon="15.616160895440565"><ele>805.0</ele><time>2026-04-26T08:13:41Z</time></trkpt><trkpt lat="40.467612049307405" lon="15.61594366985739"><ele>805.0</ele><time>2026-04-26T08:13:42Z</time></trkpt><trkpt lat="40.467466459820216" lon="15.615717902325224"><ele>809.0</ele><time>2026-04-26T08:13:43Z</time></trkpt><trkpt lat="40.46732358856095" lon="15.615494047158245"><ele>813.0</ele><time>2026-04-26T08:13:44Z</time></trkpt><trkpt lat="40.467183233245414" lon="15.615279518278616"><ele>817.0</ele><time>2026-04-26T08:13:45Z</time></trkpt><trkpt lat="40.46703786980015" lon="15.615074129641446"><ele>818.0</ele><time>2026-04-26T08:13:46Z</time></trkpt><trkpt lat="40.46689308075515" lon="15.614863135410987"><ele>819.0</ele><time>2026-04-26T08:13:47Z</time></trkpt><trkpt lat="40.466740578540104" lon="15.61465953847589"><ele>820.0</ele><time>2026-04-26T08:13:48Z</time></trkpt><trkpt lat="40.46658578923896" lon="15.614451797838106"><ele>818.0</ele><time>2026-04-26T08:13:49Z</time></trkpt><trkpt lat="40.466425351012774" lon="15.61425261246304"><ele>816.0</ele><time>2026-04-26T08:13:50Z</time></trkpt><trkpt lat="40.466260375202" lon="15.614051734937306"><ele>814.0</ele><time>2026-04-26T08:13:51Z</time></trkpt><trkpt lat="40.46609030966415" lon="15.613854516020297"><ele>814.0</ele><time>2026-04-26T08:13:52Z</time></trkpt><trkpt lat="40.465915511470506" lon="15.613657297698582"><ele>814.0</ele><time>2026-04-26T08:13:53Z</time></trkpt><trkpt lat="40.46573204562655" lon="15.613460522460956"><ele>819.0</ele><time>2026-04-26T08:13:54Z</time></trkpt><trkpt lat="40.46555072545413" lon="15.613273761726388"><ele>824.0</ele><time>2026-04-26T08:13:55Z</time></trkpt><trkpt lat="40.465362370052404" lon="15.613091593626484"><ele>824.0</ele><time>2026-04-26T08:13:56Z</time></trkpt><trkpt lat="40.465168103299284" lon="15.612908219544364"><ele>824.0</ele><time>2026-04-26T08:13:57Z</time></trkpt><trkpt lat="40.464973439570706" lon="15.612724045412174"><ele>827.0</ele><time>2026-04-26T08:13:58Z</time></trkpt><trkpt lat="40.464775519669026" lon="15.612543981180876"><ele>830.0</ele><time>2026-04-26T08:13:59Z</time></trkpt><trkpt lat="40.46457725303484" lon="15.612357723786644"><ele>830.0</ele><time>2026-04-26T08:14:00Z</time></trkpt><trkpt lat="40.46438266262359" lon="15.612161415440688"><ele>830.0</ele><time>2026-04-26T08:14:01Z</time></trkpt><trkpt lat="40.46419317334299" lon="15.611958602941167"><ele>844.5</ele><time>2026-04-26T08:14:02Z</time></trkpt><trkpt lat="40.464005523761834" lon="15.611752854178132"><ele>859.0</ele><time>2026-04-26T08:14:03Z</time></trkpt><trkpt lat="40.46382391918637" lon="15.611539015542142"><ele>859.0</ele><time>2026-04-26T08:14:04Z</time></trkpt><trkpt lat="40.46364753405119" lon="15.6113197140457"><ele>859.0</ele><time>2026-04-26T08:14:05Z</time></trkpt><trkpt lat="40.46347282231882" lon="15.611095908736326"><ele>859.0</ele><time>2026-04-26T08:14:06Z</time></trkpt><trkpt lat="40.46329993414344" lon="15.61086554281314"><ele>859.0</ele><time>2026-04-26T08:14:07Z</time></trkpt><trkpt lat="40.46313322497055" lon="15.610627693774772"><ele>859.0</ele><time>2026-04-26T08:14:08Z</time></trkpt><trkpt lat="40.46297389103587" lon="15.610382585413452"><ele>859.0</ele><time>2026-04-26T08:14:09Z</time></trkpt><trkpt lat="40.46282294984655" lon="15.610130110964894"><ele>858.0</ele><time>2026-04-26T08:14:10Z</time></trkpt><trkpt lat="40.462678559887344" lon="15.609885682084577"><ele>857.0</ele><time>2026-04-26T08:14:11Z</time></trkpt><trkpt lat="40.462542960573664" lon="15.609643274251836"><ele>864.0</ele><time>2026-04-26T08:14:12Z</time></trkpt><trkpt lat="40.462411143387065" lon="15.609403628474961"><ele>871.0</ele><time>2026-04-26T08:14:13Z</time></trkpt><trkpt lat="40.462283602614555" lon="15.609159324927003"><ele>871.0</ele><time>2026-04-26T08:14:14Z</time></trkpt><trkpt lat="40.4621594624632" lon="15.608908038954572"><ele>871.0</ele><time>2026-04-26T08:14:15Z</time></trkpt><trkpt lat="40.4620398055409" lon="15.608649907277345"><ele>868.5</ele><time>2026-04-26T08:14:16Z</time></trkpt><trkpt lat="40.461922968745355" lon="15.608387403691287"><ele>866.0</ele><time>2026-04-26T08:14:17Z</time></trkpt><trkpt lat="40.461810649669864" lon="15.60811771435682"><ele>866.0</ele><time>2026-04-26T08:14:18Z</time></trkpt><trkpt lat="40.461702262359346" lon="15.607845930083917"><ele>866.0</ele><time>2026-04-26T08:14:19Z</time></trkpt><trkpt lat="40.46159838611485" lon="15.607572248925951"><ele>873.0</ele><time>2026-04-26T08:14:20Z</time></trkpt><trkpt lat="40.46149239750964" lon="15.607295472554648"><ele>880.0</ele><time>2026-04-26T08:14:21Z</time></trkpt><trkpt lat="40.46138374560101" lon="15.607021356717796"><ele>875.5</ele><time>2026-04-26T08:14:22Z</time></trkpt><trkpt lat="40.46127302668363" lon="15.606747389819063"><ele>871.0</ele><time>2026-04-26T08:14:23Z</time></trkpt><trkpt lat="40.46116319085091" lon="15.606470732923398"><ele>871.0</ele><time>2026-04-26T08:14:24Z</time></trkpt><trkpt lat="40.46105217459817" lon="15.606193751344591"><ele>871.0</ele><time>2026-04-26T08:14:25Z</time></trkpt><trkpt lat="40.46094409492468" lon="15.605914894704755"><ele>874.0</ele><time>2026-04-26T08:14:26Z</time></trkpt><trkpt lat="40.46083614102042" lon="15.605632811302435"><ele>877.0</ele><time>2026-04-26T08:14:27Z</time></trkpt><trkpt lat="40.4607284117377" lon="15.605353489660414"><ele>884.5</ele><time>2026-04-26T08:14:28Z</time></trkpt><trkpt lat="40.46061990269557" lon="15.605075717779247"><ele>892.0</ele><time>2026-04-26T08:14:29Z</time></trkpt><trkpt lat="40.46051827733158" lon="15.60479060595168"><ele>892.0</ele><time>2026-04-26T08:14:30Z</time></trkpt><trkpt lat="40.46042445380388" lon="15.60450482479361"><ele>892.0</ele><time>2026-04-26T08:14:31Z</time></trkpt><trkpt lat="40.460345787227745" lon="15.604208987930143"><ele>892.0</ele><time>2026-04-26T08:14:32Z</time></trkpt><trkpt lat="40.4602843511191" lon="15.603909653707086"><ele>892.0</ele><time>2026-04-26T08:14:33Z</time></trkpt><trkpt lat="40.46024712357404" lon="15.603619003027895"><ele>892.0</ele><time>2026-04-26T08:14:34Z</time></trkpt><trkpt lat="40.46022839303355" lon="15.603332302520734"><ele>892.0</ele><time>2026-04-26T08:14:35Z</time></trkpt><trkpt lat="40.46022592373652" lon="15.603048693903666"><ele>892.0</ele><time>2026-04-26T08:14:36.012Z</time></trkpt><trkpt lat="40.46024121549019" lon="15.60277003073679"><ele>892.0</ele><time>2026-04-26T08:14:37.011Z</time></trkpt><trkpt lat="40.460271789718135" lon="15.602490322388267"><ele>892.0</ele><time>2026-04-26T08:14:38Z</time></trkpt><trkpt lat="40.460329788436574" lon="15.602190065468482"><ele>890.0</ele><time>2026-04-26T08:14:39Z</time></trkpt><trkpt lat="40.46039581939995" lon="15.601903395530735"><ele>888.0</ele><time>2026-04-26T08:14:40Z</time></trkpt><trkpt lat="40.460464856472775" lon="15.601616598062085"><ele>898.0</ele><time>2026-04-26T08:14:41Z</time></trkpt><trkpt lat="40.46053076940182" lon="15.60132420843671"><ele>908.0</ele><time>2026-04-26T08:14:42Z</time></trkpt><trkpt lat="40.46060198632879" lon="15.601032436891145"><ele>908.0</ele><time>2026-04-26T08:14:43Z</time></trkpt><trkpt lat="40.460670564735544" lon="15.60074013621219"><ele>908.0</ele><time>2026-04-26T08:14:44Z</time></trkpt><trkpt lat="40.46074118848787" lon="15.60044361031555"><ele>906.0</ele><time>2026-04-26T08:14:45Z</time></trkpt><trkpt lat="40.460810093423476" lon="15.600144531377188"><ele>904.0</ele><time>2026-04-26T08:14:46Z</time></trkpt><trkpt lat="40.46088105481434" lon="15.599842461086785"><ele>904.0</ele><time>2026-04-26T08:14:47Z</time></trkpt><trkpt lat="40.46095536472384" lon="15.599537371828303"><ele>904.0</ele><time>2026-04-26T08:14:48Z</time></trkpt><trkpt lat="40.46103513495499" lon="15.599228768247851"><ele>906.0</ele><time>2026-04-26T08:14:49Z</time></trkpt><trkpt lat="40.46110832094616" lon="15.598918075655824"><ele>908.0</ele><time>2026-04-26T08:14:50Z</time></trkpt><trkpt lat="40.461180586119674" lon="15.598601825235908"><ele>909.0</ele><time>2026-04-26T08:14:51Z</time></trkpt><trkpt lat="40.461257351786934" lon="15.598286450574802"><ele>910.0</ele><time>2026-04-26T08:14:52Z</time></trkpt><trkpt lat="40.461333815292576" lon="15.597964631778366"><ele>916.0</ele><time>2026-04-26T08:14:53Z</time></trkpt><trkpt lat="40.46140727073687" lon="15.597646001104533"><ele>922.0</ele><time>2026-04-26T08:14:54Z</time></trkpt><trkpt lat="40.46148104641178" lon="15.597345602479837"><ele>922.0</ele><time>2026-04-26T08:14:55Z</time></trkpt><trkpt lat="40.46154321567702" lon="15.597048760962409"><ele>922.0</ele><time>2026-04-26T08:14:56Z</time></trkpt><trkpt lat="40.46160437148809" lon="15.596750777156846"><ele>921.0</ele><time>2026-04-26T08:14:57Z</time></trkpt><trkpt lat="40.4616614081798" lon="15.596447873743578"><ele>920.0</ele><time>2026-04-26T08:14:58Z</time></trkpt><trkpt lat="40.46171635136042" lon="15.596142085333426"><ele>918.5</ele><time>2026-04-26T08:14:59Z</time></trkpt><trkpt lat="40.461766907055285" lon="15.595829106695563"><ele>917.0</ele><time>2026-04-26T08:15:00Z</time></trkpt><trkpt lat="40.46180276700567" lon="15.595509210321277"><ele>915.0</ele><time>2026-04-26T08:15:01Z</time></trkpt><trkpt lat="40.4618323884281" lon="15.595182482050166"><ele>913.0</ele><time>2026-04-26T08:15:02Z</time></trkpt><trkpt lat="40.4618567802377" lon="15.59485197158274"><ele>913.0</ele><time>2026-04-26T08:15:03Z</time></trkpt><trkpt lat="40.46187689803613" lon="15.594519371337043"><ele>913.0</ele><time>2026-04-26T08:15:04Z</time></trkpt><trkpt lat="40.46188501447617" lon="15.594174501727005"><ele>910.5</ele><time>2026-04-26T08:15:05Z</time></trkpt><trkpt lat="40.46189214324818" lon="15.593832098870621"><ele>908.0</ele><time>2026-04-26T08:15:06Z</time></trkpt><trkpt lat="40.461885222004966" lon="15.593486016625612"><ele>905.0</ele><time>2026-04-26T08:15:07Z</time></trkpt><trkpt lat="40.4618752999274" lon="15.593146528306287"><ele>902.0</ele><time>2026-04-26T08:15:08Z</time></trkpt><trkpt lat="40.46185115992802" lon="15.592817454880288"><ele>900.0</ele><time>2026-04-26T08:15:09Z</time></trkpt><trkpt lat="40.46182684959422" lon="15.592490273371126"><ele>898.0</ele><time>2026-04-26T08:15:10Z</time></trkpt><trkpt lat="40.46179615239566" lon="15.59215827453942"><ele>895.5</ele><time>2026-04-26T08:15:11Z</time></trkpt><trkpt lat="40.461760169836744" lon="15.59182696936448"><ele>893.0</ele><time>2026-04-26T08:15:12Z</time></trkpt><trkpt lat="40.461711980125514" lon="15.591498171372626"><ele>890.0</ele><time>2026-04-26T08:15:13Z</time></trkpt><trkpt lat="40.461656248437336" lon="15.5911681478765"><ele>887.0</ele><time>2026-04-26T08:15:14Z</time></trkpt><trkpt lat="40.461598507335296" lon="15.59083357803084"><ele>887.0</ele><time>2026-04-26T08:15:15Z</time></trkpt><trkpt lat="40.46153548649615" lon="15.590493999600268"><ele>887.0</ele><time>2026-04-26T08:15:16Z</time></trkpt><trkpt lat="40.46147668700739" lon="15.590155040689744"><ele>885.0</ele><time>2026-04-26T08:15:17Z</time></trkpt><trkpt lat="40.46141907458799" lon="15.589820010138022"><ele>883.0</ele><time>2026-04-26T08:15:18Z</time></trkpt><trkpt lat="40.461359408480085" lon="15.589479062226138"><ele>884.0</ele><time>2026-04-26T08:15:19Z</time></trkpt><trkpt lat="40.4613018239333" lon="15.589139890689209"><ele>885.0</ele><time>2026-04-26T08:15:20Z</time></trkpt><trkpt lat="40.46124162452467" lon="15.588805330946785"><ele>889.0</ele><time>2026-04-26T08:15:21Z</time></trkpt><trkpt lat="40.46118434746585" lon="15.588475951939486"><ele>893.0</ele><time>2026-04-26T08:15:22Z</time></trkpt><trkpt lat="40.46112665924361" lon="15.588147773505554"><ele>891.5</ele><time>2026-04-26T08:15:23Z</time></trkpt><trkpt lat="40.4610723373986" lon="15.587819802150713"><ele>890.0</ele><time>2026-04-26T08:15:24Z</time></trkpt><trkpt lat="40.46101871355104" lon="15.58748111563102"><ele>890.0</ele><time>2026-04-26T08:15:25Z</time></trkpt><trkpt lat="40.46096213159744" lon="15.587137192637053"><ele>890.0</ele><time>2026-04-26T08:15:26Z</time></trkpt><trkpt lat="40.46090436415704" lon="15.586786191699096"><ele>884.0</ele><time>2026-04-26T08:15:27Z</time></trkpt><trkpt lat="40.460845906769215" lon="15.586429461054891"><ele>878.0</ele><time>2026-04-26T08:15:28Z</time></trkpt><trkpt lat="40.460787306569735" lon="15.586071496164825"><ele>874.0</ele><time>2026-04-26T08:15:29Z</time></trkpt><trkpt lat="40.46072903243524" lon="15.585715821939653"><ele>870.0</ele><time>2026-04-26T08:15:30Z</time></trkpt><trkpt lat="40.46066997104941" lon="15.585370927091052"><ele>867.0</ele><time>2026-04-26T08:15:31Z</time></trkpt><trkpt lat="40.46060673845252" lon="15.58503120193905"><ele>864.0</ele><time>2026-04-26T08:15:32Z</time></trkpt><trkpt lat="40.46053912208193" lon="15.584699733628508"><ele>863.5</ele><time>2026-04-26T08:15:33Z</time></trkpt><trkpt lat="40.46047796446785" lon="15.584368149132912"><ele>863.0</ele><time>2026-04-26T08:15:34Z</time></trkpt><trkpt lat="40.46041973862668" lon="15.584034630243174"><ele>863.0</ele><time>2026-04-26T08:15:35Z</time></trkpt><trkpt lat="40.46035829044502" lon="15.583691802128673"><ele>863.0</ele><time>2026-04-26T08:15:36Z</time></trkpt><trkpt lat="40.46029759782611" lon="15.583345563906992"><ele>861.0</ele><time>2026-04-26T08:15:37Z</time></trkpt><trkpt lat="40.460235576283196" lon="15.582997242084682"><ele>859.0</ele><time>2026-04-26T08:15:38Z</time></trkpt><trkpt lat="40.460171988208835" lon="15.582657818392923"><ele>859.0</ele><time>2026-04-26T08:15:39Z</time></trkpt><trkpt lat="40.460112677910075" lon="15.582323467846372"><ele>859.0</ele><time>2026-04-26T08:15:40Z</time></trkpt><trkpt lat="40.460069877543276" lon="15.581985882412559"><ele>859.0</ele><time>2026-04-26T08:15:41Z</time></trkpt><trkpt lat="40.45999880195693" lon="15.581671676713075"><ele>859.0</ele><time>2026-04-26T08:15:42Z</time></trkpt><trkpt lat="40.45994675913548" lon="15.581360618724972"><ele>859.0</ele><time>2026-04-26T08:15:43Z</time></trkpt><trkpt lat="40.45989137176597" lon="15.581048558563957"><ele>859.0</ele><time>2026-04-26T08:15:44Z</time></trkpt><trkpt lat="40.45983432853231" lon="15.580731532718117"><ele>859.0</ele><time>2026-04-26T08:15:45Z</time></trkpt><trkpt lat="40.45977802791684" lon="15.580412474881754"><ele>859.0</ele><time>2026-04-26T08:15:46Z</time></trkpt><trkpt lat="40.45972535375668" lon="15.580090846334755"><ele>858.0</ele><time>2026-04-26T08:15:47Z</time></trkpt><trkpt lat="40.459670900725406" lon="15.579768579179248"><ele>857.0</ele><time>2026-04-26T08:15:48Z</time></trkpt><trkpt lat="40.45961859383784" lon="15.579441691611871"><ele>853.0</ele><time>2026-04-26T08:15:49Z</time></trkpt><trkpt lat="40.45956337196569" lon="15.579116274906971"><ele>849.0</ele><time>2026-04-26T08:15:50Z</time></trkpt><trkpt lat="40.45949902938547" lon="15.57878819663281"><ele>846.5</ele><time>2026-04-26T08:15:51Z</time></trkpt><trkpt lat="40.459438070423296" lon="15.578450270018662"><ele>844.0</ele><time>2026-04-26T08:15:52Z</time></trkpt><trkpt lat="40.459379488451575" lon="15.578107388802753"><ele>843.5</ele><time>2026-04-26T08:15:53Z</time></trkpt><trkpt lat="40.459319694866814" lon="15.577759328669336"><ele>843.0</ele><time>2026-04-26T08:15:54Z</time></trkpt><trkpt lat="40.45926123249796" lon="15.57741651372517"><ele>843.0</ele><time>2026-04-26T08:15:55Z</time></trkpt><trkpt lat="40.459201879050205" lon="15.57708110508251"><ele>843.0</ele><time>2026-04-26T08:15:56Z</time></trkpt><trkpt lat="40.459152116868964" lon="15.576755168563613"><ele>842.5</ele><time>2026-04-26T08:15:57Z</time></trkpt><trkpt lat="40.45911210951868" lon="15.576447338755072"><ele>842.0</ele><time>2026-04-26T08:15:58Z</time></trkpt><trkpt lat="40.45908235394182" lon="15.5761540814792"><ele>841.0</ele><time>2026-04-26T08:15:59Z</time></trkpt><trkpt lat="40.459061194912486" lon="15.575864281846885"><ele>840.0</ele><time>2026-04-26T08:16:00Z</time></trkpt><trkpt lat="40.45905966936584" lon="15.575569071703999"><ele>839.0</ele><time>2026-04-26T08:16:01Z</time></trkpt><trkpt lat="40.45907561501724" lon="15.575255360921252"><ele>835.5</ele><time>2026-04-26T08:16:02Z</time></trkpt><trkpt lat="40.45911296290955" lon="15.57493190516921"><ele>832.0</ele><time>2026-04-26T08:16:03Z</time></trkpt><trkpt lat="40.459165794533774" lon="15.574611804193582"><ele>827.0</ele><time>2026-04-26T08:16:04Z</time></trkpt><trkpt lat="40.459237983837916" lon="15.574302078369655"><ele>822.0</ele><time>2026-04-26T08:16:05Z</time></trkpt><trkpt lat="40.45933241493662" lon="15.573989369451576"><ele>822.0</ele><time>2026-04-26T08:16:06Z</time></trkpt><trkpt lat="40.459448382223215" lon="15.573689125842163"><ele>822.0</ele><time>2026-04-26T08:16:07Z</time></trkpt><trkpt lat="40.459564678731915" lon="15.573403501963082"><ele>813.5</ele><time>2026-04-26T08:16:08Z</time></trkpt><trkpt lat="40.4596985922507" lon="15.573134957110964"><ele>805.0</ele><time>2026-04-26T08:16:09Z</time></trkpt><trkpt lat="40.459844652223936" lon="15.572876089921461"><ele>810.0</ele><time>2026-04-26T08:16:10Z</time></trkpt><trkpt lat="40.45999545467761" lon="15.572625061472419"><ele>815.0</ele><time>2026-04-26T08:16:11Z</time></trkpt><trkpt lat="40.460141929974384" lon="15.572377934898505"><ele>815.0</ele><time>2026-04-26T08:16:12Z</time></trkpt><trkpt lat="40.46028276518292" lon="15.57212311355951"><ele>815.0</ele><time>2026-04-26T08:16:13Z</time></trkpt><trkpt lat="40.460420994344965" lon="15.57185904338932"><ele>807.0</ele><time>2026-04-26T08:16:14Z</time></trkpt><trkpt lat="40.46054104424893" lon="15.571599581957102"><ele>799.0</ele><time>2026-04-26T08:16:15Z</time></trkpt><trkpt lat="40.46066065419336" lon="15.571318073547287"><ele>803.5</ele><time>2026-04-26T08:16:16Z</time></trkpt><trkpt lat="40.460778850932144" lon="15.57103091233811"><ele>808.0</ele><time>2026-04-26T08:16:17Z</time></trkpt><trkpt lat="40.46088505696582" lon="15.570727094641057"><ele>808.0</ele><time>2026-04-26T08:16:18Z</time></trkpt><trkpt lat="40.460979122687036" lon="15.570409054184916"><ele>808.0</ele><time>2026-04-26T08:16:19Z</time></trkpt><trkpt lat="40.46105793192918" lon="15.570086293271812"><ele>807.5</ele><time>2026-04-26T08:16:20Z</time></trkpt><trkpt lat="40.46111999902329" lon="15.569748744691024"><ele>807.0</ele><time>2026-04-26T08:16:21Z</time></trkpt><trkpt lat="40.46116082684923" lon="15.56941075746919"><ele>807.0</ele><time>2026-04-26T08:16:22Z</time></trkpt><trkpt lat="40.46118702353784" lon="15.569075232060392"><ele>807.0</ele><time>2026-04-26T08:16:23Z</time></trkpt><trkpt lat="40.46120370570752" lon="15.568749417162694"><ele>801.0</ele><time>2026-04-26T08:16:24Z</time></trkpt><trkpt lat="40.461208845563064" lon="15.568428430051279"><ele>795.0</ele><time>2026-04-26T08:16:25Z</time></trkpt><trkpt lat="40.4612041686011" lon="15.56810437831041"><ele>788.0</ele><time>2026-04-26T08:16:26Z</time></trkpt><trkpt lat="40.461188747180046" lon="15.56777030265889"><ele>781.0</ele><time>2026-04-26T08:16:27Z</time></trkpt><trkpt lat="40.46116892490709" lon="15.567446501154254"><ele>781.0</ele><time>2026-04-26T08:16:28Z</time></trkpt><trkpt lat="40.46114914844517" lon="15.567122064385526"><ele>781.0</ele><time>2026-04-26T08:16:29Z</time></trkpt><trkpt lat="40.46113225422744" lon="15.566795235495192"><ele>776.0</ele><time>2026-04-26T08:16:30Z</time></trkpt><trkpt lat="40.46111471455158" lon="15.566475449636718"><ele>771.0</ele><time>2026-04-26T08:16:31Z</time></trkpt><trkpt lat="40.46109678572938" lon="15.566154814525074"><ele>767.5</ele><time>2026-04-26T08:16:32Z</time></trkpt><trkpt lat="40.46107927550057" lon="15.56583693786769"><ele>764.0</ele><time>2026-04-26T08:16:33Z</time></trkpt><trkpt lat="40.461060801129065" lon="15.565522328214229"><ele>763.0</ele><time>2026-04-26T08:16:34Z</time></trkpt><trkpt lat="40.46104352958672" lon="15.565206978786263"><ele>762.0</ele><time>2026-04-26T08:16:35Z</time></trkpt><trkpt lat="40.46102829554873" lon="15.564889769101704"><ele>762.0</ele><time>2026-04-26T08:16:36Z</time></trkpt><trkpt lat="40.461013202707335" lon="15.564574189905828"><ele>762.0</ele><time>2026-04-26T08:16:37Z</time></trkpt><trkpt lat="40.46099818358673" lon="15.5642736444071"><ele>764.6666666666667</ele><time>2026-04-26T08:16:38Z</time></trkpt><trkpt lat="40.460974319063254" lon="15.563983945868186"><ele>767.3333333333334</ele><time>2026-04-26T08:16:39Z</time></trkpt><trkpt lat="40.46093188363138" lon="15.56370688132873"><ele>770.0</ele><time>2026-04-26T08:16:40Z</time></trkpt><trkpt lat="40.460870062179524" lon="15.563436915941447"><ele>770.0</ele><time>2026-04-26T08:16:41Z</time></trkpt><trkpt lat="40.460783984811385" lon="15.563175256364248"><ele>770.0</ele><time>2026-04-26T08:16:42Z</time></trkpt><trkpt lat="40.46067662610101" lon="15.562921700245209"><ele>770.0</ele><time>2026-04-26T08:16:43Z</time></trkpt><trkpt lat="40.46054434973908" lon="15.562682088319544"><ele>767.5</ele><time>2026-04-26T08:16:44Z</time></trkpt><trkpt lat="40.46039018960944" lon="15.562461190512618"><ele>765.0</ele><time>2026-04-26T08:16:45Z</time></trkpt><trkpt lat="40.46021128067175" lon="15.562272248729112"><ele>765.0</ele><time>2026-04-26T08:16:46Z</time></trkpt><trkpt lat="40.460019151412574" lon="15.562102871952694"><ele>765.0</ele><time>2026-04-26T08:16:47Z</time></trkpt><trkpt lat="40.45981472051658" lon="15.561959497635753"><ele>758.5</ele><time>2026-04-26T08:16:48Z</time></trkpt><trkpt lat="40.459593314136335" lon="15.561856073299225"><ele>752.0</ele><time>2026-04-26T08:16:49Z</time></trkpt><trkpt lat="40.45936821258312" lon="15.561778260351113"><ele>752.0</ele><time>2026-04-26T08:16:50Z</time></trkpt><trkpt lat="40.45914248955938" lon="15.561747513060828"><ele>752.0</ele><time>2026-04-26T08:16:51Z</time></trkpt><trkpt lat="40.458919507597976" lon="15.561739551301368"><ele>748.3333333333333</ele><time>2026-04-26T08:16:52Z</time></trkpt><trkpt lat="40.45869866834536" lon="15.561760982530826"><ele>744.6666666666666</ele><time>2026-04-26T08:16:53Z</time></trkpt><trkpt lat="40.458481337356325" lon="15.56181112801497"><ele>741.0</ele><time>2026-04-26T08:16:54Z</time></trkpt><trkpt lat="40.45826422156711" lon="15.561896685522601"><ele>741.0</ele><time>2026-04-26T08:16:55Z</time></trkpt><trkpt lat="40.458058912059826" lon="15.562010092270505"><ele>741.0</ele><time>2026-04-26T08:16:56Z</time></trkpt><trkpt lat="40.457862539486776" lon="15.562147774050018"><ele>741.0</ele><time>2026-04-26T08:16:57Z</time></trkpt><trkpt lat="40.45767278134755" lon="15.562320138008351"><ele>740.5</ele><time>2026-04-26T08:16:58Z</time></trkpt><trkpt lat="40.457488351208895" lon="15.562507481248213"><ele>740.0</ele><time>2026-04-26T08:16:59Z</time></trkpt><trkpt lat="40.457322305066974" lon="15.562714365944574"><ele>737.5</ele><time>2026-04-26T08:17:00Z</time></trkpt><trkpt lat="40.45715329640997" lon="15.562922935968773"><ele>735.0</ele><time>2026-04-26T08:17:01Z</time></trkpt><trkpt lat="40.45696963153227" lon="15.563109092466913"><ele>735.0</ele><time>2026-04-26T08:17:02Z</time></trkpt><trkpt lat="40.45677638179428" lon="15.563286215712361"><ele>735.0</ele><time>2026-04-26T08:17:03Z</time></trkpt><trkpt lat="40.45658201140937" lon="15.563461296037717"><ele>735.0</ele><time>2026-04-26T08:17:04Z</time></trkpt><trkpt lat="40.45638734279978" lon="15.563629898016012"><ele>735.0</ele><time>2026-04-26T08:17:05Z</time></trkpt><trkpt lat="40.45619236396217" lon="15.563798794026187"><ele>736.0</ele><time>2026-04-26T08:17:06Z</time></trkpt><trkpt lat="40.45598519341504" lon="15.563972625851546"><ele>737.0</ele><time>2026-04-26T08:17:07Z</time></trkpt><trkpt lat="40.455783336578804" lon="15.564133746832148"><ele>737.0</ele><time>2026-04-26T08:17:08Z</time></trkpt><trkpt lat="40.45558710825302" lon="15.564299478906914"><ele>737.0</ele><time>2026-04-26T08:17:09Z</time></trkpt><trkpt lat="40.4553775494201" lon="15.564464509010408"><ele>730.5</ele><time>2026-04-26T08:17:10Z</time></trkpt><trkpt lat="40.45516905250898" lon="15.564640525529885"><ele>724.0</ele><time>2026-04-26T08:17:11Z</time></trkpt><trkpt lat="40.45496383082632" lon="15.56481388471453"><ele>724.0</ele><time>2026-04-26T08:17:12Z</time></trkpt><trkpt lat="40.454756422614615" lon="15.564989094669784"><ele>724.0</ele><time>2026-04-26T08:17:13Z</time></trkpt><trkpt lat="40.45454832700088" lon="15.565164885312717"><ele>720.0</ele><time>2026-04-26T08:17:14Z</time></trkpt><trkpt lat="40.45434040336454" lon="15.56533797482462"><ele>716.0</ele><time>2026-04-26T08:17:15Z</time></trkpt><trkpt lat="40.45412929066626" lon="15.565514200790501"><ele>716.0</ele><time>2026-04-26T08:17:16Z</time></trkpt><trkpt lat="40.45391743851081" lon="15.565692641369873"><ele>716.0</ele><time>2026-04-26T08:17:17Z</time></trkpt><trkpt lat="40.45370806270219" lon="15.56587148981015"><ele>719.0</ele><time>2026-04-26T08:17:18Z</time></trkpt><trkpt lat="40.453500213115134" lon="15.566047176699092"><ele>722.0</ele><time>2026-04-26T08:17:19Z</time></trkpt><trkpt lat="40.453294369584086" lon="15.566219514239133"><ele>722.0</ele><time>2026-04-26T08:17:20Z</time></trkpt><trkpt lat="40.453097440941924" lon="15.566409716515404"><ele>722.0</ele><time>2026-04-26T08:17:21Z</time></trkpt><trkpt lat="40.45289207208625" lon="15.566579002705804"><ele>713.5</ele><time>2026-04-26T08:17:22Z</time></trkpt><trkpt lat="40.4526878137723" lon="15.566749827669272"><ele>705.0</ele><time>2026-04-26T08:17:23Z</time></trkpt><trkpt lat="40.45248833252449" lon="15.566912917098287"><ele>703.5</ele><time>2026-04-26T08:17:24Z</time></trkpt><trkpt lat="40.45228333310183" lon="15.567086218402064"><ele>702.0</ele><time>2026-04-26T08:17:25Z</time></trkpt><trkpt lat="40.452070278216596" lon="15.567257327261926"><ele>702.0</ele><time>2026-04-26T08:17:26Z</time></trkpt><trkpt lat="40.45186223094776" lon="15.567439679238538"><ele>702.0</ele><time>2026-04-26T08:17:27Z</time></trkpt><trkpt lat="40.451658682727505" lon="15.567623502364937"><ele>702.0</ele><time>2026-04-26T08:17:28Z</time></trkpt><trkpt lat="40.45144118751383" lon="15.567811670619479"><ele>702.0</ele><time>2026-04-26T08:17:29Z</time></trkpt><trkpt lat="40.45121300713454" lon="15.567979522552582"><ele>701.0</ele><time>2026-04-26T08:17:30Z</time></trkpt><trkpt lat="40.45099699441908" lon="15.568187750667072"><ele>700.0</ele><time>2026-04-26T08:17:31Z</time></trkpt><trkpt lat="40.45076772500647" lon="15.568380458256522"><ele>700.0</ele><time>2026-04-26T08:17:32Z</time></trkpt><trkpt lat="40.45053411064193" lon="15.568573802363069"><ele>700.0</ele><time>2026-04-26T08:17:33Z</time></trkpt><trkpt lat="40.45029819223105" lon="15.568777663863013"><ele>697.5</ele><time>2026-04-26T08:17:34Z</time></trkpt><trkpt lat="40.45005761610654" lon="15.568981832922848"><ele>695.0</ele><time>2026-04-26T08:17:35Z</time></trkpt><trkpt lat="40.449816786998944" lon="15.56918550984316"><ele>692.5</ele><time>2026-04-26T08:17:36Z</time></trkpt><trkpt lat="40.449587998885264" lon="15.569375524392708"><ele>690.0</ele><time>2026-04-26T08:17:37Z</time></trkpt><trkpt lat="40.44935938745179" lon="15.569540998153045"><ele>690.0</ele><time>2026-04-26T08:17:38Z</time></trkpt><trkpt lat="40.44914275097024" lon="15.569714563487759"><ele>690.0</ele><time>2026-04-26T08:17:39Z</time></trkpt><trkpt lat="40.44892620173386" lon="15.569868763691122"><ele>682.5</ele><time>2026-04-26T08:17:40Z</time></trkpt><trkpt lat="40.448712212436405" lon="15.570006834811995"><ele>675.0</ele><time>2026-04-26T08:17:41Z</time></trkpt><trkpt lat="40.448500867043464" lon="15.570132188199626"><ele>675.0</ele><time>2026-04-26T08:17:42Z</time></trkpt><trkpt lat="40.448285267836326" lon="15.570253570146129"><ele>675.0</ele><time>2026-04-26T08:17:43Z</time></trkpt><trkpt lat="40.448062282459794" lon="15.570364024315474"><ele>673.0</ele><time>2026-04-26T08:17:44Z</time></trkpt><trkpt lat="40.447828764754966" lon="15.570464060055185"><ele>671.0</ele><time>2026-04-26T08:17:45Z</time></trkpt><trkpt lat="40.447584202543496" lon="15.570556848977457"><ele>671.0</ele><time>2026-04-26T08:17:46Z</time></trkpt><trkpt lat="40.44732916829591" lon="15.570638094680483"><ele>671.0</ele><time>2026-04-26T08:17:47Z</time></trkpt><trkpt lat="40.44706758516512" lon="15.570709328012692"><ele>669.0</ele><time>2026-04-26T08:17:48Z</time></trkpt><trkpt lat="40.44680221224999" lon="15.570786544824815"><ele>667.0</ele><time>2026-04-26T08:17:49Z</time></trkpt><trkpt lat="40.44653268131117" lon="15.57082456603222"><ele>664.5</ele><time>2026-04-26T08:17:50Z</time></trkpt><trkpt lat="40.44626493418078" lon="15.570848214810251"><ele>662.0</ele><time>2026-04-26T08:17:51Z</time></trkpt><trkpt lat="40.445999482337974" lon="15.570858026559721"><ele>662.0</ele><time>2026-04-26T08:17:52Z</time></trkpt><trkpt lat="40.445737418817274" lon="15.570849584934065"><ele>662.0</ele><time>2026-04-26T08:17:53Z</time></trkpt><trkpt lat="40.4454760747216" lon="15.570826908599118"><ele>660.5</ele><time>2026-04-26T08:17:54Z</time></trkpt><trkpt lat="40.44521442339162" lon="15.570798797102926"><ele>659.0</ele><time>2026-04-26T08:17:55Z</time></trkpt><trkpt lat="40.444954493302795" lon="15.570748090729252"><ele>659.0</ele><time>2026-04-26T08:17:56Z</time></trkpt><trkpt lat="40.4446932915163" lon="15.570688609808986"><ele>659.0</ele><time>2026-04-26T08:17:57Z</time></trkpt><trkpt lat="40.44443450555763" lon="15.57061308948798"><ele>659.0</ele><time>2026-04-26T08:17:58Z</time></trkpt><trkpt lat="40.44417562031825" lon="15.570524584276361"><ele>659.0</ele><time>2026-04-26T08:17:59Z</time></trkpt><trkpt lat="40.443915024057475" lon="15.570420883923628"><ele>655.5</ele><time>2026-04-26T08:18:00Z</time></trkpt><trkpt lat="40.44365888987509" lon="15.57029962175885"><ele>652.0</ele><time>2026-04-26T08:18:01Z</time></trkpt><trkpt lat="40.44340728397809" lon="15.570151410349098"><ele>652.0</ele><time>2026-04-26T08:18:02Z</time></trkpt><trkpt lat="40.443157509960805" lon="15.569996249856842"><ele>652.0</ele><time>2026-04-26T08:18:03Z</time></trkpt><trkpt lat="40.44291644046783" lon="15.569832052816707"><ele>652.0</ele><time>2026-04-26T08:18:04Z</time></trkpt><trkpt lat="40.442686730520464" lon="15.569660210020832"><ele>652.0</ele><time>2026-04-26T08:18:05Z</time></trkpt><trkpt lat="40.44246011768227" lon="15.569496006452866"><ele>651.5</ele><time>2026-04-26T08:18:06Z</time></trkpt><trkpt lat="40.442238850269355" lon="15.569324867828897"><ele>651.0</ele><time>2026-04-26T08:18:07Z</time></trkpt><trkpt lat="40.44201975533945" lon="15.569152941472252"><ele>651.0</ele><time>2026-04-26T08:18:08Z</time></trkpt><trkpt lat="40.441803264485955" lon="15.568980407021058"><ele>651.0</ele><time>2026-04-26T08:18:09Z</time></trkpt><trkpt lat="40.44158684169913" lon="15.568813927109423"><ele>646.5</ele><time>2026-04-26T08:18:10Z</time></trkpt><trkpt lat="40.44137606521527" lon="15.568648710261124"><ele>642.0</ele><time>2026-04-26T08:18:11Z</time></trkpt><trkpt lat="40.44116518318099" lon="15.568484049465901"><ele>642.0</ele><time>2026-04-26T08:18:12Z</time></trkpt><trkpt lat="40.44095373007392" lon="15.568320352244383"><ele>642.0</ele><time>2026-04-26T08:18:13Z</time></trkpt><trkpt lat="40.440741753711855" lon="15.568153433581294"><ele>642.0</ele><time>2026-04-26T08:18:14Z</time></trkpt><trkpt lat="40.440524631681214" lon="15.56798387585639"><ele>642.0</ele><time>2026-04-26T08:18:15Z</time></trkpt><trkpt lat="40.44030762805293" lon="15.56781765534417"><ele>638.5</ele><time>2026-04-26T08:18:16Z</time></trkpt><trkpt lat="40.44008429738228" lon="15.567650272935719"><ele>635.0</ele><time>2026-04-26T08:18:17Z</time></trkpt><trkpt lat="40.43986379374288" lon="15.56747909140113"><ele>635.0</ele><time>2026-04-26T08:18:18Z</time></trkpt><trkpt lat="40.43964744270781" lon="15.567310132207838"><ele>635.0</ele><time>2026-04-26T08:18:19Z</time></trkpt><trkpt lat="40.439433035640484" lon="15.567146325693836"><ele>632.5</ele><time>2026-04-26T08:18:20Z</time></trkpt><trkpt lat="40.43922206500321" lon="15.566984699547854"><ele>630.0</ele><time>2026-04-26T08:18:21Z</time></trkpt><trkpt lat="40.43901457327369" lon="15.566820125640575"><ele>630.0</ele><time>2026-04-26T08:18:22Z</time></trkpt><trkpt lat="40.43881049980824" lon="15.566657114345249"><ele>630.0</ele><time>2026-04-26T08:18:23Z</time></trkpt><trkpt lat="40.438611072549385" lon="15.566499422374221"><ele>627.0</ele><time>2026-04-26T08:18:24Z</time></trkpt><trkpt lat="40.4384129936933" lon="15.566343262595979"><ele>624.0</ele><time>2026-04-26T08:18:25Z</time></trkpt><trkpt lat="40.438215433642284" lon="15.566193386231639"><ele>624.0</ele><time>2026-04-26T08:18:26Z</time></trkpt><trkpt lat="40.43802205116254" lon="15.566044531310506"><ele>624.0</ele><time>2026-04-26T08:18:27Z</time></trkpt><trkpt lat="40.437838640712684" lon="15.565887972410499"><ele>624.0</ele><time>2026-04-26T08:18:28Z</time></trkpt><trkpt lat="40.43766453317128" lon="15.565716985471077"><ele>624.3333333333334</ele><time>2026-04-26T08:18:29Z</time></trkpt><trkpt lat="40.43749870097427" lon="15.565540101196401"><ele>624.6666666666667</ele><time>2026-04-26T08:18:30Z</time></trkpt><trkpt lat="40.43733735910795" lon="15.565349225192405"><ele>625.0</ele><time>2026-04-26T08:18:31Z</time></trkpt><trkpt lat="40.43718087540516" lon="15.565142350039254"><ele>623.3333333333334</ele><time>2026-04-26T08:18:32Z</time></trkpt><trkpt lat="40.437033419901006" lon="15.564928301510019"><ele>621.6666666666666</ele><time>2026-04-26T08:18:33Z</time></trkpt><trkpt lat="40.436893590867165" lon="15.56470609427049"><ele>620.0</ele><time>2026-04-26T08:18:34Z</time></trkpt><trkpt lat="40.43676424264344" lon="15.564467071406318"><ele>620.0</ele><time>2026-04-26T08:18:35Z</time></trkpt><trkpt lat="40.43664392593388" lon="15.564221424281754"><ele>620.0</ele><time>2026-04-26T08:18:36Z</time></trkpt><trkpt lat="40.436543674075494" lon="15.563960822168346"><ele>620.0</ele><time>2026-04-26T08:18:37Z</time></trkpt><trkpt lat="40.436472421992555" lon="15.56368697455692"><ele>621.0</ele><time>2026-04-26T08:18:38Z</time></trkpt><trkpt lat="40.436423841926185" lon="15.5634078857603"><ele>622.0</ele><time>2026-04-26T08:18:39Z</time></trkpt><trkpt lat="40.436402091223954" lon="15.563119415523182"><ele>623.0</ele><time>2026-04-26T08:18:40Z</time></trkpt><trkpt lat="40.436408427378886" lon="15.56282951513663"><ele>623.3333333333333</ele><time>2026-04-26T08:18:41Z</time></trkpt><trkpt lat="40.4364421934882" lon="15.5625523118774"><ele>623.6666666666666</ele><time>2026-04-26T08:18:42Z</time></trkpt><trkpt lat="40.43650226686821" lon="15.562287113160684"><ele>624.0</ele><time>2026-04-26T08:18:43Z</time></trkpt><trkpt lat="40.43658780022279" lon="15.562039498828863"><ele>621.6666666666666</ele><time>2026-04-26T08:18:44Z</time></trkpt><trkpt lat="40.436691527468874" lon="15.56181080879835"><ele>619.3333333333333</ele><time>2026-04-26T08:18:45Z</time></trkpt><trkpt lat="40.4368153533347" lon="15.561599851736837"><ele>617.0</ele><time>2026-04-26T08:18:46Z</time></trkpt><trkpt lat="40.43695693101571" lon="15.561408248126645"><ele>617.0</ele><time>2026-04-26T08:18:47Z</time></trkpt><trkpt lat="40.43711147923094" lon="15.561235908996762"><ele>617.0</ele><time>2026-04-26T08:18:48Z</time></trkpt><trkpt lat="40.43728062458745" lon="15.561081168370228"><ele>617.0</ele><time>2026-04-26T08:18:49Z</time></trkpt><trkpt lat="40.43746183295113" lon="15.560948711954222"><ele>615.3333333333333</ele><time>2026-04-26T08:18:50Z</time></trkpt><trkpt lat="40.4376553681054" lon="15.560844106459983"><ele>613.6666666666666</ele><time>2026-04-26T08:18:51Z</time></trkpt><trkpt lat="40.437861607221414" lon="15.560762523561698"><ele>612.0</ele><time>2026-04-26T08:18:52Z</time></trkpt><trkpt lat="40.438065727478275" lon="15.560714098457554"><ele>612.0</ele><time>2026-04-26T08:18:53Z</time></trkpt><trkpt lat="40.438274562814335" lon="15.56069710657367"><ele>612.0</ele><time>2026-04-26T08:18:54Z</time></trkpt><trkpt lat="40.438481355707005" lon="15.560706714848116"><ele>612.0</ele><time>2026-04-26T08:18:55Z</time></trkpt><trkpt lat="40.43868662540606" lon="15.560746171665134"><ele>610.6666666666666</ele><time>2026-04-26T08:18:56Z</time></trkpt><trkpt lat="40.4388880564034" lon="15.560807423507951"><ele>609.3333333333333</ele><time>2026-04-26T08:18:57Z</time></trkpt><trkpt lat="40.43908262736343" lon="15.560893157995"><ele>608.0</ele><time>2026-04-26T08:18:58Z</time></trkpt><trkpt lat="40.439267111134136" lon="15.561006146438553"><ele>608.0</ele><time>2026-04-26T08:18:59Z</time></trkpt><trkpt lat="40.43944061604087" lon="15.561146572935867"><ele>608.0</ele><time>2026-04-26T08:19:00Z</time></trkpt><trkpt lat="40.43960165893048" lon="15.561307562750656"><ele>608.0</ele><time>2026-04-26T08:19:01Z</time></trkpt><trkpt lat="40.439749894096174" lon="15.561482909044836"><ele>605.6666666666666</ele><time>2026-04-26T08:19:02Z</time></trkpt><trkpt lat="40.43988555707246" lon="15.561682288729726"><ele>603.3333333333334</ele><time>2026-04-26T08:19:03Z</time></trkpt><trkpt lat="40.44000367774349" lon="15.561901129112623"><ele>601.0</ele><time>2026-04-26T08:19:04Z</time></trkpt><trkpt lat="40.440110530918105" lon="15.562137992753868"><ele>601.0</ele><time>2026-04-26T08:19:05Z</time></trkpt><trkpt lat="40.440217378567034" lon="15.562393716853196"><ele>601.0</ele><time>2026-04-26T08:19:06Z</time></trkpt><trkpt lat="40.440322512995486" lon="15.56264547307687"><ele>601.0</ele><time>2026-04-26T08:19:07Z</time></trkpt><trkpt lat="40.44042571912248" lon="15.562886858915991"><ele>598.0</ele><time>2026-04-26T08:19:08Z</time></trkpt><trkpt lat="40.44052824223838" lon="15.563125920005417"><ele>595.0</ele><time>2026-04-26T08:19:09Z</time></trkpt><trkpt lat="40.44063524011666" lon="15.563356619730493"><ele>592.0</ele><time>2026-04-26T08:19:10Z</time></trkpt><trkpt lat="40.44074395363233" lon="15.563576826846015"><ele>594.3333333333334</ele><time>2026-04-26T08:19:11Z</time></trkpt><trkpt lat="40.44086048537489" lon="15.563784662703274"><ele>596.6666666666666</ele><time>2026-04-26T08:19:12Z</time></trkpt><trkpt lat="40.440990767865124" lon="15.563974854285767"><ele>599.0</ele><time>2026-04-26T08:19:13Z</time></trkpt><trkpt lat="40.44113055242014" lon="15.564149289272661"><ele>599.0</ele><time>2026-04-26T08:19:14Z</time></trkpt><trkpt lat="40.44128138314162" lon="15.56432061625281"><ele>599.0</ele><time>2026-04-26T08:19:15Z</time></trkpt><trkpt lat="40.44144184333211" lon="15.564478893355046"><ele>599.0</ele><time>2026-04-26T08:19:16Z</time></trkpt><trkpt lat="40.441608407632096" lon="15.564614597448491"><ele>600.6666666666666</ele><time>2026-04-26T08:19:17Z</time></trkpt><trkpt lat="40.44177582920293" lon="15.564725956762327"><ele>602.3333333333334</ele><time>2026-04-26T08:19:18Z</time></trkpt><trkpt lat="40.441946768455026" lon="15.56482077747846"><ele>604.0</ele><time>2026-04-26T08:19:19Z</time></trkpt><trkpt lat="40.442120121913135" lon="15.564902353833979"><ele>602.0</ele><time>2026-04-26T08:19:20Z</time></trkpt><trkpt lat="40.44229503083566" lon="15.56497045017303"><ele>600.0</ele><time>2026-04-26T08:19:21Z</time></trkpt><trkpt lat="40.4424730289328" lon="15.565013928322651"><ele>598.0</ele><time>2026-04-26T08:19:22Z</time></trkpt><trkpt lat="40.4426532844203" lon="15.565042207254251"><ele>598.0</ele><time>2026-04-26T08:19:23Z</time></trkpt><trkpt lat="40.44283166585585" lon="15.565058401019058"><ele>598.0</ele><time>2026-04-26T08:19:24Z</time></trkpt><trkpt lat="40.44301169223137" lon="15.56506070417281"><ele>598.0</ele><time>2026-04-26T08:19:25Z</time></trkpt><trkpt lat="40.4431921448054" lon="15.565045453312212"><ele>597.3333333333334</ele><time>2026-04-26T08:19:26Z</time></trkpt><trkpt lat="40.44336253368088" lon="15.565015846596102"><ele>596.6666666666666</ele><time>2026-04-26T08:19:27Z</time></trkpt><trkpt lat="40.44352116873938" lon="15.5649771211626"><ele>596.0</ele><time>2026-04-26T08:19:28Z</time></trkpt><trkpt lat="40.44367142492322" lon="15.564934698276161"><ele>595.0</ele><time>2026-04-26T08:19:29Z</time></trkpt><trkpt lat="40.443813034546544" lon="15.564878402372923"><ele>594.0</ele><time>2026-04-26T08:19:30Z</time></trkpt><trkpt lat="40.44395466771217" lon="15.564809135116661"><ele>593.0</ele><time>2026-04-26T08:19:31Z</time></trkpt><trkpt lat="40.444094505480585" lon="15.564725297008042"><ele>593.0</ele><time>2026-04-26T08:19:32Z</time></trkpt><trkpt lat="40.44423539999889" lon="15.564639357724838"><ele>593.0</ele><time>2026-04-26T08:19:33Z</time></trkpt><trkpt lat="40.444373119189144" lon="15.564524627838487"><ele>593.0</ele><time>2026-04-26T08:19:34Z</time></trkpt><trkpt lat="40.44451545062569" lon="15.564408687270497"><ele>591.3333333333333</ele><time>2026-04-26T08:19:35Z</time></trkpt><trkpt lat="40.44465051398011" lon="15.564268868193214"><ele>589.6666666666666</ele><time>2026-04-26T08:19:36Z</time></trkpt><trkpt lat="40.444778111391415" lon="15.564122974952506"><ele>588.0</ele><time>2026-04-26T08:19:37Z</time></trkpt><trkpt lat="40.44489739347243" lon="15.563969187162021"><ele>588.0</ele><time>2026-04-26T08:19:38Z</time></trkpt><trkpt lat="40.44500893121842" lon="15.563808371781807"><ele>588.0</ele><time>2026-04-26T08:19:39Z</time></trkpt><trkpt lat="40.44511034764512" lon="15.563640285110404"><ele>588.0</ele><time>2026-04-26T08:19:40Z</time></trkpt><trkpt lat="40.445205326731326" lon="15.563469603061344"><ele>587.0</ele><time>2026-04-26T08:19:41Z</time></trkpt><trkpt lat="40.4452916986505" lon="15.563288186840936"><ele>586.0</ele><time>2026-04-26T08:19:42Z</time></trkpt><trkpt lat="40.44537274560112" lon="15.563095740396214"><ele>585.0</ele><time>2026-04-26T08:19:43Z</time></trkpt><trkpt lat="40.44544536146694" lon="15.562892982546245"><ele>587.6666666666666</ele><time>2026-04-26T08:19:44Z</time></trkpt><trkpt lat="40.44551220563612" lon="15.562683916818315"><ele>590.3333333333333</ele><time>2026-04-26T08:19:45Z</time></trkpt><trkpt lat="40.44556642155491" lon="15.562473582687595"><ele>593.0</ele><time>2026-04-26T08:19:46Z</time></trkpt><trkpt lat="40.445602798957744" lon="15.5622566473371"><ele>593.0</ele><time>2026-04-26T08:19:47Z</time></trkpt><trkpt lat="40.445631300347884" lon="15.562040050202663"><ele>593.0</ele><time>2026-04-26T08:19:48Z</time></trkpt><trkpt lat="40.445653227837816" lon="15.561815583663014"><ele>593.0</ele><time>2026-04-26T08:19:49Z</time></trkpt><trkpt lat="40.445667618573566" lon="15.561563749306119"><ele>592.3333333333333</ele><time>2026-04-26T08:19:50Z</time></trkpt><trkpt lat="40.44567570125354" lon="15.561293261001365"><ele>591.6666666666666</ele><time>2026-04-26T08:19:51Z</time></trkpt><trkpt lat="40.445701602179824" lon="15.561006436734617"><ele>591.0</ele><time>2026-04-26T08:19:52Z</time></trkpt><trkpt lat="40.44571660954857" lon="15.56070249159294"><ele>588.6666666666666</ele><time>2026-04-26T08:19:53Z</time></trkpt><trkpt lat="40.4457331595458" lon="15.560398751083126"><ele>586.3333333333333</ele><time>2026-04-26T08:19:54Z</time></trkpt><trkpt lat="40.44575357312485" lon="15.560115707751041"><ele>584.0</ele><time>2026-04-26T08:19:55Z</time></trkpt><trkpt lat="40.4457763310896" lon="15.559840352071328"><ele>581.6666666666666</ele><time>2026-04-26T08:19:56Z</time></trkpt><trkpt lat="40.44580872242722" lon="15.559577311438096"><ele>579.3333333333334</ele><time>2026-04-26T08:19:57Z</time></trkpt><trkpt lat="40.445847147372916" lon="15.559336882932218"><ele>577.0</ele><time>2026-04-26T08:19:58Z</time></trkpt><trkpt lat="40.445890664047106" lon="15.559091328325765"><ele>576.3333333333334</ele><time>2026-04-26T08:19:59Z</time></trkpt><trkpt lat="40.44593527210225" lon="15.558850694258007"><ele>575.6666666666666</ele><time>2026-04-26T08:20:00Z</time></trkpt><trkpt lat="40.44598355983155" lon="15.558621477123312"><ele>575.0</ele><time>2026-04-26T08:20:01Z</time></trkpt><trkpt lat="40.44603869154236" lon="15.55838995083063"><ele>574.6666666666666</ele><time>2026-04-26T08:20:02Z</time></trkpt><trkpt lat="40.44610130288874" lon="15.558156178000381"><ele>574.3333333333334</ele><time>2026-04-26T08:20:03Z</time></trkpt><trkpt lat="40.44616884792805" lon="15.557922738760551"><ele>574.0</ele><time>2026-04-26T08:20:04Z</time></trkpt><trkpt lat="40.44623741717232" lon="15.557703128140005"><ele>576.0</ele><time>2026-04-26T08:20:05Z</time></trkpt><trkpt lat="40.44631139016143" lon="15.557489060751573"><ele>578.0</ele><time>2026-04-26T08:20:06Z</time></trkpt><trkpt lat="40.44639158231318" lon="15.557276121578255"><ele>580.0</ele><time>2026-04-26T08:20:07Z</time></trkpt><trkpt lat="40.44647972508621" lon="15.557058629599357"><ele>577.3333333333334</ele><time>2026-04-26T08:20:08Z</time></trkpt><trkpt lat="40.44657228459048" lon="15.55683822730971"><ele>574.6666666666666</ele><time>2026-04-26T08:20:09Z</time></trkpt><trkpt lat="40.44667553436945" lon="15.55661342324035"><ele>572.0</ele><time>2026-04-26T08:20:10Z</time></trkpt><trkpt lat="40.446789516962475" lon="15.5563767837774"><ele>568.5</ele><time>2026-04-26T08:20:11Z</time></trkpt><trkpt lat="40.44691660227942" lon="15.556125947943737"><ele>565.0</ele><time>2026-04-26T08:20:12Z</time></trkpt><trkpt lat="40.447052402070724" lon="15.55586001447762"><ele>564.0</ele><time>2026-04-26T08:20:13Z</time></trkpt><trkpt lat="40.44719311990526" lon="15.55558550675188"><ele>563.0</ele><time>2026-04-26T08:20:14Z</time></trkpt><trkpt lat="40.44734164229621" lon="15.555295774276304"><ele>563.0</ele><time>2026-04-26T08:20:15Z</time></trkpt><trkpt lat="40.44749403133277" lon="15.554998498844983"><ele>563.0</ele><time>2026-04-26T08:20:16Z</time></trkpt><trkpt lat="40.44765047773999" lon="15.554693403861895"><ele>561.0</ele><time>2026-04-26T08:20:17Z</time></trkpt><trkpt lat="40.44781099727863" lon="15.55438048647897"><ele>559.0</ele><time>2026-04-26T08:20:18Z</time></trkpt><trkpt lat="40.447974412318864" lon="15.5540617500902"><ele>555.5</ele><time>2026-04-26T08:20:19Z</time></trkpt><trkpt lat="40.448129417625076" lon="15.553722529730488"><ele>552.0</ele><time>2026-04-26T08:20:20Z</time></trkpt><trkpt lat="40.44829672995941" lon="15.553400599267936"><ele>549.5</ele><time>2026-04-26T08:20:21Z</time></trkpt><trkpt lat="40.44844342070729" lon="15.553107742691834"><ele>547.0</ele><time>2026-04-26T08:20:22Z</time></trkpt><trkpt lat="40.448587004744944" lon="15.552822691774276"><ele>547.5</ele><time>2026-04-26T08:20:23Z</time></trkpt><trkpt lat="40.44873567771465" lon="15.552566667054075"><ele>548.0</ele><time>2026-04-26T08:20:24Z</time></trkpt><trkpt lat="40.44886018427928" lon="15.552320135973856"><ele>548.0</ele><time>2026-04-26T08:20:25Z</time></trkpt><trkpt lat="40.448983034933754" lon="15.55207688396062"><ele>548.0</ele><time>2026-04-26T08:20:26Z</time></trkpt><trkpt lat="40.44909793976371" lon="15.55184823428671"><ele>548.0</ele><time>2026-04-26T08:20:27Z</time></trkpt><trkpt lat="40.44921199307619" lon="15.55161928555624"><ele>546.6666666666666</ele><time>2026-04-26T08:20:28Z</time></trkpt><trkpt lat="40.449323507133144" lon="15.551395025037891"><ele>545.3333333333334</ele><time>2026-04-26T08:20:29Z</time></trkpt><trkpt lat="40.44943287893241" lon="15.55117340798985"><ele>544.0</ele><time>2026-04-26T08:20:30Z</time></trkpt><trkpt lat="40.44954253966527" lon="15.550952022430977"><ele>548.3333333333334</ele><time>2026-04-26T08:20:31Z</time></trkpt><trkpt lat="40.44965653147478" lon="15.55072592480636"><ele>552.6666666666666</ele><time>2026-04-26T08:20:32Z</time></trkpt><trkpt lat="40.44977090125845" lon="15.550501510110768"><ele>557.0</ele><time>2026-04-26T08:20:33.011Z</time></trkpt><trkpt lat="40.44988052892931" lon="15.550286400052418"><ele>557.0</ele><time>2026-04-26T08:20:34.013Z</time></trkpt><trkpt lat="40.449989480188904" lon="15.550072617600192"><ele>557.0</ele><time>2026-04-26T08:20:35.013Z</time></trkpt><trkpt lat="40.4501001413356" lon="15.549857794588338"><ele>557.0</ele><time>2026-04-26T08:20:36.013Z</time></trkpt><trkpt lat="40.450214187885194" lon="15.54963660963998"><ele>534.0</ele><time>2026-04-26T08:20:37.017Z</time></trkpt><trkpt lat="40.45073144516256" lon="15.548625039615585"><ele>534.0</ele><time>2026-04-26T08:20:41.614Z</time></trkpt><trkpt lat="40.451052520461786" lon="15.547959730076876"><ele>531.5</ele><time>2026-04-26T08:20:44Z</time></trkpt><trkpt lat="40.45118197147847" lon="15.547709852512014"><ele>529.0</ele><time>2026-04-26T08:20:45Z</time></trkpt><trkpt lat="40.45129125855319" lon="15.547457469874573"><ele>527.3333333333334</ele><time>2026-04-26T08:20:46Z</time></trkpt><trkpt lat="40.45141012318872" lon="15.54722561116377"><ele>525.6666666666666</ele><time>2026-04-26T08:20:47Z</time></trkpt><trkpt lat="40.4515191047832" lon="15.547021062375471"><ele>524.0</ele><time>2026-04-26T08:20:48Z</time></trkpt><trkpt lat="40.45162819530477" lon="15.546803048607925"><ele>520.3333333333333</ele><time>2026-04-26T08:20:49Z</time></trkpt><trkpt lat="40.451738751810204" lon="15.546583847124055"><ele>516.6666666666666</ele><time>2026-04-26T08:20:50Z</time></trkpt><trkpt lat="40.45184744625164" lon="15.546366978821919"><ele>513.0</ele><time>2026-04-26T08:20:51Z</time></trkpt><trkpt lat="40.45195358836108" lon="15.546143092491334"><ele>515.3333333333334</ele><time>2026-04-26T08:20:52Z</time></trkpt><trkpt lat="40.45207557654868" lon="15.545919674000316"><ele>517.6666666666667</ele><time>2026-04-26T08:20:53Z</time></trkpt><trkpt lat="40.45220560825707" lon="15.54571055383857"><ele>520.0</ele><time>2026-04-26T08:20:54Z</time></trkpt><trkpt lat="40.45233583809266" lon="15.545552929991238"><ele>517.6666666666667</ele><time>2026-04-26T08:20:55Z</time></trkpt><trkpt lat="40.4524807516491" lon="15.545363870701966"><ele>515.3333333333334</ele><time>2026-04-26T08:20:56Z</time></trkpt><trkpt lat="40.45263016271197" lon="15.5451904091368"><ele>513.0</ele><time>2026-04-26T08:20:57Z</time></trkpt><trkpt lat="40.45278198673374" lon="15.545034290090465"><ele>513.0</ele><time>2026-04-26T08:20:58Z</time></trkpt><trkpt lat="40.45293440254996" lon="15.544894621326131"><ele>513.0</ele><time>2026-04-26T08:20:59Z</time></trkpt><trkpt lat="40.45308915953416" lon="15.544772093969296"><ele>513.0</ele><time>2026-04-26T08:21:00Z</time></trkpt><trkpt lat="40.45323544769763" lon="15.544661993114667"><ele>514.3333333333334</ele><time>2026-04-26T08:21:01Z</time></trkpt><trkpt lat="40.45339003226863" lon="15.544552057438501"><ele>515.6666666666667</ele><time>2026-04-26T08:21:02Z</time></trkpt><trkpt lat="40.453542722988026" lon="15.544453736153436"><ele>517.0</ele><time>2026-04-26T08:21:03Z</time></trkpt><trkpt lat="40.45369307786349" lon="15.54437768900256"><ele>511.0</ele><time>2026-04-26T08:21:04Z</time></trkpt><trkpt lat="40.4538157311445" lon="15.544328982938636"><ele>505.0</ele><time>2026-04-26T08:21:05Z</time></trkpt><trkpt lat="40.45394919604139" lon="15.544297690583342"><ele>499.0</ele><time>2026-04-26T08:21:06Z</time></trkpt><trkpt lat="40.454068343564295" lon="15.54427684436333"><ele>493.0</ele><time>2026-04-26T08:21:07Z</time></trkpt><trkpt lat="40.45418780538619" lon="15.544255108149306"><ele>493.0</ele><time>2026-04-26T08:21:08Z</time></trkpt><trkpt lat="40.454318035260286" lon="15.544236816731654"><ele>493.0</ele><time>2026-04-26T08:21:09Z</time></trkpt><trkpt lat="40.45445892949702" lon="15.544230862629021"><ele>493.0</ele><time>2026-04-26T08:21:10Z</time></trkpt><trkpt lat="40.45460499024164" lon="15.544236318122595"><ele>493.0</ele><time>2026-04-26T08:21:11Z</time></trkpt><trkpt lat="40.454752698980755" lon="15.544254237636101"><ele>491.0</ele><time>2026-04-26T08:21:12Z</time></trkpt><trkpt lat="40.454900558449786" lon="15.54427473011538"><ele>489.0</ele><time>2026-04-26T08:21:13Z</time></trkpt><trkpt lat="40.455049212904946" lon="15.544288388306217"><ele>487.0</ele><time>2026-04-26T08:21:14Z</time></trkpt><trkpt lat="40.455209810368885" lon="15.544312279949995"><ele>487.0</ele><time>2026-04-26T08:21:15Z</time></trkpt><trkpt lat="40.45538154214156" lon="15.544344142092445"><ele>487.0</ele><time>2026-04-26T08:21:16Z</time></trkpt><trkpt lat="40.455535937127486" lon="15.544375515318718"><ele>487.0</ele><time>2026-04-26T08:21:17Z</time></trkpt><trkpt lat="40.45568587792923" lon="15.544409308710977"><ele>487.6666666666667</ele><time>2026-04-26T08:21:18Z</time></trkpt><trkpt lat="40.455837885962275" lon="15.544451926773716"><ele>488.33333333333337</ele><time>2026-04-26T08:21:19Z</time></trkpt><trkpt lat="40.45599950909135" lon="15.544518379203069"><ele>489.0</ele><time>2026-04-26T08:21:20Z</time></trkpt><trkpt lat="40.456174472550515" lon="15.544608909205303"><ele>494.66666666666663</ele><time>2026-04-26T08:21:21Z</time></trkpt><trkpt lat="40.45635707539121" lon="15.544691139623007"><ele>500.3333333333333</ele><time>2026-04-26T08:21:22Z</time></trkpt><trkpt lat="40.45653466534782" lon="15.544744838976426"><ele>506.0</ele><time>2026-04-26T08:21:23Z</time></trkpt><trkpt lat="40.45671474804681" lon="15.544806450298315"><ele>506.0</ele><time>2026-04-26T08:21:24Z</time></trkpt><trkpt lat="40.456889923588896" lon="15.544869993388453"><ele>506.0</ele><time>2026-04-26T08:21:25Z</time></trkpt><trkpt lat="40.45704931957324" lon="15.544930586343595"><ele>506.0</ele><time>2026-04-26T08:21:26Z</time></trkpt><trkpt lat="40.45719473752878" lon="15.544990406710541"><ele>501.0</ele><time>2026-04-26T08:21:27Z</time></trkpt><trkpt lat="40.457338076673985" lon="15.54503378483577"><ele>496.0</ele><time>2026-04-26T08:21:28Z</time></trkpt><trkpt lat="40.457471316896374" lon="15.545051235722724"><ele>491.0</ele><time>2026-04-26T08:21:29Z</time></trkpt><trkpt lat="40.457585404196294" lon="15.545037836553147"><ele>486.0</ele><time>2026-04-26T08:21:30Z</time></trkpt><trkpt lat="40.45769343534393" lon="15.544986526968811"><ele>486.0</ele><time>2026-04-26T08:21:31Z</time></trkpt><trkpt lat="40.457788558425385" lon="15.544901225650403"><ele>486.0</ele><time>2026-04-26T08:21:32Z</time></trkpt><trkpt lat="40.45787305863645" lon="15.544779830957378"><ele>486.0</ele><time>2026-04-26T08:21:33Z</time></trkpt><trkpt lat="40.45793632142022" lon="15.544636919108862"><ele>486.0</ele><time>2026-04-26T08:21:34Z</time></trkpt><trkpt lat="40.457972934889085" lon="15.544479441583901"><ele>485.75</ele><time>2026-04-26T08:21:35Z</time></trkpt><trkpt lat="40.457982824566336" lon="15.544306496552883"><ele>485.5</ele><time>2026-04-26T08:21:36Z</time></trkpt><trkpt lat="40.45796041360721" lon="15.54413401154363"><ele>485.25</ele><time>2026-04-26T08:21:37Z</time></trkpt><trkpt lat="40.45791164075671" lon="15.543974098985228"><ele>485.0</ele><time>2026-04-26T08:21:38Z</time></trkpt><trkpt lat="40.457846940676404" lon="15.543818934690991"><ele>481.66666666666663</ele><time>2026-04-26T08:21:39Z</time></trkpt><trkpt lat="40.45776640040179" lon="15.543653342705365"><ele>478.33333333333337</ele><time>2026-04-26T08:21:40Z</time></trkpt><trkpt lat="40.457682003443956" lon="15.54346911194677"><ele>475.0</ele><time>2026-04-26T08:21:41Z</time></trkpt><trkpt lat="40.45759073544404" lon="15.5432872179687"><ele>475.0</ele><time>2026-04-26T08:21:42Z</time></trkpt><trkpt lat="40.45750437733837" lon="15.543106045067764"><ele>475.0</ele><time>2026-04-26T08:21:43Z</time></trkpt><trkpt lat="40.457425918452216" lon="15.542946145300084"><ele>475.0</ele><time>2026-04-26T08:21:44Z</time></trkpt><trkpt lat="40.45734894363165" lon="15.542789001619937"><ele>473.6</ele><time>2026-04-26T08:21:45Z</time></trkpt><trkpt lat="40.4572833416571" lon="15.54264108922065"><ele>472.2</ele><time>2026-04-26T08:21:46Z</time></trkpt><trkpt lat="40.45722567501868" lon="15.542513210887744"><ele>470.79999999999995</ele><time>2026-04-26T08:21:47Z</time></trkpt><trkpt lat="40.457172596826545" lon="15.542398644026715"><ele>469.4</ele><time>2026-04-26T08:21:48Z</time></trkpt><trkpt lat="40.45713450402867" lon="15.542300591525239"><ele>468.0</ele><time>2026-04-26T08:21:49Z</time></trkpt><trkpt lat="40.457115643581155" lon="15.542210375522396"><ele>468.0</ele><time>2026-04-26T08:21:50Z</time></trkpt><trkpt lat="40.457125321718934" lon="15.542117111974214"><ele>468.00000000000006</ele><time>2026-04-26T08:21:51Z</time></trkpt><trkpt lat="40.457143910511476" lon="15.542026491823629"><ele>468.0</ele><time>2026-04-26T08:21:52Z</time></trkpt><trkpt lat="40.45713824719523" lon="15.541925137886864"><ele>468.0</ele><time>2026-04-26T08:21:53Z</time></trkpt><trkpt lat="40.457098995102044" lon="15.541842438199248"><ele>468.00000000000006</ele><time>2026-04-26T08:21:54Z</time></trkpt><trkpt lat="40.4570454778851" lon="15.541787153812441"><ele>468.0</ele><time>2026-04-26T08:21:55Z</time></trkpt><trkpt lat="40.456977370094506" lon="15.541764034514477"><ele>468.0</ele><time>2026-04-26T08:21:56Z</time></trkpt><trkpt lat="40.45690978470688" lon="15.541779076346785"><ele>468.0</ele><time>2026-04-26T08:21:57Z</time></trkpt><trkpt lat="40.45684675481711" lon="15.541830004514352"><ele>467.99999999999994</ele><time>2026-04-26T08:21:58Z</time></trkpt><trkpt lat="40.456792247672034" lon="15.541895764697498"><ele>467.99999999999994</ele><time>2026-04-26T08:21:59Z</time></trkpt><trkpt lat="40.456727549644626" lon="15.541987042691064"><ele>468.0</ele><time>2026-04-26T08:22:00Z</time></trkpt><trkpt lat="40.45663704495851" lon="15.542047525430737"><ele>468.0</ele><time>2026-04-26T08:22:01Z</time></trkpt><trkpt lat="40.456521516659414" lon="15.54205768930808"><ele>468.0</ele><time>2026-04-26T08:22:02Z</time></trkpt><trkpt lat="40.45638339565445" lon="15.542077751945818"><ele>468.0</ele><time>2026-04-26T08:22:03Z</time></trkpt><trkpt lat="40.4562230534188" lon="15.542105586877387"><ele>468.0</ele><time>2026-04-26T08:22:04Z</time></trkpt><trkpt lat="40.456058876262965" lon="15.542139174695624"><ele>467.0</ele><time>2026-04-26T08:22:05Z</time></trkpt><trkpt lat="40.455883229645316" lon="15.542179289301147"><ele>466.0</ele><time>2026-04-26T08:22:06Z</time></trkpt><trkpt lat="40.45570449242981" lon="15.5422148626231"><ele>465.0</ele><time>2026-04-26T08:22:07Z</time></trkpt><trkpt lat="40.45551568252899" lon="15.542256329801841"><ele>464.66666666666663</ele><time>2026-04-26T08:22:08Z</time></trkpt><trkpt lat="40.455314007746885" lon="15.542301401529551"><ele>464.3333333333333</ele><time>2026-04-26T08:22:09Z</time></trkpt><trkpt lat="40.455095424578005" lon="15.542328759321496"><ele>464.0</ele><time>2026-04-26T08:22:10Z</time></trkpt><trkpt lat="40.454868229180626" lon="15.542373275301783"><ele>464.0</ele><time>2026-04-26T08:22:11Z</time></trkpt><trkpt lat="40.45463224742682" lon="15.542419777963945"><ele>464.0</ele><time>2026-04-26T08:22:12Z</time></trkpt><trkpt lat="40.454385906532096" lon="15.542467835145137"><ele>461.5</ele><time>2026-04-26T08:22:13Z</time></trkpt><trkpt lat="40.45414836576339" lon="15.54251368718524"><ele>459.0</ele><time>2026-04-26T08:22:14Z</time></trkpt><trkpt lat="40.45393323762167" lon="15.542576179107817"><ele>458.66666666666663</ele><time>2026-04-26T08:22:15Z</time></trkpt><trkpt lat="40.45373242786893" lon="15.54259919876367"><ele>458.3333333333333</ele><time>2026-04-26T08:22:16Z</time></trkpt><trkpt lat="40.45355509772618" lon="15.54262222173811"><ele>458.0</ele><time>2026-04-26T08:22:17Z</time></trkpt><trkpt lat="40.45338624072469" lon="15.542660450192356"><ele>458.0</ele><time>2026-04-26T08:22:18Z</time></trkpt><trkpt lat="40.45321935268752" lon="15.54269545684862"><ele>458.0</ele><time>2026-04-26T08:22:19Z</time></trkpt><trkpt lat="40.453045120210724" lon="15.54272648204528"><ele>458.0</ele><time>2026-04-26T08:22:20Z</time></trkpt><trkpt lat="40.4528659053552" lon="15.542767495486089"><ele>456.66666666666663</ele><time>2026-04-26T08:22:21Z</time></trkpt><trkpt lat="40.45269030022939" lon="15.542813391756535"><ele>455.33333333333337</ele><time>2026-04-26T08:22:22Z</time></trkpt><trkpt lat="40.452522248833574" lon="15.54286637030694"><ele>454.0</ele><time>2026-04-26T08:22:23Z</time></trkpt><trkpt lat="40.45235508690693" lon="15.54292272577934"><ele>454.6666666666667</ele><time>2026-04-26T08:22:24Z</time></trkpt><trkpt lat="40.45218125592443" lon="15.54298703225773"><ele>455.33333333333337</ele><time>2026-04-26T08:22:25Z</time></trkpt><trkpt lat="40.452001621446904" lon="15.543053243650379"><ele>456.0</ele><time>2026-04-26T08:22:26Z</time></trkpt><trkpt lat="40.45181895501174" lon="15.543122438434747"><ele>456.0</ele><time>2026-04-26T08:22:27Z</time></trkpt><trkpt lat="40.451634404621466" lon="15.543168460636451"><ele>456.0</ele><time>2026-04-26T08:22:28Z</time></trkpt><trkpt lat="40.45145554455526" lon="15.54323551161505"><ele>456.0</ele><time>2026-04-26T08:22:29Z</time></trkpt><trkpt lat="40.45128344139684" lon="15.54330583802196"><ele>454.66666666666663</ele><time>2026-04-26T08:22:30Z</time></trkpt><trkpt lat="40.451115866383724" lon="15.543379415334712"><ele>453.3333333333333</ele><time>2026-04-26T08:22:31Z</time></trkpt><trkpt lat="40.450950309370626" lon="15.543458626231669"><ele>452.0</ele><time>2026-04-26T08:22:32Z</time></trkpt><trkpt lat="40.45078638001058" lon="15.543544637607551"><ele>452.0</ele><time>2026-04-26T08:22:33Z</time></trkpt><trkpt lat="40.450622305590834" lon="15.543641051626581"><ele>452.0</ele><time>2026-04-26T08:22:34Z</time></trkpt><trkpt lat="40.450459897247505" lon="15.543745818219511"><ele>452.0</ele><time>2026-04-26T08:22:35Z</time></trkpt><trkpt lat="40.45030519151302" lon="15.543878592135036"><ele>453.0</ele><time>2026-04-26T08:22:36Z</time></trkpt><trkpt lat="40.450139872425744" lon="15.543997805434724"><ele>454.0</ele><time>2026-04-26T08:22:37Z</time></trkpt><trkpt lat="40.449979405668145" lon="15.544127744175888"><ele>455.0</ele><time>2026-04-26T08:22:38Z</time></trkpt><trkpt lat="40.44981837031549" lon="15.544265506285958"><ele>455.0</ele><time>2026-04-26T08:22:39Z</time></trkpt><trkpt lat="40.44965739853254" lon="15.544419795751706"><ele>455.0</ele><time>2026-04-26T08:22:40Z</time></trkpt><trkpt lat="40.44949318948051" lon="15.544584548138854"><ele>455.0</ele><time>2026-04-26T08:22:41Z</time></trkpt><trkpt lat="40.449324724270866" lon="15.54474732342826"><ele>454.66666666666663</ele><time>2026-04-26T08:22:42Z</time></trkpt><trkpt lat="40.44915867699148" lon="15.54490211510791"><ele>454.33333333333337</ele><time>2026-04-26T08:22:43Z</time></trkpt><trkpt lat="40.44900059566976" lon="15.545045633226428"><ele>454.0</ele><time>2026-04-26T08:22:44Z</time></trkpt><trkpt lat="40.44884549451164" lon="15.545188611839476"><ele>454.6666666666667</ele><time>2026-04-26T08:22:45Z</time></trkpt><trkpt lat="40.44869682912278" lon="15.545329753835667"><ele>455.33333333333337</ele><time>2026-04-26T08:22:46Z</time></trkpt><trkpt lat="40.44854765517126" lon="15.545464722998604"><ele>456.0</ele><time>2026-04-26T08:22:47Z</time></trkpt><trkpt lat="40.44839525461743" lon="15.545590419761556"><ele>456.0</ele><time>2026-04-26T08:22:48Z</time></trkpt><trkpt lat="40.44823444182456" lon="15.54570220121121"><ele>456.0</ele><time>2026-04-26T08:22:49Z</time></trkpt><trkpt lat="40.44806229120332" lon="15.545807114558329"><ele>456.0</ele><time>2026-04-26T08:22:50Z</time></trkpt><trkpt lat="40.4478815131497" lon="15.545916570898216"><ele>454.33333333333337</ele><time>2026-04-26T08:22:51Z</time></trkpt><trkpt lat="40.447696972716" lon="15.546030028564111"><ele>452.6666666666667</ele><time>2026-04-26T08:22:52Z</time></trkpt><trkpt lat="40.4475224675146" lon="15.54613873015676"><ele>451.0</ele><time>2026-04-26T08:22:53Z</time></trkpt><trkpt lat="40.44735528994121" lon="15.546242718304411"><ele>452.33333333333337</ele><time>2026-04-26T08:22:54Z</time></trkpt><trkpt lat="40.44719694207248" lon="15.546338844570576"><ele>453.66666666666663</ele><time>2026-04-26T08:22:55Z</time></trkpt><trkpt lat="40.44704316326868" lon="15.54643560543941"><ele>455.0</ele><time>2026-04-26T08:22:56Z</time></trkpt><trkpt lat="40.44688668539987" lon="15.546533043482139"><ele>455.0</ele><time>2026-04-26T08:22:57Z</time></trkpt><trkpt lat="40.44673257894772" lon="15.546628797804573"><ele>455.0</ele><time>2026-04-26T08:22:58Z</time></trkpt><trkpt lat="40.44657822711849" lon="15.546719683290487"><ele>455.0</ele><time>2026-04-26T08:22:59Z</time></trkpt><trkpt lat="40.446423001229796" lon="15.54681660356746"><ele>455.0</ele><time>2026-04-26T08:23:00Z</time></trkpt><trkpt lat="40.4462667290819" lon="15.546916056275043"><ele>455.0</ele><time>2026-04-26T08:23:01Z</time></trkpt><trkpt lat="40.446106693437756" lon="15.547016490363955"><ele>455.0</ele><time>2026-04-26T08:23:02Z</time></trkpt><trkpt lat="40.445943492106146" lon="15.547119858324274"><ele>456.66666666666663</ele><time>2026-04-26T08:23:03Z</time></trkpt><trkpt lat="40.4457879548357" lon="15.54721976396133"><ele>458.33333333333337</ele><time>2026-04-26T08:23:04Z</time></trkpt><trkpt lat="40.44563500141408" lon="15.54731262699807"><ele>460.0</ele><time>2026-04-26T08:23:05Z</time></trkpt><trkpt lat="40.44547793967097" lon="15.54740644609153"><ele>460.0</ele><time>2026-04-26T08:23:06Z</time></trkpt><trkpt lat="40.44532460138852" lon="15.547504191607056"><ele>460.0</ele><time>2026-04-26T08:23:07Z</time></trkpt><trkpt lat="40.44517456764794" lon="15.54759840750049"><ele>460.0</ele><time>2026-04-26T08:23:08Z</time></trkpt><trkpt lat="40.44502237281616" lon="15.547692715713483"><ele>460.0</ele><time>2026-04-26T08:23:09Z</time></trkpt><trkpt lat="40.44487229933645" lon="15.547788653702447"><ele>460.0</ele><time>2026-04-26T08:23:10Z</time></trkpt><trkpt lat="40.444723400248535" lon="15.547881719281117"><ele>460.0</ele><time>2026-04-26T08:23:11Z</time></trkpt><trkpt lat="40.444573300478844" lon="15.547978888318218"><ele>460.0</ele><time>2026-04-26T08:23:12Z</time></trkpt><trkpt lat="40.44441924108264" lon="15.548084430166648"><ele>460.0</ele><time>2026-04-26T08:23:13Z</time></trkpt><trkpt lat="40.444259688428" lon="15.548196962905587"><ele>460.0</ele><time>2026-04-26T08:23:14Z</time></trkpt><trkpt lat="40.44409345307887" lon="15.548312886955916"><ele>460.0</ele><time>2026-04-26T08:23:15Z</time></trkpt><trkpt lat="40.44392866645255" lon="15.548429767001775"><ele>460.0</ele><time>2026-04-26T08:23:16Z</time></trkpt><trkpt lat="40.44376952054285" lon="15.54854110245205"><ele>460.0</ele><time>2026-04-26T08:23:17Z</time></trkpt><trkpt lat="40.443608926582954" lon="15.548652827888645"><ele>460.6666666666667</ele><time>2026-04-26T08:23:18Z</time></trkpt><trkpt lat="40.44344984831428" lon="15.548759012812276"><ele>461.33333333333337</ele><time>2026-04-26T08:23:19Z</time></trkpt><trkpt lat="40.44329361514443" lon="15.54886662285853"><ele>462.0</ele><time>2026-04-26T08:23:20Z</time></trkpt><trkpt lat="40.443144045690794" lon="15.548978607704202"><ele>462.0</ele><time>2026-04-26T08:23:21Z</time></trkpt><trkpt lat="40.442989940829996" lon="15.549087614575159"><ele>462.0</ele><time>2026-04-26T08:23:22Z</time></trkpt><trkpt lat="40.442826033410135" lon="15.549198396070146"><ele>462.0</ele><time>2026-04-26T08:23:23Z</time></trkpt><trkpt lat="40.4426565582112" lon="15.54931462013668"><ele>461.66666666666663</ele><time>2026-04-26T08:23:24Z</time></trkpt><trkpt lat="40.44249002156203" lon="15.549432673169063"><ele>461.3333333333333</ele><time>2026-04-26T08:23:25Z</time></trkpt><trkpt lat="40.44232211259368" lon="15.549553772368514"><ele>461.0</ele><time>2026-04-26T08:23:26Z</time></trkpt><trkpt lat="40.442150863205654" lon="15.549674899251121"><ele>461.66666666666663</ele><time>2026-04-26T08:23:27Z</time></trkpt><trkpt lat="40.44197533849256" lon="15.549796695354464"><ele>462.33333333333337</ele><time>2026-04-26T08:23:28Z</time></trkpt><trkpt lat="40.44179829842759" lon="15.549925669602176"><ele>463.0</ele><time>2026-04-26T08:23:29Z</time></trkpt><trkpt lat="40.44161810291066" lon="15.55004904240513"><ele>463.0</ele><time>2026-04-26T08:23:30Z</time></trkpt><trkpt lat="40.44143983549067" lon="15.550179458906467"><ele>463.0</ele><time>2026-04-26T08:23:31Z</time></trkpt><trkpt lat="40.4412630088991" lon="15.550303783718858"><ele>463.0</ele><time>2026-04-26T08:23:32Z</time></trkpt><trkpt lat="40.44109580961652" lon="15.550428191043675"><ele>464.33333333333337</ele><time>2026-04-26T08:23:33Z</time></trkpt><trkpt lat="40.44093554021989" lon="15.550543239075486"><ele>465.66666666666663</ele><time>2026-04-26T08:23:34Z</time></trkpt><trkpt lat="40.44077621045255" lon="15.550648884602891"><ele>467.0</ele><time>2026-04-26T08:23:35Z</time></trkpt><trkpt lat="40.440620156078865" lon="15.550758758281146"><ele>465.66666666666663</ele><time>2026-04-26T08:23:36Z</time></trkpt><trkpt lat="40.44046356547705" lon="15.550869465773129"><ele>464.33333333333337</ele><time>2026-04-26T08:23:37Z</time></trkpt><trkpt lat="40.44031120197915" lon="15.550974726799726"><ele>463.0</ele><time>2026-04-26T08:23:38Z</time></trkpt><trkpt lat="40.44014961113831" lon="15.551070340011355"><ele>463.0</ele><time>2026-04-26T08:23:39Z</time></trkpt><trkpt lat="40.43998450199597" lon="15.551152850522973"><ele>463.0</ele><time>2026-04-26T08:23:40Z</time></trkpt><trkpt lat="40.43981580371584" lon="15.55119981665563"><ele>463.0</ele><time>2026-04-26T08:23:41Z</time></trkpt><trkpt lat="40.43966197458271" lon="15.551281645458019"><ele>463.0</ele><time>2026-04-26T08:23:42Z</time></trkpt><trkpt lat="40.43950468629005" lon="15.551341034665422"><ele>463.0</ele><time>2026-04-26T08:23:43Z</time></trkpt><trkpt lat="40.4393527873597" lon="15.551400774859976"><ele>463.0</ele><time>2026-04-26T08:23:44Z</time></trkpt><trkpt lat="40.439195712544276" lon="15.551443527147466"><ele>463.0</ele><time>2026-04-26T08:23:45Z</time></trkpt><trkpt lat="40.439040815201004" lon="15.551504439752387"><ele>463.0</ele><time>2026-04-26T08:23:46Z</time></trkpt><trkpt lat="40.43889188246459" lon="15.551583835353476"><ele>463.0</ele><time>2026-04-26T08:23:47Z</time></trkpt><trkpt lat="40.43874030414783" lon="15.551640826273278"><ele>461.33333333333337</ele><time>2026-04-26T08:23:48Z</time></trkpt><trkpt lat="40.438578336369986" lon="15.55170024843599"><ele>459.66666666666663</ele><time>2026-04-26T08:23:49Z</time></trkpt><trkpt lat="40.4384098014472" lon="15.551760677044127"><ele>458.0</ele><time>2026-04-26T08:23:50Z</time></trkpt><trkpt lat="40.43823418840778" lon="15.551829834491716"><ele>458.0</ele><time>2026-04-26T08:23:51Z</time></trkpt><trkpt lat="40.43805464622922" lon="15.551905862136474"><ele>458.0</ele><time>2026-04-26T08:23:52Z</time></trkpt><trkpt lat="40.437880001639556" lon="15.551981306871498"><ele>458.0</ele><time>2026-04-26T08:23:53Z</time></trkpt><trkpt lat="40.43771057156989" lon="15.552037783854464"><ele>457.0</ele><time>2026-04-26T08:23:54Z</time></trkpt><trkpt lat="40.437545585611815" lon="15.552100123518024"><ele>456.0</ele><time>2026-04-26T08:23:55Z</time></trkpt><trkpt lat="40.437372691786635" lon="15.55216980897753"><ele>455.0</ele><time>2026-04-26T08:23:56Z</time></trkpt><trkpt lat="40.437200082381324" lon="15.552243470404335"><ele>454.3333333333333</ele><time>2026-04-26T08:23:57Z</time></trkpt><trkpt lat="40.436994011944705" lon="15.552314664258269"><ele>453.66666666666663</ele><time>2026-04-26T08:23:58Z</time></trkpt><trkpt lat="40.43678857276174" lon="15.552409898405166"><ele>453.0</ele><time>2026-04-26T08:23:59Z</time></trkpt><trkpt lat="40.43657894221698" lon="15.552478555528534"><ele>453.0</ele><time>2026-04-26T08:24:00Z</time></trkpt><trkpt lat="40.43638938211061" lon="15.552553216544835"><ele>453.0</ele><time>2026-04-26T08:24:01Z</time></trkpt><trkpt lat="40.436209474323014" lon="15.552624424521145"><ele>453.0</ele><time>2026-04-26T08:24:02Z</time></trkpt><trkpt lat="40.43603894275781" lon="15.55271348257682"><ele>452.66666666666663</ele><time>2026-04-26T08:24:03Z</time></trkpt><trkpt lat="40.435852333767606" lon="15.55276544656041"><ele>452.3333333333333</ele><time>2026-04-26T08:24:04Z</time></trkpt><trkpt lat="40.43567116547382" lon="15.55283817706904"><ele>452.0</ele><time>2026-04-26T08:24:05Z</time></trkpt><trkpt lat="40.4354921545381" lon="15.552909230735033"><ele>452.0</ele><time>2026-04-26T08:24:06Z</time></trkpt><trkpt lat="40.43532348636611" lon="15.552976481368525"><ele>452.0</ele><time>2026-04-26T08:24:07Z</time></trkpt><trkpt lat="40.43516408367786" lon="15.553039998859834"><ele>452.0</ele><time>2026-04-26T08:24:08Z</time></trkpt><trkpt lat="40.43501467398102" lon="15.553119298023907"><ele>452.0</ele><time>2026-04-26T08:24:09Z</time></trkpt><trkpt lat="40.4348680332009" lon="15.553177771178042"><ele>452.0</ele><time>2026-04-26T08:24:10Z</time></trkpt><trkpt lat="40.43471665193232" lon="15.553238375330192"><ele>452.0</ele><time>2026-04-26T08:24:11Z</time></trkpt><trkpt lat="40.434560902504465" lon="15.553294217808684"><ele>452.0</ele><time>2026-04-26T08:24:12Z</time></trkpt><trkpt lat="40.43440275677116" lon="15.553349225633506"><ele>452.0</ele><time>2026-04-26T08:24:13Z</time></trkpt><trkpt lat="40.434248968236375" lon="15.553406926344989"><ele>452.0</ele><time>2026-04-26T08:24:14Z</time></trkpt><trkpt lat="40.434093139194005" lon="15.553453891706921"><ele>452.0</ele><time>2026-04-26T08:24:15Z</time></trkpt><trkpt lat="40.43392471460722" lon="15.553481941071363"><ele>452.0</ele><time>2026-04-26T08:24:16Z</time></trkpt><trkpt lat="40.433753568658844" lon="15.55348350280771"><ele>452.0</ele><time>2026-04-26T08:24:17Z</time></trkpt><trkpt lat="40.433585342481905" lon="15.553471266473492"><ele>452.0</ele><time>2026-04-26T08:24:18Z</time></trkpt><trkpt lat="40.43341936977213" lon="15.553431972271405"><ele>452.0</ele><time>2026-04-26T08:24:19Z</time></trkpt><trkpt lat="40.433251984344324" lon="15.553436635051495"><ele>452.0</ele><time>2026-04-26T08:24:20Z</time></trkpt><trkpt lat="40.43308541388254" lon="15.553402900919219"><ele>452.66666666666663</ele><time>2026-04-26T08:24:21Z</time></trkpt><trkpt lat="40.43291433161172" lon="15.553388599032898"><ele>453.33333333333337</ele><time>2026-04-26T08:24:22Z</time></trkpt><trkpt lat="40.43275057449817" lon="15.553401178208397"><ele>454.0</ele><time>2026-04-26T08:24:23Z</time></trkpt><trkpt lat="40.432595226118025" lon="15.553388232637845"><ele>454.0</ele><time>2026-04-26T08:24:24Z</time></trkpt><trkpt lat="40.4324399344949" lon="15.553375085226806"><ele>454.0</ele><time>2026-04-26T08:24:25Z</time></trkpt><trkpt lat="40.43228877104105" lon="15.553363252065093"><ele>454.0</ele><time>2026-04-26T08:24:26Z</time></trkpt><trkpt lat="40.432137331906844" lon="15.55334978949824"><ele>454.33333333333337</ele><time>2026-04-26T08:24:27Z</time></trkpt><trkpt lat="40.43198545091883" lon="15.553310907137114"><ele>454.66666666666663</ele><time>2026-04-26T08:24:28Z</time></trkpt><trkpt lat="40.43181476560343" lon="15.553295516351094"><ele>455.0</ele><time>2026-04-26T08:24:29Z</time></trkpt><trkpt lat="40.43162672595922" lon="15.553306198999222"><ele>455.0</ele><time>2026-04-26T08:24:30Z</time></trkpt><trkpt lat="40.43142520738715" lon="15.5532942944423"><ele>455.0</ele><time>2026-04-26T08:24:31Z</time></trkpt><trkpt lat="40.431235606550366" lon="15.553282033834355"><ele>455.0</ele><time>2026-04-26T08:24:32Z</time></trkpt><trkpt lat="40.43105778370698" lon="15.553265518140005"><ele>454.3333333333333</ele><time>2026-04-26T08:24:33Z</time></trkpt><trkpt lat="40.4308866778982" lon="15.55324959518129"><ele>453.66666666666663</ele><time>2026-04-26T08:24:34Z</time></trkpt><trkpt lat="40.43071193183427" lon="15.55323620954361"><ele>453.0</ele><time>2026-04-26T08:24:35Z</time></trkpt><trkpt lat="40.43053787731374" lon="15.553194568051257"><ele>452.66666666666663</ele><time>2026-04-26T08:24:36Z</time></trkpt><trkpt lat="40.430367389875215" lon="15.553179643799174"><ele>452.3333333333333</ele><time>2026-04-26T08:24:37Z</time></trkpt><trkpt lat="40.43019829971597" lon="15.553165563746097"><ele>452.0</ele><time>2026-04-26T08:24:38Z</time></trkpt><trkpt lat="40.430031259928995" lon="15.553151754341714"><ele>452.0</ele><time>2026-04-26T08:24:39Z</time></trkpt><trkpt lat="40.4298652895958" lon="15.553138033271157"><ele>452.0</ele><time>2026-04-26T08:24:40Z</time></trkpt><trkpt lat="40.429694056565005" lon="15.553123731816694"><ele>452.0</ele><time>2026-04-26T08:24:41Z</time></trkpt><trkpt lat="40.42951880579696" lon="15.5531091099268"><ele>452.0</ele><time>2026-04-26T08:24:42Z</time></trkpt><trkpt lat="40.429327007689274" lon="15.553093107426543"><ele>452.0</ele><time>2026-04-26T08:24:43Z</time></trkpt><trkpt lat="40.429121960898094" lon="15.553076104201057"><ele>452.0</ele><time>2026-04-26T08:24:44Z</time></trkpt><trkpt lat="40.428904371097765" lon="15.553058385843068"><ele>451.5</ele><time>2026-04-26T08:24:45Z</time></trkpt><trkpt lat="40.428677228774596" lon="15.55303961060494"><ele>451.0</ele><time>2026-04-26T08:24:46Z</time></trkpt><trkpt lat="40.42844261421043" lon="15.553020524082855"><ele>451.0</ele><time>2026-04-26T08:24:47Z</time></trkpt><trkpt lat="40.42820181195248" lon="15.553000934179654"><ele>451.0</ele><time>2026-04-26T08:24:48Z</time></trkpt><trkpt lat="40.42795896486816" lon="15.552980667461298"><ele>451.0</ele><time>2026-04-26T08:24:49Z</time></trkpt><trkpt lat="40.42773570067086" lon="15.552961535179632"><ele>451.0</ele><time>2026-04-26T08:24:50Z</time></trkpt><trkpt lat="40.42754065416164" lon="15.552944820972543"><ele>451.0</ele><time>2026-04-26T08:24:51Z</time></trkpt><trkpt lat="40.42735057595517" lon="15.552932914046618"><ele>451.0</ele><time>2026-04-26T08:24:52Z</time></trkpt><trkpt lat="40.42716630475275" lon="15.552949915657756"><ele>451.0</ele><time>2026-04-26T08:24:53Z</time></trkpt><trkpt lat="40.42697242501798" lon="15.552958884254657"><ele>451.0</ele><time>2026-04-26T08:24:54Z</time></trkpt><trkpt lat="40.42676514772111" lon="15.552983910210713"><ele>451.33333333333337</ele><time>2026-04-26T08:24:55Z</time></trkpt><trkpt lat="40.426555990627385" lon="15.553020360509398"><ele>451.66666666666663</ele><time>2026-04-26T08:24:56Z</time></trkpt><trkpt lat="40.42635307772174" lon="15.553070039291573"><ele>452.0</ele><time>2026-04-26T08:24:57Z</time></trkpt><trkpt lat="40.42615641989482" lon="15.55312773400468"><ele>452.0</ele><time>2026-04-26T08:24:58Z</time></trkpt><trkpt lat="40.42596565744905" lon="15.553188795411346"><ele>452.0</ele><time>2026-04-26T08:24:59Z</time></trkpt><trkpt lat="40.42577915500734" lon="15.55325274573142"><ele>452.0</ele><time>2026-04-26T08:25:00Z</time></trkpt><trkpt lat="40.42559073474925" lon="15.553315712068574"><ele>452.0</ele><time>2026-04-26T08:25:01Z</time></trkpt><trkpt lat="40.42539739481706" lon="15.553374725188258"><ele>452.0</ele><time>2026-04-26T08:25:02Z</time></trkpt><trkpt lat="40.425201940538486" lon="15.553437338801274"><ele>452.0</ele><time>2026-04-26T08:25:03Z</time></trkpt><trkpt lat="40.42500835430555" lon="15.553499663037645"><ele>452.0</ele><time>2026-04-26T08:25:04Z</time></trkpt><trkpt lat="40.424817615385514" lon="15.55356268779904"><ele>452.0</ele><time>2026-04-26T08:25:05Z</time></trkpt><trkpt lat="40.424627287341394" lon="15.553625393785875"><ele>452.0</ele><time>2026-04-26T08:25:06Z</time></trkpt><trkpt lat="40.42443775773773" lon="15.55368453755635"><ele>453.3333333333333</ele><time>2026-04-26T08:25:07Z</time></trkpt><trkpt lat="40.424251939144" lon="15.553747770355697"><ele>454.66666666666663</ele><time>2026-04-26T08:25:08Z</time></trkpt><trkpt lat="40.42407046640601" lon="15.55380887411004"><ele>456.0</ele><time>2026-04-26T08:25:09Z</time></trkpt><trkpt lat="40.42389029805204" lon="15.55387461688344"><ele>455.33333333333337</ele><time>2026-04-26T08:25:10Z</time></trkpt><trkpt lat="40.42371216379943" lon="15.553941592724787"><ele>454.6666666666667</ele><time>2026-04-26T08:25:11Z</time></trkpt><trkpt lat="40.42354476488177" lon="15.554006299212597"><ele>454.0</ele><time>2026-04-26T08:25:12Z</time></trkpt><trkpt lat="40.423384365083194" lon="15.55407754410068"><ele>454.0</ele><time>2026-04-26T08:25:13Z</time></trkpt><trkpt lat="40.42322372509604" lon="15.55415812979652"><ele>454.0</ele><time>2026-04-26T08:25:14Z</time></trkpt><trkpt lat="40.42306115994934" lon="15.554237502010002"><ele>454.0</ele><time>2026-04-26T08:25:15Z</time></trkpt><trkpt lat="40.422893338689846" lon="15.554316752820835"><ele>453.6666666666667</ele><time>2026-04-26T08:25:16Z</time></trkpt><trkpt lat="40.42272652717485" lon="15.554401338740982"><ele>453.33333333333337</ele><time>2026-04-26T08:25:17Z</time></trkpt><trkpt lat="40.42256925776233" lon="15.55447775474424"><ele>453.0</ele><time>2026-04-26T08:25:18Z</time></trkpt><trkpt lat="40.42241843826181" lon="15.554553846404552"><ele>453.5</ele><time>2026-04-26T08:25:19Z</time></trkpt><trkpt lat="40.42227964328713" lon="15.55462620522313"><ele>454.0</ele><time>2026-04-26T08:25:20Z</time></trkpt><trkpt lat="40.4221468095635" lon="15.55469379523416"><ele>454.5</ele><time>2026-04-26T08:25:21Z</time></trkpt><trkpt lat="40.42201904967608" lon="15.554758412248429"><ele>455.0</ele><time>2026-04-26T08:25:22Z</time></trkpt><trkpt lat="40.421898533108795" lon="15.554822038779367"><ele>455.0</ele><time>2026-04-26T08:25:23Z</time></trkpt><trkpt lat="40.42177986737526" lon="15.554884907607072"><ele>455.0</ele><time>2026-04-26T08:25:24Z</time></trkpt><trkpt lat="40.42166044839936" lon="15.554947321130953"><ele>455.0</ele><time>2026-04-26T08:25:25Z</time></trkpt><trkpt lat="40.42154017492083" lon="15.555006524839438"><ele>455.0</ele><time>2026-04-26T08:25:26Z</time></trkpt><trkpt lat="40.42141948516303" lon="15.555066604237478"><ele>454.75</ele><time>2026-04-26T08:25:27Z</time></trkpt><trkpt lat="40.4212994488047" lon="15.555128494353706"><ele>454.5</ele><time>2026-04-26T08:25:28Z</time></trkpt><trkpt lat="40.42118063291508" lon="15.555190163804491"><ele>454.25</ele><time>2026-04-26T08:25:29Z</time></trkpt><trkpt lat="40.42105203753748" lon="15.555262666858345"><ele>454.0</ele><time>2026-04-26T08:25:30Z</time></trkpt><trkpt lat="40.420911028608856" lon="15.555350703419844"><ele>455.0</ele><time>2026-04-26T08:25:31Z</time></trkpt><trkpt lat="40.420757165330734" lon="15.555446554092386"><ele>456.0</ele><time>2026-04-26T08:25:32Z</time></trkpt><trkpt lat="40.42060544952978" lon="15.555540168761357"><ele>457.0</ele><time>2026-04-26T08:25:33Z</time></trkpt><trkpt lat="40.42047846451661" lon="15.555629063398149"><ele>457.0</ele><time>2026-04-26T08:25:34Z</time></trkpt><trkpt lat="40.4203760036305" lon="15.555704240164708"><ele>457.00000000000006</ele><time>2026-04-26T08:25:35Z</time></trkpt><trkpt lat="40.42028647769379" lon="15.555768013427556"><ele>457.00000000000006</ele><time>2026-04-26T08:25:36Z</time></trkpt><trkpt lat="40.420205454404616" lon="15.555827744767281"><ele>457.0</ele><time>2026-04-26T08:25:37Z</time></trkpt><trkpt lat="40.42013241805761" lon="15.555888738564343"><ele>457.0</ele><time>2026-04-26T08:25:38Z</time></trkpt><trkpt lat="40.4200566776292" lon="15.555952522742041"><ele>457.00000000000006</ele><time>2026-04-26T08:25:39Z</time></trkpt><trkpt lat="40.41998438013618" lon="15.556011096107126"><ele>457.0</ele><time>2026-04-26T08:25:40Z</time></trkpt><trkpt lat="40.419917932730044" lon="15.55606514321051"><ele>457.0</ele><time>2026-04-26T08:25:41Z</time></trkpt><trkpt lat="40.419858419051536" lon="15.55611312040763"><ele>457.0</ele><time>2026-04-26T08:25:42Z</time></trkpt><trkpt lat="40.41980269410717" lon="15.556165352479734"><ele>457.00000000000006</ele><time>2026-04-26T08:25:43Z</time></trkpt><trkpt lat="40.41974745967835" lon="15.556221016903823"><ele>457.0</ele><time>2026-04-26T08:25:44Z</time></trkpt><trkpt lat="40.419651265366596" lon="15.556326349758951"><ele>456.6666666666667</ele><time>2026-04-26T08:25:46Z</time></trkpt><trkpt lat="40.41959890862019" lon="15.556380858259343"><ele>456.33333333333337</ele><time>2026-04-26T08:25:47Z</time></trkpt><trkpt lat="40.4195019210352" lon="15.556463220070045"><ele>456.0</ele><time>2026-04-26T08:25:49Z</time></trkpt><trkpt lat="40.419428723552734" lon="15.556485911687297"><ele>455.66666666666663</ele><time>2026-04-26T08:25:50Z</time></trkpt><trkpt lat="40.41935170685492" lon="15.55650949580205"><ele>455.3333333333333</ele><time>2026-04-26T08:25:51Z</time></trkpt><trkpt lat="40.41928312695355" lon="15.55656638688644"><ele>455.0</ele><time>2026-04-26T08:25:52Z</time></trkpt><trkpt lat="40.41922617011797" lon="15.556658012644686"><ele>455.0</ele><time>2026-04-26T08:25:53Z</time></trkpt><trkpt lat="40.41918198290667" lon="15.556744292300602"><ele>455.0</ele><time>2026-04-26T08:25:54Z</time></trkpt><trkpt lat="40.41912134521161" lon="15.556822824525163"><ele>455.0</ele><time>2026-04-26T08:25:55Z</time></trkpt><trkpt lat="40.41902724670877" lon="15.556887335913512"><ele>455.0</ele><time>2026-04-26T08:25:56Z</time></trkpt><trkpt lat="40.41891909061645" lon="15.556984793212827"><ele>455.0</ele><time>2026-04-26T08:25:57Z</time></trkpt><trkpt lat="40.41881125029561" lon="15.557130976701275"><ele>455.3333333333333</ele><time>2026-04-26T08:25:58Z</time></trkpt><trkpt lat="40.41867904213864" lon="15.557269388975621"><ele>455.66666666666663</ele><time>2026-04-26T08:25:59Z</time></trkpt><trkpt lat="40.41855289575383" lon="15.557424835156834"><ele>456.0</ele><time>2026-04-26T08:26:00Z</time></trkpt><trkpt lat="40.41843304687276" lon="15.557560416341689"><ele>456.0</ele><time>2026-04-26T08:26:01Z</time></trkpt><trkpt lat="40.41830894187749" lon="15.557709711247744"><ele>456.0</ele><time>2026-04-26T08:26:02Z</time></trkpt><trkpt lat="40.41818900316119" lon="15.557850731121995"><ele>456.0</ele><time>2026-04-26T08:26:03Z</time></trkpt><trkpt lat="40.41807723240371" lon="15.557982130520086"><ele>455.75</ele><time>2026-04-26T08:26:04Z</time></trkpt><trkpt lat="40.41798726752133" lon="15.558126882530274"><ele>455.5</ele><time>2026-04-26T08:26:05Z</time></trkpt><trkpt lat="40.417884654967565" lon="15.558251912212857"><ele>455.25</ele><time>2026-04-26T08:26:06Z</time></trkpt><trkpt lat="40.41776883712304" lon="15.558394159931352"><ele>455.0</ele><time>2026-04-26T08:26:07Z</time></trkpt><trkpt lat="40.417644648873534" lon="15.558550241586948"><ele>455.0</ele><time>2026-04-26T08:26:08Z</time></trkpt><trkpt lat="40.4175150779854" lon="15.55868777089033"><ele>455.0</ele><time>2026-04-26T08:26:09Z</time></trkpt><trkpt lat="40.417410654835074" lon="15.558868774203287"><ele>455.0</ele><time>2026-04-26T08:26:10Z</time></trkpt><trkpt lat="40.41728868365965" lon="15.559048744350973"><ele>455.3333333333333</ele><time>2026-04-26T08:26:11Z</time></trkpt><trkpt lat="40.4171594562596" lon="15.559247836522937"><ele>455.66666666666663</ele><time>2026-04-26T08:26:12Z</time></trkpt><trkpt lat="40.41700664603253" lon="15.559440026183216"><ele>456.0</ele><time>2026-04-26T08:26:13Z</time></trkpt><trkpt lat="40.41684262791049" lon="15.559628271245579"><ele>456.0</ele><time>2026-04-26T08:26:14Z</time></trkpt><trkpt lat="40.416708778901686" lon="15.55981371196217"><ele>456.0</ele><time>2026-04-26T08:26:15Z</time></trkpt><trkpt lat="40.416582478728365" lon="15.559994611902667"><ele>456.0</ele><time>2026-04-26T08:26:16Z</time></trkpt><trkpt lat="40.41645356946146" lon="15.560183633705341"><ele>456.0</ele><time>2026-04-26T08:26:17Z</time></trkpt><trkpt lat="40.416328106221755" lon="15.560367723753615"><ele>456.0</ele><time>2026-04-26T08:26:18Z</time></trkpt><trkpt lat="40.41621557442671" lon="15.560554124261381"><ele>456.0</ele><time>2026-04-26T08:26:19Z</time></trkpt><trkpt lat="40.41611441329909" lon="15.560748314537324"><ele>456.0</ele><time>2026-04-26T08:26:20Z</time></trkpt><trkpt lat="40.41602444995871" lon="15.56095065884992"><ele>456.0</ele><time>2026-04-26T08:26:21Z</time></trkpt><trkpt lat="40.415944454501044" lon="15.561180850171706"><ele>456.0</ele><time>2026-04-26T08:26:22Z</time></trkpt><trkpt lat="40.41586689526672" lon="15.561419722798432"><ele>457.0</ele><time>2026-04-26T08:26:23Z</time></trkpt><trkpt lat="40.415785778342446" lon="15.561667539809555"><ele>458.0</ele><time>2026-04-26T08:26:24Z</time></trkpt><trkpt lat="40.4157097127538" lon="15.561920091920218"><ele>459.0</ele><time>2026-04-26T08:26:25Z</time></trkpt><trkpt lat="40.4156399812545" lon="15.562148817170545"><ele>458.66666666666663</ele><time>2026-04-26T08:26:26Z</time></trkpt><trkpt lat="40.41557039701006" lon="15.562366362961724"><ele>458.3333333333333</ele><time>2026-04-26T08:26:27Z</time></trkpt><trkpt lat="40.415505409506885" lon="15.562573142552528"><ele>458.0</ele><time>2026-04-26T08:26:28Z</time></trkpt><trkpt lat="40.41544234032482" lon="15.562771503342894"><ele>459.0</ele><time>2026-04-26T08:26:29Z</time></trkpt><trkpt lat="40.415375582696996" lon="15.562964747221008"><ele>460.0</ele><time>2026-04-26T08:26:30Z</time></trkpt><trkpt lat="40.41530396710468" lon="15.563147560930082"><ele>461.0</ele><time>2026-04-26T08:26:31Z</time></trkpt><trkpt lat="40.41522732756449" lon="15.563323517713531"><ele>461.0</ele><time>2026-04-26T08:26:32Z</time></trkpt><trkpt lat="40.41514245331381" lon="15.563499650179342"><ele>461.0</ele><time>2026-04-26T08:26:33Z</time></trkpt><trkpt lat="40.41505384783577" lon="15.563681918615954"><ele>461.0</ele><time>2026-04-26T08:26:34Z</time></trkpt><trkpt lat="40.414967705663145" lon="15.563864584005506"><ele>461.3333333333333</ele><time>2026-04-26T08:26:35Z</time></trkpt><trkpt lat="40.41488213857946" lon="15.564050480733387"><ele>461.66666666666663</ele><time>2026-04-26T08:26:36Z</time></trkpt><trkpt lat="40.41479423948801" lon="15.564231292721042"><ele>462.0</ele><time>2026-04-26T08:26:37Z</time></trkpt><trkpt lat="40.414709432396734" lon="15.564404616322207"><ele>462.33333333333337</ele><time>2026-04-26T08:26:38Z</time></trkpt><trkpt lat="40.41462776051658" lon="15.564574840923655"><ele>462.6666666666667</ele><time>2026-04-26T08:26:39Z</time></trkpt><trkpt lat="40.414547782399644" lon="15.564746854020266"><ele>463.0</ele><time>2026-04-26T08:26:40Z</time></trkpt><trkpt lat="40.41446690014618" lon="15.564921018323343"><ele>463.0</ele><time>2026-04-26T08:26:41Z</time></trkpt><trkpt lat="40.41438303273417" lon="15.565096735777889"><ele>463.0</ele><time>2026-04-26T08:26:42Z</time></trkpt><trkpt lat="40.41429066190047" lon="15.565271979369866"><ele>463.0</ele><time>2026-04-26T08:26:43Z</time></trkpt><trkpt lat="40.4141906622019" lon="15.565442172596502"><ele>463.6666666666667</ele><time>2026-04-26T08:26:44Z</time></trkpt><trkpt lat="40.414086778897016" lon="15.565605010071085"><ele>464.33333333333337</ele><time>2026-04-26T08:26:45Z</time></trkpt><trkpt lat="40.413976738822335" lon="15.565763566142369"><ele>465.0</ele><time>2026-04-26T08:26:46Z</time></trkpt><trkpt lat="40.41386036248992" lon="15.565917146211895"><ele>465.0</ele><time>2026-04-26T08:26:47Z</time></trkpt><trkpt lat="40.413730990941346" lon="15.566064750621942"><ele>465.0</ele><time>2026-04-26T08:26:48Z</time></trkpt><trkpt lat="40.413597326597696" lon="15.566235152386549"><ele>465.0</ele><time>2026-04-26T08:26:49Z</time></trkpt><trkpt lat="40.41345553119334" lon="15.566385847036084"><ele>465.0</ele><time>2026-04-26T08:26:50Z</time></trkpt><trkpt lat="40.41332090141617" lon="15.566537768626114"><ele>465.0</ele><time>2026-04-26T08:26:51Z</time></trkpt><trkpt lat="40.4131976513959" lon="15.566685462153492"><ele>465.0</ele><time>2026-04-26T08:26:52Z</time></trkpt><trkpt lat="40.413082662750476" lon="15.566819197357228"><ele>465.0</ele><time>2026-04-26T08:26:53Z</time></trkpt><trkpt lat="40.41296722241891" lon="15.566953691716659"><ele>465.0</ele><time>2026-04-26T08:26:54Z</time></trkpt><trkpt lat="40.41284573427551" lon="15.567095693466776"><ele>465.0</ele><time>2026-04-26T08:26:55Z</time></trkpt><trkpt lat="40.41272207149057" lon="15.567234609475486"><ele>465.0</ele><time>2026-04-26T08:26:56Z</time></trkpt><trkpt lat="40.412598693100854" lon="15.567370979271642"><ele>465.0</ele><time>2026-04-26T08:26:57Z</time></trkpt><trkpt lat="40.41247479594644" lon="15.567514293247218"><ele>465.0</ele><time>2026-04-26T08:26:58Z</time></trkpt><trkpt lat="40.41234322128093" lon="15.567663693534465"><ele>465.0</ele><time>2026-04-26T08:26:59Z</time></trkpt><trkpt lat="40.412212650333004" lon="15.567815577116278"><ele>465.0</ele><time>2026-04-26T08:27:00Z</time></trkpt><trkpt lat="40.41208544625635" lon="15.567965942566625"><ele>465.0</ele><time>2026-04-26T08:27:01Z</time></trkpt><trkpt lat="40.4119627373664" lon="15.568113762536187"><ele>464.33333333333337</ele><time>2026-04-26T08:27:02Z</time></trkpt><trkpt lat="40.41184090270971" lon="15.568262674969404"><ele>463.6666666666667</ele><time>2026-04-26T08:27:03Z</time></trkpt><trkpt lat="40.41172391605704" lon="15.568413139040805"><ele>463.0</ele><time>2026-04-26T08:27:04Z</time></trkpt><trkpt lat="40.411615625255585" lon="15.568556788420056"><ele>462.75</ele><time>2026-04-26T08:27:05Z</time></trkpt><trkpt lat="40.411517856555825" lon="15.568698696864265"><ele>462.5</ele><time>2026-04-26T08:27:06Z</time></trkpt><trkpt lat="40.41143345488041" lon="15.5688249537306"><ele>462.25</ele><time>2026-04-26T08:27:07Z</time></trkpt><trkpt lat="40.411354440747516" lon="15.568943010913417"><ele>462.0</ele><time>2026-04-26T08:27:08Z</time></trkpt><trkpt lat="40.411276438246645" lon="15.569065749806171"><ele>462.0</ele><time>2026-04-26T08:27:09Z</time></trkpt><trkpt lat="40.41119364137083" lon="15.569193539542862"><ele>462.0</ele><time>2026-04-26T08:27:10Z</time></trkpt><trkpt lat="40.411107786128696" lon="15.569337411507224"><ele>462.0</ele><time>2026-04-26T08:27:11Z</time></trkpt><trkpt lat="40.41102100545575" lon="15.569497431302999"><ele>462.0</ele><time>2026-04-26T08:27:12Z</time></trkpt><trkpt lat="40.410944229229784" lon="15.569681533598676"><ele>462.0</ele><time>2026-04-26T08:27:13Z</time></trkpt><trkpt lat="40.41087693486699" lon="15.569878927059706"><ele>462.0</ele><time>2026-04-26T08:27:14Z</time></trkpt><trkpt lat="40.41081931934079" lon="15.570086684948336"><ele>462.0</ele><time>2026-04-26T08:27:15Z</time></trkpt><trkpt lat="40.410766100026635" lon="15.570299209486032"><ele>462.0</ele><time>2026-04-26T08:27:16Z</time></trkpt><trkpt lat="40.4107151476039" lon="15.570513875474811"><ele>462.0</ele><time>2026-04-26T08:27:17Z</time></trkpt><trkpt lat="40.41064956457169" lon="15.570721339269662"><ele>462.0</ele><time>2026-04-26T08:27:18Z</time></trkpt><trkpt lat="40.41059573400477" lon="15.570935329280738"><ele>462.0</ele><time>2026-04-26T08:27:19Z</time></trkpt><trkpt lat="40.410564242332654" lon="15.571156185939541"><ele>462.0</ele><time>2026-04-26T08:27:20Z</time></trkpt><trkpt lat="40.41051446246563" lon="15.571356235839135"><ele>462.0</ele><time>2026-04-26T08:27:21Z</time></trkpt><trkpt lat="40.410455122499116" lon="15.571552907824485"><ele>461.66666666666663</ele><time>2026-04-26T08:27:22Z</time></trkpt><trkpt lat="40.4104115589718" lon="15.571753766635986"><ele>461.3333333333333</ele><time>2026-04-26T08:27:23Z</time></trkpt><trkpt lat="40.41036387922781" lon="15.57194436011105"><ele>461.0</ele><time>2026-04-26T08:27:24Z</time></trkpt><trkpt lat="40.4103191273177" lon="15.57213149849708"><ele>461.5</ele><time>2026-04-26T08:27:25Z</time></trkpt><trkpt lat="40.41026960759031" lon="15.572309712871428"><ele>462.0</ele><time>2026-04-26T08:27:26Z</time></trkpt><trkpt lat="40.41022383321442" lon="15.572485010880776"><ele>462.5</ele><time>2026-04-26T08:27:27Z</time></trkpt><trkpt lat="40.41017388208881" lon="15.572656660952013"><ele>463.0</ele><time>2026-04-26T08:27:28Z</time></trkpt><trkpt lat="40.41012141372193" lon="15.572816241227333"><ele>463.5</ele><time>2026-04-26T08:27:29Z</time></trkpt><trkpt lat="40.41006893937678" lon="15.572965091451636"><ele>464.0</ele><time>2026-04-26T08:27:30Z</time></trkpt><trkpt lat="40.41001956167652" lon="15.573115951279634"><ele>464.5</ele><time>2026-04-26T08:27:31Z</time></trkpt><trkpt lat="40.409954777399214" lon="15.573246940974158"><ele>465.0</ele><time>2026-04-26T08:27:32Z</time></trkpt><trkpt lat="40.409902188772556" lon="15.573395005573747"><ele>465.0</ele><time>2026-04-26T08:27:33Z</time></trkpt><trkpt lat="40.40984758267192" lon="15.573548750108552"><ele>465.0</ele><time>2026-04-26T08:27:34Z</time></trkpt><trkpt lat="40.40979172544336" lon="15.573705317717595"><ele>465.0</ele><time>2026-04-26T08:27:35Z</time></trkpt><trkpt lat="40.40973357829633" lon="15.573864359990546"><ele>465.0</ele><time>2026-04-26T08:27:36Z</time></trkpt><trkpt lat="40.40967491622829" lon="15.574017701976066"><ele>465.5</ele><time>2026-04-26T08:27:37Z</time></trkpt><trkpt lat="40.4096218491375" lon="15.574173454956988"><ele>466.0</ele><time>2026-04-26T08:27:38Z</time></trkpt><trkpt lat="40.40954738244185" lon="15.574310776813947"><ele>466.5</ele><time>2026-04-26T08:27:39Z</time></trkpt><trkpt lat="40.4094612576562" lon="15.5744473569614"><ele>467.0</ele><time>2026-04-26T08:27:40Z</time></trkpt><trkpt lat="40.40936212857457" lon="15.574588617424224"><ele>468.25</ele><time>2026-04-26T08:27:41Z</time></trkpt><trkpt lat="40.40925848291759" lon="15.574725182984618"><ele>469.5</ele><time>2026-04-26T08:27:42Z</time></trkpt><trkpt lat="40.40915678429275" lon="15.574858110034317"><ele>470.75</ele><time>2026-04-26T08:27:43Z</time></trkpt><trkpt lat="40.40904109869121" lon="15.574970651423213"><ele>472.0</ele><time>2026-04-26T08:27:44Z</time></trkpt><trkpt lat="40.40894026197174" lon="15.5751072409174"><ele>472.0</ele><time>2026-04-26T08:27:45Z</time></trkpt><trkpt lat="40.40883577075033" lon="15.575251824813641"><ele>472.0</ele><time>2026-04-26T08:27:46Z</time></trkpt><trkpt lat="40.40872769845275" lon="15.575394990218022"><ele>472.0</ele><time>2026-04-26T08:27:47Z</time></trkpt><trkpt lat="40.40862050136185" lon="15.575530624950973"><ele>474.25</ele><time>2026-04-26T08:27:48Z</time></trkpt><trkpt lat="40.40852220604061" lon="15.57565478743882"><ele>476.5</ele><time>2026-04-26T08:27:49Z</time></trkpt><trkpt lat="40.40843741339066" lon="15.575762410388611"><ele>478.75</ele><time>2026-04-26T08:27:50Z</time></trkpt><trkpt lat="40.40835439661658" lon="15.575869825929393"><ele>481.0</ele><time>2026-04-26T08:27:51Z</time></trkpt><trkpt lat="40.40827910569731" lon="15.575971720188633"><ele>481.0</ele><time>2026-04-26T08:27:52Z</time></trkpt><trkpt lat="40.40819510343045" lon="15.576086755348028"><ele>481.0</ele><time>2026-04-26T08:27:53Z</time></trkpt><trkpt lat="40.40809462562014" lon="15.57622430947186"><ele>481.0</ele><time>2026-04-26T08:27:54Z</time></trkpt><trkpt lat="40.40799329416525" lon="15.576367623765721"><ele>481.0</ele><time>2026-04-26T08:27:55Z</time></trkpt><trkpt lat="40.40791591240718" lon="15.576521691305205"><ele>481.5</ele><time>2026-04-26T08:27:56Z</time></trkpt><trkpt lat="40.407820941163855" lon="15.576660587943469"><ele>482.0</ele><time>2026-04-26T08:27:57Z</time></trkpt><trkpt lat="40.407727892918274" lon="15.576806344063048"><ele>482.5</ele><time>2026-04-26T08:27:58Z</time></trkpt><trkpt lat="40.40762769067156" lon="15.576956438151756"><ele>483.0</ele><time>2026-04-26T08:27:59Z</time></trkpt><trkpt lat="40.40752523740228" lon="15.577115264909594"><ele>484.25</ele><time>2026-04-26T08:28:00Z</time></trkpt><trkpt lat="40.40742835706558" lon="15.577267538364005"><ele>485.5</ele><time>2026-04-26T08:28:01Z</time></trkpt><trkpt lat="40.40734550435257" lon="15.577424161436294"><ele>486.75</ele><time>2026-04-26T08:28:02Z</time></trkpt><trkpt lat="40.40726865051266" lon="15.577562756969977"><ele>488.0</ele><time>2026-04-26T08:28:03Z</time></trkpt><trkpt lat="40.40719749768034" lon="15.577681455523706"><ele>487.59999999999997</ele><time>2026-04-26T08:28:04Z</time></trkpt><trkpt lat="40.40713201165932" lon="15.577786819463629"><ele>487.19999999999993</ele><time>2026-04-26T08:28:05Z</time></trkpt><trkpt lat="40.40704763558792" lon="15.577867959684472"><ele>486.8</ele><time>2026-04-26T08:28:06Z</time></trkpt><trkpt lat="40.40698666003827" lon="15.577977016320908"><ele>486.4</ele><time>2026-04-26T08:28:07Z</time></trkpt><trkpt lat="40.406943869027295" lon="15.578094422674654"><ele>486.0</ele><time>2026-04-26T08:28:08Z</time></trkpt><trkpt lat="40.40687628151109" lon="15.578195249029966"><ele>486.0</ele><time>2026-04-26T08:28:09Z</time></trkpt><trkpt lat="40.406809277163795" lon="15.578292969226661"><ele>486.0</ele><time>2026-04-26T08:28:10Z</time></trkpt><trkpt lat="40.406747584347826" lon="15.578389446361733"><ele>486.0</ele><time>2026-04-26T08:28:11Z</time></trkpt><trkpt lat="40.40669232054288" lon="15.578485555571069"><ele>486.0</ele><time>2026-04-26T08:28:12Z</time></trkpt><trkpt lat="40.40663968142918" lon="15.57859116449233"><ele>486.0</ele><time>2026-04-26T08:28:13Z</time></trkpt><trkpt lat="40.40655486894826" lon="15.578672674207281"><ele>487.0</ele><time>2026-04-26T08:28:14Z</time></trkpt><trkpt lat="40.40650295329943" lon="15.578783173103231"><ele>488.0</ele><time>2026-04-26T08:28:15Z</time></trkpt><trkpt lat="40.40645178965116" lon="15.578888995394186"><ele>489.0</ele><time>2026-04-26T08:28:16Z</time></trkpt><trkpt lat="40.4063971310492" lon="15.579002046285817"><ele>490.0</ele><time>2026-04-26T08:28:17Z</time></trkpt><trkpt lat="40.406338112970154" lon="15.579130053934348"><ele>491.0</ele><time>2026-04-26T08:28:18Z</time></trkpt><trkpt lat="40.40627519351172" lon="15.57927052918931"><ele>487.0</ele><time>2026-04-26T08:28:19Z</time></trkpt><trkpt lat="40.40621164921648" lon="15.579436869966699"><ele>483.0</ele><time>2026-04-26T08:28:20Z</time></trkpt><trkpt lat="40.406159404250666" lon="15.579624348311048"><ele>479.0</ele><time>2026-04-26T08:28:21Z</time></trkpt><trkpt lat="40.406117713440324" lon="15.579823305119186"><ele>478.3333333333333</ele><time>2026-04-26T08:28:22Z</time></trkpt><trkpt lat="40.40607715506926" lon="15.580017524990078"><ele>477.66666666666663</ele><time>2026-04-26T08:28:23Z</time></trkpt><trkpt lat="40.40603053592683" lon="15.580213866397656"><ele>477.0</ele><time>2026-04-26T08:28:24Z</time></trkpt><trkpt lat="40.40598659684608" lon="15.580399030172536"><ele>477.0</ele><time>2026-04-26T08:28:25Z</time></trkpt><trkpt lat="40.40594655251618" lon="15.58056639298489"><ele>477.0</ele><time>2026-04-26T08:28:26Z</time></trkpt><trkpt lat="40.40590653524807" lon="15.580731247651238"><ele>477.0</ele><time>2026-04-26T08:28:27Z</time></trkpt><trkpt lat="40.405864979918114" lon="15.580902822165744"><ele>477.0</ele><time>2026-04-26T08:28:28Z</time></trkpt><trkpt lat="40.40583378353185" lon="15.581082374261419"><ele>477.0</ele><time>2026-04-26T08:28:29Z</time></trkpt><trkpt lat="40.405827706177185" lon="15.58125868144066"><ele>477.0</ele><time>2026-04-26T08:28:30Z</time></trkpt><trkpt lat="40.40580593350982" lon="15.581426929577342"><ele>477.0</ele><time>2026-04-26T08:28:31Z</time></trkpt><trkpt lat="40.40578226109895" lon="15.581583618272845"><ele>477.0</ele><time>2026-04-26T08:28:32Z</time></trkpt><trkpt lat="40.40575973848135" lon="15.581725500498598"><ele>477.0</ele><time>2026-04-26T08:28:33Z</time></trkpt><trkpt lat="40.40572299633607" lon="15.581868644258234"><ele>477.0</ele><time>2026-04-26T08:28:34Z</time></trkpt><trkpt lat="40.40565428327079" lon="15.5819861456261"><ele>477.0</ele><time>2026-04-26T08:28:35Z</time></trkpt><trkpt lat="40.40557654698333" lon="15.582099063258154"><ele>477.0</ele><time>2026-04-26T08:28:36Z</time></trkpt><trkpt lat="40.405498878928114" lon="15.582228095552107"><ele>473.75</ele><time>2026-04-26T08:28:37Z</time></trkpt><trkpt lat="40.405414377300666" lon="15.582355393600219"><ele>470.5</ele><time>2026-04-26T08:28:38Z</time></trkpt><trkpt lat="40.405322656430656" lon="15.582479202854872"><ele>467.25</ele><time>2026-04-26T08:28:39Z</time></trkpt><trkpt lat="40.40523459375229" lon="15.58261129798833"><ele>464.0</ele><time>2026-04-26T08:28:40Z</time></trkpt><trkpt lat="40.405136804405444" lon="15.582741171450271"><ele>464.75</ele><time>2026-04-26T08:28:41Z</time></trkpt><trkpt lat="40.405040958470536" lon="15.582876861949337"><ele>465.5</ele><time>2026-04-26T08:28:42Z</time></trkpt><trkpt lat="40.40494504624045" lon="15.583013597453451"><ele>466.25</ele><time>2026-04-26T08:28:43Z</time></trkpt><trkpt lat="40.40484857547466" lon="15.58315307415812"><ele>467.0</ele><time>2026-04-26T08:28:44Z</time></trkpt><trkpt lat="40.40475239815903" lon="15.583289072889405"><ele>466.5</ele><time>2026-04-26T08:28:45Z</time></trkpt><trkpt lat="40.40465051049845" lon="15.583421577920062"><ele>466.0</ele><time>2026-04-26T08:28:46Z</time></trkpt><trkpt lat="40.404558952243804" lon="15.58356675104801"><ele>465.5</ele><time>2026-04-26T08:28:47Z</time></trkpt><trkpt lat="40.40446162986263" lon="15.583707475160146"><ele>465.0</ele><time>2026-04-26T08:28:48Z</time></trkpt><trkpt lat="40.40436605026544" lon="15.583848114906571"><ele>465.0</ele><time>2026-04-26T08:28:49Z</time></trkpt><trkpt lat="40.40426926423188" lon="15.583991623644255"><ele>465.0</ele><time>2026-04-26T08:28:50Z</time></trkpt><trkpt lat="40.40417057981852" lon="15.584145619372613"><ele>465.0</ele><time>2026-04-26T08:28:51Z</time></trkpt><trkpt lat="40.404062963226885" lon="15.5843148958854"><ele>465.0</ele><time>2026-04-26T08:28:52Z</time></trkpt><trkpt lat="40.40395178915119" lon="15.584471123620599"><ele>465.0</ele><time>2026-04-26T08:28:53Z</time></trkpt><trkpt lat="40.40387143017142" lon="15.58465177905529"><ele>465.0</ele><time>2026-04-26T08:28:54Z</time></trkpt><trkpt lat="40.403774798726054" lon="15.58481531363341"><ele>465.25</ele><time>2026-04-26T08:28:55Z</time></trkpt><trkpt lat="40.40368355065713" lon="15.584973160227095"><ele>465.5</ele><time>2026-04-26T08:28:56Z</time></trkpt><trkpt lat="40.40358876934549" lon="15.58511699619522"><ele>465.75</ele><time>2026-04-26T08:28:57Z</time></trkpt><trkpt lat="40.40348948601258" lon="15.58525276856857"><ele>466.0</ele><time>2026-04-26T08:28:58Z</time></trkpt><trkpt lat="40.403379805826" lon="15.585399836422388"><ele>466.0</ele><time>2026-04-26T08:28:59Z</time></trkpt><trkpt lat="40.4032556121513" lon="15.585547701441735"><ele>466.0</ele><time>2026-04-26T08:29:00Z</time></trkpt><trkpt lat="40.403140933289926" lon="15.585699426073404"><ele>466.0</ele><time>2026-04-26T08:29:01Z</time></trkpt><trkpt lat="40.403036988605436" lon="15.585841353659681"><ele>467.0</ele><time>2026-04-26T08:29:02Z</time></trkpt><trkpt lat="40.402939242070644" lon="15.585976703095863"><ele>468.0</ele><time>2026-04-26T08:29:03Z</time></trkpt><trkpt lat="40.40284591559595" lon="15.586105594635892"><ele>469.0</ele><time>2026-04-26T08:29:04Z</time></trkpt><trkpt lat="40.402765067512306" lon="15.586224535065913"><ele>470.0</ele><time>2026-04-26T08:29:05Z</time></trkpt><trkpt lat="40.40269062386537" lon="15.586348855284314"><ele>470.0</ele><time>2026-04-26T08:29:06Z</time></trkpt><trkpt lat="40.40260818461064" lon="15.586473101075981"><ele>470.0</ele><time>2026-04-26T08:29:07Z</time></trkpt><trkpt lat="40.40252866386074" lon="15.586592498906162"><ele>470.0</ele><time>2026-04-26T08:29:08Z</time></trkpt><trkpt lat="40.40243879121205" lon="15.586693931483284"><ele>470.0</ele><time>2026-04-26T08:29:09Z</time></trkpt><trkpt lat="40.402335848912024" lon="15.586764642932033"><ele>470.0</ele><time>2026-04-26T08:29:10Z</time></trkpt><trkpt lat="40.402231624195174" lon="15.586830445625354"><ele>470.0</ele><time>2026-04-26T08:29:11Z</time></trkpt><trkpt lat="40.40210756480297" lon="15.586891539463542"><ele>470.0</ele><time>2026-04-26T08:29:12Z</time></trkpt><trkpt lat="40.40196110240174" lon="15.586949443536799"><ele>470.0</ele><time>2026-04-26T08:29:13Z</time></trkpt><trkpt lat="40.40179773032155" lon="15.587015479968564"><ele>473.0</ele><time>2026-04-26T08:29:14Z</time></trkpt><trkpt lat="40.401627938729256" lon="15.587080170215916"><ele>476.0</ele><time>2026-04-26T08:29:15Z</time></trkpt><trkpt lat="40.401490250009374" lon="15.58719377174811"><ele>479.0</ele><time>2026-04-26T08:29:16Z</time></trkpt><trkpt lat="40.401352317987715" lon="15.587297946662748"><ele>478.25</ele><time>2026-04-26T08:29:17Z</time></trkpt><trkpt lat="40.40121402391135" lon="15.587393569434683"><ele>477.5</ele><time>2026-04-26T08:29:18Z</time></trkpt><trkpt lat="40.40109913557483" lon="15.587514122193621"><ele>476.75</ele><time>2026-04-26T08:29:19Z</time></trkpt><trkpt lat="40.40097736397137" lon="15.587601990637506"><ele>476.0</ele><time>2026-04-26T08:29:20Z</time></trkpt><trkpt lat="40.400861401572314" lon="15.587709798121194"><ele>476.0</ele><time>2026-04-26T08:29:21Z</time></trkpt><trkpt lat="40.400752469026926" lon="15.58781447752961"><ele>476.0</ele><time>2026-04-26T08:29:22Z</time></trkpt><trkpt lat="40.400634158964984" lon="15.587926051739405"><ele>476.0</ele><time>2026-04-26T08:29:23Z</time></trkpt><trkpt lat="40.400510651056344" lon="15.588040958066113"><ele>476.0</ele><time>2026-04-26T08:29:24Z</time></trkpt><trkpt lat="40.400389537741674" lon="15.588152001061347"><ele>476.5</ele><time>2026-04-26T08:29:25Z</time></trkpt><trkpt lat="40.40027093059314" lon="15.588255719444941"><ele>477.0</ele><time>2026-04-26T08:29:26Z</time></trkpt><trkpt lat="40.40014643156953" lon="15.58835439618754"><ele>477.5</ele><time>2026-04-26T08:29:27Z</time></trkpt><trkpt lat="40.40001238900124" lon="15.588462235303613"><ele>478.0</ele><time>2026-04-26T08:29:28Z</time></trkpt><trkpt lat="40.399869192100454" lon="15.58855421227162"><ele>478.0</ele><time>2026-04-26T08:29:29Z</time></trkpt><trkpt lat="40.39973157933354" lon="15.588650098306049"><ele>478.0</ele><time>2026-04-26T08:29:30Z</time></trkpt><trkpt lat="40.39959449255191" lon="15.5887433837966"><ele>478.0</ele><time>2026-04-26T08:29:31Z</time></trkpt><trkpt lat="40.39946121054704" lon="15.588836142115122"><ele>478.5</ele><time>2026-04-26T08:29:32Z</time></trkpt><trkpt lat="40.399329827574164" lon="15.588928829437492"><ele>479.0</ele><time>2026-04-26T08:29:33Z</time></trkpt><trkpt lat="40.39920253804982" lon="15.5890186275177"><ele>479.5</ele><time>2026-04-26T08:29:34Z</time></trkpt><trkpt lat="40.39907443561022" lon="15.589108999064402"><ele>480.0</ele><time>2026-04-26T08:29:35Z</time></trkpt><trkpt lat="40.39895035537121" lon="15.58919653310511"><ele>479.75</ele><time>2026-04-26T08:29:36Z</time></trkpt><trkpt lat="40.3988283501164" lon="15.589278229909358"><ele>479.5</ele><time>2026-04-26T08:29:37Z</time></trkpt><trkpt lat="40.39870046546136" lon="15.589363546508656"><ele>479.25</ele><time>2026-04-26T08:29:38Z</time></trkpt><trkpt lat="40.39855589964516" lon="15.58945999174434"><ele>479.0</ele><time>2026-04-26T08:29:39Z</time></trkpt><trkpt lat="40.39840151506679" lon="15.589562987382774"><ele>481.3333333333333</ele><time>2026-04-26T08:29:40Z</time></trkpt><trkpt lat="40.39825193317447" lon="15.589666692599025"><ele>483.66666666666663</ele><time>2026-04-26T08:29:41Z</time></trkpt><trkpt lat="40.39810670395892" lon="15.589768176588365"><ele>486.0</ele><time>2026-04-26T08:29:42Z</time></trkpt><trkpt lat="40.39796076219414" lon="15.589872002229635"><ele>486.0</ele><time>2026-04-26T08:29:43Z</time></trkpt><trkpt lat="40.39782399030965" lon="15.589984004750805"><ele>486.0</ele><time>2026-04-26T08:29:44Z</time></trkpt><trkpt lat="40.397692973710875" lon="15.590075273345773"><ele>486.0</ele><time>2026-04-26T08:29:45Z</time></trkpt><trkpt lat="40.397570597629304" lon="15.590174653527738"><ele>486.0</ele><time>2026-04-26T08:29:46Z</time></trkpt><trkpt lat="40.39745171461034" lon="15.590260684425568"><ele>486.0</ele><time>2026-04-26T08:29:47Z</time></trkpt><trkpt lat="40.39732960026257" lon="15.590341586750448"><ele>486.0</ele><time>2026-04-26T08:29:48Z</time></trkpt><trkpt lat="40.39721145761421" lon="15.590420238073246"><ele>486.0</ele><time>2026-04-26T08:29:49Z</time></trkpt><trkpt lat="40.39709646380975" lon="15.590491682041618"><ele>486.8</ele><time>2026-04-26T08:29:50Z</time></trkpt><trkpt lat="40.39698658566672" lon="15.590559575618808"><ele>487.6</ele><time>2026-04-26T08:29:51Z</time></trkpt><trkpt lat="40.39689020615377" lon="15.590616059120949"><ele>488.4</ele><time>2026-04-26T08:29:52Z</time></trkpt><trkpt lat="40.39680424039895" lon="15.590669406985878"><ele>489.2</ele><time>2026-04-26T08:29:53Z</time></trkpt><trkpt lat="40.39672439025033" lon="15.59069022416246"><ele>490.0</ele><time>2026-04-26T08:29:54Z</time></trkpt><trkpt lat="40.39665290639788" lon="15.59075005192456"><ele>490.0</ele><time>2026-04-26T08:29:55Z</time></trkpt><trkpt lat="40.39655348991369" lon="15.590813599317993"><ele>490.0</ele><time>2026-04-26T08:29:56Z</time></trkpt><trkpt lat="40.39643506079338" lon="15.590912536125918"><ele>490.0</ele><time>2026-04-26T08:29:57Z</time></trkpt><trkpt lat="40.396285945085644" lon="15.591009820163285"><ele>490.0</ele><time>2026-04-26T08:29:58Z</time></trkpt><trkpt lat="40.39616895910679" lon="15.5911146310527"><ele>490.0</ele><time>2026-04-26T08:29:59Z</time></trkpt><trkpt lat="40.396065063434" lon="15.591186966587744"><ele>490.0</ele><time>2026-04-26T08:30:00Z</time></trkpt><trkpt lat="40.39596080407394" lon="15.59124462467424"><ele>490.0</ele><time>2026-04-26T08:30:01Z</time></trkpt><trkpt lat="40.39586572552056" lon="15.591310446242664"><ele>490.0</ele><time>2026-04-26T08:30:02Z</time></trkpt><trkpt lat="40.39578527986484" lon="15.59141454966401"><ele>490.0</ele><time>2026-04-26T08:30:03Z</time></trkpt><trkpt lat="40.395690858769825" lon="15.591479654111765"><ele>490.0</ele><time>2026-04-26T08:30:04Z</time></trkpt><trkpt lat="40.3955799159688" lon="15.59156108335815"><ele>490.0</ele><time>2026-04-26T08:30:05Z</time></trkpt><trkpt lat="40.395452585021694" lon="15.591670855899292"><ele>490.0</ele><time>2026-04-26T08:30:06Z</time></trkpt><trkpt lat="40.39528405588245" lon="15.591731253490035"><ele>489.6666666666667</ele><time>2026-04-26T08:30:07Z</time></trkpt><trkpt lat="40.3951400630257" lon="15.59186234467398"><ele>489.33333333333337</ele><time>2026-04-26T08:30:08Z</time></trkpt><trkpt lat="40.39500197867461" lon="15.592013952019778"><ele>489.0</ele><time>2026-04-26T08:30:09Z</time></trkpt><trkpt lat="40.39486936090672" lon="15.59217123922414"><ele>489.0</ele><time>2026-04-26T08:30:10Z</time></trkpt><trkpt lat="40.39474928705055" lon="15.592328050848415"><ele>489.0</ele><time>2026-04-26T08:30:11Z</time></trkpt><trkpt lat="40.39463882722128" lon="15.592479085655778"><ele>489.0</ele><time>2026-04-26T08:30:12Z</time></trkpt><trkpt lat="40.394536470248234" lon="15.592624490126758"><ele>488.0</ele><time>2026-04-26T08:30:13Z</time></trkpt><trkpt lat="40.39445265788598" lon="15.592791543971211"><ele>487.0</ele><time>2026-04-26T08:30:14Z</time></trkpt><trkpt lat="40.39435661950081" lon="15.592936414800729"><ele>486.0</ele><time>2026-04-26T08:30:15Z</time></trkpt><trkpt lat="40.39425554240826" lon="15.593090277026645"><ele>486.0</ele><time>2026-04-26T08:30:16Z</time></trkpt><trkpt lat="40.394144278414714" lon="15.59325731008082"><ele>486.0</ele><time>2026-04-26T08:30:17Z</time></trkpt><trkpt lat="40.39403281162604" lon="15.593430524672183"><ele>486.0</ele><time>2026-04-26T08:30:18Z</time></trkpt><trkpt lat="40.39391387749844" lon="15.593599606243147"><ele>484.33333333333337</ele><time>2026-04-26T08:30:19Z</time></trkpt><trkpt lat="40.39379932252804" lon="15.593773907785806"><ele>482.6666666666667</ele><time>2026-04-26T08:30:20Z</time></trkpt><trkpt lat="40.39367473480348" lon="15.59392659742052"><ele>481.0</ele><time>2026-04-26T08:30:21Z</time></trkpt><trkpt lat="40.39359903655125" lon="15.594118110275767"><ele>481.0</ele><time>2026-04-26T08:30:22Z</time></trkpt><trkpt lat="40.39351446803042" lon="15.59429517423209"><ele>481.0</ele><time>2026-04-26T08:30:23Z</time></trkpt><trkpt lat="40.39343925307223" lon="15.594477002564124"><ele>481.0</ele><time>2026-04-26T08:30:24Z</time></trkpt><trkpt lat="40.39336701609865" lon="15.594661418529094"><ele>481.33333333333337</ele><time>2026-04-26T08:30:25Z</time></trkpt><trkpt lat="40.393280232665866" lon="15.594839151188776"><ele>481.66666666666663</ele><time>2026-04-26T08:30:26Z</time></trkpt><trkpt lat="40.39319688790871" lon="15.59502553780086"><ele>482.0</ele><time>2026-04-26T08:30:27Z</time></trkpt><trkpt lat="40.393103410800265" lon="15.595204412126275"><ele>481.0</ele><time>2026-04-26T08:30:28Z</time></trkpt><trkpt lat="40.392998111825" lon="15.59537525484507"><ele>480.0</ele><time>2026-04-26T08:30:29Z</time></trkpt><trkpt lat="40.39288544639188" lon="15.595542304667921"><ele>479.0</ele><time>2026-04-26T08:30:30Z</time></trkpt><trkpt lat="40.392770275650825" lon="15.595707370721776"><ele>479.0</ele><time>2026-04-26T08:30:31Z</time></trkpt><trkpt lat="40.39264814081657" lon="15.595880182127031"><ele>479.0</ele><time>2026-04-26T08:30:32Z</time></trkpt><trkpt lat="40.39252873104092" lon="15.596054916789296"><ele>479.0</ele><time>2026-04-26T08:30:33Z</time></trkpt><trkpt lat="40.39241660856937" lon="15.596217090936731"><ele>478.66666666666663</ele><time>2026-04-26T08:30:34Z</time></trkpt><trkpt lat="40.3923150093563" lon="15.596370322743619"><ele>478.33333333333337</ele><time>2026-04-26T08:30:35Z</time></trkpt><trkpt lat="40.39221140662525" lon="15.596512200545924"><ele>478.0</ele><time>2026-04-26T08:30:36Z</time></trkpt><trkpt lat="40.392112749811695" lon="15.596663550430716"><ele>478.0</ele><time>2026-04-26T08:30:37Z</time></trkpt><trkpt lat="40.39201582860206" lon="15.596816790276508"><ele>478.0</ele><time>2026-04-26T08:30:38Z</time></trkpt><trkpt lat="40.39191800689525" lon="15.59696844331161"><ele>478.0</ele><time>2026-04-26T08:30:39Z</time></trkpt><trkpt lat="40.39180518489283" lon="15.597113097849267"><ele>480.0</ele><time>2026-04-26T08:30:40Z</time></trkpt><trkpt lat="40.391717464652686" lon="15.597263961983632"><ele>482.0</ele><time>2026-04-26T08:30:41Z</time></trkpt><trkpt lat="40.39164627033637" lon="15.597416636692"><ele>484.0</ele><time>2026-04-26T08:30:42Z</time></trkpt><trkpt lat="40.39156643427891" lon="15.597554469527397"><ele>486.0</ele><time>2026-04-26T08:30:43Z</time></trkpt><trkpt lat="40.39149050930727" lon="15.597708885359495"><ele>487.25</ele><time>2026-04-26T08:30:44Z</time></trkpt><trkpt lat="40.39142124782195" lon="15.597865226220513"><ele>488.5</ele><time>2026-04-26T08:30:45Z</time></trkpt><trkpt lat="40.391345656545276" lon="15.598037281978929"><ele>489.75</ele><time>2026-04-26T08:30:46Z</time></trkpt><trkpt lat="40.391265900696396" lon="15.598217068862441"><ele>491.0</ele><time>2026-04-26T08:30:47Z</time></trkpt><trkpt lat="40.391190402397555" lon="15.598391002631189"><ele>488.75</ele><time>2026-04-26T08:30:48Z</time></trkpt><trkpt lat="40.391116103385606" lon="15.598562307427295"><ele>486.5</ele><time>2026-04-26T08:30:49Z</time></trkpt><trkpt lat="40.391044476389254" lon="15.59873318091376"><ele>484.25</ele><time>2026-04-26T08:30:50Z</time></trkpt><trkpt lat="40.39097532226822" lon="15.598892772335773"><ele>482.0</ele><time>2026-04-26T08:30:51Z</time></trkpt><trkpt lat="40.39090449374914" lon="15.599049392141238"><ele>482.0</ele><time>2026-04-26T08:30:52Z</time></trkpt><trkpt lat="40.390836089959755" lon="15.599203332287201"><ele>482.0</ele><time>2026-04-26T08:30:53Z</time></trkpt><trkpt lat="40.39075796871258" lon="15.599367734577882"><ele>482.0</ele><time>2026-04-26T08:30:54Z</time></trkpt><trkpt lat="40.39066824491631" lon="15.59952629317192"><ele>482.0</ele><time>2026-04-26T08:30:55Z</time></trkpt><trkpt lat="40.39056604339579" lon="15.599669317341737"><ele>482.0</ele><time>2026-04-26T08:30:56Z</time></trkpt><trkpt lat="40.39045239488277" lon="15.599800374450176"><ele>482.0</ele><time>2026-04-26T08:30:57Z</time></trkpt><trkpt lat="40.390334066131004" lon="15.599923553935072"><ele>482.0</ele><time>2026-04-26T08:30:58Z</time></trkpt><trkpt lat="40.390206417860526" lon="15.600054136446024"><ele>482.0</ele><time>2026-04-26T08:30:59Z</time></trkpt><trkpt lat="40.39006596580407" lon="15.600157908866755"><ele>482.0</ele><time>2026-04-26T08:31:00Z</time></trkpt><trkpt lat="40.38992537152882" lon="15.600244681414226"><ele>482.0</ele><time>2026-04-26T08:31:01Z</time></trkpt><trkpt lat="40.38978312262943" lon="15.6003241695264"><ele>481.66666666666663</ele><time>2026-04-26T08:31:02Z</time></trkpt><trkpt lat="40.38964269260946" lon="15.600391543291076"><ele>481.33333333333337</ele><time>2026-04-26T08:31:03Z</time></trkpt><trkpt lat="40.38949534921708" lon="15.600457931464893"><ele>481.0</ele><time>2026-04-26T08:31:04Z</time></trkpt><trkpt lat="40.38933755169011" lon="15.600537115986345"><ele>481.0</ele><time>2026-04-26T08:31:05Z</time></trkpt><trkpt lat="40.38915921445411" lon="15.600618831488559"><ele>481.0</ele><time>2026-04-26T08:31:06Z</time></trkpt><trkpt lat="40.388986823096225" lon="15.600698948275125"><ele>481.0</ele><time>2026-04-26T08:31:07Z</time></trkpt><trkpt lat="40.38881989307952" lon="15.600777669457408"><ele>478.6666666666667</ele><time>2026-04-26T08:31:08Z</time></trkpt><trkpt lat="40.38865590387192" lon="15.600862566175044"><ele>476.33333333333337</ele><time>2026-04-26T08:31:09Z</time></trkpt><trkpt lat="40.388490665876866" lon="15.600955603154691"><ele>474.0</ele><time>2026-04-26T08:31:10Z</time></trkpt><trkpt lat="40.38832521280137" lon="15.601047009004846"><ele>474.0</ele><time>2026-04-26T08:31:11Z</time></trkpt><trkpt lat="40.38815807528609" lon="15.60113580850891"><ele>474.0</ele><time>2026-04-26T08:31:12Z</time></trkpt><trkpt lat="40.38799490483844" lon="15.601215034676494"><ele>474.0</ele><time>2026-04-26T08:31:13Z</time></trkpt><trkpt lat="40.38782758726849" lon="15.601278485358703"><ele>476.66666666666663</ele><time>2026-04-26T08:31:14Z</time></trkpt><trkpt lat="40.387668677480136" lon="15.60135436818943"><ele>479.3333333333333</ele><time>2026-04-26T08:31:15Z</time></trkpt><trkpt lat="40.38752609369753" lon="15.601447928229689"><ele>482.0</ele><time>2026-04-26T08:31:16Z</time></trkpt><trkpt lat="40.38738177555748" lon="15.601500649153117"><ele>482.0</ele><time>2026-04-26T08:31:17Z</time></trkpt><trkpt lat="40.38724862437912" lon="15.601570212173977"><ele>482.0</ele><time>2026-04-26T08:31:18Z</time></trkpt><trkpt lat="40.387117517443926" lon="15.601639643455334"><ele>482.0</ele><time>2026-04-26T08:31:19Z</time></trkpt><trkpt lat="40.38698596273028" lon="15.601704899152873"><ele>482.0</ele><time>2026-04-26T08:31:20Z</time></trkpt><trkpt lat="40.38685227429903" lon="15.601765476449243"><ele>481.75</ele><time>2026-04-26T08:31:21Z</time></trkpt><trkpt lat="40.386716193886414" lon="15.601824855528047"><ele>481.5</ele><time>2026-04-26T08:31:22Z</time></trkpt><trkpt lat="40.386591756996744" lon="15.60187817659196"><ele>481.25</ele><time>2026-04-26T08:31:23Z</time></trkpt><trkpt lat="40.386482288369294" lon="15.60192078101502"><ele>481.0</ele><time>2026-04-26T08:31:24Z</time></trkpt><trkpt lat="40.38637954943671" lon="15.601959785577598"><ele>481.1666666666667</ele><time>2026-04-26T08:31:25Z</time></trkpt><trkpt lat="40.3862868570961" lon="15.601990616680744"><ele>481.33333333333337</ele><time>2026-04-26T08:31:26Z</time></trkpt><trkpt lat="40.38620240773748" lon="15.602018841598179"><ele>481.5</ele><time>2026-04-26T08:31:27Z</time></trkpt><trkpt lat="40.386124858171" lon="15.60204476044959"><ele>481.66666666666663</ele><time>2026-04-26T08:31:28Z</time></trkpt><trkpt lat="40.38606272339133" lon="15.602065527324577"><ele>481.8333333333333</ele><time>2026-04-26T08:31:29Z</time></trkpt><trkpt lat="40.385959571536866" lon="15.60210769553778"><ele>482.0</ele><time>2026-04-26T08:31:31Z</time></trkpt><trkpt lat="40.38588071974164" lon="15.602162051334034"><ele>482.6</ele><time>2026-04-26T08:31:33Z</time></trkpt><trkpt lat="40.38576786524425" lon="15.602245076591137"><ele>483.20000000000005</ele><time>2026-04-26T08:31:35Z</time></trkpt><trkpt lat="40.38566629698823" lon="15.602236672182192"><ele>483.8</ele><time>2026-04-26T08:31:36Z</time></trkpt><trkpt lat="40.385573045399696" lon="15.60226099704883"><ele>484.4</ele><time>2026-04-26T08:31:37Z</time></trkpt><trkpt lat="40.38546904886091" lon="15.6022898936778"><ele>485.0</ele><time>2026-04-26T08:31:38Z</time></trkpt><trkpt lat="40.38536535463587" lon="15.602318706305034"><ele>485.0</ele><time>2026-04-26T08:31:39Z</time></trkpt><trkpt lat="40.38525825852104" lon="15.60235496082898"><ele>485.0</ele><time>2026-04-26T08:31:40Z</time></trkpt><trkpt lat="40.3851307408733" lon="15.602397846062043"><ele>485.0</ele><time>2026-04-26T08:31:41Z</time></trkpt><trkpt lat="40.385007998908364" lon="15.602443793991801"><ele>485.0</ele><time>2026-04-26T08:31:42Z</time></trkpt><trkpt lat="40.3848938138144" lon="15.60248831530105"><ele>485.0</ele><time>2026-04-26T08:31:43Z</time></trkpt><trkpt lat="40.38477437633747" lon="15.602537691896417"><ele>485.0</ele><time>2026-04-26T08:31:44Z</time></trkpt><trkpt lat="40.38465635556455" lon="15.602586484275816"><ele>485.0</ele><time>2026-04-26T08:31:45Z</time></trkpt><trkpt lat="40.384531400516614" lon="15.602639128057687"><ele>485.0</ele><time>2026-04-26T08:31:46Z</time></trkpt><trkpt lat="40.384389463326094" lon="15.602706520694106"><ele>484.75</ele><time>2026-04-26T08:31:47Z</time></trkpt><trkpt lat="40.384239691645845" lon="15.602777958523037"><ele>484.5</ele><time>2026-04-26T08:31:48Z</time></trkpt><trkpt lat="40.384101630014776" lon="15.602843811000724"><ele>484.25</ele><time>2026-04-26T08:31:49Z</time></trkpt><trkpt lat="40.38397840715397" lon="15.60290437517119"><ele>484.0</ele><time>2026-04-26T08:31:50Z</time></trkpt><trkpt lat="40.38385932070909" lon="15.602984187172751"><ele>484.5</ele><time>2026-04-26T08:31:51Z</time></trkpt><trkpt lat="40.383740384281296" lon="15.603039138590177"><ele>485.0</ele><time>2026-04-26T08:31:52Z</time></trkpt><trkpt lat="40.38361638957285" lon="15.603095028486932"><ele>485.5</ele><time>2026-04-26T08:31:53Z</time></trkpt><trkpt lat="40.383488868285866" lon="15.603146135489578"><ele>486.0</ele><time>2026-04-26T08:31:54Z</time></trkpt><trkpt lat="40.383356155548235" lon="15.603209801968674"><ele>486.0</ele><time>2026-04-26T08:31:55Z</time></trkpt><trkpt lat="40.38322379511511" lon="15.603277831674822"><ele>486.0</ele><time>2026-04-26T08:31:56Z</time></trkpt><trkpt lat="40.3830915663716" lon="15.603337120369813"><ele>486.0</ele><time>2026-04-26T08:31:57Z</time></trkpt><trkpt lat="40.38296182070134" lon="15.603409993806869"><ele>486.0</ele><time>2026-04-26T08:31:58Z</time></trkpt><trkpt lat="40.38283699060522" lon="15.603491887150877"><ele>485.5</ele><time>2026-04-26T08:31:59Z</time></trkpt><trkpt lat="40.3827167562297" lon="15.603589162277865"><ele>485.0</ele><time>2026-04-26T08:32:00Z</time></trkpt><trkpt lat="40.38259362568729" lon="15.603688372571174"><ele>484.5</ele><time>2026-04-26T08:32:01Z</time></trkpt><trkpt lat="40.382464677442584" lon="15.603788758084601"><ele>484.0</ele><time>2026-04-26T08:32:02Z</time></trkpt><trkpt lat="40.38233610604403" lon="15.60388903268087"><ele>484.25</ele><time>2026-04-26T08:32:03Z</time></trkpt><trkpt lat="40.38220699728739" lon="15.603988739046782"><ele>484.5</ele><time>2026-04-26T08:32:04Z</time></trkpt><trkpt lat="40.38207587480147" lon="15.604081773854888"><ele>484.75</ele><time>2026-04-26T08:32:05Z</time></trkpt><trkpt lat="40.38194666768777" lon="15.604181793951003"><ele>485.0</ele><time>2026-04-26T08:32:06Z</time></trkpt><trkpt lat="40.38182058065388" lon="15.604275790900052"><ele>485.0</ele><time>2026-04-26T08:32:07Z</time></trkpt><trkpt lat="40.38168546086707" lon="15.604376475576625"><ele>485.0</ele><time>2026-04-26T08:32:08Z</time></trkpt><trkpt lat="40.381551559896046" lon="15.604472800112468"><ele>485.0</ele><time>2026-04-26T08:32:09Z</time></trkpt><trkpt lat="40.38142597041628" lon="15.60456297397062"><ele>485.5</ele><time>2026-04-26T08:32:10Z</time></trkpt><trkpt lat="40.3813018429836" lon="15.604649672853895"><ele>486.0</ele><time>2026-04-26T08:32:11Z</time></trkpt><trkpt lat="40.38118136784578" lon="15.604741360358911"><ele>486.5</ele><time>2026-04-26T08:32:12Z</time></trkpt><trkpt lat="40.381065504307315" lon="15.60484617423726"><ele>487.0</ele><time>2026-04-26T08:32:13Z</time></trkpt><trkpt lat="40.38095949053796" lon="15.604944288909957"><ele>487.0</ele><time>2026-04-26T08:32:14Z</time></trkpt><trkpt lat="40.380858883407626" lon="15.605055117926387"><ele>487.0</ele><time>2026-04-26T08:32:15Z</time></trkpt><trkpt lat="40.38076019058808" lon="15.605166476118699"><ele>487.0</ele><time>2026-04-26T08:32:16Z</time></trkpt><trkpt lat="40.380664333110396" lon="15.605292352271098"><ele>487.0</ele><time>2026-04-26T08:32:17Z</time></trkpt><trkpt lat="40.38054454251799" lon="15.605413753377576"><ele>485.0</ele><time>2026-04-26T08:32:18Z</time></trkpt><trkpt lat="40.380430002870206" lon="15.605582123026515"><ele>483.0</ele><time>2026-04-26T08:32:19Z</time></trkpt><trkpt lat="40.38029585740286" lon="15.605743768003999"><ele>481.0</ele><time>2026-04-26T08:32:20Z</time></trkpt><trkpt lat="40.380152891407" lon="15.605919057031986"><ele>481.0</ele><time>2026-04-26T08:32:21Z</time></trkpt><trkpt lat="40.38001005346366" lon="15.60610637294308"><ele>481.0</ele><time>2026-04-26T08:32:22Z</time></trkpt><trkpt lat="40.37987872750984" lon="15.606276756053486"><ele>481.0</ele><time>2026-04-26T08:32:23Z</time></trkpt><trkpt lat="40.37975195527355" lon="15.606448347129822"><ele>479.6666666666667</ele><time>2026-04-26T08:32:24Z</time></trkpt><trkpt lat="40.37963158879892" lon="15.60661718112497"><ele>478.33333333333337</ele><time>2026-04-26T08:32:25Z</time></trkpt><trkpt lat="40.37951499443418" lon="15.606779884275987"><ele>477.0</ele><time>2026-04-26T08:32:26Z</time></trkpt><trkpt lat="40.379406101654276" lon="15.60693494540336"><ele>477.75</ele><time>2026-04-26T08:32:27Z</time></trkpt><trkpt lat="40.379302286971864" lon="15.60708329943307"><ele>478.5</ele><time>2026-04-26T08:32:28Z</time></trkpt><trkpt lat="40.37920373387105" lon="15.60722724091914"><ele>479.25</ele><time>2026-04-26T08:32:29Z</time></trkpt><trkpt lat="40.379112124780505" lon="15.607369250982057"><ele>480.0</ele><time>2026-04-26T08:32:30Z</time></trkpt><trkpt lat="40.379025854575374" lon="15.607508869164622"><ele>480.0</ele><time>2026-04-26T08:32:31Z</time></trkpt><trkpt lat="40.378939142686725" lon="15.607647952672487"><ele>480.0</ele><time>2026-04-26T08:32:32Z</time></trkpt><trkpt lat="40.37885997004639" lon="15.607794272676218"><ele>480.0</ele><time>2026-04-26T08:32:33Z</time></trkpt><trkpt lat="40.378779751538836" lon="15.60793430081573"><ele>480.0</ele><time>2026-04-26T08:32:34Z</time></trkpt><trkpt lat="40.37869834280254" lon="15.608071888710452"><ele>480.25</ele><time>2026-04-26T08:32:35Z</time></trkpt><trkpt lat="40.378620795451106" lon="15.608195752103466"><ele>480.5</ele><time>2026-04-26T08:32:36Z</time></trkpt><trkpt lat="40.378537472062774" lon="15.608320082086435"><ele>480.75</ele><time>2026-04-26T08:32:37Z</time></trkpt><trkpt lat="40.37845159554011" lon="15.608428867909979"><ele>481.0</ele><time>2026-04-26T08:32:38Z</time></trkpt><trkpt lat="40.37835675364421" lon="15.608516797321252"><ele>481.0</ele><time>2026-04-26T08:32:39Z</time></trkpt><trkpt lat="40.37826093710102" lon="15.608573486659076"><ele>481.0</ele><time>2026-04-26T08:32:40Z</time></trkpt><trkpt lat="40.37816869845768" lon="15.608616322859667"><ele>481.0</ele><time>2026-04-26T08:32:41Z</time></trkpt><trkpt lat="40.37806992576625" lon="15.608644820744814"><ele>481.0</ele><time>2026-04-26T08:32:42Z</time></trkpt><trkpt lat="40.377974224045154" lon="15.608656010375821"><ele>481.0</ele><time>2026-04-26T08:32:43Z</time></trkpt><trkpt lat="40.37788878896064" lon="15.608660014737412"><ele>480.1666666666667</ele><time>2026-04-26T08:32:44Z</time></trkpt><trkpt lat="40.377805397181575" lon="15.608666743410232"><ele>479.33333333333337</ele><time>2026-04-26T08:32:45Z</time></trkpt><trkpt lat="40.37772281560172" lon="15.608674055143535"><ele>478.5</ele><time>2026-04-26T08:32:46Z</time></trkpt><trkpt lat="40.37763422397693" lon="15.608687746740973"><ele>477.66666666666663</ele><time>2026-04-26T08:32:47Z</time></trkpt><trkpt lat="40.37754227309018" lon="15.608705238241573"><ele>476.8333333333333</ele><time>2026-04-26T08:32:48Z</time></trkpt><trkpt lat="40.37744435122784" lon="15.608726277582127"><ele>476.0</ele><time>2026-04-26T08:32:49Z</time></trkpt><trkpt lat="40.377342253328045" lon="15.60875199669271"><ele>475.99999999999994</ele><time>2026-04-26T08:32:50Z</time></trkpt><trkpt lat="40.37724821327703" lon="15.608777061350303"><ele>476.0</ele><time>2026-04-26T08:32:51Z</time></trkpt><trkpt lat="40.37716547146425" lon="15.60879660227533"><ele>476.0</ele><time>2026-04-26T08:32:52Z</time></trkpt><trkpt lat="40.377089211413214" lon="15.608815060969485"><ele>476.0</ele><time>2026-04-26T08:32:53Z</time></trkpt><trkpt lat="40.37701533505387" lon="15.608833114257811"><ele>475.99999999999994</ele><time>2026-04-26T08:32:54Z</time></trkpt><trkpt lat="40.37693503223756" lon="15.608856750828682"><ele>476.0</ele><time>2026-04-26T08:32:55Z</time></trkpt><trkpt lat="40.37683878996392" lon="15.60886384095593"><ele>475.75</ele><time>2026-04-26T08:32:56Z</time></trkpt><trkpt lat="40.37673399450153" lon="15.608913542451166"><ele>475.5</ele><time>2026-04-26T08:32:57Z</time></trkpt><trkpt lat="40.37659349662398" lon="15.608915258127702"><ele>475.25</ele><time>2026-04-26T08:32:58Z</time></trkpt><trkpt lat="40.37643660024751" lon="15.608869129978185"><ele>475.0</ele><time>2026-04-26T08:32:59Z</time></trkpt><trkpt lat="40.37628444065963" lon="15.608803126347572"><ele>473.6666666666667</ele><time>2026-04-26T08:33:00Z</time></trkpt><trkpt lat="40.376112124094966" lon="15.608744345323386"><ele>472.33333333333337</ele><time>2026-04-26T08:33:01Z</time></trkpt><trkpt lat="40.37592577277479" lon="15.608717097420886"><ele>471.0</ele><time>2026-04-26T08:33:02Z</time></trkpt><trkpt lat="40.37577540351842" lon="15.608701161383504"><ele>471.0</ele><time>2026-04-26T08:33:03Z</time></trkpt><trkpt lat="40.375633734100596" lon="15.608716322734157"><ele>471.0</ele><time>2026-04-26T08:33:04Z</time></trkpt><trkpt lat="40.37550526669224" lon="15.608761968160804"><ele>471.0</ele><time>2026-04-26T08:33:05Z</time></trkpt><trkpt lat="40.37540114981009" lon="15.608807411520306"><ele>471.0</ele><time>2026-04-26T08:33:06Z</time></trkpt><trkpt lat="40.37530291212689" lon="15.608856754096232"><ele>471.0</ele><time>2026-04-26T08:33:07Z</time></trkpt><trkpt lat="40.37522522199299" lon="15.608906895146209"><ele>471.0</ele><time>2026-04-26T08:33:08Z</time></trkpt><trkpt lat="40.37514344379801" lon="15.60895565545487"><ele>471.0</ele><time>2026-04-26T08:33:09Z</time></trkpt><trkpt lat="40.37507502131463" lon="15.608999602739221"><ele>471.0</ele><time>2026-04-26T08:33:10Z</time></trkpt><trkpt lat="40.375018017842955" lon="15.609048882786935"><ele>471.0</ele><time>2026-04-26T08:33:11Z</time></trkpt><trkpt lat="40.374962372762226" lon="15.609095247298407"><ele>471.0</ele><time>2026-04-26T08:33:12Z</time></trkpt><trkpt lat="40.37487074594754" lon="15.609166965368575"><ele>471.0</ele><time>2026-04-26T08:33:14Z</time></trkpt><trkpt lat="40.374782906236995" lon="15.609240304843151"><ele>471.0</ele><time>2026-04-26T08:33:16Z</time></trkpt><trkpt lat="40.37470927502563" lon="15.609258769854303"><ele>471.0</ele><time>2026-04-26T08:33:19Z</time></trkpt><trkpt lat="40.3746263068671" lon="15.60932396914052"><ele>471.0</ele><time>2026-04-26T08:33:53Z</time></trkpt><trkpt lat="40.37455565614565" lon="15.609385134936524"><ele>471.0</ele><time>2026-04-26T08:33:54Z</time></trkpt><trkpt lat="40.37445218576995" lon="15.609432335550565"><ele>471.25</ele><time>2026-04-26T08:33:55Z</time></trkpt><trkpt lat="40.374351141419716" lon="15.609482352159521"><ele>471.5</ele><time>2026-04-26T08:33:56Z</time></trkpt><trkpt lat="40.37425085531821" lon="15.609562231288331"><ele>471.75</ele><time>2026-04-26T08:33:57Z</time></trkpt><trkpt lat="40.37413327104139" lon="15.609649084087996"><ele>472.0</ele><time>2026-04-26T08:33:58Z</time></trkpt><trkpt lat="40.37400604954693" lon="15.609730587224538"><ele>472.25</ele><time>2026-04-26T08:33:59Z</time></trkpt><trkpt lat="40.37388052765929" lon="15.609827416803117"><ele>472.5</ele><time>2026-04-26T08:34:00Z</time></trkpt><trkpt lat="40.373760669601445" lon="15.609914861948896"><ele>472.75</ele><time>2026-04-26T08:34:01Z</time></trkpt><trkpt lat="40.37364908905416" lon="15.609993671883265"><ele>473.0</ele><time>2026-04-26T08:34:02Z</time></trkpt><trkpt lat="40.37354670922512" lon="15.610070534807038"><ele>473.0</ele><time>2026-04-26T08:34:03Z</time></trkpt><trkpt lat="40.3734506758285" lon="15.610148445302606"><ele>473.0</ele><time>2026-04-26T08:34:04Z</time></trkpt><trkpt lat="40.373352029612434" lon="15.610226270770724"><ele>473.0</ele><time>2026-04-26T08:34:05Z</time></trkpt><trkpt lat="40.37325205826935" lon="15.610293332203673"><ele>473.0</ele><time>2026-04-26T08:34:06Z</time></trkpt><trkpt lat="40.37314873846176" lon="15.610375363872318"><ele>473.0</ele><time>2026-04-26T08:34:07Z</time></trkpt><trkpt lat="40.37304529370851" lon="15.610461258393016"><ele>473.0</ele><time>2026-04-26T08:34:08Z</time></trkpt><trkpt lat="40.37293607303766" lon="15.610524401079307"><ele>473.0</ele><time>2026-04-26T08:34:09Z</time></trkpt><trkpt lat="40.37282185816605" lon="15.61059571223239"><ele>473.0</ele><time>2026-04-26T08:34:10Z</time></trkpt><trkpt lat="40.37269563532009" lon="15.610654954382646"><ele>473.0</ele><time>2026-04-26T08:34:11Z</time></trkpt><trkpt lat="40.37255490679614" lon="15.61071163556195"><ele>473.0</ele><time>2026-04-26T08:34:12Z</time></trkpt><trkpt lat="40.372408941725126" lon="15.610753771216748"><ele>473.0</ele><time>2026-04-26T08:34:13Z</time></trkpt><trkpt lat="40.37225982275223" lon="15.610797112453893"><ele>473.0</ele><time>2026-04-26T08:34:14Z</time></trkpt><trkpt lat="40.37211890793634" lon="15.610855435665094"><ele>473.5</ele><time>2026-04-26T08:34:15Z</time></trkpt><trkpt lat="40.37197108318407" lon="15.610916814391185"><ele>474.0</ele><time>2026-04-26T08:34:16Z</time></trkpt><trkpt lat="40.37183272092043" lon="15.610974268120183"><ele>474.5</ele><time>2026-04-26T08:34:17Z</time></trkpt><trkpt lat="40.37169584873688" lon="15.611031103113698"><ele>475.0</ele><time>2026-04-26T08:34:18Z</time></trkpt><trkpt lat="40.3715585391808" lon="15.61108739636983"><ele>475.0</ele><time>2026-04-26T08:34:19Z</time></trkpt><trkpt lat="40.371427738343904" lon="15.611140718100264"><ele>475.0</ele><time>2026-04-26T08:34:20Z</time></trkpt><trkpt lat="40.371305985464495" lon="15.611191208999244"><ele>475.0</ele><time>2026-04-26T08:34:21Z</time></trkpt><trkpt lat="40.37118533327023" lon="15.611241488453922"><ele>475.0</ele><time>2026-04-26T08:34:22Z</time></trkpt><trkpt lat="40.37105986009774" lon="15.611293777138453"><ele>474.5</ele><time>2026-04-26T08:34:23Z</time></trkpt><trkpt lat="40.37093470762789" lon="15.611350657115237"><ele>474.0</ele><time>2026-04-26T08:34:24Z</time></trkpt><trkpt lat="40.37081304732253" lon="15.611407211272196"><ele>473.5</ele><time>2026-04-26T08:34:25Z</time></trkpt><trkpt lat="40.37068629141709" lon="15.611482009721101"><ele>473.0</ele><time>2026-04-26T08:34:26Z</time></trkpt><trkpt lat="40.370573696327064" lon="15.611590917234546"><ele>473.25</ele><time>2026-04-26T08:34:27Z</time></trkpt><trkpt lat="40.37044336381253" lon="15.611670769668788"><ele>473.5</ele><time>2026-04-26T08:34:28Z</time></trkpt><trkpt lat="40.37033441361885" lon="15.611797223705702"><ele>473.75</ele><time>2026-04-26T08:34:29Z</time></trkpt><trkpt lat="40.37021869554399" lon="15.611891141635754"><ele>474.0</ele><time>2026-04-26T08:34:30Z</time></trkpt><trkpt lat="40.37010579946527" lon="15.611986131439576"><ele>474.0</ele><time>2026-04-26T08:34:31Z</time></trkpt><trkpt lat="40.36999407372592" lon="15.612080971067364"><ele>474.0</ele><time>2026-04-26T08:34:32Z</time></trkpt><trkpt lat="40.36986973246109" lon="15.612152432608521"><ele>474.0</ele><time>2026-04-26T08:34:33Z</time></trkpt><trkpt lat="40.36976444937505" lon="15.612263231906262"><ele>474.0</ele><time>2026-04-26T08:34:34Z</time></trkpt><trkpt lat="40.36962853516414" lon="15.61235439555934"><ele>474.0</ele><time>2026-04-26T08:34:35Z</time></trkpt><trkpt lat="40.36949236039693" lon="15.612457767392119"><ele>474.0</ele><time>2026-04-26T08:34:36Z</time></trkpt><trkpt lat="40.36935890369892" lon="15.61257652353703"><ele>474.0</ele><time>2026-04-26T08:34:37Z</time></trkpt><trkpt lat="40.36922228484166" lon="15.612691489960856"><ele>474.0</ele><time>2026-04-26T08:34:38Z</time></trkpt><trkpt lat="40.369081817357895" lon="15.612809386960235"><ele>474.0</ele><time>2026-04-26T08:34:39Z</time></trkpt><trkpt lat="40.368930946569776" lon="15.612934476154118"><ele>474.0</ele><time>2026-04-26T08:34:40Z</time></trkpt><trkpt lat="40.36877377466172" lon="15.613067443581858"><ele>474.0</ele><time>2026-04-26T08:34:41Z</time></trkpt><trkpt lat="40.36862316859755" lon="15.61318759189541"><ele>474.0</ele><time>2026-04-26T08:34:42Z</time></trkpt><trkpt lat="40.36847287687935" lon="15.613311385396807"><ele>474.0</ele><time>2026-04-26T08:34:43Z</time></trkpt><trkpt lat="40.36832245821597" lon="15.613436190264402"><ele>474.0</ele><time>2026-04-26T08:34:44Z</time></trkpt><trkpt lat="40.368170800224014" lon="15.61356946312354"><ele>474.0</ele><time>2026-04-26T08:34:45Z</time></trkpt><trkpt lat="40.36802110562826" lon="15.613696570906157"><ele>474.0</ele><time>2026-04-26T08:34:46Z</time></trkpt><trkpt lat="40.36787365862151" lon="15.613822767205056"><ele>473.66666666666663</ele><time>2026-04-26T08:34:47Z</time></trkpt><trkpt lat="40.36772805024271" lon="15.613943478484204"><ele>473.3333333333333</ele><time>2026-04-26T08:34:48Z</time></trkpt><trkpt lat="40.36758641242623" lon="15.614058624354017"><ele>473.0</ele><time>2026-04-26T08:34:49Z</time></trkpt><trkpt lat="40.36744887612392" lon="15.6141775064775"><ele>473.0</ele><time>2026-04-26T08:34:50Z</time></trkpt><trkpt lat="40.36731773670844" lon="15.614288936762767"><ele>473.0</ele><time>2026-04-26T08:34:51Z</time></trkpt><trkpt lat="40.36719583383032" lon="15.614395906255853"><ele>473.0</ele><time>2026-04-26T08:34:52Z</time></trkpt><trkpt lat="40.367068894482856" lon="15.61450143452611"><ele>473.25</ele><time>2026-04-26T08:34:53Z</time></trkpt><trkpt lat="40.3669451049288" lon="15.614601305603992"><ele>473.5</ele><time>2026-04-26T08:34:54Z</time></trkpt><trkpt lat="40.36682135969554" lon="15.61470761644184"><ele>473.75</ele><time>2026-04-26T08:34:55Z</time></trkpt><trkpt lat="40.366699955907436" lon="15.614813720280058"><ele>474.0</ele><time>2026-04-26T08:34:56Z</time></trkpt><trkpt lat="40.36657544260555" lon="15.614918068237785"><ele>474.0</ele><time>2026-04-26T08:34:57Z</time></trkpt><trkpt lat="40.36644918775153" lon="15.61502028414719"><ele>474.0</ele><time>2026-04-26T08:34:58Z</time></trkpt><trkpt lat="40.366320327808225" lon="15.615129114932612"><ele>474.0</ele><time>2026-04-26T08:34:59Z</time></trkpt><trkpt lat="40.366191285947664" lon="15.61523577087174"><ele>473.33333333333337</ele><time>2026-04-26T08:35:00Z</time></trkpt><trkpt lat="40.36605973827861" lon="15.615347274808414"><ele>472.6666666666667</ele><time>2026-04-26T08:35:01Z</time></trkpt><trkpt lat="40.36592542012572" lon="15.61546011963886"><ele>472.0</ele><time>2026-04-26T08:35:02Z</time></trkpt><trkpt lat="40.36578708041945" lon="15.615575712136208"><ele>472.0</ele><time>2026-04-26T08:35:03Z</time></trkpt><trkpt lat="40.36565091989922" lon="15.61568783626597"><ele>472.0</ele><time>2026-04-26T08:35:04Z</time></trkpt><trkpt lat="40.36551619927134" lon="15.615794340486673"><ele>472.0</ele><time>2026-04-26T08:35:05Z</time></trkpt><trkpt lat="40.36538159844624" lon="15.61589866168847"><ele>472.0</ele><time>2026-04-26T08:35:06Z</time></trkpt><trkpt lat="40.36525474110634" lon="15.616009973555862"><ele>472.0</ele><time>2026-04-26T08:35:07Z</time></trkpt><trkpt lat="40.365131580780385" lon="15.61611888975808"><ele>472.0</ele><time>2026-04-26T08:35:08Z</time></trkpt><trkpt lat="40.36501343301803" lon="15.616215732296425"><ele>472.0</ele><time>2026-04-26T08:35:09Z</time></trkpt><trkpt lat="40.364897864703366" lon="15.616311574599099"><ele>472.0</ele><time>2026-04-26T08:35:10Z</time></trkpt><trkpt lat="40.364783789801514" lon="15.61640738350412"><ele>472.0</ele><time>2026-04-26T08:35:11Z</time></trkpt><trkpt lat="40.364669177755744" lon="15.616500351894647"><ele>472.0</ele><time>2026-04-26T08:35:12Z</time></trkpt><trkpt lat="40.364549662066466" lon="15.616606147893044"><ele>472.0</ele><time>2026-04-26T08:35:13Z</time></trkpt><trkpt lat="40.36442163791126" lon="15.61672035821532"><ele>471.6666666666667</ele><time>2026-04-26T08:35:14Z</time></trkpt><trkpt lat="40.36429188624865" lon="15.616831367010251"><ele>471.33333333333337</ele><time>2026-04-26T08:35:15Z</time></trkpt><trkpt lat="40.36416327360245" lon="15.616939931996574"><ele>471.0</ele><time>2026-04-26T08:35:16Z</time></trkpt><trkpt lat="40.36403861963644" lon="15.617043812713641"><ele>471.0</ele><time>2026-04-26T08:35:17Z</time></trkpt><trkpt lat="40.363912111395614" lon="15.617147959225095"><ele>471.0</ele><time>2026-04-26T08:35:18Z</time></trkpt><trkpt lat="40.363793621754475" lon="15.617252231025798"><ele>471.0</ele><time>2026-04-26T08:35:19Z</time></trkpt><trkpt lat="40.36367498674821" lon="15.61735589642937"><ele>471.0</ele><time>2026-04-26T08:35:20Z</time></trkpt><trkpt lat="40.363546366948015" lon="15.617455196991111"><ele>470.33333333333337</ele><time>2026-04-26T08:35:21Z</time></trkpt><trkpt lat="40.36341249284403" lon="15.617563910511151"><ele>469.6666666666667</ele><time>2026-04-26T08:35:22Z</time></trkpt><trkpt lat="40.3632697532042" lon="15.617690148098596"><ele>469.0</ele><time>2026-04-26T08:35:23Z</time></trkpt><trkpt lat="40.363127095247755" lon="15.617806401499413"><ele>468.6666666666667</ele><time>2026-04-26T08:35:24Z</time></trkpt><trkpt lat="40.36298296240139" lon="15.6179258799475"><ele>468.33333333333337</ele><time>2026-04-26T08:35:25Z</time></trkpt><trkpt lat="40.362838448666224" lon="15.618046722085891"><ele>468.0</ele><time>2026-04-26T08:35:26Z</time></trkpt><trkpt lat="40.362694343880754" lon="15.618169426817628"><ele>468.0</ele><time>2026-04-26T08:35:27Z</time></trkpt><trkpt lat="40.36255009387287" lon="15.618296290981856"><ele>468.0</ele><time>2026-04-26T08:35:28Z</time></trkpt><trkpt lat="40.36240719127527" lon="15.618418857108228"><ele>468.0</ele><time>2026-04-26T08:35:29Z</time></trkpt><trkpt lat="40.362264511437104" lon="15.618536435968766"><ele>468.33333333333337</ele><time>2026-04-26T08:35:30Z</time></trkpt><trkpt lat="40.36212400165677" lon="15.618652275813233"><ele>468.6666666666667</ele><time>2026-04-26T08:35:31Z</time></trkpt><trkpt lat="40.361984508102154" lon="15.618771106225186"><ele>469.0</ele><time>2026-04-26T08:35:32Z</time></trkpt><trkpt lat="40.36184391045201" lon="15.618888823092597"><ele>469.0</ele><time>2026-04-26T08:35:33Z</time></trkpt><trkpt lat="40.36170088821017" lon="15.61900426646037"><ele>469.0</ele><time>2026-04-26T08:35:34Z</time></trkpt><trkpt lat="40.36155673996937" lon="15.619127098267086"><ele>469.0</ele><time>2026-04-26T08:35:35Z</time></trkpt><trkpt lat="40.3614098927509" lon="15.619249581308392"><ele>469.0</ele><time>2026-04-26T08:35:36Z</time></trkpt><trkpt lat="40.36126355704499" lon="15.61937004777427"><ele>469.0</ele><time>2026-04-26T08:35:37Z</time></trkpt><trkpt lat="40.361115825638215" lon="15.619491859529003"><ele>469.0</ele><time>2026-04-26T08:35:38Z</time></trkpt><trkpt lat="40.36096480197891" lon="15.619620510088007"><ele>469.33333333333337</ele><time>2026-04-26T08:35:39Z</time></trkpt><trkpt lat="40.36081647748227" lon="15.619747100543377"><ele>469.66666666666663</ele><time>2026-04-26T08:35:40Z</time></trkpt><trkpt lat="40.360669288142674" lon="15.619871386882373"><ele>470.0</ele><time>2026-04-26T08:35:41Z</time></trkpt><trkpt lat="40.36052545993797" lon="15.619993301894194"><ele>470.3333333333333</ele><time>2026-04-26T08:35:42Z</time></trkpt><trkpt lat="40.360382081567664" lon="15.62011189382807"><ele>470.66666666666663</ele><time>2026-04-26T08:35:43Z</time></trkpt><trkpt lat="40.360240141373644" lon="15.62022568607961"><ele>471.0</ele><time>2026-04-26T08:35:44Z</time></trkpt><trkpt lat="40.36010427009279" lon="15.620337411023296"><ele>471.0</ele><time>2026-04-26T08:35:45Z</time></trkpt><trkpt lat="40.35997367843259" lon="15.620444686973297"><ele>471.0</ele><time>2026-04-26T08:35:46Z</time></trkpt><trkpt lat="40.35984807422426" lon="15.620550420723633"><ele>471.0</ele><time>2026-04-26T08:35:47Z</time></trkpt><trkpt lat="40.35972081999377" lon="15.620660157638124"><ele>470.66666666666663</ele><time>2026-04-26T08:35:48Z</time></trkpt><trkpt lat="40.3595891668769" lon="15.620771261384498"><ele>470.3333333333333</ele><time>2026-04-26T08:35:49Z</time></trkpt><trkpt lat="40.359455774632124" lon="15.620883698879123"><ele>470.0</ele><time>2026-04-26T08:35:50Z</time></trkpt><trkpt lat="40.35932383678244" lon="15.620997253890478"><ele>470.0</ele><time>2026-04-26T08:35:51Z</time></trkpt><trkpt lat="40.35919132123803" lon="15.621109528434948"><ele>470.0</ele><time>2026-04-26T08:35:52Z</time></trkpt><trkpt lat="40.35906093642716" lon="15.621218703300153"><ele>470.0</ele><time>2026-04-26T08:35:53Z</time></trkpt><trkpt lat="40.358929979689954" lon="15.621327636488122"><ele>470.0</ele><time>2026-04-26T08:35:54Z</time></trkpt><trkpt lat="40.35880070594787" lon="15.621436576127108"><ele>470.0</ele><time>2026-04-26T08:35:55Z</time></trkpt><trkpt lat="40.358674316983624" lon="15.621545774486528"><ele>470.0</ele><time>2026-04-26T08:35:56Z</time></trkpt><trkpt lat="40.35855413725193" lon="15.621644424246258"><ele>470.0</ele><time>2026-04-26T08:35:57Z</time></trkpt><trkpt lat="40.35844074395259" lon="15.62173674651668"><ele>470.0</ele><time>2026-04-26T08:35:58Z</time></trkpt><trkpt lat="40.358337125627855" lon="15.62181927364572"><ele>470.0</ele><time>2026-04-26T08:35:59Z</time></trkpt><trkpt lat="40.35823092152001" lon="15.621906916524237"><ele>470.0</ele><time>2026-04-26T08:36:00Z</time></trkpt><trkpt lat="40.3581209142195" lon="15.6219988275529"><ele>470.0</ele><time>2026-04-26T08:36:01Z</time></trkpt><trkpt lat="40.35800467486497" lon="15.622107643941112"><ele>470.3333333333333</ele><time>2026-04-26T08:36:02Z</time></trkpt><trkpt lat="40.35788070923525" lon="15.622217041349773"><ele>470.66666666666663</ele><time>2026-04-26T08:36:03Z</time></trkpt><trkpt lat="40.357741957699254" lon="15.622339918462217"><ele>471.0</ele><time>2026-04-26T08:36:04Z</time></trkpt><trkpt lat="40.35758964230982" lon="15.622473970184721"><ele>471.0</ele><time>2026-04-26T08:36:05Z</time></trkpt><trkpt lat="40.35743384787574" lon="15.622600834143567"><ele>471.0</ele><time>2026-04-26T08:36:06Z</time></trkpt><trkpt lat="40.3572736442597" lon="15.622732090685288"><ele>471.0</ele><time>2026-04-26T08:36:07Z</time></trkpt><trkpt lat="40.357108874863464" lon="15.622857154667429"><ele>470.66666666666663</ele><time>2026-04-26T08:36:08Z</time></trkpt><trkpt lat="40.35694869862085" lon="15.622991581162202"><ele>470.3333333333333</ele><time>2026-04-26T08:36:09Z</time></trkpt><trkpt lat="40.35679008186967" lon="15.623124698861268"><ele>470.0</ele><time>2026-04-26T08:36:10Z</time></trkpt><trkpt lat="40.356639311868875" lon="15.623253246387698"><ele>470.0</ele><time>2026-04-26T08:36:11Z</time></trkpt><trkpt lat="40.35649483580157" lon="15.623392657365805"><ele>470.0</ele><time>2026-04-26T08:36:12Z</time></trkpt><trkpt lat="40.35634777929623" lon="15.623506130931796"><ele>470.0</ele><time>2026-04-26T08:36:13Z</time></trkpt><trkpt lat="40.35621381894522" lon="15.623609619067135"><ele>469.25</ele><time>2026-04-26T08:36:14Z</time></trkpt><trkpt lat="40.356097040068335" lon="15.623704789851216"><ele>468.5</ele><time>2026-04-26T08:36:15Z</time></trkpt><trkpt lat="40.35598761305081" lon="15.623795164037281"><ele>467.75</ele><time>2026-04-26T08:36:16Z</time></trkpt><trkpt lat="40.355882558201124" lon="15.623885346894834"><ele>467.0</ele><time>2026-04-26T08:36:17Z</time></trkpt><trkpt lat="40.35577734807582" lon="15.62397418020576"><ele>467.0</ele><time>2026-04-26T08:36:18Z</time></trkpt><trkpt lat="40.35567627043674" lon="15.624052470354256"><ele>467.0</ele><time>2026-04-26T08:36:19Z</time></trkpt><trkpt lat="40.35557750466969" lon="15.624122576846652"><ele>467.0</ele><time>2026-04-26T08:36:20Z</time></trkpt><trkpt lat="40.35547621209822" lon="15.624185229329093"><ele>467.0</ele><time>2026-04-26T08:36:21Z</time></trkpt><trkpt lat="40.35537466998127" lon="15.624241225982608"><ele>466.75</ele><time>2026-04-26T08:36:22Z</time></trkpt><trkpt lat="40.35526621085182" lon="15.624290844823784"><ele>466.5</ele><time>2026-04-26T08:36:23Z</time></trkpt><trkpt lat="40.35514417759228" lon="15.624332699294449"><ele>466.25</ele><time>2026-04-26T08:36:24Z</time></trkpt><trkpt lat="40.35500484764871" lon="15.624367384941001"><ele>466.0</ele><time>2026-04-26T08:36:25Z</time></trkpt><trkpt lat="40.354861544410824" lon="15.624383684729008"><ele>466.0</ele><time>2026-04-26T08:36:26Z</time></trkpt><trkpt lat="40.354709337556045" lon="15.62438893388272"><ele>466.0</ele><time>2026-04-26T08:36:27Z</time></trkpt><trkpt lat="40.35453826689675" lon="15.624395718409762"><ele>466.0</ele><time>2026-04-26T08:36:28Z</time></trkpt><trkpt lat="40.354350047817945" lon="15.624414419116906"><ele>465.33333333333337</ele><time>2026-04-26T08:36:29Z</time></trkpt><trkpt lat="40.35416004063163" lon="15.624428861739359"><ele>464.66666666666663</ele><time>2026-04-26T08:36:30Z</time></trkpt><trkpt lat="40.35398410604439" lon="15.62443651916526"><ele>464.0</ele><time>2026-04-26T08:36:31Z</time></trkpt><trkpt lat="40.353815846387" lon="15.624440628959128"><ele>463.3333333333333</ele><time>2026-04-26T08:36:32Z</time></trkpt><trkpt lat="40.35365738707546" lon="15.624444709813316"><ele>462.66666666666663</ele><time>2026-04-26T08:36:33Z</time></trkpt><trkpt lat="40.35350605679604" lon="15.62444930440627"><ele>462.0</ele><time>2026-04-26T08:36:34Z</time></trkpt><trkpt lat="40.35335361859007" lon="15.624457560654387"><ele>462.0</ele><time>2026-04-26T08:36:35Z</time></trkpt><trkpt lat="40.35320183955116" lon="15.624468101056111"><ele>462.0</ele><time>2026-04-26T08:36:36Z</time></trkpt><trkpt lat="40.35303994474704" lon="15.624476780957249"><ele>462.0</ele><time>2026-04-26T08:36:37Z</time></trkpt><trkpt lat="40.352857724693514" lon="15.624478191918401"><ele>462.33333333333337</ele><time>2026-04-26T08:36:38Z</time></trkpt><trkpt lat="40.35266374165971" lon="15.624477675356564"><ele>462.6666666666667</ele><time>2026-04-26T08:36:39Z</time></trkpt><trkpt lat="40.35245564617118" lon="15.624475034596534"><ele>463.0</ele><time>2026-04-26T08:36:40Z</time></trkpt><trkpt lat="40.3522398982021" lon="15.624472348784431"><ele>463.33333333333337</ele><time>2026-04-26T08:36:41Z</time></trkpt><trkpt lat="40.35203473219261" lon="15.624477903938052"><ele>463.66666666666663</ele><time>2026-04-26T08:36:42Z</time></trkpt><trkpt lat="40.35183500042246" lon="15.624485083867446"><ele>464.0</ele><time>2026-04-26T08:36:43Z</time></trkpt><trkpt lat="40.35163935138001" lon="15.624491870011102"><ele>464.3333333333333</ele><time>2026-04-26T08:36:44Z</time></trkpt><trkpt lat="40.351437143524386" lon="15.62450274775367"><ele>464.66666666666663</ele><time>2026-04-26T08:36:45Z</time></trkpt><trkpt lat="40.351233684072746" lon="15.624509399234867"><ele>465.0</ele><time>2026-04-26T08:36:46Z</time></trkpt><trkpt lat="40.35102510161938" lon="15.624523097305682"><ele>465.33333333333337</ele><time>2026-04-26T08:36:47Z</time></trkpt><trkpt lat="40.35080570675758" lon="15.624545513799925"><ele>465.6666666666667</ele><time>2026-04-26T08:36:48Z</time></trkpt><trkpt lat="40.350579229260525" lon="15.624563420990924"><ele>466.0</ele><time>2026-04-26T08:36:49Z</time></trkpt><trkpt lat="40.35034769421866" lon="15.624577305242173"><ele>466.5</ele><time>2026-04-26T08:36:50Z</time></trkpt><trkpt lat="40.35011398190082" lon="15.624589016355069"><ele>467.0</ele><time>2026-04-26T08:36:51Z</time></trkpt><trkpt lat="40.34988724903306" lon="15.624600446464076"><ele>467.5</ele><time>2026-04-26T08:36:52Z</time></trkpt><trkpt lat="40.34966210796679" lon="15.624609258695736"><ele>468.0</ele><time>2026-04-26T08:36:53Z</time></trkpt><trkpt lat="40.34942546307095" lon="15.62462125586225"><ele>468.0</ele><time>2026-04-26T08:36:54Z</time></trkpt><trkpt lat="40.34919375706258" lon="15.624627539020693"><ele>468.0</ele><time>2026-04-26T08:36:55Z</time></trkpt><trkpt lat="40.348981102444874" lon="15.624623744808265"><ele>468.0</ele><time>2026-04-26T08:36:56Z</time></trkpt><trkpt lat="40.34878118204225" lon="15.624630061118749"><ele>468.33333333333337</ele><time>2026-04-26T08:36:57Z</time></trkpt><trkpt lat="40.34859062570352" lon="15.62463428121053"><ele>468.6666666666667</ele><time>2026-04-26T08:36:58Z</time></trkpt><trkpt lat="40.34840844717067" lon="15.624640936516505"><ele>469.0</ele><time>2026-04-26T08:36:59Z</time></trkpt><trkpt lat="40.348226450841494" lon="15.624651615248764"><ele>469.0</ele><time>2026-04-26T08:37:00Z</time></trkpt><trkpt lat="40.34804366271298" lon="15.624661456757524"><ele>469.0</ele><time>2026-04-26T08:37:01Z</time></trkpt><trkpt lat="40.34786090018125" lon="15.624675608973199"><ele>469.0</ele><time>2026-04-26T08:37:02Z</time></trkpt><trkpt lat="40.34767417881384" lon="15.62468585587881"><ele>469.33333333333337</ele><time>2026-04-26T08:37:03Z</time></trkpt><trkpt lat="40.34747946854745" lon="15.624697469074965"><ele>469.66666666666663</ele><time>2026-04-26T08:37:04Z</time></trkpt><trkpt lat="40.34727695565774" lon="15.624705915037957"><ele>470.0</ele><time>2026-04-26T08:37:05Z</time></trkpt><trkpt lat="40.34708041189455" lon="15.62470997618679"><ele>470.0</ele><time>2026-04-26T08:37:06Z</time></trkpt><trkpt lat="40.346884836962666" lon="15.624718959641243"><ele>470.0</ele><time>2026-04-26T08:37:07Z</time></trkpt><trkpt lat="40.34668297366386" lon="15.624732005321498"><ele>470.0</ele><time>2026-04-26T08:37:08Z</time></trkpt><trkpt lat="40.346480915378876" lon="15.62474214037804"><ele>470.0</ele><time>2026-04-26T08:37:09Z</time></trkpt><trkpt lat="40.34628019710007" lon="15.624748280601327"><ele>470.0</ele><time>2026-04-26T08:37:10Z</time></trkpt><trkpt lat="40.34607891114382" lon="15.624759687960939"><ele>470.0</ele><time>2026-04-26T08:37:11Z</time></trkpt><trkpt lat="40.34587622539959" lon="15.624769651450976"><ele>470.0</ele><time>2026-04-26T08:37:12Z</time></trkpt><trkpt lat="40.345675065129775" lon="15.624774416688366"><ele>470.0</ele><time>2026-04-26T08:37:13Z</time></trkpt><trkpt lat="40.345472337265996" lon="15.624786173935313"><ele>470.0</ele><time>2026-04-26T08:37:14Z</time></trkpt><trkpt lat="40.34527416473566" lon="15.624796021781654"><ele>470.3333333333333</ele><time>2026-04-26T08:37:15Z</time></trkpt><trkpt lat="40.34507440720675" lon="15.624803958300761"><ele>470.66666666666663</ele><time>2026-04-26T08:37:16Z</time></trkpt><trkpt lat="40.34487995681313" lon="15.624814663379626"><ele>471.0</ele><time>2026-04-26T08:37:17Z</time></trkpt><trkpt lat="40.34469124244096" lon="15.624820346502027"><ele>471.66666666666663</ele><time>2026-04-26T08:37:18Z</time></trkpt><trkpt lat="40.34451262621812" lon="15.62482486007558"><ele>472.3333333333333</ele><time>2026-04-26T08:37:19Z</time></trkpt><trkpt lat="40.34434304593865" lon="15.624831065817538"><ele>473.0</ele><time>2026-04-26T08:37:20Z</time></trkpt><trkpt lat="40.34418026943921" lon="15.62483947508542"><ele>473.0</ele><time>2026-04-26T08:37:21Z</time></trkpt><trkpt lat="40.34400806802957" lon="15.62484841390825"><ele>473.0</ele><time>2026-04-26T08:37:22Z</time></trkpt><trkpt lat="40.343828745765826" lon="15.624858198689724"><ele>473.0</ele><time>2026-04-26T08:37:23Z</time></trkpt><trkpt lat="40.34364040911564" lon="15.62487275654183"><ele>472.66666666666663</ele><time>2026-04-26T08:37:24Z</time></trkpt><trkpt lat="40.343451535019895" lon="15.624882516666712"><ele>472.33333333333337</ele><time>2026-04-26T08:37:25Z</time></trkpt><trkpt lat="40.343275408439446" lon="15.624888971690895"><ele>472.0</ele><time>2026-04-26T08:37:26Z</time></trkpt><trkpt lat="40.34310687486215" lon="15.62489179577703"><ele>472.33333333333337</ele><time>2026-04-26T08:37:27Z</time></trkpt><trkpt lat="40.34295015845943" lon="15.624897607237896"><ele>472.66666666666663</ele><time>2026-04-26T08:37:28Z</time></trkpt><trkpt lat="40.34279813741518" lon="15.624906090069436"><ele>473.0</ele><time>2026-04-26T08:37:29Z</time></trkpt><trkpt lat="40.342656543043326" lon="15.624909276194042"><ele>473.0</ele><time>2026-04-26T08:37:30Z</time></trkpt><trkpt lat="40.34253206373113" lon="15.62490792313067"><ele>473.0</ele><time>2026-04-26T08:37:31Z</time></trkpt><trkpt lat="40.34241850547598" lon="15.624862236986305"><ele>473.0</ele><time>2026-04-26T08:37:32Z</time></trkpt><trkpt lat="40.34232364522612" lon="15.62479915015523"><ele>473.0</ele><time>2026-04-26T08:37:33Z</time></trkpt><trkpt lat="40.34224110306125" lon="15.624723670803814"><ele>472.99999999999994</ele><time>2026-04-26T08:37:34Z</time></trkpt><trkpt lat="40.342197283200704" lon="15.624615579947944"><ele>473.0</ele><time>2026-04-26T08:37:35Z</time></trkpt><trkpt lat="40.342160141430405" lon="15.624517139430703"><ele>473.0</ele><time>2026-04-26T08:37:36Z</time></trkpt><trkpt lat="40.34211284529998" lon="15.624428460724705"><ele>473.0</ele><time>2026-04-26T08:37:37Z</time></trkpt><trkpt lat="40.34203924105491" lon="15.624378874640088"><ele>472.99999999999994</ele><time>2026-04-26T08:37:38Z</time></trkpt><trkpt lat="40.34195155930467" lon="15.624369998635071"><ele>473.0</ele><time>2026-04-26T08:37:39Z</time></trkpt><trkpt lat="40.341861708257554" lon="15.624390221969712"><ele>473.0</ele><time>2026-04-26T08:37:40Z</time></trkpt><trkpt lat="40.34176131448441" lon="15.624443712961193"><ele>473.0</ele><time>2026-04-26T08:37:41Z</time></trkpt><trkpt lat="40.34164507676989" lon="15.624526033734455"><ele>473.0</ele><time>2026-04-26T08:37:42Z</time></trkpt><trkpt lat="40.34153831261932" lon="15.62460941697098"><ele>473.0</ele><time>2026-04-26T08:37:43Z</time></trkpt><trkpt lat="40.341429789959946" lon="15.624685819258882"><ele>473.2</ele><time>2026-04-26T08:37:44Z</time></trkpt><trkpt lat="40.34132835962054" lon="15.624758032798526"><ele>473.4</ele><time>2026-04-26T08:37:45Z</time></trkpt><trkpt lat="40.341231887799275" lon="15.624831386187982"><ele>473.59999999999997</ele><time>2026-04-26T08:37:46Z</time></trkpt><trkpt lat="40.341141402471855" lon="15.62489305639872"><ele>473.79999999999995</ele><time>2026-04-26T08:37:47Z</time></trkpt><trkpt lat="40.34104551602741" lon="15.624943284516155"><ele>474.0</ele><time>2026-04-26T08:37:48Z</time></trkpt><trkpt lat="40.340933875523916" lon="15.624981392039995"><ele>474.0</ele><time>2026-04-26T08:37:49Z</time></trkpt><trkpt lat="40.34080485949162" lon="15.624995753504269"><ele>474.0</ele><time>2026-04-26T08:37:50Z</time></trkpt><trkpt lat="40.34066380039666" lon="15.625002293161037"><ele>474.0</ele><time>2026-04-26T08:37:51Z</time></trkpt><trkpt lat="40.34053206508376" lon="15.625005610195975"><ele>474.0</ele><time>2026-04-26T08:37:52Z</time></trkpt><trkpt lat="40.34040582561515" lon="15.62501105493881"><ele>474.5</ele><time>2026-04-26T08:37:53Z</time></trkpt><trkpt lat="40.340279460554676" lon="15.62502028776399"><ele>475.0</ele><time>2026-04-26T08:37:54Z</time></trkpt><trkpt lat="40.34016050424179" lon="15.62502450887876"><ele>475.5</ele><time>2026-04-26T08:37:55Z</time></trkpt><trkpt lat="40.34004195871353" lon="15.625032074686844"><ele>476.0</ele><time>2026-04-26T08:37:56Z</time></trkpt><trkpt lat="40.339924125275154" lon="15.62503767902509"><ele>476.0</ele><time>2026-04-26T08:37:57Z</time></trkpt><trkpt lat="40.33981573359684" lon="15.625041926787329"><ele>476.0</ele><time>2026-04-26T08:37:58Z</time></trkpt><trkpt lat="40.339713249588414" lon="15.62504275770745"><ele>476.0</ele><time>2026-04-26T08:37:59Z</time></trkpt><trkpt lat="40.33961211490008" lon="15.625049186628932"><ele>476.0</ele><time>2026-04-26T08:38:00Z</time></trkpt><trkpt lat="40.33951561766032" lon="15.625055929661219"><ele>476.0</ele><time>2026-04-26T08:38:01Z</time></trkpt><trkpt lat="40.339427161078746" lon="15.625052753177677"><ele>475.99999999999994</ele><time>2026-04-26T08:38:02Z</time></trkpt><trkpt lat="40.33934297848359" lon="15.625058225370932"><ele>476.0</ele><time>2026-04-26T08:38:03Z</time></trkpt><trkpt lat="40.339259051062136" lon="15.62506103387717"><ele>476.0</ele><time>2026-04-26T08:38:04Z</time></trkpt><trkpt lat="40.339170094881574" lon="15.625062843744965"><ele>476.0</ele><time>2026-04-26T08:38:05Z</time></trkpt><trkpt lat="40.33908764962167" lon="15.62506369034959"><ele>475.99999999999994</ele><time>2026-04-26T08:38:06Z</time></trkpt><trkpt lat="40.33900952910848" lon="15.625064889164562"><ele>476.0</ele><time>2026-04-26T08:38:07.011Z</time></trkpt><trkpt lat="40.3389444347333" lon="15.62505993666919"><ele>476.0</ele><time>2026-04-26T08:38:08.012Z</time></trkpt><trkpt lat="40.338850858419484" lon="15.625048649039059"><ele>476.0</ele><time>2026-04-26T08:38:10.012Z</time></trkpt><trkpt lat="40.33867914233388" lon="15.625051539405831"><ele>476.0</ele><time>2026-04-26T08:38:13Z</time></trkpt><trkpt lat="40.33861753049032" lon="15.625085713217002"><ele>476.0</ele><time>2026-04-26T08:38:15Z</time></trkpt><trkpt lat="40.338535767748425" lon="15.62510871957508"><ele>476.0</ele><time>2026-04-26T08:38:18Z</time></trkpt><trkpt lat="40.338425989945534" lon="15.62509402737578"><ele>475.99999999999994</ele><time>2026-04-26T08:38:20Z</time></trkpt><trkpt lat="40.33836209019919" lon="15.625096801003432"><ele>476.0</ele><time>2026-04-26T08:38:21Z</time></trkpt><trkpt lat="40.338290454290366" lon="15.625099984821798"><ele>476.0</ele><time>2026-04-26T08:38:22Z</time></trkpt><trkpt lat="40.33821219058387" lon="15.62510346320637"><ele>476.0</ele><time>2026-04-26T08:38:23Z</time></trkpt><trkpt lat="40.33813224753328" lon="15.625107386060183"><ele>475.99999999999994</ele><time>2026-04-26T08:38:24Z</time></trkpt><trkpt lat="40.338053735767254" lon="15.625111647300612"><ele>476.0</ele><time>2026-04-26T08:38:25Z</time></trkpt><trkpt lat="40.33797073380407" lon="15.625161545413668"><ele>476.16666666666663</ele><time>2026-04-26T08:38:26Z</time></trkpt><trkpt lat="40.33788534872075" lon="15.625164417964077"><ele>476.3333333333333</ele><time>2026-04-26T08:38:27Z</time></trkpt><trkpt lat="40.33780603093973" lon="15.625167754140609"><ele>476.5</ele><time>2026-04-26T08:38:28Z</time></trkpt><trkpt lat="40.33772496979951" lon="15.62516812766583"><ele>476.66666666666663</ele><time>2026-04-26T08:38:29Z</time></trkpt><trkpt lat="40.337643999997695" lon="15.625133108528582"><ele>476.8333333333333</ele><time>2026-04-26T08:38:30Z</time></trkpt><trkpt lat="40.33756441933557" lon="15.625137384648365"><ele>477.0</ele><time>2026-04-26T08:38:31Z</time></trkpt><trkpt lat="40.33748797970333" lon="15.625141491984605"><ele>477.0</ele><time>2026-04-26T08:38:32Z</time></trkpt><trkpt lat="40.33741626837282" lon="15.62514534526122"><ele>477.0</ele><time>2026-04-26T08:38:33Z</time></trkpt><trkpt lat="40.337338870951704" lon="15.625149504061657"><ele>477.0</ele><time>2026-04-26T08:38:34Z</time></trkpt><trkpt lat="40.33725440241245" lon="15.62515270947521"><ele>477.0</ele><time>2026-04-26T08:38:35Z</time></trkpt><trkpt lat="40.33715579603949" lon="15.625155731647283"><ele>477.0</ele><time>2026-04-26T08:38:36Z</time></trkpt><trkpt lat="40.33705842697655" lon="15.625158715894905"><ele>477.0</ele><time>2026-04-26T08:38:37Z</time></trkpt><trkpt lat="40.33696679032947" lon="15.625161524504398"><ele>476.8</ele><time>2026-04-26T08:38:38Z</time></trkpt><trkpt lat="40.33687111445436" lon="15.625165830952469"><ele>476.6</ele><time>2026-04-26T08:38:39Z</time></trkpt><trkpt lat="40.3367713325832" lon="15.625179589825246"><ele>476.40000000000003</ele><time>2026-04-26T08:38:40Z</time></trkpt><trkpt lat="40.336669356632754" lon="15.625179353757808"><ele>476.20000000000005</ele><time>2026-04-26T08:38:41Z</time></trkpt><trkpt lat="40.336566526400155" lon="15.625182040142931"><ele>476.0</ele><time>2026-04-26T08:38:42Z</time></trkpt><trkpt lat="40.33646961816212" lon="15.625183614209048"><ele>475.99999999999994</ele><time>2026-04-26T08:38:43Z</time></trkpt><trkpt lat="40.33638112870966" lon="15.625185677731602"><ele>476.0</ele><time>2026-04-26T08:38:44Z</time></trkpt><trkpt lat="40.33630129121129" lon="15.62519147151095"><ele>476.0</ele><time>2026-04-26T08:38:45Z</time></trkpt><trkpt lat="40.3362304442937" lon="15.62519585655015"><ele>476.0</ele><time>2026-04-26T08:38:46Z</time></trkpt><trkpt lat="40.336155071381974" lon="15.625202092100317"><ele>475.99999999999994</ele><time>2026-04-26T08:38:47Z</time></trkpt><trkpt lat="40.336072586766065" lon="15.62517534536027"><ele>476.0</ele><time>2026-04-26T08:38:48Z</time></trkpt><trkpt lat="40.335981621268296" lon="15.625169477090607"><ele>476.0</ele><time>2026-04-26T08:38:49Z</time></trkpt><trkpt lat="40.33589324660855" lon="15.625163775954986"><ele>476.0</ele><time>2026-04-26T08:38:50Z</time></trkpt><trkpt lat="40.33581445102444" lon="15.625158692777632"><ele>476.0</ele><time>2026-04-26T08:38:51Z</time></trkpt><trkpt lat="40.33574763957389" lon="15.625154382707123"><ele>476.0</ele><time>2026-04-26T08:38:52Z</time></trkpt><trkpt lat="40.33561367131333" lon="15.625145740287907"><ele>476.0</ele><time>2026-04-26T08:38:54Z</time></trkpt><trkpt lat="40.33552514980561" lon="15.625140029727246"><ele>475.5</ele><time>2026-04-26T08:38:55Z</time></trkpt><trkpt lat="40.33541260156048" lon="15.625132407042805"><ele>475.0</ele><time>2026-04-26T08:38:56Z</time></trkpt><trkpt lat="40.3352801398431" lon="15.625123509821439"><ele>474.5</ele><time>2026-04-26T08:38:57Z</time></trkpt><trkpt lat="40.33514907044727" lon="15.625114401296354"><ele>474.0</ele><time>2026-04-26T08:38:58Z</time></trkpt><trkpt lat="40.335029067838576" lon="15.625105449487783"><ele>474.0</ele><time>2026-04-26T08:38:59Z</time></trkpt><trkpt lat="40.33491500860327" lon="15.6250974933002"><ele>474.0</ele><time>2026-04-26T08:39:00Z</time></trkpt><trkpt lat="40.33480944712642" lon="15.625090378869878"><ele>474.0</ele><time>2026-04-26T08:39:01Z</time></trkpt><trkpt lat="40.334713968138125" lon="15.625083943955861"><ele>474.0</ele><time>2026-04-26T08:39:02Z</time></trkpt><trkpt lat="40.33462114873074" lon="15.62507768829892"><ele>474.0</ele><time>2026-04-26T08:39:03Z</time></trkpt><trkpt lat="40.33452740274231" lon="15.625071370206564"><ele>474.3333333333333</ele><time>2026-04-26T08:39:04Z</time></trkpt><trkpt lat="40.33444230447576" lon="15.625064852578793"><ele>474.66666666666663</ele><time>2026-04-26T08:39:05Z</time></trkpt><trkpt lat="40.3343659163189" lon="15.625059057645393"><ele>475.0</ele><time>2026-04-26T08:39:06Z</time></trkpt><trkpt lat="40.3342968072289" lon="15.625054132420507"><ele>475.3333333333333</ele><time>2026-04-26T08:39:07Z</time></trkpt><trkpt lat="40.3342284585443" lon="15.625049299617544"><ele>475.66666666666663</ele><time>2026-04-26T08:39:08Z</time></trkpt><trkpt lat="40.33415007362022" lon="15.625043838086816"><ele>476.0</ele><time>2026-04-26T08:39:09Z</time></trkpt><trkpt lat="40.334073466776694" lon="15.625038500440047"><ele>475.99999999999994</ele><time>2026-04-26T08:39:10Z</time></trkpt><trkpt lat="40.333995917995004" lon="15.62503309716471"><ele>476.0</ele><time>2026-04-26T08:39:11Z</time></trkpt><trkpt lat="40.33391890133042" lon="15.625027730969334"><ele>476.0</ele><time>2026-04-26T08:39:12Z</time></trkpt><trkpt lat="40.33383982384587" lon="15.625022221183995"><ele>476.0</ele><time>2026-04-26T08:39:13Z</time></trkpt><trkpt lat="40.33375871341742" lon="15.62501656974829"><ele>475.99999999999994</ele><time>2026-04-26T08:39:14Z</time></trkpt><trkpt lat="40.33367846614279" lon="15.62501097852999"><ele>476.0</ele><time>2026-04-26T08:39:15Z</time></trkpt><trkpt lat="40.33359481758732" lon="15.625004973678056"><ele>475.8571428571429</ele><time>2026-04-26T08:39:16Z</time></trkpt><trkpt lat="40.333519352571024" lon="15.625030244522163"><ele>475.7142857142857</ele><time>2026-04-26T08:39:17Z</time></trkpt><trkpt lat="40.33344907775217" lon="15.625032380261661"><ele>475.57142857142856</ele><time>2026-04-26T08:39:18Z</time></trkpt><trkpt lat="40.333383777124574" lon="15.625029260589077"><ele>475.42857142857144</ele><time>2026-04-26T08:39:19Z</time></trkpt><trkpt lat="40.333315805717326" lon="15.625024584241288"><ele>475.28571428571433</ele><time>2026-04-26T08:39:20Z</time></trkpt><trkpt lat="40.33323904841617" lon="15.625022851836484"><ele>475.14285714285717</ele><time>2026-04-26T08:39:21Z</time></trkpt><trkpt lat="40.333155989910495" lon="15.625019353283124"><ele>475.0</ele><time>2026-04-26T08:39:22Z</time></trkpt><trkpt lat="40.33307162868811" lon="15.624966657545835"><ele>475.1666666666667</ele><time>2026-04-26T08:39:23Z</time></trkpt><trkpt lat="40.33298980298377" lon="15.624960891538615"><ele>475.33333333333337</ele><time>2026-04-26T08:39:24Z</time></trkpt><trkpt lat="40.33291120527128" lon="15.624955352986548"><ele>475.5</ele><time>2026-04-26T08:39:25Z</time></trkpt><trkpt lat="40.33283912092642" lon="15.624950273435786"><ele>475.66666666666663</ele><time>2026-04-26T08:39:26Z</time></trkpt><trkpt lat="40.33276273131674" lon="15.6249448904318"><ele>475.8333333333333</ele><time>2026-04-26T08:39:27Z</time></trkpt><trkpt lat="40.33268157909768" lon="15.624939458048823"><ele>476.0</ele><time>2026-04-26T08:39:28Z</time></trkpt><trkpt lat="40.33259943870614" lon="15.624933921226901"><ele>475.99999999999994</ele><time>2026-04-26T08:39:29Z</time></trkpt><trkpt lat="40.332519296942344" lon="15.62492851912533"><ele>476.0</ele><time>2026-04-26T08:39:30Z</time></trkpt><trkpt lat="40.33243750233701" lon="15.624923005608883"><ele>476.0</ele><time>2026-04-26T08:39:31Z</time></trkpt><trkpt lat="40.33233980125251" lon="15.62493633694695"><ele>476.0</ele><time>2026-04-26T08:39:32Z</time></trkpt><trkpt lat="40.332252669345735" lon="15.624926881132229"><ele>475.99999999999994</ele><time>2026-04-26T08:39:33Z</time></trkpt><trkpt lat="40.33217160357207" lon="15.624918925783057"><ele>476.0</ele><time>2026-04-26T08:39:34Z</time></trkpt><trkpt lat="40.33208296329888" lon="15.624913355419569"><ele>475.8333333333333</ele><time>2026-04-26T08:39:35Z</time></trkpt><trkpt lat="40.331990192274695" lon="15.624906354833204"><ele>475.66666666666663</ele><time>2026-04-26T08:39:36Z</time></trkpt><trkpt lat="40.33189512175547" lon="15.624899066731068"><ele>475.5</ele><time>2026-04-26T08:39:37Z</time></trkpt><trkpt lat="40.33180315234916" lon="15.624882347311551"><ele>475.33333333333337</ele><time>2026-04-26T08:39:38Z</time></trkpt><trkpt lat="40.331722349112056" lon="15.624874092869302"><ele>475.1666666666667</ele><time>2026-04-26T08:39:39Z</time></trkpt><trkpt lat="40.33164499121683" lon="15.624871964692375"><ele>475.0</ele><time>2026-04-26T08:39:40Z</time></trkpt><trkpt lat="40.331565595403255" lon="15.624878295525521"><ele>475.00000000000006</ele><time>2026-04-26T08:39:41Z</time></trkpt><trkpt lat="40.33148472390026" lon="15.624883567735695"><ele>475.0</ele><time>2026-04-26T08:39:42Z</time></trkpt><trkpt lat="40.33140270902022" lon="15.62488815629332"><ele>475.0</ele><time>2026-04-26T08:39:43Z</time></trkpt><trkpt lat="40.33132146521197" lon="15.624893611263658"><ele>475.0</ele><time>2026-04-26T08:39:44Z</time></trkpt><trkpt lat="40.331246003742535" lon="15.624899824811893"><ele>475.00000000000006</ele><time>2026-04-26T08:39:45Z</time></trkpt><trkpt lat="40.33114057160442" lon="15.624912983196294"><ele>475.0</ele><time>2026-04-26T08:39:47Z</time></trkpt><trkpt lat="40.331055248614476" lon="15.624927880126618"><ele>475.00000000000006</ele><time>2026-04-26T08:39:49Z</time></trkpt><trkpt lat="40.33096746288731" lon="15.624926932828977"><ele>475.0</ele><time>2026-04-26T08:39:52Z</time></trkpt><trkpt lat="40.33087635082978" lon="15.624951774972498"><ele>475.0</ele><time>2026-04-26T08:40:43Z</time></trkpt><trkpt lat="40.3307790262045" lon="15.624974222962653"><ele>475.0</ele><time>2026-04-26T08:40:45Z</time></trkpt><trkpt lat="40.33071601950843" lon="15.62499972898917"><ele>475.00000000000006</ele><time>2026-04-26T08:40:46Z</time></trkpt><trkpt lat="40.330649293802374" lon="15.625010326134786"><ele>475.0</ele><time>2026-04-26T08:40:47Z</time></trkpt><trkpt lat="40.33057616243988" lon="15.625030560156802"><ele>475.0</ele><time>2026-04-26T08:40:48Z</time></trkpt><trkpt lat="40.33050115663917" lon="15.625045013202891"><ele>475.0</ele><time>2026-04-26T08:40:49Z</time></trkpt><trkpt lat="40.330426935599654" lon="15.625071686251935"><ele>475.0</ele><time>2026-04-26T08:40:50Z</time></trkpt><trkpt lat="40.33034237102513" lon="15.62511307733895"><ele>475.0</ele><time>2026-04-26T08:40:51Z</time></trkpt><trkpt lat="40.330235603729875" lon="15.625167642743437"><ele>475.0</ele><time>2026-04-26T08:40:52Z</time></trkpt><trkpt lat="40.33010539443053" lon="15.625223015310452"><ele>475.0</ele><time>2026-04-26T08:40:53Z</time></trkpt><trkpt lat="40.329957681237495" lon="15.625288351947752"><ele>475.0</ele><time>2026-04-26T08:40:54Z</time></trkpt><trkpt lat="40.32981346043849" lon="15.625359555991459"><ele>475.0</ele><time>2026-04-26T08:40:55Z</time></trkpt><trkpt lat="40.3296733655587" lon="15.625435356984527"><ele>474.75</ele><time>2026-04-26T08:40:56Z</time></trkpt><trkpt lat="40.32954002391651" lon="15.625511960175597"><ele>474.5</ele><time>2026-04-26T08:40:57Z</time></trkpt><trkpt lat="40.32941480461141" lon="15.625582800594762"><ele>474.25</ele><time>2026-04-26T08:40:58Z</time></trkpt><trkpt lat="40.32928539185808" lon="15.625656001040744"><ele>474.0</ele><time>2026-04-26T08:40:59Z</time></trkpt><trkpt lat="40.329147341773385" lon="15.625734642338026"><ele>474.0</ele><time>2026-04-26T08:41:00Z</time></trkpt><trkpt lat="40.329024988049724" lon="15.625792237467131"><ele>474.0</ele><time>2026-04-26T08:41:01Z</time></trkpt><trkpt lat="40.32890635137592" lon="15.625857177975522"><ele>474.0</ele><time>2026-04-26T08:41:02Z</time></trkpt><trkpt lat="40.32879844422385" lon="15.625918569930908"><ele>474.0</ele><time>2026-04-26T08:41:03Z</time></trkpt><trkpt lat="40.3286903433902" lon="15.625979011941837"><ele>474.0</ele><time>2026-04-26T08:41:04Z</time></trkpt><trkpt lat="40.32858140720837" lon="15.626027678489503"><ele>474.0</ele><time>2026-04-26T08:41:05Z</time></trkpt><trkpt lat="40.32847180448048" lon="15.626081713934521"><ele>474.0</ele><time>2026-04-26T08:41:06Z</time></trkpt><trkpt lat="40.32836248247205" lon="15.626140044581732"><ele>474.0</ele><time>2026-04-26T08:41:07Z</time></trkpt><trkpt lat="40.32824839507681" lon="15.62621309582846"><ele>474.0</ele><time>2026-04-26T08:41:08Z</time></trkpt><trkpt lat="40.32814308542303" lon="15.626262916239888"><ele>474.0</ele><time>2026-04-26T08:41:09Z</time></trkpt><trkpt lat="40.32803317253504" lon="15.626316996820897"><ele>474.0</ele><time>2026-04-26T08:41:10Z</time></trkpt><trkpt lat="40.32792622234028" lon="15.626372161668058"><ele>474.0</ele><time>2026-04-26T08:41:11Z</time></trkpt><trkpt lat="40.32782300709236" lon="15.62642724807531"><ele>473.75</ele><time>2026-04-26T08:41:12Z</time></trkpt><trkpt lat="40.32771420698617" lon="15.626488713134394"><ele>473.5</ele><time>2026-04-26T08:41:13Z</time></trkpt><trkpt lat="40.32759027528476" lon="15.62655193615814"><ele>473.25</ele><time>2026-04-26T08:41:14Z</time></trkpt><trkpt lat="40.32744741765566" lon="15.626624839849217"><ele>473.0</ele><time>2026-04-26T08:41:15Z</time></trkpt><trkpt lat="40.32730013541045" lon="15.626704167853509"><ele>472.66666666666663</ele><time>2026-04-26T08:41:16Z</time></trkpt><trkpt lat="40.32715839169312" lon="15.626776063181975"><ele>472.33333333333337</ele><time>2026-04-26T08:41:17Z</time></trkpt><trkpt lat="40.32701763804982" lon="15.626848218849947"><ele>472.0</ele><time>2026-04-26T08:41:18Z</time></trkpt><trkpt lat="40.32686997068884" lon="15.62692534206443"><ele>473.33333333333337</ele><time>2026-04-26T08:41:19Z</time></trkpt><trkpt lat="40.32672050525113" lon="15.627003344161336"><ele>474.66666666666663</ele><time>2026-04-26T08:41:20Z</time></trkpt><trkpt lat="40.326566842508676" lon="15.627086145230182"><ele>476.0</ele><time>2026-04-26T08:41:21Z</time></trkpt><trkpt lat="40.32640899514076" lon="15.627170542215959"><ele>475.66666666666663</ele><time>2026-04-26T08:41:22Z</time></trkpt><trkpt lat="40.326253701933155" lon="15.627252596834236"><ele>475.33333333333337</ele><time>2026-04-26T08:41:23Z</time></trkpt><trkpt lat="40.32610214767753" lon="15.627329167640708"><ele>475.0</ele><time>2026-04-26T08:41:24Z</time></trkpt><trkpt lat="40.325950565737834" lon="15.627402739271284"><ele>475.0</ele><time>2026-04-26T08:41:25Z</time></trkpt><trkpt lat="40.325799348306006" lon="15.627473642048122"><ele>475.0</ele><time>2026-04-26T08:41:26Z</time></trkpt><trkpt lat="40.32564681816387" lon="15.62753678868765"><ele>475.0</ele><time>2026-04-26T08:41:27Z</time></trkpt><trkpt lat="40.3254912296922" lon="15.627585092622715"><ele>474.6666666666667</ele><time>2026-04-26T08:41:28Z</time></trkpt><trkpt lat="40.32532873906833" lon="15.627623543912271"><ele>474.33333333333337</ele><time>2026-04-26T08:41:29Z</time></trkpt><trkpt lat="40.32515916400336" lon="15.627647382699765"><ele>474.0</ele><time>2026-04-26T08:41:30Z</time></trkpt><trkpt lat="40.324998324384936" lon="15.627649820434684"><ele>474.0</ele><time>2026-04-26T08:41:31Z</time></trkpt><trkpt lat="40.32483780684519" lon="15.627650608859089"><ele>474.0</ele><time>2026-04-26T08:41:32Z</time></trkpt><trkpt lat="40.32467961580705" lon="15.627651442350762"><ele>474.0</ele><time>2026-04-26T08:41:33Z</time></trkpt><trkpt lat="40.32451735646748" lon="15.627655296071184"><ele>473.33333333333337</ele><time>2026-04-26T08:41:34Z</time></trkpt><trkpt lat="40.324355758831764" lon="15.627666185237892"><ele>472.6666666666667</ele><time>2026-04-26T08:41:35Z</time></trkpt><trkpt lat="40.32419653464082" lon="15.627685395382098"><ele>472.0</ele><time>2026-04-26T08:41:36Z</time></trkpt><trkpt lat="40.32404063360229" lon="15.627713771009663"><ele>472.0</ele><time>2026-04-26T08:41:37Z</time></trkpt><trkpt lat="40.32388372655361" lon="15.627766276067735"><ele>472.0</ele><time>2026-04-26T08:41:38Z</time></trkpt><trkpt lat="40.32371627280768" lon="15.627837895422559"><ele>472.0</ele><time>2026-04-26T08:41:39Z</time></trkpt><trkpt lat="40.32354248183613" lon="15.627909797809156"><ele>472.0</ele><time>2026-04-26T08:41:40Z</time></trkpt><trkpt lat="40.32335818680016" lon="15.627958203995492"><ele>472.0</ele><time>2026-04-26T08:41:41Z</time></trkpt><trkpt lat="40.3231763353504" lon="15.628023398945341"><ele>472.0</ele><time>2026-04-26T08:41:42Z</time></trkpt><trkpt lat="40.32298524355315" lon="15.628090435297276"><ele>472.0</ele><time>2026-04-26T08:41:43Z</time></trkpt><trkpt lat="40.32278864652879" lon="15.628161001010188"><ele>472.0</ele><time>2026-04-26T08:41:44Z</time></trkpt><trkpt lat="40.322599061495495" lon="15.628229050006107"><ele>472.0</ele><time>2026-04-26T08:41:45Z</time></trkpt><trkpt lat="40.32242587937008" lon="15.628313102000043"><ele>472.0</ele><time>2026-04-26T08:41:46Z</time></trkpt><trkpt lat="40.322256829028596" lon="15.628369562531716"><ele>472.0</ele><time>2026-04-26T08:41:47Z</time></trkpt><trkpt lat="40.32208719461869" lon="15.628424417052564"><ele>472.0</ele><time>2026-04-26T08:41:48Z</time></trkpt><trkpt lat="40.321915493609" lon="15.628472981015358"><ele>472.33333333333337</ele><time>2026-04-26T08:41:49Z</time></trkpt><trkpt lat="40.32175050528592" lon="15.628526268963023"><ele>472.66666666666663</ele><time>2026-04-26T08:41:50Z</time></trkpt><trkpt lat="40.321593095147364" lon="15.628582717909595"><ele>473.0</ele><time>2026-04-26T08:41:51Z</time></trkpt><trkpt lat="40.321436340684684" lon="15.628645196006083"><ele>473.0</ele><time>2026-04-26T08:41:52Z</time></trkpt><trkpt lat="40.321288121350385" lon="15.628700997824422"><ele>473.0</ele><time>2026-04-26T08:41:53Z</time></trkpt><trkpt lat="40.3211405932216" lon="15.628758397740304"><ele>473.0</ele><time>2026-04-26T08:41:54Z</time></trkpt><trkpt lat="40.32098553720229" lon="15.6288279215476"><ele>473.0</ele><time>2026-04-26T08:41:55Z</time></trkpt><trkpt lat="40.32082729214592" lon="15.62891450688209"><ele>473.0</ele><time>2026-04-26T08:41:56Z</time></trkpt><trkpt lat="40.32066628472571" lon="15.629017337195176"><ele>473.0</ele><time>2026-04-26T08:41:57Z</time></trkpt><trkpt lat="40.32050841677063" lon="15.629127049231883"><ele>472.66666666666663</ele><time>2026-04-26T08:41:58Z</time></trkpt><trkpt lat="40.320349215266376" lon="15.629249197044883"><ele>472.33333333333337</ele><time>2026-04-26T08:41:59Z</time></trkpt><trkpt lat="40.32018881764787" lon="15.629373977948179"><ele>472.0</ele><time>2026-04-26T08:42:00Z</time></trkpt><trkpt lat="40.320028236509714" lon="15.629497460608968"><ele>472.0</ele><time>2026-04-26T08:42:01Z</time></trkpt><trkpt lat="40.31986499368984" lon="15.629623487566205"><ele>472.0</ele><time>2026-04-26T08:42:02Z</time></trkpt><trkpt lat="40.31969540597627" lon="15.62975248128501"><ele>472.0</ele><time>2026-04-26T08:42:03Z</time></trkpt><trkpt lat="40.31952415365079" lon="15.629883419161954"><ele>471.6666666666667</ele><time>2026-04-26T08:42:04Z</time></trkpt><trkpt lat="40.31935670178733" lon="15.63000737442052"><ele>471.33333333333337</ele><time>2026-04-26T08:42:05Z</time></trkpt><trkpt lat="40.319194158111344" lon="15.630126940833046"><ele>471.0</ele><time>2026-04-26T08:42:06Z</time></trkpt><trkpt lat="40.31904064993762" lon="15.630239998878666"><ele>470.66666666666663</ele><time>2026-04-26T08:42:07Z</time></trkpt><trkpt lat="40.318895341524836" lon="15.63034900600733"><ele>470.3333333333333</ele><time>2026-04-26T08:42:08Z</time></trkpt><trkpt lat="40.31875427205444" lon="15.630456417809155"><ele>470.0</ele><time>2026-04-26T08:42:09Z</time></trkpt><trkpt lat="40.31861346975819" lon="15.630562043142199"><ele>470.0</ele><time>2026-04-26T08:42:10Z</time></trkpt><trkpt lat="40.31847329068983" lon="15.630669096592587"><ele>470.0</ele><time>2026-04-26T08:42:11Z</time></trkpt><trkpt lat="40.31832959782889" lon="15.630777543929662"><ele>470.0</ele><time>2026-04-26T08:42:12Z</time></trkpt><trkpt lat="40.31818042201134" lon="15.63088750864851"><ele>470.3333333333333</ele><time>2026-04-26T08:42:13Z</time></trkpt><trkpt lat="40.31803190549752" lon="15.630999914883136"><ele>470.66666666666663</ele><time>2026-04-26T08:42:14Z</time></trkpt><trkpt lat="40.31788321400134" lon="15.631116443075687"><ele>471.0</ele><time>2026-04-26T08:42:15Z</time></trkpt><trkpt lat="40.31773539332319" lon="15.631232727477615"><ele>471.0</ele><time>2026-04-26T08:42:16Z</time></trkpt><trkpt lat="40.31758646543673" lon="15.631348861142314"><ele>471.0</ele><time>2026-04-26T08:42:17Z</time></trkpt><trkpt lat="40.3174397715994" lon="15.631475249206312"><ele>471.0</ele><time>2026-04-26T08:42:18Z</time></trkpt><trkpt lat="40.317297780708635" lon="15.63160413369686"><ele>471.0</ele><time>2026-04-26T08:42:19Z</time></trkpt><trkpt lat="40.317165454625595" lon="15.631728806384661"><ele>471.0</ele><time>2026-04-26T08:42:20Z</time></trkpt><trkpt lat="40.317037425020224" lon="15.63186648726454"><ele>471.0</ele><time>2026-04-26T08:42:21Z</time></trkpt><trkpt lat="40.316913367014564" lon="15.632008175993375"><ele>470.66666666666663</ele><time>2026-04-26T08:42:22Z</time></trkpt><trkpt lat="40.31679045428087" lon="15.632147890426392"><ele>470.3333333333333</ele><time>2026-04-26T08:42:23Z</time></trkpt><trkpt lat="40.31666775716206" lon="15.632283631162672"><ele>470.0</ele><time>2026-04-26T08:42:24Z</time></trkpt><trkpt lat="40.31654387418362" lon="15.632417035934445"><ele>470.0</ele><time>2026-04-26T08:42:25Z</time></trkpt><trkpt lat="40.31641334718299" lon="15.632554119566386"><ele>470.0</ele><time>2026-04-26T08:42:26Z</time></trkpt><trkpt lat="40.31628022419849" lon="15.632689230973892"><ele>470.0</ele><time>2026-04-26T08:42:27Z</time></trkpt><trkpt lat="40.3161486029175" lon="15.63282169122962"><ele>470.66666666666663</ele><time>2026-04-26T08:42:28Z</time></trkpt><trkpt lat="40.31601930940942" lon="15.632951271988222"><ele>471.33333333333337</ele><time>2026-04-26T08:42:29Z</time></trkpt><trkpt lat="40.31588774266993" lon="15.633082857897003"><ele>472.0</ele><time>2026-04-26T08:42:30Z</time></trkpt><trkpt lat="40.31575036301018" lon="15.633217221640784"><ele>472.0</ele><time>2026-04-26T08:42:31Z</time></trkpt><trkpt lat="40.31561005048541" lon="15.633357371402141"><ele>472.0</ele><time>2026-04-26T08:42:32Z</time></trkpt><trkpt lat="40.31546637646286" lon="15.633500759170444"><ele>472.0</ele><time>2026-04-26T08:42:33Z</time></trkpt><trkpt lat="40.31531970787351" lon="15.63364622555713"><ele>471.6666666666667</ele><time>2026-04-26T08:42:34Z</time></trkpt><trkpt lat="40.315169088082676" lon="15.633796198635187"><ele>471.33333333333337</ele><time>2026-04-26T08:42:35Z</time></trkpt><trkpt lat="40.31501089723805" lon="15.633953385590312"><ele>471.0</ele><time>2026-04-26T08:42:36Z</time></trkpt><trkpt lat="40.31484485021384" lon="15.634113310607868"><ele>471.33333333333337</ele><time>2026-04-26T08:42:37Z</time></trkpt><trkpt lat="40.31467502225063" lon="15.634280508727693"><ele>471.6666666666667</ele><time>2026-04-26T08:42:38Z</time></trkpt><trkpt lat="40.314501961567274" lon="15.63444850722058"><ele>472.0</ele><time>2026-04-26T08:42:39Z</time></trkpt><trkpt lat="40.31433033031026" lon="15.634615220294268"><ele>472.33333333333337</ele><time>2026-04-26T08:42:40Z</time></trkpt><trkpt lat="40.31416013374617" lon="15.63478154467551"><ele>472.66666666666663</ele><time>2026-04-26T08:42:41Z</time></trkpt><trkpt lat="40.31399012144451" lon="15.63495149123011"><ele>473.0</ele><time>2026-04-26T08:42:42Z</time></trkpt><trkpt lat="40.31382143769281" lon="15.635118791663084"><ele>473.0</ele><time>2026-04-26T08:42:43Z</time></trkpt><trkpt lat="40.31365690873044" lon="15.635281245328512"><ele>473.0</ele><time>2026-04-26T08:42:44Z</time></trkpt><trkpt lat="40.31349325105207" lon="15.635443640676527"><ele>473.0</ele><time>2026-04-26T08:42:45Z</time></trkpt><trkpt lat="40.31333430923503" lon="15.635598173694092"><ele>473.0</ele><time>2026-04-26T08:42:46Z</time></trkpt><trkpt lat="40.31317653984457" lon="15.635751666255496"><ele>473.0</ele><time>2026-04-26T08:42:47Z</time></trkpt><trkpt lat="40.31301955727522" lon="15.635904443691487"><ele>473.0</ele><time>2026-04-26T08:42:48Z</time></trkpt><trkpt lat="40.31286420343205" lon="15.636052731044893"><ele>473.3333333333333</ele><time>2026-04-26T08:42:49Z</time></trkpt><trkpt lat="40.312704736102546" lon="15.636195765058067"><ele>473.66666666666663</ele><time>2026-04-26T08:42:50Z</time></trkpt><trkpt lat="40.31254441547505" lon="15.636325714860883"><ele>474.0</ele><time>2026-04-26T08:42:51Z</time></trkpt><trkpt lat="40.3123806804786" lon="15.636444789561757"><ele>473.33333333333337</ele><time>2026-04-26T08:42:52Z</time></trkpt><trkpt lat="40.31221219007512" lon="15.636555376330454"><ele>472.6666666666667</ele><time>2026-04-26T08:42:53Z</time></trkpt><trkpt lat="40.312042397931684" lon="15.636665677405894"><ele>472.0</ele><time>2026-04-26T08:42:54Z</time></trkpt><trkpt lat="40.31186950803529" lon="15.636778233439387"><ele>472.0</ele><time>2026-04-26T08:42:55Z</time></trkpt><trkpt lat="40.31169116904825" lon="15.63689226979177"><ele>472.0</ele><time>2026-04-26T08:42:56Z</time></trkpt><trkpt lat="40.31151114876097" lon="15.637008267792869"><ele>472.0</ele><time>2026-04-26T08:42:57Z</time></trkpt><trkpt lat="40.311326284397964" lon="15.637124552992663"><ele>472.6666666666667</ele><time>2026-04-26T08:42:58Z</time></trkpt><trkpt lat="40.31114089281662" lon="15.637242255561775"><ele>473.33333333333337</ele><time>2026-04-26T08:42:59Z</time></trkpt><trkpt lat="40.31096240078968" lon="15.637357819688505"><ele>474.0</ele><time>2026-04-26T08:43:00Z</time></trkpt><trkpt lat="40.31079137049911" lon="15.637467212125568"><ele>474.0</ele><time>2026-04-26T08:43:01Z</time></trkpt><trkpt lat="40.310621013629046" lon="15.63757530860702"><ele>474.0</ele><time>2026-04-26T08:43:02Z</time></trkpt><trkpt lat="40.310455533434784" lon="15.637680546558606"><ele>474.0</ele><time>2026-04-26T08:43:03Z</time></trkpt><trkpt lat="40.310293551120125" lon="15.637780857015946"><ele>474.33333333333337</ele><time>2026-04-26T08:43:04Z</time></trkpt><trkpt lat="40.31013204222816" lon="15.637881801886317"><ele>474.6666666666667</ele><time>2026-04-26T08:43:05Z</time></trkpt><trkpt lat="40.30996867237993" lon="15.637984568277147"><ele>475.0</ele><time>2026-04-26T08:43:06Z</time></trkpt><trkpt lat="40.30979941287863" lon="15.638090424082455"><ele>474.0</ele><time>2026-04-26T08:43:07Z</time></trkpt><trkpt lat="40.30962627277032" lon="15.638192263525575"><ele>473.0</ele><time>2026-04-26T08:43:08Z</time></trkpt><trkpt lat="40.30944965356089" lon="15.638283487171847"><ele>472.0</ele><time>2026-04-26T08:43:09Z</time></trkpt><trkpt lat="40.30927689286293" lon="15.638364246589806"><ele>472.0</ele><time>2026-04-26T08:43:10Z</time></trkpt><trkpt lat="40.30910962665541" lon="15.63843227043274"><ele>472.0</ele><time>2026-04-26T08:43:11Z</time></trkpt><trkpt lat="40.308945042587936" lon="15.638484409258833"><ele>472.0</ele><time>2026-04-26T08:43:12Z</time></trkpt><trkpt lat="40.30877328246239" lon="15.638532952107978"><ele>471.6666666666667</ele><time>2026-04-26T08:43:13Z</time></trkpt><trkpt lat="40.30859274667786" lon="15.638566855563623"><ele>471.33333333333337</ele><time>2026-04-26T08:43:14Z</time></trkpt><trkpt lat="40.30841068585869" lon="15.638591716547461"><ele>471.0</ele><time>2026-04-26T08:43:15Z</time></trkpt><trkpt lat="40.30822247643934" lon="15.638602609799031"><ele>470.0</ele><time>2026-04-26T08:43:16Z</time></trkpt><trkpt lat="40.30801863677258" lon="15.638593934414514"><ele>469.0</ele><time>2026-04-26T08:43:17Z</time></trkpt><trkpt lat="40.307810318848865" lon="15.638586775043228"><ele>468.0</ele><time>2026-04-26T08:43:18Z</time></trkpt><trkpt lat="40.30760027919357" lon="15.63857947721069"><ele>468.0</ele><time>2026-04-26T08:43:19Z</time></trkpt><trkpt lat="40.30739787145018" lon="15.638567420195663"><ele>468.0</ele><time>2026-04-26T08:43:20Z</time></trkpt><trkpt lat="40.30720294097481" lon="15.638554324944831"><ele>468.0</ele><time>2026-04-26T08:43:21Z</time></trkpt><trkpt lat="40.30701820877446" lon="15.638520732682236"><ele>468.66666666666663</ele><time>2026-04-26T08:43:22Z</time></trkpt><trkpt lat="40.30683860263229" lon="15.638528717248935"><ele>469.3333333333333</ele><time>2026-04-26T08:43:23Z</time></trkpt><trkpt lat="40.30666253567463" lon="15.63851380964238"><ele>470.0</ele><time>2026-04-26T08:43:24Z</time></trkpt><trkpt lat="40.30648656968913" lon="15.638499622292345"><ele>470.66666666666663</ele><time>2026-04-26T08:43:25Z</time></trkpt><trkpt lat="40.30631365035861" lon="15.638486176364852"><ele>471.33333333333337</ele><time>2026-04-26T08:43:26Z</time></trkpt><trkpt lat="40.30614358643146" lon="15.638478830749245"><ele>472.0</ele><time>2026-04-26T08:43:27Z</time></trkpt><trkpt lat="40.305980694234634" lon="15.638469361384972"><ele>472.0</ele><time>2026-04-26T08:43:28Z</time></trkpt><trkpt lat="40.30582784232842" lon="15.638457657750587"><ele>472.0</ele><time>2026-04-26T08:43:29Z</time></trkpt><trkpt lat="40.30567790403052" lon="15.638456096974599"><ele>472.0</ele><time>2026-04-26T08:43:30Z</time></trkpt><trkpt lat="40.305527435187784" lon="15.638454588382475"><ele>471.33333333333337</ele><time>2026-04-26T08:43:31Z</time></trkpt><trkpt lat="40.30537281939123" lon="15.638467746104654"><ele>470.66666666666663</ele><time>2026-04-26T08:43:32Z</time></trkpt><trkpt lat="40.30522112711688" lon="15.638495340888305"><ele>470.0</ele><time>2026-04-26T08:43:33Z</time></trkpt><trkpt lat="40.30507084887002" lon="15.638534878514912"><ele>470.0</ele><time>2026-04-26T08:43:34Z</time></trkpt><trkpt lat="40.30491911764107" lon="15.638585747664884"><ele>470.0</ele><time>2026-04-26T08:43:35Z</time></trkpt><trkpt lat="40.30477736821735" lon="15.638646325326919"><ele>470.0</ele><time>2026-04-26T08:43:36Z</time></trkpt><trkpt lat="40.30463713187819" lon="15.638720283528846"><ele>470.66666666666663</ele><time>2026-04-26T08:43:37Z</time></trkpt><trkpt lat="40.30449350768359" lon="15.638806391950865"><ele>471.33333333333337</ele><time>2026-04-26T08:43:38Z</time></trkpt><trkpt lat="40.3043439277984" lon="15.63891253316854"><ele>472.0</ele><time>2026-04-26T08:43:39Z</time></trkpt><trkpt lat="40.304194687037274" lon="15.639040960534716"><ele>472.0</ele><time>2026-04-26T08:43:40Z</time></trkpt><trkpt lat="40.30405043861043" lon="15.639202142298583"><ele>472.0</ele><time>2026-04-26T08:43:41Z</time></trkpt><trkpt lat="40.303911979761885" lon="15.639363145174144"><ele>472.0</ele><time>2026-04-26T08:43:42Z</time></trkpt><trkpt lat="40.30376992119109" lon="15.639529551403024"><ele>472.33333333333337</ele><time>2026-04-26T08:43:43Z</time></trkpt><trkpt lat="40.303620355548595" lon="15.639711458845191"><ele>472.66666666666663</ele><time>2026-04-26T08:43:44Z</time></trkpt><trkpt lat="40.30346505014629" lon="15.639896109471053"><ele>473.0</ele><time>2026-04-26T08:43:45Z</time></trkpt><trkpt lat="40.303302126320716" lon="15.640086483703842"><ele>473.0</ele><time>2026-04-26T08:43:46Z</time></trkpt><trkpt lat="40.3031315099808" lon="15.640280298404942"><ele>473.0</ele><time>2026-04-26T08:43:47Z</time></trkpt><trkpt lat="40.30295522150878" lon="15.640478066352072"><ele>473.5</ele><time>2026-04-26T08:43:48Z</time></trkpt><trkpt lat="40.302774881538554" lon="15.640678375341981"><ele>474.0</ele><time>2026-04-26T08:43:49Z</time></trkpt><trkpt lat="40.30260445362202" lon="15.640866377089925"><ele>474.0</ele><time>2026-04-26T08:43:50Z</time></trkpt><trkpt lat="40.30244221572703" lon="15.641052522787241"><ele>474.0</ele><time>2026-04-26T08:43:51Z</time></trkpt><trkpt lat="40.30228250392168" lon="15.64123696017971"><ele>474.0</ele><time>2026-04-26T08:43:52Z</time></trkpt><trkpt lat="40.302126166527124" lon="15.641420265264522"><ele>473.66666666666663</ele><time>2026-04-26T08:43:53Z</time></trkpt><trkpt lat="40.30197823291034" lon="15.641595308292723"><ele>473.3333333333333</ele><time>2026-04-26T08:43:54Z</time></trkpt><trkpt lat="40.301832409705035" lon="15.641767942313148"><ele>473.0</ele><time>2026-04-26T08:43:55Z</time></trkpt><trkpt lat="40.301685575114064" lon="15.64193698746761"><ele>473.3333333333333</ele><time>2026-04-26T08:43:56Z</time></trkpt><trkpt lat="40.30154124621097" lon="15.642106187912164"><ele>473.66666666666663</ele><time>2026-04-26T08:43:57Z</time></trkpt><trkpt lat="40.30139811150456" lon="15.642275493809642"><ele>474.0</ele><time>2026-04-26T08:43:58Z</time></trkpt><trkpt lat="40.301257975645214" lon="15.64243741469257"><ele>474.0</ele><time>2026-04-26T08:43:59Z</time></trkpt><trkpt lat="40.301123311444904" lon="15.642597602894968"><ele>474.0</ele><time>2026-04-26T08:44:00Z</time></trkpt><trkpt lat="40.30099116211769" lon="15.642749126913436"><ele>474.0</ele><time>2026-04-26T08:44:01Z</time></trkpt><trkpt lat="40.300860651964676" lon="15.642899303027983"><ele>474.33333333333337</ele><time>2026-04-26T08:44:02Z</time></trkpt><trkpt lat="40.30073189411161" lon="15.643049760210896"><ele>474.6666666666667</ele><time>2026-04-26T08:44:03Z</time></trkpt><trkpt lat="40.30060533692419" lon="15.643194509833446"><ele>475.0</ele><time>2026-04-26T08:44:04Z</time></trkpt><trkpt lat="40.30048247037106" lon="15.643339167971398"><ele>475.0</ele><time>2026-04-26T08:44:05Z</time></trkpt><trkpt lat="40.30036508478554" lon="15.643477922353751"><ele>475.0</ele><time>2026-04-26T08:44:06Z</time></trkpt><trkpt lat="40.30025127716793" lon="15.643615399325316"><ele>475.0</ele><time>2026-04-26T08:44:07Z</time></trkpt><trkpt lat="40.300139762705236" lon="15.64374770718698"><ele>475.0</ele><time>2026-04-26T08:44:08Z</time></trkpt><trkpt lat="40.30002989559556" lon="15.643877223532545"><ele>475.0</ele><time>2026-04-26T08:44:09Z</time></trkpt><trkpt lat="40.299917847567045" lon="15.644006528113684"><ele>475.0</ele><time>2026-04-26T08:44:10Z</time></trkpt><trkpt lat="40.299806314365455" lon="15.644135433291645"><ele>475.0</ele><time>2026-04-26T08:44:11Z</time></trkpt><trkpt lat="40.29969389865641" lon="15.644263461807922"><ele>475.0</ele><time>2026-04-26T08:44:12Z</time></trkpt><trkpt lat="40.299575693299964" lon="15.6444003290712"><ele>475.0</ele><time>2026-04-26T08:44:13Z</time></trkpt><trkpt lat="40.299453132483364" lon="15.644543926824253"><ele>475.0</ele><time>2026-04-26T08:44:14Z</time></trkpt><trkpt lat="40.29933348601195" lon="15.64468251586937"><ele>475.0</ele><time>2026-04-26T08:44:15Z</time></trkpt><trkpt lat="40.29921321998445" lon="15.64482042888147"><ele>475.0</ele><time>2026-04-26T08:44:16Z</time></trkpt><trkpt lat="40.299097038020435" lon="15.644958186066983"><ele>475.0</ele><time>2026-04-26T08:44:17Z</time></trkpt><trkpt lat="40.29897810339125" lon="15.645098678093511"><ele>475.33333333333337</ele><time>2026-04-26T08:44:18Z</time></trkpt><trkpt lat="40.29885509919246" lon="15.64524050416828"><ele>475.66666666666663</ele><time>2026-04-26T08:44:19Z</time></trkpt><trkpt lat="40.29873572506192" lon="15.645377857825032"><ele>476.0</ele><time>2026-04-26T08:44:20Z</time></trkpt><trkpt lat="40.29862703708548" lon="15.645506720838656"><ele>476.0</ele><time>2026-04-26T08:44:21Z</time></trkpt><trkpt lat="40.29852146972089" lon="15.645637465419147"><ele>476.0</ele><time>2026-04-26T08:44:22Z</time></trkpt><trkpt lat="40.298418477647495" lon="15.645761483699271"><ele>476.0</ele><time>2026-04-26T08:44:23Z</time></trkpt><trkpt lat="40.29831337006692" lon="15.645884491056467"><ele>476.0</ele><time>2026-04-26T08:44:24Z</time></trkpt><trkpt lat="40.2982124263384" lon="15.6460036569087"><ele>476.0</ele><time>2026-04-26T08:44:25Z</time></trkpt><trkpt lat="40.29811416640088" lon="15.646125354289142"><ele>476.0</ele><time>2026-04-26T08:44:26Z</time></trkpt><trkpt lat="40.298023252547736" lon="15.646233729918544"><ele>476.0</ele><time>2026-04-26T08:44:27Z</time></trkpt><trkpt lat="40.297937149549554" lon="15.646336111169447"><ele>476.0</ele><time>2026-04-26T08:44:28Z</time></trkpt><trkpt lat="40.29784845682638" lon="15.646442201551768"><ele>476.5</ele><time>2026-04-26T08:44:29Z</time></trkpt><trkpt lat="40.29775322738225" lon="15.646538983755944"><ele>477.0</ele><time>2026-04-26T08:44:30Z</time></trkpt><trkpt lat="40.29765466962104" lon="15.646609373758816"><ele>477.5</ele><time>2026-04-26T08:44:31Z</time></trkpt><trkpt lat="40.2975497683974" lon="15.646655914415796"><ele>478.0</ele><time>2026-04-26T08:44:32Z</time></trkpt><trkpt lat="40.29743729270785" lon="15.646693440661016"><ele>478.0</ele><time>2026-04-26T08:44:33Z</time></trkpt><trkpt lat="40.297311688379516" lon="15.646738831518643"><ele>478.0</ele><time>2026-04-26T08:44:34Z</time></trkpt><trkpt lat="40.29717836321001" lon="15.646777609466616"><ele>478.0</ele><time>2026-04-26T08:44:35Z</time></trkpt><trkpt lat="40.29704161451209" lon="15.646811895610234"><ele>478.0</ele><time>2026-04-26T08:44:36Z</time></trkpt><trkpt lat="40.29690389225247" lon="15.646849698246594"><ele>478.0</ele><time>2026-04-26T08:44:37Z</time></trkpt><trkpt lat="40.296767837459484" lon="15.64688569417897"><ele>478.0</ele><time>2026-04-26T08:44:38Z</time></trkpt><trkpt lat="40.29663240972603" lon="15.646912870342863"><ele>478.0</ele><time>2026-04-26T08:44:39Z</time></trkpt><trkpt lat="40.2964968413367" lon="15.646926958963709"><ele>478.0</ele><time>2026-04-26T08:44:40Z</time></trkpt><trkpt lat="40.29636012431298" lon="15.64691352671241"><ele>477.6666666666667</ele><time>2026-04-26T08:44:41Z</time></trkpt><trkpt lat="40.29621815171178" lon="15.646869704895249"><ele>477.33333333333337</ele><time>2026-04-26T08:44:42Z</time></trkpt><trkpt lat="40.29607348990548" lon="15.646786182726048"><ele>477.0</ele><time>2026-04-26T08:44:43Z</time></trkpt><trkpt lat="40.29594609288892" lon="15.646654056009876"><ele>477.0</ele><time>2026-04-26T08:44:44Z</time></trkpt><trkpt lat="40.29580358198095" lon="15.646549607803184"><ele>477.0</ele><time>2026-04-26T08:44:45Z</time></trkpt><trkpt lat="40.29566856354445" lon="15.646426978970803"><ele>477.0</ele><time>2026-04-26T08:44:46Z</time></trkpt><trkpt lat="40.29552993352872" lon="15.646298935378438"><ele>477.33333333333337</ele><time>2026-04-26T08:44:47Z</time></trkpt><trkpt lat="40.29538827282003" lon="15.646170493605963"><ele>477.6666666666667</ele><time>2026-04-26T08:44:48Z</time></trkpt><trkpt lat="40.29524236098111" lon="15.646039179186008"><ele>478.0</ele><time>2026-04-26T08:44:49Z</time></trkpt><trkpt lat="40.29509798159511" lon="15.645909384010112"><ele>478.0</ele><time>2026-04-26T08:44:50Z</time></trkpt><trkpt lat="40.29496387957055" lon="15.645790748234624"><ele>478.0</ele><time>2026-04-26T08:44:51Z</time></trkpt><trkpt lat="40.29483354548" lon="15.645673899885148"><ele>478.0</ele><time>2026-04-26T08:44:52Z</time></trkpt><trkpt lat="40.29469874097556" lon="15.645553982328023"><ele>478.0</ele><time>2026-04-26T08:44:53Z</time></trkpt><trkpt lat="40.29455863917944" lon="15.645430135187832"><ele>478.0</ele><time>2026-04-26T08:44:54Z</time></trkpt><trkpt lat="40.29441308269281" lon="15.64530249644194"><ele>478.0</ele><time>2026-04-26T08:44:55Z</time></trkpt><trkpt lat="40.294271537815" lon="15.645179074330725"><ele>478.0</ele><time>2026-04-26T08:44:56Z</time></trkpt><trkpt lat="40.29414176744689" lon="15.645038203317915"><ele>478.0</ele><time>2026-04-26T08:44:57Z</time></trkpt><trkpt lat="40.29400303865396" lon="15.64491153426695"><ele>478.0</ele><time>2026-04-26T08:44:58Z</time></trkpt><trkpt lat="40.293860735436674" lon="15.644783058685377"><ele>478.33333333333337</ele><time>2026-04-26T08:44:59Z</time></trkpt><trkpt lat="40.29370976910281" lon="15.644673993520344"><ele>478.66666666666663</ele><time>2026-04-26T08:45:00Z</time></trkpt><trkpt lat="40.29356839728108" lon="15.644544854828329"><ele>479.0</ele><time>2026-04-26T08:45:01Z</time></trkpt><trkpt lat="40.29342787400144" lon="15.644416361397274"><ele>479.3333333333333</ele><time>2026-04-26T08:45:02Z</time></trkpt><trkpt lat="40.293288614684265" lon="15.644286497962792"><ele>479.66666666666663</ele><time>2026-04-26T08:45:03Z</time></trkpt><trkpt lat="40.29314927028862" lon="15.644158496781271"><ele>480.0</ele><time>2026-04-26T08:45:04Z</time></trkpt><trkpt lat="40.29301690386604" lon="15.644037743248377"><ele>480.0</ele><time>2026-04-26T08:45:05Z</time></trkpt><trkpt lat="40.29288838576422" lon="15.643920069200892"><ele>480.0</ele><time>2026-04-26T08:45:06Z</time></trkpt><trkpt lat="40.292759992095824" lon="15.643808482159342"><ele>480.0</ele><time>2026-04-26T08:45:07Z</time></trkpt><trkpt lat="40.292630450093974" lon="15.643695634821611"><ele>479.33333333333337</ele><time>2026-04-26T08:45:08Z</time></trkpt><trkpt lat="40.29249897183776" lon="15.643579283255994"><ele>478.6666666666667</ele><time>2026-04-26T08:45:09Z</time></trkpt><trkpt lat="40.2923647017033" lon="15.64346231578895"><ele>478.0</ele><time>2026-04-26T08:45:10Z</time></trkpt><trkpt lat="40.292231911891264" lon="15.643341426323314"><ele>478.0</ele><time>2026-04-26T08:45:11Z</time></trkpt><trkpt lat="40.29209803611568" lon="15.643218163142254"><ele>478.0</ele><time>2026-04-26T08:45:12Z</time></trkpt><trkpt lat="40.29196427268469" lon="15.643095674756411"><ele>478.0</ele><time>2026-04-26T08:45:13Z</time></trkpt><trkpt lat="40.2918270557978" lon="15.642974355890976"><ele>478.0</ele><time>2026-04-26T08:45:14Z</time></trkpt><trkpt lat="40.29169733010347" lon="15.64285636904707"><ele>478.0</ele><time>2026-04-26T08:45:15Z</time></trkpt><trkpt lat="40.29156741327406" lon="15.642736844743636"><ele>478.0</ele><time>2026-04-26T08:45:16Z</time></trkpt><trkpt lat="40.29143469242212" lon="15.64261915274467"><ele>478.6666666666667</ele><time>2026-04-26T08:45:17Z</time></trkpt><trkpt lat="40.29130013580582" lon="15.642499088018752"><ele>479.33333333333337</ele><time>2026-04-26T08:45:18Z</time></trkpt><trkpt lat="40.291166118144226" lon="15.642380558905439"><ele>480.0</ele><time>2026-04-26T08:45:19Z</time></trkpt><trkpt lat="40.29103921900114" lon="15.642264151108556"><ele>480.0</ele><time>2026-04-26T08:45:20Z</time></trkpt><trkpt lat="40.290920222197194" lon="15.64215551535955"><ele>480.0</ele><time>2026-04-26T08:45:21Z</time></trkpt><trkpt lat="40.290805723021215" lon="15.642054588754085"><ele>480.0</ele><time>2026-04-26T08:45:22Z</time></trkpt><trkpt lat="40.29068993488045" lon="15.641949112511645"><ele>480.0</ele><time>2026-04-26T08:45:23Z</time></trkpt><trkpt lat="40.29057551958579" lon="15.641844825381272"><ele>480.0</ele><time>2026-04-26T08:45:24Z</time></trkpt><trkpt lat="40.29045650758285" lon="15.641738411542145"><ele>480.0</ele><time>2026-04-26T08:45:25Z</time></trkpt><trkpt lat="40.29033307580039" lon="15.641628443996225"><ele>480.0</ele><time>2026-04-26T08:45:26Z</time></trkpt><trkpt lat="40.29020131329526" lon="15.6415094710519"><ele>480.0</ele><time>2026-04-26T08:45:27Z</time></trkpt><trkpt lat="40.2900630274481" lon="15.641386647476818"><ele>480.0</ele><time>2026-04-26T08:45:28Z</time></trkpt><trkpt lat="40.289927032306544" lon="15.64126498035531"><ele>480.0</ele><time>2026-04-26T08:45:29Z</time></trkpt><trkpt lat="40.28978999646669" lon="15.641143309852016"><ele>480.33333333333337</ele><time>2026-04-26T08:45:30Z</time></trkpt><trkpt lat="40.28965330361835" lon="15.641026438698372"><ele>480.6666666666667</ele><time>2026-04-26T08:45:31Z</time></trkpt><trkpt lat="40.289524212042615" lon="15.640908265067754"><ele>481.0</ele><time>2026-04-26T08:45:32Z</time></trkpt><trkpt lat="40.28939656762774" lon="15.640792435334847"><ele>481.0</ele><time>2026-04-26T08:45:33Z</time></trkpt><trkpt lat="40.28926814334835" lon="15.640672196069728"><ele>481.0</ele><time>2026-04-26T08:45:34Z</time></trkpt><trkpt lat="40.289139533949594" lon="15.640557268521947"><ele>481.0</ele><time>2026-04-26T08:45:35Z</time></trkpt><trkpt lat="40.28901259582147" lon="15.64044296473394"><ele>481.0</ele><time>2026-04-26T08:45:36Z</time></trkpt><trkpt lat="40.28888893685652" lon="15.640332579947016"><ele>481.0</ele><time>2026-04-26T08:45:37Z</time></trkpt><trkpt lat="40.28877220367763" lon="15.640224946956357"><ele>481.0</ele><time>2026-04-26T08:45:38Z</time></trkpt><trkpt lat="40.28866277842981" lon="15.640127131828992"><ele>481.0</ele><time>2026-04-26T08:45:39Z</time></trkpt><trkpt lat="40.288547155547136" lon="15.640024281933632"><ele>481.0</ele><time>2026-04-26T08:45:40Z</time></trkpt><trkpt lat="40.28841773700564" lon="15.639918113240705"><ele>481.0</ele><time>2026-04-26T08:45:41Z</time></trkpt><trkpt lat="40.28828584957861" lon="15.639801237836405"><ele>481.0</ele><time>2026-04-26T08:45:42Z</time></trkpt><trkpt lat="40.28815448508744" lon="15.639680931743428"><ele>481.0</ele><time>2026-04-26T08:45:43Z</time></trkpt><trkpt lat="40.288021740805306" lon="15.6395644684022"><ele>481.0</ele><time>2026-04-26T08:45:44Z</time></trkpt><trkpt lat="40.28788547449947" lon="15.639447506516255"><ele>481.0</ele><time>2026-04-26T08:45:45Z</time></trkpt><trkpt lat="40.287751312694056" lon="15.639330060238107"><ele>481.0</ele><time>2026-04-26T08:45:46Z</time></trkpt><trkpt lat="40.287622695838365" lon="15.639207584808542"><ele>481.0</ele><time>2026-04-26T08:45:47Z</time></trkpt><trkpt lat="40.287493666674436" lon="15.639090880117319"><ele>481.0</ele><time>2026-04-26T08:45:48Z</time></trkpt><trkpt lat="40.28736494777427" lon="15.638971906136371"><ele>481.33333333333337</ele><time>2026-04-26T08:45:49Z</time></trkpt><trkpt lat="40.287238193791424" lon="15.638854490609642"><ele>481.66666666666663</ele><time>2026-04-26T08:45:50Z</time></trkpt><trkpt lat="40.28711354012677" lon="15.638732652119174"><ele>482.0</ele><time>2026-04-26T08:45:51Z</time></trkpt><trkpt lat="40.28698971723129" lon="15.638608443132823"><ele>482.0</ele><time>2026-04-26T08:45:52Z</time></trkpt><trkpt lat="40.286869807515025" lon="15.638479928743351"><ele>482.0</ele><time>2026-04-26T08:45:53Z</time></trkpt><trkpt lat="40.286756347652634" lon="15.638347573346891"><ele>482.0</ele><time>2026-04-26T08:45:54Z</time></trkpt><trkpt lat="40.28665208018765" lon="15.638201436826533"><ele>482.0</ele><time>2026-04-26T08:45:55Z</time></trkpt><trkpt lat="40.28655570629084" lon="15.638046553953808"><ele>482.0</ele><time>2026-04-26T08:45:56Z</time></trkpt><trkpt lat="40.28646357182326" lon="15.63788748630901"><ele>482.0</ele><time>2026-04-26T08:45:57Z</time></trkpt><trkpt lat="40.28639036259182" lon="15.637721498504686"><ele>482.0</ele><time>2026-04-26T08:45:58Z</time></trkpt><trkpt lat="40.28632482024141" lon="15.637556301428031"><ele>482.0</ele><time>2026-04-26T08:45:59Z</time></trkpt><trkpt lat="40.28626023064228" lon="15.637393983604554"><ele>482.0</ele><time>2026-04-26T08:46:00Z</time></trkpt><trkpt lat="40.286194350847666" lon="15.637237146938514"><ele>482.0</ele><time>2026-04-26T08:46:01Z</time></trkpt><trkpt lat="40.28613038664606" lon="15.63709117061638"><ele>482.0</ele><time>2026-04-26T08:46:02Z</time></trkpt><trkpt lat="40.28607054624908" lon="15.636955356413962"><ele>482.00000000000006</ele><time>2026-04-26T08:46:03Z</time></trkpt><trkpt lat="40.286011488226116" lon="15.636829238974459"><ele>482.00000000000006</ele><time>2026-04-26T08:46:04Z</time></trkpt><trkpt lat="40.28595575871076" lon="15.63672015981223"><ele>482.0</ele><time>2026-04-26T08:46:05Z</time></trkpt><trkpt lat="40.28589499719046" lon="15.636627276631424"><ele>482.0</ele><time>2026-04-26T08:46:06Z</time></trkpt><trkpt lat="40.285833658909574" lon="15.636546381276734"><ele>482.0</ele><time>2026-04-26T08:46:07Z</time></trkpt><trkpt lat="40.28577397934704" lon="15.63646850213727"><ele>482.00000000000006</ele><time>2026-04-26T08:46:08Z</time></trkpt><trkpt lat="40.28572216778532" lon="15.636403041943932"><ele>482.00000000000006</ele><time>2026-04-26T08:46:09Z</time></trkpt><trkpt lat="40.28564541056808" lon="15.63627755982558"><ele>482.0</ele><time>2026-04-26T08:46:11Z</time></trkpt><trkpt lat="40.285608511313725" lon="15.636118956015157"><ele>482.0</ele><time>2026-04-26T08:46:13Z</time></trkpt><trkpt lat="40.28557963567691" lon="15.636034781112732"><ele>482.49999999999994</ele><time>2026-04-26T08:46:14Z</time></trkpt><trkpt lat="40.285531427649225" lon="15.63596664956368"><ele>483.0</ele><time>2026-04-26T08:46:15Z</time></trkpt><trkpt lat="40.28547397521221" lon="15.635929320038464"><ele>483.5</ele><time>2026-04-26T08:46:16Z</time></trkpt><trkpt lat="40.28540472584353" lon="15.635925194345921"><ele>484.0</ele><time>2026-04-26T08:46:17Z</time></trkpt><trkpt lat="40.28533518675793" lon="15.635964750796143"><ele>484.49999999999994</ele><time>2026-04-26T08:46:18Z</time></trkpt><trkpt lat="40.285278831167055" lon="15.636039284469456"><ele>485.0</ele><time>2026-04-26T08:46:19Z</time></trkpt><trkpt lat="40.28522264782339" lon="15.636143738410107"><ele>485.0</ele><time>2026-04-26T08:46:20Z</time></trkpt><trkpt lat="40.285148723723744" lon="15.636249768381099"><ele>485.0</ele><time>2026-04-26T08:46:21Z</time></trkpt><trkpt lat="40.285042326828034" lon="15.63632590237375"><ele>485.0</ele><time>2026-04-26T08:46:22Z</time></trkpt><trkpt lat="40.28490944918711" lon="15.636391884832035"><ele>485.0</ele><time>2026-04-26T08:46:23Z</time></trkpt><trkpt lat="40.284760088920585" lon="15.63646816347836"><ele>484.66666666666663</ele><time>2026-04-26T08:46:24Z</time></trkpt><trkpt lat="40.284604718083834" lon="15.636547460736262"><ele>484.33333333333337</ele><time>2026-04-26T08:46:25Z</time></trkpt><trkpt lat="40.284443358978855" lon="15.636626419172526"><ele>484.0</ele><time>2026-04-26T08:46:26Z</time></trkpt><trkpt lat="40.28426390667727" lon="15.6367142906436"><ele>484.0</ele><time>2026-04-26T08:46:27Z</time></trkpt><trkpt lat="40.28407402175106" lon="15.63681654455443"><ele>484.0</ele><time>2026-04-26T08:46:28Z</time></trkpt><trkpt lat="40.283867668353956" lon="15.636900001011432"><ele>484.0</ele><time>2026-04-26T08:46:29Z</time></trkpt><trkpt lat="40.283657513914" lon="15.637004452396429"><ele>483.5</ele><time>2026-04-26T08:46:30Z</time></trkpt><trkpt lat="40.28344213693201" lon="15.637111499419083"><ele>483.0</ele><time>2026-04-26T08:46:31Z</time></trkpt><trkpt lat="40.28323244974511" lon="15.637215651040563"><ele>483.5</ele><time>2026-04-26T08:46:32Z</time></trkpt><trkpt lat="40.28301912724605" lon="15.637320281016335"><ele>484.0</ele><time>2026-04-26T08:46:33Z</time></trkpt><trkpt lat="40.28281060765366" lon="15.637420950695853"><ele>484.0</ele><time>2026-04-26T08:46:34Z</time></trkpt><trkpt lat="40.282607262891894" lon="15.637512685186083"><ele>484.0</ele><time>2026-04-26T08:46:35Z</time></trkpt><trkpt lat="40.282409402124244" lon="15.637597031808383"><ele>484.0</ele><time>2026-04-26T08:46:36Z</time></trkpt><trkpt lat="40.28220714250641" lon="15.63767931974592"><ele>483.6666666666667</ele><time>2026-04-26T08:46:37Z</time></trkpt><trkpt lat="40.2820045758953" lon="15.63775248652876"><ele>483.33333333333337</ele><time>2026-04-26T08:46:38Z</time></trkpt><trkpt lat="40.28179984032687" lon="15.63781401019237"><ele>483.0</ele><time>2026-04-26T08:46:39Z</time></trkpt><trkpt lat="40.28159208302325" lon="15.637866593103938"><ele>483.33333333333337</ele><time>2026-04-26T08:46:40Z</time></trkpt><trkpt lat="40.28138900435544" lon="15.637913481080641"><ele>483.6666666666667</ele><time>2026-04-26T08:46:41Z</time></trkpt><trkpt lat="40.28119543569507" lon="15.637993437099178"><ele>484.0</ele><time>2026-04-26T08:46:42Z</time></trkpt><trkpt lat="40.2810031668906" lon="15.638020600319692"><ele>484.0</ele><time>2026-04-26T08:46:43Z</time></trkpt><trkpt lat="40.28081036650168" lon="15.638042654846693"><ele>484.0</ele><time>2026-04-26T08:46:44Z</time></trkpt><trkpt lat="40.28061750163864" lon="15.638062550804333"><ele>484.0</ele><time>2026-04-26T08:46:45Z</time></trkpt><trkpt lat="40.28041658773607" lon="15.638043318784131"><ele>485.0</ele><time>2026-04-26T08:46:46Z</time></trkpt><trkpt lat="40.28021219613351" lon="15.638061256361166"><ele>486.0</ele><time>2026-04-26T08:46:47Z</time></trkpt><trkpt lat="40.2800065469506" lon="15.638077275093357"><ele>487.0</ele><time>2026-04-26T08:46:48Z</time></trkpt><trkpt lat="40.27980272485632" lon="15.638093151501417"><ele>488.0</ele><time>2026-04-26T08:46:49Z</time></trkpt><trkpt lat="40.279592923895706" lon="15.638110066034033"><ele>489.0</ele><time>2026-04-26T08:46:50Z</time></trkpt><trkpt lat="40.279375739938345" lon="15.638126491448045"><ele>490.0</ele><time>2026-04-26T08:46:51Z</time></trkpt><trkpt lat="40.27915214108752" lon="15.638143413373474"><ele>490.0</ele><time>2026-04-26T08:46:52Z</time></trkpt><trkpt lat="40.27892170475637" lon="15.63816259722603"><ele>490.0</ele><time>2026-04-26T08:46:53Z</time></trkpt><trkpt lat="40.27868633101142" lon="15.63818239405965"><ele>490.0</ele><time>2026-04-26T08:46:54Z</time></trkpt><trkpt lat="40.27844550447018" lon="15.638201843618653"><ele>490.0</ele><time>2026-04-26T08:46:55Z</time></trkpt><trkpt lat="40.27819808356651" lon="15.638221750028858"><ele>491.5</ele><time>2026-04-26T08:46:56Z</time></trkpt><trkpt lat="40.27794422083261" lon="15.638242174718647"><ele>493.0</ele><time>2026-04-26T08:46:57Z</time></trkpt><trkpt lat="40.277688632610776" lon="15.638262355028745"><ele>493.0</ele><time>2026-04-26T08:46:58Z</time></trkpt><trkpt lat="40.27743579454017" lon="15.638282022388504"><ele>493.0</ele><time>2026-04-26T08:46:59Z</time></trkpt><trkpt lat="40.27718587909852" lon="15.63829892427427"><ele>493.5</ele><time>2026-04-26T08:47:00Z</time></trkpt><trkpt lat="40.276951512149374" lon="15.638331923587357"><ele>494.0</ele><time>2026-04-26T08:47:01Z</time></trkpt><trkpt lat="40.276727439090806" lon="15.638334204826487"><ele>494.0</ele><time>2026-04-26T08:47:02Z</time></trkpt><trkpt lat="40.27651203854395" lon="15.638327998003867"><ele>494.0</ele><time>2026-04-26T08:47:03Z</time></trkpt><trkpt lat="40.2763004523047" lon="15.63830913221083"><ele>494.0</ele><time>2026-04-26T08:47:04Z</time></trkpt><trkpt lat="40.2760883792801" lon="15.638288305375719"><ele>493.0</ele><time>2026-04-26T08:47:05Z</time></trkpt><trkpt lat="40.27587259026732" lon="15.638256484903772"><ele>492.0</ele><time>2026-04-26T08:47:06Z</time></trkpt><trkpt lat="40.27565576761939" lon="15.638197688477783"><ele>491.0</ele><time>2026-04-26T08:47:07Z</time></trkpt><trkpt lat="40.275434136174894" lon="15.638156284277759"><ele>491.0</ele><time>2026-04-26T08:47:08Z</time></trkpt><trkpt lat="40.275210399752126" lon="15.638114335626334"><ele>491.0</ele><time>2026-04-26T08:47:09Z</time></trkpt><trkpt lat="40.27498513719815" lon="15.638070713100928"><ele>495.0</ele><time>2026-04-26T08:47:10Z</time></trkpt><trkpt lat="40.27475466092041" lon="15.638026080926613"><ele>499.0</ele><time>2026-04-26T08:47:11Z</time></trkpt><trkpt lat="40.27452231099457" lon="15.637981443624524"><ele>499.0</ele><time>2026-04-26T08:47:12Z</time></trkpt><trkpt lat="40.27428968244826" lon="15.637936952303843"><ele>499.0</ele><time>2026-04-26T08:47:13Z</time></trkpt><trkpt lat="40.274053173014266" lon="15.63789147639743"><ele>500.5</ele><time>2026-04-26T08:47:14Z</time></trkpt><trkpt lat="40.2738156533307" lon="15.637845426348534"><ele>502.0</ele><time>2026-04-26T08:47:15Z</time></trkpt><trkpt lat="40.27357323333311" lon="15.637819388198626"><ele>501.0</ele><time>2026-04-26T08:47:16Z</time></trkpt><trkpt lat="40.273333682748245" lon="15.637772602317888"><ele>500.0</ele><time>2026-04-26T08:47:17Z</time></trkpt><trkpt lat="40.27309265963862" lon="15.63772518727908"><ele>500.0</ele><time>2026-04-26T08:47:18Z</time></trkpt><trkpt lat="40.272848027790246" lon="15.637678729800285"><ele>500.0</ele><time>2026-04-26T08:47:19Z</time></trkpt><trkpt lat="40.27260547332231" lon="15.637629548714868"><ele>500.0</ele><time>2026-04-26T08:47:20Z</time></trkpt><trkpt lat="40.27236879086548" lon="15.637580719092949"><ele>500.0</ele><time>2026-04-26T08:47:21Z</time></trkpt><trkpt lat="40.272129822120945" lon="15.637540857311715"><ele>501.0</ele><time>2026-04-26T08:47:22Z</time></trkpt><trkpt lat="40.27190186539463" lon="15.637496553201498"><ele>502.0</ele><time>2026-04-26T08:47:23Z</time></trkpt><trkpt lat="40.27167301514806" lon="15.63745223371685"><ele>502.0</ele><time>2026-04-26T08:47:24Z</time></trkpt><trkpt lat="40.27143854217125" lon="15.637408089004124"><ele>502.0</ele><time>2026-04-26T08:47:25Z</time></trkpt><trkpt lat="40.27119988988314" lon="15.637359025859"><ele>502.0</ele><time>2026-04-26T08:47:26Z</time></trkpt><trkpt lat="40.27095826498803" lon="15.637314744262579"><ele>502.0</ele><time>2026-04-26T08:47:27Z</time></trkpt><trkpt lat="40.27071447824294" lon="15.63726406904878"><ele>502.0</ele><time>2026-04-26T08:47:28Z</time></trkpt><trkpt lat="40.27046690820658" lon="15.637219034859832"><ele>502.0</ele><time>2026-04-26T08:47:29Z</time></trkpt><trkpt lat="40.270217495679496" lon="15.63717347353741"><ele>502.0</ele><time>2026-04-26T08:47:30Z</time></trkpt><trkpt lat="40.26996399465408" lon="15.637130321904287"><ele>502.0</ele><time>2026-04-26T08:47:31Z</time></trkpt><trkpt lat="40.26970996110989" lon="15.63708255323592"><ele>500.0</ele><time>2026-04-26T08:47:32Z</time></trkpt><trkpt lat="40.26945267242805" lon="15.637030995286338"><ele>498.0</ele><time>2026-04-26T08:47:33Z</time></trkpt><trkpt lat="40.269194314094314" lon="15.636977381710581"><ele>499.0</ele><time>2026-04-26T08:47:34Z</time></trkpt><trkpt lat="40.26893205410474" lon="15.63692307034856"><ele>500.0</ele><time>2026-04-26T08:47:35Z</time></trkpt><trkpt lat="40.26866885922272" lon="15.636864380444896"><ele>500.0</ele><time>2026-04-26T08:47:36Z</time></trkpt><trkpt lat="40.268403614509836" lon="15.636794594339651"><ele>500.0</ele><time>2026-04-26T08:47:37Z</time></trkpt><trkpt lat="40.26814229110759" lon="15.63671264313838"><ele>502.5</ele><time>2026-04-26T08:47:38Z</time></trkpt><trkpt lat="40.26788221183106" lon="15.636622948811917"><ele>505.0</ele><time>2026-04-26T08:47:39Z</time></trkpt><trkpt lat="40.2676245618627" lon="15.6365225232668"><ele>505.0</ele><time>2026-04-26T08:47:40Z</time></trkpt><trkpt lat="40.26736732392238" lon="15.636418936114216"><ele>505.0</ele><time>2026-04-26T08:47:41Z</time></trkpt><trkpt lat="40.26711231627065" lon="15.63631497490847"><ele>507.5</ele><time>2026-04-26T08:47:42Z</time></trkpt><trkpt lat="40.266862810570714" lon="15.63621482156438"><ele>510.0</ele><time>2026-04-26T08:47:43Z</time></trkpt><trkpt lat="40.26661975803748" lon="15.636113587791765"><ele>511.0</ele><time>2026-04-26T08:47:44Z</time></trkpt><trkpt lat="40.26638558060246" lon="15.636010759891159"><ele>512.0</ele><time>2026-04-26T08:47:45Z</time></trkpt><trkpt lat="40.26615015674956" lon="15.635916658064794"><ele>512.0</ele><time>2026-04-26T08:47:46Z</time></trkpt><trkpt lat="40.2659142187234" lon="15.635818001916297"><ele>512.0</ele><time>2026-04-26T08:47:47Z</time></trkpt><trkpt lat="40.26567566149103" lon="15.635716126505796"><ele>511.0</ele><time>2026-04-26T08:47:48Z</time></trkpt><trkpt lat="40.26543482010249" lon="15.63561481691862"><ele>510.0</ele><time>2026-04-26T08:47:49Z</time></trkpt><trkpt lat="40.265189771646206" lon="15.635513434484745"><ele>510.0</ele><time>2026-04-26T08:47:50Z</time></trkpt><trkpt lat="40.26494235786777" lon="15.635410203007417"><ele>510.0</ele><time>2026-04-26T08:47:51Z</time></trkpt><trkpt lat="40.26469260168716" lon="15.635309852569355"><ele>507.0</ele><time>2026-04-26T08:47:52Z</time></trkpt><trkpt lat="40.264441451281975" lon="15.635208127364148"><ele>504.0</ele><time>2026-04-26T08:47:53Z</time></trkpt><trkpt lat="40.264188698131406" lon="15.635104836817243"><ele>507.5</ele><time>2026-04-26T08:47:54Z</time></trkpt><trkpt lat="40.26393534477229" lon="15.63499776535911"><ele>511.0</ele><time>2026-04-26T08:47:55Z</time></trkpt><trkpt lat="40.26368269189853" lon="15.634891825545676"><ele>511.0</ele><time>2026-04-26T08:47:56Z</time></trkpt><trkpt lat="40.26343989000062" lon="15.634787870744006"><ele>511.0</ele><time>2026-04-26T08:47:57Z</time></trkpt><trkpt lat="40.26320183225491" lon="15.63468711765329"><ele>514.0</ele><time>2026-04-26T08:47:58Z</time></trkpt><trkpt lat="40.26296413904458" lon="15.634586190839864"><ele>517.0</ele><time>2026-04-26T08:47:59Z</time></trkpt><trkpt lat="40.262726006580735" lon="15.634479196621498"><ele>517.0</ele><time>2026-04-26T08:48:00Z</time></trkpt><trkpt lat="40.26248741065449" lon="15.634367010018233"><ele>517.0</ele><time>2026-04-26T08:48:01Z</time></trkpt><trkpt lat="40.26224894659914" lon="15.634248249373481"><ele>517.0</ele><time>2026-04-26T08:48:02Z</time></trkpt><trkpt lat="40.262012771305" lon="15.634122139562846"><ele>517.0</ele><time>2026-04-26T08:48:03Z</time></trkpt><trkpt lat="40.26177425111497" lon="15.633995339048798"><ele>517.0</ele><time>2026-04-26T08:48:04Z</time></trkpt><trkpt lat="40.26153716820657" lon="15.633859181943475"><ele>517.0</ele><time>2026-04-26T08:48:05Z</time></trkpt><trkpt lat="40.26130424134543" lon="15.633706060119438"><ele>519.0</ele><time>2026-04-26T08:48:06Z</time></trkpt><trkpt lat="40.26107867794364" lon="15.633536682690783"><ele>521.0</ele><time>2026-04-26T08:48:07Z</time></trkpt><trkpt lat="40.26085861154537" lon="15.633351889656096"><ele>521.0</ele><time>2026-04-26T08:48:08Z</time></trkpt><trkpt lat="40.26064572476496" lon="15.633164799616544"><ele>521.0</ele><time>2026-04-26T08:48:09Z</time></trkpt><trkpt lat="40.260436091023394" lon="15.6329689662389"><ele>520.0</ele><time>2026-04-26T08:48:10Z</time></trkpt><trkpt lat="40.26023134353804" lon="15.632759926261802"><ele>519.0</ele><time>2026-04-26T08:48:11Z</time></trkpt><trkpt lat="40.26002998252631" lon="15.63254213132347"><ele>519.0</ele><time>2026-04-26T08:48:12Z</time></trkpt><trkpt lat="40.25983133127559" lon="15.63231677164451"><ele>519.0</ele><time>2026-04-26T08:48:13Z</time></trkpt><trkpt lat="40.2596434504373" lon="15.632074593270852"><ele>517.5</ele><time>2026-04-26T08:48:14Z</time></trkpt><trkpt lat="40.259458899329964" lon="15.631821870533411"><ele>516.0</ele><time>2026-04-26T08:48:15Z</time></trkpt><trkpt lat="40.25928515150504" lon="15.63156318854724"><ele>516.0</ele><time>2026-04-26T08:48:16Z</time></trkpt><trkpt lat="40.25912320484448" lon="15.631308518061426"><ele>516.0</ele><time>2026-04-26T08:48:17Z</time></trkpt><trkpt lat="40.2589709898292" lon="15.631048032418304"><ele>516.0</ele><time>2026-04-26T08:48:18Z</time></trkpt><trkpt lat="40.2588271413675" lon="15.630777098690558"><ele>516.0</ele><time>2026-04-26T08:48:19Z</time></trkpt><trkpt lat="40.25868995889291" lon="15.630499926866888"><ele>517.0</ele><time>2026-04-26T08:48:20Z</time></trkpt><trkpt lat="40.25855635546298" lon="15.6302179229342"><ele>518.0</ele><time>2026-04-26T08:48:21Z</time></trkpt><trkpt lat="40.25842584710269" lon="15.629932686216959"><ele>518.0</ele><time>2026-04-26T08:48:22Z</time></trkpt><trkpt lat="40.258297725713895" lon="15.629642890913123"><ele>518.0</ele><time>2026-04-26T08:48:23Z</time></trkpt><trkpt lat="40.25817298484186" lon="15.62934595057374"><ele>516.0</ele><time>2026-04-26T08:48:24Z</time></trkpt><trkpt lat="40.258045322813324" lon="15.629053295573238"><ele>514.0</ele><time>2026-04-26T08:48:25Z</time></trkpt><trkpt lat="40.257920620351506" lon="15.62875039585817"><ele>513.0</ele><time>2026-04-26T08:48:26Z</time></trkpt><trkpt lat="40.257799433976025" lon="15.628446468597884"><ele>512.0</ele><time>2026-04-26T08:48:27Z</time></trkpt><trkpt lat="40.25767867751036" lon="15.628136852154535"><ele>512.0</ele><time>2026-04-26T08:48:28Z</time></trkpt><trkpt lat="40.257555257075204" lon="15.627828555825873"><ele>512.0</ele><time>2026-04-26T08:48:29Z</time></trkpt><trkpt lat="40.25743176299106" lon="15.627518053210965"><ele>512.5</ele><time>2026-04-26T08:48:30Z</time></trkpt><trkpt lat="40.2573083665494" lon="15.627205680387116"><ele>513.0</ele><time>2026-04-26T08:48:31Z</time></trkpt><trkpt lat="40.257184519333556" lon="15.626896080602773"><ele>515.0</ele><time>2026-04-26T08:48:32Z</time></trkpt><trkpt lat="40.25706269418084" lon="15.626587046006868"><ele>517.0</ele><time>2026-04-26T08:48:33Z</time></trkpt><trkpt lat="40.256946243438705" lon="15.626285060645108"><ele>518.5</ele><time>2026-04-26T08:48:34Z</time></trkpt><trkpt lat="40.25682962433114" lon="15.625990991654112"><ele>520.0</ele><time>2026-04-26T08:48:35Z</time></trkpt><trkpt lat="40.25671598433664" lon="15.625700858337233"><ele>520.0</ele><time>2026-04-26T08:48:36Z</time></trkpt><trkpt lat="40.25660252891611" lon="15.6254151182223"><ele>520.0</ele><time>2026-04-26T08:48:37Z</time></trkpt><trkpt lat="40.256487639841716" lon="15.625130201183506"><ele>526.0</ele><time>2026-04-26T08:48:38Z</time></trkpt><trkpt lat="40.25637438206871" lon="15.624848990095714"><ele>532.0</ele><time>2026-04-26T08:48:39Z</time></trkpt><trkpt lat="40.2562642692796" lon="15.624569682365669"><ele>534.0</ele><time>2026-04-26T08:48:40Z</time></trkpt><trkpt lat="40.256160584168725" lon="15.624293852447831"><ele>536.0</ele><time>2026-04-26T08:48:41Z</time></trkpt><trkpt lat="40.256056723468454" lon="15.624028852015728"><ele>536.0</ele><time>2026-04-26T08:48:42Z</time></trkpt><trkpt lat="40.25595315062754" lon="15.623766834708146"><ele>536.0</ele><time>2026-04-26T08:48:43Z</time></trkpt><trkpt lat="40.25584738906722" lon="15.623510722778583"><ele>536.0</ele><time>2026-04-26T08:48:44Z</time></trkpt><trkpt lat="40.255741810980304" lon="15.623257908305085"><ele>536.5</ele><time>2026-04-26T08:48:45Z</time></trkpt><trkpt lat="40.255636286494884" lon="15.622998233922623"><ele>537.0</ele><time>2026-04-26T08:48:46Z</time></trkpt><trkpt lat="40.25552980370585" lon="15.622733966126939"><ele>544.0</ele><time>2026-04-26T08:48:47Z</time></trkpt><trkpt lat="40.25542028435294" lon="15.622465496111252"><ele>551.0</ele><time>2026-04-26T08:48:48Z</time></trkpt><trkpt lat="40.25532182961875" lon="15.622187584424129"><ele>547.5</ele><time>2026-04-26T08:48:49Z</time></trkpt><trkpt lat="40.25520337646608" lon="15.621918433982414"><ele>544.0</ele><time>2026-04-26T08:48:50Z</time></trkpt><trkpt lat="40.25506533883432" lon="15.621662136389327"><ele>544.0</ele><time>2026-04-26T08:48:51Z</time></trkpt><trkpt lat="40.254939711992236" lon="15.621393184314124"><ele>544.0</ele><time>2026-04-26T08:48:52Z</time></trkpt><trkpt lat="40.2548125580425" lon="15.621123965982644"><ele>547.0</ele><time>2026-04-26T08:48:53Z</time></trkpt><trkpt lat="40.25468413716631" lon="15.620859068112228"><ele>550.0</ele><time>2026-04-26T08:48:54Z</time></trkpt><trkpt lat="40.25456216032113" lon="15.620607009361215"><ele>550.0</ele><time>2026-04-26T08:48:55Z</time></trkpt><trkpt lat="40.254441247435395" lon="15.620360962548078"><ele>550.0</ele><time>2026-04-26T08:48:56Z</time></trkpt><trkpt lat="40.254319130734096" lon="15.62012073699049"><ele>550.0</ele><time>2026-04-26T08:48:57Z</time></trkpt><trkpt lat="40.254212014506486" lon="15.619874228732387"><ele>550.6666666666667</ele><time>2026-04-26T08:48:58Z</time></trkpt><trkpt lat="40.25410002597544" lon="15.619644032667152"><ele>551.3333333333334</ele><time>2026-04-26T08:48:59Z</time></trkpt><trkpt lat="40.25398881128417" lon="15.619417467465087"><ele>552.0</ele><time>2026-04-26T08:49:00Z</time></trkpt><trkpt lat="40.253877680046514" lon="15.61919188813485"><ele>556.3333333333334</ele><time>2026-04-26T08:49:01Z</time></trkpt><trkpt lat="40.253766188899384" lon="15.618965578344065"><ele>560.6666666666667</ele><time>2026-04-26T08:49:02.012Z</time></trkpt><trkpt lat="40.253655460179395" lon="15.61873949396106"><ele>565.0</ele><time>2026-04-26T08:49:03.012Z</time></trkpt><trkpt lat="40.25354418632598" lon="15.6185118105097"><ele>567.3333333333334</ele><time>2026-04-26T08:49:04.012Z</time></trkpt><trkpt lat="40.25343289044414" lon="15.618284082039613"><ele>569.6666666666666</ele><time>2026-04-26T08:49:05.011Z</time></trkpt><trkpt lat="40.253324750477425" lon="15.618062811017406"><ele>572.0</ele><time>2026-04-26T08:49:06.011Z</time></trkpt><trkpt lat="40.25322023454261" lon="15.617848955268375"><ele>575.5</ele><time>2026-04-26T08:49:07.01Z</time></trkpt><trkpt lat="40.25311579137806" lon="15.61763708173579"><ele>579.0</ele><time>2026-04-26T08:49:08.011Z</time></trkpt><trkpt lat="40.25131858889037" lon="15.614039646476147"><ele>570.0</ele><time>2026-04-26T08:49:22Z</time></trkpt><trkpt lat="40.25120390118006" lon="15.613786408708565"><ele>561.0</ele><time>2026-04-26T08:49:23Z</time></trkpt><trkpt lat="40.25121253701148" lon="15.613628797023596"><ele>552.0</ele><time>2026-04-26T08:49:24Z</time></trkpt><trkpt lat="40.2511297051531" lon="15.613359138600325"><ele>550.0</ele><time>2026-04-26T08:49:25Z</time></trkpt><trkpt lat="40.25105878647502" lon="15.613082157102609"><ele>548.0</ele><time>2026-04-26T08:49:26Z</time></trkpt><trkpt lat="40.2509999972065" lon="15.6127860331814"><ele>547.5</ele><time>2026-04-26T08:49:27Z</time></trkpt><trkpt lat="40.25095585058823" lon="15.612480558209835"><ele>547.0</ele><time>2026-04-26T08:49:28Z</time></trkpt><trkpt lat="40.250913244138324" lon="15.612170701746264"><ele>547.0</ele><time>2026-04-26T08:49:29Z</time></trkpt><trkpt lat="40.25091470461549" lon="15.611846992568795"><ele>547.0</ele><time>2026-04-26T08:49:30Z</time></trkpt><trkpt lat="40.25091332053702" lon="15.611538870804836"><ele>547.0</ele><time>2026-04-26T08:49:31Z</time></trkpt><trkpt lat="40.25091886792505" lon="15.611233904123061"><ele>547.0</ele><time>2026-04-26T08:49:32Z</time></trkpt><trkpt lat="40.250929526592145" lon="15.610927421696841"><ele>544.5</ele><time>2026-04-26T08:49:33Z</time></trkpt><trkpt lat="40.25094086589379" lon="15.610615598654194"><ele>542.0</ele><time>2026-04-26T08:49:34Z</time></trkpt><trkpt lat="40.25095231985501" lon="15.610300622496098"><ele>542.0</ele><time>2026-04-26T08:49:35Z</time></trkpt><trkpt lat="40.250963548910214" lon="15.60999183113324"><ele>542.0</ele><time>2026-04-26T08:49:36Z</time></trkpt><trkpt lat="40.250974793300294" lon="15.609682618099075"><ele>540.5</ele><time>2026-04-26T08:49:37Z</time></trkpt><trkpt lat="40.250986251229854" lon="15.609367532858206"><ele>539.0</ele><time>2026-04-26T08:49:38Z</time></trkpt><trkpt lat="40.25099800289523" lon="15.609044766656597"><ele>539.0</ele><time>2026-04-26T08:49:39Z</time></trkpt><trkpt lat="40.25100968348683" lon="15.608724620261066"><ele>539.0</ele><time>2026-04-26T08:49:40Z</time></trkpt><trkpt lat="40.25102163948752" lon="15.60839692537144"><ele>537.5</ele><time>2026-04-26T08:49:41Z</time></trkpt><trkpt lat="40.25103394436937" lon="15.608059668193015"><ele>536.0</ele><time>2026-04-26T08:49:42Z</time></trkpt><trkpt lat="40.251046488154735" lon="15.607715863037203"><ele>536.0</ele><time>2026-04-26T08:49:43Z</time></trkpt><trkpt lat="40.251059265028275" lon="15.607365669307868"><ele>536.0</ele><time>2026-04-26T08:49:44Z</time></trkpt><trkpt lat="40.251070779565765" lon="15.607010559756501"><ele>534.5</ele><time>2026-04-26T08:49:45Z</time></trkpt><trkpt lat="40.251078659323554" lon="15.60665986742419"><ele>533.0</ele><time>2026-04-26T08:49:46Z</time></trkpt><trkpt lat="40.251076950966564" lon="15.606312304587027"><ele>533.0</ele><time>2026-04-26T08:49:47Z</time></trkpt><trkpt lat="40.25106804165807" lon="15.605969192044446"><ele>533.0</ele><time>2026-04-26T08:49:48Z</time></trkpt><trkpt lat="40.25104987991822" lon="15.605634304760038"><ele>534.0</ele><time>2026-04-26T08:49:49Z</time></trkpt><trkpt lat="40.251027403673994" lon="15.605300041663114"><ele>535.0</ele><time>2026-04-26T08:49:50Z</time></trkpt><trkpt lat="40.25099745305667" lon="15.604962058950091"><ele>535.0</ele><time>2026-04-26T08:49:51Z</time></trkpt><trkpt lat="40.25095743442137" lon="15.604621913084507"><ele>535.0</ele><time>2026-04-26T08:49:52Z</time></trkpt><trkpt lat="40.25091095943869" lon="15.604287617570192"><ele>535.0</ele><time>2026-04-26T08:49:53Z</time></trkpt><trkpt lat="40.250856222627725" lon="15.603947473035278"><ele>535.0</ele><time>2026-04-26T08:49:54Z</time></trkpt><trkpt lat="40.25079336822643" lon="15.603607461307755"><ele>535.0</ele><time>2026-04-26T08:49:55Z</time></trkpt><trkpt lat="40.25072262436923" lon="15.603262260378317"><ele>535.0</ele><time>2026-04-26T08:49:56Z</time></trkpt><trkpt lat="40.25064043616869" lon="15.60292492785432"><ele>533.0</ele><time>2026-04-26T08:49:57Z</time></trkpt><trkpt lat="40.250555591012976" lon="15.602594708111845"><ele>531.0</ele><time>2026-04-26T08:49:58Z</time></trkpt><trkpt lat="40.250462963196284" lon="15.602259070691304"><ele>530.5</ele><time>2026-04-26T08:49:59Z</time></trkpt><trkpt lat="40.25036902913628" lon="15.601919018507107"><ele>530.0</ele><time>2026-04-26T08:50:00Z</time></trkpt><trkpt lat="40.25027609032759" lon="15.60157723973172"><ele>530.0</ele><time>2026-04-26T08:50:01Z</time></trkpt><trkpt lat="40.25018661094697" lon="15.60125302931749"><ele>530.0</ele><time>2026-04-26T08:50:02Z</time></trkpt><trkpt lat="40.25010335201778" lon="15.60095174583407"><ele>529.0</ele><time>2026-04-26T08:50:03Z</time></trkpt><trkpt lat="40.25002046115243" lon="15.600651794240536"><ele>528.0</ele><time>2026-04-26T08:50:04Z</time></trkpt><trkpt lat="40.24991456756563" lon="15.60035980753792"><ele>529.0</ele><time>2026-04-26T08:50:05Z</time></trkpt><trkpt lat="40.249831173163244" lon="15.600047297863332"><ele>530.0</ele><time>2026-04-26T08:50:06Z</time></trkpt><trkpt lat="40.249741192293854" lon="15.599739688231873"><ele>529.0</ele><time>2026-04-26T08:50:07Z</time></trkpt><trkpt lat="40.24964323112359" lon="15.599427400526356"><ele>528.0</ele><time>2026-04-26T08:50:08Z</time></trkpt><trkpt lat="40.2495544970832" lon="15.599108247799201"><ele>528.0</ele><time>2026-04-26T08:50:09Z</time></trkpt><trkpt lat="40.24946952256592" lon="15.598787447175647"><ele>528.0</ele><time>2026-04-26T08:50:10Z</time></trkpt><trkpt lat="40.24937984271533" lon="15.598461819239093"><ele>530.0</ele><time>2026-04-26T08:50:11Z</time></trkpt><trkpt lat="40.249291062159216" lon="15.598127373854972"><ele>532.0</ele><time>2026-04-26T08:50:12Z</time></trkpt><trkpt lat="40.24920855156678" lon="15.597794810515111"><ele>534.5</ele><time>2026-04-26T08:50:13Z</time></trkpt><trkpt lat="40.24912669749964" lon="15.59746824295209"><ele>537.0</ele><time>2026-04-26T08:50:14Z</time></trkpt><trkpt lat="40.24904375129991" lon="15.597150091967201"><ele>537.0</ele><time>2026-04-26T08:50:15Z</time></trkpt><trkpt lat="40.24895748847599" lon="15.596829058224325"><ele>537.0</ele><time>2026-04-26T08:50:16Z</time></trkpt><trkpt lat="40.24886488591563" lon="15.596504987490055"><ele>537.0</ele><time>2026-04-26T08:50:17Z</time></trkpt><trkpt lat="40.248768843567234" lon="15.59618432973893"><ele>537.0</ele><time>2026-04-26T08:50:18Z</time></trkpt><trkpt lat="40.24866484542678" lon="15.595872665002501"><ele>538.0</ele><time>2026-04-26T08:50:19Z</time></trkpt><trkpt lat="40.24855963515843" lon="15.595563727864954"><ele>539.0</ele><time>2026-04-26T08:50:20Z</time></trkpt><trkpt lat="40.24844951650445" lon="15.595259036197865"><ele>539.0</ele><time>2026-04-26T08:50:21Z</time></trkpt><trkpt lat="40.24833413832938" lon="15.59496067910509"><ele>539.0</ele><time>2026-04-26T08:50:22Z</time></trkpt><trkpt lat="40.24821957892547" lon="15.594660273189099"><ele>535.5</ele><time>2026-04-26T08:50:23Z</time></trkpt><trkpt lat="40.24811142879146" lon="15.594355154725468"><ele>532.0</ele><time>2026-04-26T08:50:24Z</time></trkpt><trkpt lat="40.24800382288181" lon="15.594050686272997"><ele>532.0</ele><time>2026-04-26T08:50:25Z</time></trkpt><trkpt lat="40.24789210374939" lon="15.593747035650972"><ele>532.0</ele><time>2026-04-26T08:50:26Z</time></trkpt><trkpt lat="40.247779712572424" lon="15.593444980631547"><ele>532.5</ele><time>2026-04-26T08:50:27Z</time></trkpt><trkpt lat="40.24766837192249" lon="15.59314159345292"><ele>533.0</ele><time>2026-04-26T08:50:28Z</time></trkpt><trkpt lat="40.24755605652793" lon="15.592840816163443"><ele>538.0</ele><time>2026-04-26T08:50:29Z</time></trkpt><trkpt lat="40.24744321638701" lon="15.59253867704445"><ele>543.0</ele><time>2026-04-26T08:50:30Z</time></trkpt><trkpt lat="40.24733353898884" lon="15.592236908463159"><ele>539.0</ele><time>2026-04-26T08:50:31Z</time></trkpt><trkpt lat="40.247223988054444" lon="15.59193533799146"><ele>535.0</ele><time>2026-04-26T08:50:32Z</time></trkpt><trkpt lat="40.247113611012104" lon="15.591629845428892"><ele>535.0</ele><time>2026-04-26T08:50:33Z</time></trkpt><trkpt lat="40.24699808844333" lon="15.591327658612963"><ele>535.0</ele><time>2026-04-26T08:50:34Z</time></trkpt><trkpt lat="40.2468879904767" lon="15.591021572930943"><ele>537.0</ele><time>2026-04-26T08:50:35Z</time></trkpt><trkpt lat="40.246778274571476" lon="15.590712887193654"><ele>539.0</ele><time>2026-04-26T08:50:36Z</time></trkpt><trkpt lat="40.24666620788298" lon="15.59040569481314"><ele>539.5</ele><time>2026-04-26T08:50:37Z</time></trkpt><trkpt lat="40.246553625884275" lon="15.590097744071123"><ele>540.0</ele><time>2026-04-26T08:50:38Z</time></trkpt><trkpt lat="40.24644024369452" lon="15.589789569727184"><ele>538.5</ele><time>2026-04-26T08:50:39Z</time></trkpt><trkpt lat="40.24632794295719" lon="15.589479847357387"><ele>537.0</ele><time>2026-04-26T08:50:40Z</time></trkpt><trkpt lat="40.24621272727733" lon="15.589170917164825"><ele>537.0</ele><time>2026-04-26T08:50:41Z</time></trkpt><trkpt lat="40.246098511406956" lon="15.588861644870867"><ele>537.0</ele><time>2026-04-26T08:50:42Z</time></trkpt><trkpt lat="40.24598433732303" lon="15.588552659205885"><ele>539.0</ele><time>2026-04-26T08:50:43Z</time></trkpt><trkpt lat="40.24587306604821" lon="15.588252211650113"><ele>541.0</ele><time>2026-04-26T08:50:44Z</time></trkpt><trkpt lat="40.245775953852075" lon="15.587953623042774"><ele>545.0</ele><time>2026-04-26T08:50:45Z</time></trkpt><trkpt lat="40.24569438255925" lon="15.587654111975592"><ele>549.0</ele><time>2026-04-26T08:50:46Z</time></trkpt><trkpt lat="40.245637300773275" lon="15.587348653727114"><ele>546.5</ele><time>2026-04-26T08:50:47Z</time></trkpt><trkpt lat="40.2456013369724" lon="15.587037079266514"><ele>544.0</ele><time>2026-04-26T08:50:48Z</time></trkpt><trkpt lat="40.245587093908014" lon="15.586719757629508"><ele>544.0</ele><time>2026-04-26T08:50:49Z</time></trkpt><trkpt lat="40.24558983001187" lon="15.586396245958392"><ele>544.0</ele><time>2026-04-26T08:50:50Z</time></trkpt><trkpt lat="40.245616472490525" lon="15.586075765695721"><ele>546.0</ele><time>2026-04-26T08:50:51Z</time></trkpt><trkpt lat="40.24566196680467" lon="15.58575556181968"><ele>548.0</ele><time>2026-04-26T08:50:52Z</time></trkpt><trkpt lat="40.24572011693734" lon="15.585436539663895"><ele>549.0</ele><time>2026-04-26T08:50:53Z</time></trkpt><trkpt lat="40.2457776406984" lon="15.585113822864637"><ele>550.0</ele><time>2026-04-26T08:50:54Z</time></trkpt><trkpt lat="40.24582890914016" lon="15.58478309512086"><ele>550.0</ele><time>2026-04-26T08:50:55Z</time></trkpt><trkpt lat="40.24588759822278" lon="15.584456294543267"><ele>550.0</ele><time>2026-04-26T08:50:56Z</time></trkpt><trkpt lat="40.24594501320198" lon="15.584125131702747"><ele>550.0</ele><time>2026-04-26T08:50:57Z</time></trkpt><trkpt lat="40.2460062215391" lon="15.58379238007697"><ele>550.0</ele><time>2026-04-26T08:50:58Z</time></trkpt><trkpt lat="40.24606367754837" lon="15.583457085569682"><ele>548.5</ele><time>2026-04-26T08:50:59Z</time></trkpt><trkpt lat="40.24612748430407" lon="15.583123357212466"><ele>547.0</ele><time>2026-04-26T08:51:00Z</time></trkpt><trkpt lat="40.24619043977832" lon="15.58278491015962"><ele>544.5</ele><time>2026-04-26T08:51:01Z</time></trkpt><trkpt lat="40.24625215552285" lon="15.582443459470294"><ele>542.0</ele><time>2026-04-26T08:51:02Z</time></trkpt><trkpt lat="40.246309123650356" lon="15.582094822849882"><ele>540.5</ele><time>2026-04-26T08:51:03Z</time></trkpt><trkpt lat="40.24636006417303" lon="15.581748584717728"><ele>539.0</ele><time>2026-04-26T08:51:04Z</time></trkpt><trkpt lat="40.24639251569764" lon="15.581380707726694"><ele>535.5</ele><time>2026-04-26T08:51:05Z</time></trkpt><trkpt lat="40.24641328116452" lon="15.581017222992845"><ele>532.0</ele><time>2026-04-26T08:51:06Z</time></trkpt><trkpt lat="40.246417560327714" lon="15.580650530555305"><ele>530.5</ele><time>2026-04-26T08:51:07Z</time></trkpt><trkpt lat="40.24640774844184" lon="15.580270696022405"><ele>529.0</ele><time>2026-04-26T08:51:08Z</time></trkpt><trkpt lat="40.246385019461705" lon="15.579889680552277"><ele>528.0</ele><time>2026-04-26T08:51:09Z</time></trkpt><trkpt lat="40.246361946211515" lon="15.579512037547373"><ele>527.0</ele><time>2026-04-26T08:51:10Z</time></trkpt><trkpt lat="40.24633866483123" lon="15.579152567327577"><ele>527.0</ele><time>2026-04-26T08:51:11Z</time></trkpt><trkpt lat="40.246315334670385" lon="15.578798593894467"><ele>527.0</ele><time>2026-04-26T08:51:12Z</time></trkpt><trkpt lat="40.24628996791629" lon="15.578443079173212"><ele>526.0</ele><time>2026-04-26T08:51:13Z</time></trkpt><trkpt lat="40.24626741428833" lon="15.57808671172866"><ele>525.0</ele><time>2026-04-26T08:51:14Z</time></trkpt><trkpt lat="40.24624574943274" lon="15.577730490486067"><ele>524.5</ele><time>2026-04-26T08:51:15Z</time></trkpt><trkpt lat="40.24621710462883" lon="15.57737642712951"><ele>524.0</ele><time>2026-04-26T08:51:16Z</time></trkpt><trkpt lat="40.246189844962174" lon="15.577017414158217"><ele>524.0</ele><time>2026-04-26T08:51:17Z</time></trkpt><trkpt lat="40.246160396941846" lon="15.57665473223717"><ele>524.0</ele><time>2026-04-26T08:51:18Z</time></trkpt><trkpt lat="40.246129508073636" lon="15.576287907520635"><ele>522.5</ele><time>2026-04-26T08:51:19Z</time></trkpt><trkpt lat="40.24609458265436" lon="15.575917723719517"><ele>521.0</ele><time>2026-04-26T08:51:20Z</time></trkpt><trkpt lat="40.246050846573986" lon="15.575543451341277"><ele>521.0</ele><time>2026-04-26T08:51:21Z</time></trkpt><trkpt lat="40.246001450891704" lon="15.57516784909457"><ele>521.0</ele><time>2026-04-26T08:51:22Z</time></trkpt><trkpt lat="40.24595259067873" lon="15.574799412242426"><ele>522.5</ele><time>2026-04-26T08:51:23Z</time></trkpt><trkpt lat="40.24589867894807" lon="15.574429077769198"><ele>524.0</ele><time>2026-04-26T08:51:24Z</time></trkpt><trkpt lat="40.24584681522352" lon="15.574057131704013"><ele>524.5</ele><time>2026-04-26T08:51:25Z</time></trkpt><trkpt lat="40.24579871294546" lon="15.573682677196377"><ele>525.0</ele><time>2026-04-26T08:51:26Z</time></trkpt><trkpt lat="40.245749793381144" lon="15.573307762364347"><ele>525.0</ele><time>2026-04-26T08:51:27Z</time></trkpt><trkpt lat="40.24569838397284" lon="15.57293292552091"><ele>525.0</ele><time>2026-04-26T08:51:28Z</time></trkpt><trkpt lat="40.245645841091076" lon="15.572560002090915"><ele>519.0</ele><time>2026-04-26T08:51:29Z</time></trkpt><trkpt lat="40.24559470733423" lon="15.572190456612036"><ele>513.0</ele><time>2026-04-26T08:51:30Z</time></trkpt><trkpt lat="40.245540916801296" lon="15.57183236115618"><ele>512.5</ele><time>2026-04-26T08:51:31Z</time></trkpt><trkpt lat="40.24549457976486" lon="15.571499948842112"><ele>512.0</ele><time>2026-04-26T08:51:32Z</time></trkpt><trkpt lat="40.24544479641877" lon="15.571165898780695"><ele>513.0</ele><time>2026-04-26T08:51:33Z</time></trkpt><trkpt lat="40.24540081290661" lon="15.570841859088109"><ele>514.0</ele><time>2026-04-26T08:51:34Z</time></trkpt><trkpt lat="40.245353018418164" lon="15.570523623637655"><ele>514.5</ele><time>2026-04-26T08:51:35Z</time></trkpt><trkpt lat="40.245298245774016" lon="15.570208065349052"><ele>515.0</ele><time>2026-04-26T08:51:36Z</time></trkpt><trkpt lat="40.24523221493239" lon="15.569901570971835"><ele>515.0</ele><time>2026-04-26T08:51:37Z</time></trkpt><trkpt lat="40.24515181431536" lon="15.569618306620216"><ele>515.0</ele><time>2026-04-26T08:51:38Z</time></trkpt><trkpt lat="40.24506322797203" lon="15.56934742519811"><ele>514.6666666666666</ele><time>2026-04-26T08:51:39Z</time></trkpt><trkpt lat="40.24495583380543" lon="15.56909696722334"><ele>514.3333333333334</ele><time>2026-04-26T08:51:40Z</time></trkpt><trkpt lat="40.24484063300126" lon="15.568863587596631"><ele>514.0</ele><time>2026-04-26T08:51:41Z</time></trkpt><trkpt lat="40.24471504651801" lon="15.568642271417557"><ele>514.0</ele><time>2026-04-26T08:51:42Z</time></trkpt><trkpt lat="40.24458466984919" lon="15.568436464254935"><ele>514.0</ele><time>2026-04-26T08:51:43Z</time></trkpt><trkpt lat="40.24444526983074" lon="15.568250169812822"><ele>514.0</ele><time>2026-04-26T08:51:44Z</time></trkpt><trkpt lat="40.24429888145355" lon="15.568061053691423"><ele>514.0</ele><time>2026-04-26T08:51:45Z</time></trkpt><trkpt lat="40.24414181212171" lon="15.56786645326749"><ele>514.0</ele><time>2026-04-26T08:51:46Z</time></trkpt><trkpt lat="40.24398933426259" lon="15.567652632310983"><ele>514.0</ele><time>2026-04-26T08:51:47Z</time></trkpt><trkpt lat="40.24382518361121" lon="15.567443606866261"><ele>514.5</ele><time>2026-04-26T08:51:48Z</time></trkpt><trkpt lat="40.24365601827629" lon="15.567227163924501"><ele>515.0</ele><time>2026-04-26T08:51:49Z</time></trkpt><trkpt lat="40.243474129446454" lon="15.567019474175515"><ele>515.0</ele><time>2026-04-26T08:51:50Z</time></trkpt><trkpt lat="40.24329858155304" lon="15.566793019501798"><ele>515.0</ele><time>2026-04-26T08:51:51Z</time></trkpt><trkpt lat="40.24311790935253" lon="15.566566086726663"><ele>513.5</ele><time>2026-04-26T08:51:52Z</time></trkpt><trkpt lat="40.242936993771956" lon="15.566330522092501"><ele>512.0</ele><time>2026-04-26T08:51:53Z</time></trkpt><trkpt lat="40.24274930965615" lon="15.566093086714151"><ele>512.0</ele><time>2026-04-26T08:51:54Z</time></trkpt><trkpt lat="40.24256081995943" lon="15.56585218093159"><ele>512.0</ele><time>2026-04-26T08:51:55Z</time></trkpt><trkpt lat="40.24236957113956" lon="15.565608144815089"><ele>513.0</ele><time>2026-04-26T08:51:56Z</time></trkpt><trkpt lat="40.24217706258437" lon="15.565363000211185"><ele>514.0</ele><time>2026-04-26T08:51:57Z</time></trkpt><trkpt lat="40.241987813316975" lon="15.565116507155194"><ele>514.0</ele><time>2026-04-26T08:51:58Z</time></trkpt><trkpt lat="40.24180630787707" lon="15.56487765802844"><ele>514.0</ele><time>2026-04-26T08:51:59Z</time></trkpt><trkpt lat="40.24162700308536" lon="15.564646819069408"><ele>517.0</ele><time>2026-04-26T08:52:00Z</time></trkpt><trkpt lat="40.24145769000483" lon="15.564429829199035"><ele>520.0</ele><time>2026-04-26T08:52:01Z</time></trkpt><trkpt lat="40.24130772198268" lon="15.564231434110342"><ele>520.0</ele><time>2026-04-26T08:52:02Z</time></trkpt><trkpt lat="40.241170780477376" lon="15.56403177045077"><ele>520.0</ele><time>2026-04-26T08:52:03Z</time></trkpt><trkpt lat="40.24103431778048" lon="15.563808022329175"><ele>520.0</ele><time>2026-04-26T08:52:04Z</time></trkpt><trkpt lat="40.240904309174084" lon="15.56357638982647"><ele>520.0</ele><time>2026-04-26T08:52:05Z</time></trkpt><trkpt lat="40.24077412642364" lon="15.563329313632186"><ele>520.0</ele><time>2026-04-26T08:52:06Z</time></trkpt><trkpt lat="40.240646789530054" lon="15.563072487274749"><ele>534.5</ele><time>2026-04-26T08:52:07Z</time></trkpt><trkpt lat="40.240529538921564" lon="15.562799069881844"><ele>549.0</ele><time>2026-04-26T08:52:08Z</time></trkpt><trkpt lat="40.24044479392977" lon="15.562503861517905"><ele>549.0</ele><time>2026-04-26T08:52:09Z</time></trkpt><trkpt lat="40.2403418505073" lon="15.562213002043054"><ele>549.0</ele><time>2026-04-26T08:52:10Z</time></trkpt><trkpt lat="40.24026317361691" lon="15.561900680103541"><ele>543.5</ele><time>2026-04-26T08:52:11Z</time></trkpt><trkpt lat="40.24019648612263" lon="15.561573348103686"><ele>538.0</ele><time>2026-04-26T08:52:12Z</time></trkpt><trkpt lat="40.24013162186408" lon="15.561241266575049"><ele>533.5</ele><time>2026-04-26T08:52:13Z</time></trkpt><trkpt lat="40.24007967671926" lon="15.560900237940052"><ele>529.0</ele><time>2026-04-26T08:52:14Z</time></trkpt><trkpt lat="40.24004273617917" lon="15.560547798872044"><ele>526.0</ele><time>2026-04-26T08:52:15Z</time></trkpt><trkpt lat="40.239975384827694" lon="15.560196130899673"><ele>523.0</ele><time>2026-04-26T08:52:16Z</time></trkpt><trkpt lat="40.23992528087309" lon="15.559834707113943"><ele>520.5</ele><time>2026-04-26T08:52:17Z</time></trkpt><trkpt lat="40.239876055380726" lon="15.55947860253341"><ele>518.0</ele><time>2026-04-26T08:52:18Z</time></trkpt><trkpt lat="40.23982347974522" lon="15.559118452717867"><ele>534.5</ele><time>2026-04-26T08:52:19Z</time></trkpt><trkpt lat="40.2397712621073" lon="15.55875556595712"><ele>551.0</ele><time>2026-04-26T08:52:20Z</time></trkpt><trkpt lat="40.23972295867486" lon="15.55839782249664"><ele>551.0</ele><time>2026-04-26T08:52:21Z</time></trkpt><trkpt lat="40.239668878185725" lon="15.558062540221574"><ele>551.0</ele><time>2026-04-26T08:52:22Z</time></trkpt><trkpt lat="40.23961490368694" lon="15.557750427930804"><ele>543.5</ele><time>2026-04-26T08:52:23Z</time></trkpt><trkpt lat="40.2395652915205" lon="15.557437606421407"><ele>536.0</ele><time>2026-04-26T08:52:24Z</time></trkpt><trkpt lat="40.23952209265342" lon="15.557144269134838"><ele>529.0</ele><time>2026-04-26T08:52:25Z</time></trkpt><trkpt lat="40.23948159886815" lon="15.556846394341225"><ele>522.0</ele><time>2026-04-26T08:52:26Z</time></trkpt><trkpt lat="40.239437942555355" lon="15.556548817754338"><ele>522.0</ele><time>2026-04-26T08:52:27Z</time></trkpt><trkpt lat="40.23939263260156" lon="15.556250022994888"><ele>522.0</ele><time>2026-04-26T08:52:28Z</time></trkpt><trkpt lat="40.23934954434938" lon="15.555950332709076"><ele>520.0</ele><time>2026-04-26T08:52:29Z</time></trkpt><trkpt lat="40.23931098329874" lon="15.55563941984553"><ele>518.0</ele><time>2026-04-26T08:52:30Z</time></trkpt><trkpt lat="40.23926010683931" lon="15.555316804050463"><ele>512.0</ele><time>2026-04-26T08:52:31Z</time></trkpt><trkpt lat="40.23919603821732" lon="15.554990891058994"><ele>506.0</ele><time>2026-04-26T08:52:32Z</time></trkpt><trkpt lat="40.23911110703655" lon="15.554664430054663"><ele>511.5</ele><time>2026-04-26T08:52:33Z</time></trkpt><trkpt lat="40.23901021329759" lon="15.55433808172464"><ele>517.0</ele><time>2026-04-26T08:52:34Z</time></trkpt><trkpt lat="40.23890392909923" lon="15.554004622374228"><ele>506.0</ele><time>2026-04-26T08:52:35Z</time></trkpt><trkpt lat="40.238793160451486" lon="15.553664890701944"><ele>495.0</ele><time>2026-04-26T08:52:36Z</time></trkpt><trkpt lat="40.23868598817659" lon="15.553332590505699"><ele>495.0</ele><time>2026-04-26T08:52:37Z</time></trkpt><trkpt lat="40.238583863540846" lon="15.553013785352052"><ele>495.0</ele><time>2026-04-26T08:52:38Z</time></trkpt><trkpt lat="40.238482585479495" lon="15.55270399696572"><ele>490.5</ele><time>2026-04-26T08:52:39Z</time></trkpt><trkpt lat="40.23837933777529" lon="15.552402297102667"><ele>486.0</ele><time>2026-04-26T08:52:40Z</time></trkpt><trkpt lat="40.238276869395904" lon="15.552114470058667"><ele>482.5</ele><time>2026-04-26T08:52:41Z</time></trkpt><trkpt lat="40.23816925571336" lon="15.551834431795308"><ele>479.0</ele><time>2026-04-26T08:52:42Z</time></trkpt><trkpt lat="40.23804482878639" lon="15.55155517555368"><ele>486.5</ele><time>2026-04-26T08:52:43Z</time></trkpt><trkpt lat="40.2379024266518" lon="15.551277538685627"><ele>494.0</ele><time>2026-04-26T08:52:44Z</time></trkpt><trkpt lat="40.23773732461858" lon="15.551012984552877"><ele>494.0</ele><time>2026-04-26T08:52:45Z</time></trkpt><trkpt lat="40.23755626848046" lon="15.550766416630172"><ele>494.0</ele><time>2026-04-26T08:52:46Z</time></trkpt><trkpt lat="40.23736402392964" lon="15.550550981369"><ele>499.5</ele><time>2026-04-26T08:52:47Z</time></trkpt><trkpt lat="40.23716197220846" lon="15.550363406496638"><ele>505.0</ele><time>2026-04-26T08:52:48Z</time></trkpt><trkpt lat="40.23695111533227" lon="15.550198732156671"><ele>505.0</ele><time>2026-04-26T08:52:49Z</time></trkpt><trkpt lat="40.23672034845736" lon="15.550055784864888"><ele>505.0</ele><time>2026-04-26T08:52:50.011Z</time></trkpt><trkpt lat="40.236483162995484" lon="15.549940194626974"><ele>506.0</ele><time>2026-04-26T08:52:51.012Z</time></trkpt><trkpt lat="40.23624693343076" lon="15.549851020322576"><ele>507.0</ele><time>2026-04-26T08:52:52.011Z</time></trkpt><trkpt lat="40.23600956271164" lon="15.549785385783853"><ele>507.0</ele><time>2026-04-26T08:52:53.011Z</time></trkpt><trkpt lat="40.23577163342295" lon="15.54972766367041"><ele>507.0</ele><time>2026-04-26T08:52:54.011Z</time></trkpt><trkpt lat="40.233706701584374" lon="15.550916958614765"><ele>490.0</ele><time>2026-04-26T08:53:04Z</time></trkpt><trkpt lat="40.23352741308792" lon="15.551113793935462"><ele>473.0</ele><time>2026-04-26T08:53:05Z</time></trkpt><trkpt lat="40.23320745915765" lon="15.551355204292602"><ele>465.66666666666663</ele><time>2026-04-26T08:53:06Z</time></trkpt><trkpt lat="40.233062650440345" lon="15.55154596718977"><ele>458.33333333333337</ele><time>2026-04-26T08:53:07Z</time></trkpt><trkpt lat="40.23291976944645" lon="15.551729369835215"><ele>451.0</ele><time>2026-04-26T08:53:08Z</time></trkpt><trkpt lat="40.23278188379822" lon="15.55191085981111"><ele>456.0</ele><time>2026-04-26T08:53:09Z</time></trkpt><trkpt lat="40.2326416259536" lon="15.552113317131866"><ele>461.0</ele><time>2026-04-26T08:53:10Z</time></trkpt><trkpt lat="40.23249014611633" lon="15.552318462914759"><ele>466.0</ele><time>2026-04-26T08:53:11Z</time></trkpt><trkpt lat="40.23233389560273" lon="15.552534942565016"><ele>462.5</ele><time>2026-04-26T08:53:12Z</time></trkpt><trkpt lat="40.2321719798615" lon="15.552753401673861"><ele>459.0</ele><time>2026-04-26T08:53:13Z</time></trkpt><trkpt lat="40.23200765947512" lon="15.552983179056932"><ele>459.0</ele><time>2026-04-26T08:53:14Z</time></trkpt><trkpt lat="40.23183840801065" lon="15.553216897783974"><ele>459.0</ele><time>2026-04-26T08:53:15Z</time></trkpt><trkpt lat="40.23166463125789" lon="15.553455270721308"><ele>459.0</ele><time>2026-04-26T08:53:16Z</time></trkpt><trkpt lat="40.23148877491382" lon="15.553700975731505"><ele>459.0</ele><time>2026-04-26T08:53:17Z</time></trkpt><trkpt lat="40.231307013866484" lon="15.553945254850131"><ele>457.5</ele><time>2026-04-26T08:53:18Z</time></trkpt><trkpt lat="40.23111887645217" lon="15.554191762084184"><ele>456.0</ele><time>2026-04-26T08:53:19Z</time></trkpt><trkpt lat="40.23092828770441" lon="15.554439733031197"><ele>453.0</ele><time>2026-04-26T08:53:20Z</time></trkpt><trkpt lat="40.23073554765859" lon="15.55469324672059"><ele>450.0</ele><time>2026-04-26T08:53:21Z</time></trkpt><trkpt lat="40.230545145748394" lon="15.554949034627114"><ele>450.0</ele><time>2026-04-26T08:53:22Z</time></trkpt><trkpt lat="40.23034378070229" lon="15.555195366202168"><ele>450.0</ele><time>2026-04-26T08:53:23Z</time></trkpt><trkpt lat="40.230145358002645" lon="15.555449160408056"><ele>448.0</ele><time>2026-04-26T08:53:24Z</time></trkpt><trkpt lat="40.22995516354513" lon="15.555711718139056"><ele>446.0</ele><time>2026-04-26T08:53:25Z</time></trkpt><trkpt lat="40.22976347427813" lon="15.555973837663412"><ele>454.5</ele><time>2026-04-26T08:53:26Z</time></trkpt><trkpt lat="40.22957630942659" lon="15.556231562158725"><ele>463.0</ele><time>2026-04-26T08:53:27Z</time></trkpt><trkpt lat="40.22938973810588" lon="15.556483980492658"><ele>463.0</ele><time>2026-04-26T08:53:28Z</time></trkpt><trkpt lat="40.229201393113584" lon="15.556735639547693"><ele>463.0</ele><time>2026-04-26T08:53:29Z</time></trkpt><trkpt lat="40.22901453263513" lon="15.556982480831046"><ele>461.0</ele><time>2026-04-26T08:53:30Z</time></trkpt><trkpt lat="40.22883188512015" lon="15.55723116093035"><ele>459.0</ele><time>2026-04-26T08:53:31Z</time></trkpt><trkpt lat="40.22864926550511" lon="15.557480267649916"><ele>459.0</ele><time>2026-04-26T08:53:32Z</time></trkpt><trkpt lat="40.228468019863385" lon="15.55772942343682"><ele>459.0</ele><time>2026-04-26T08:53:33Z</time></trkpt><trkpt lat="40.22829076748025" lon="15.55797442906034"><ele>458.5</ele><time>2026-04-26T08:53:34Z</time></trkpt><trkpt lat="40.22810658363893" lon="15.558219940408673"><ele>458.0</ele><time>2026-04-26T08:53:35Z</time></trkpt><trkpt lat="40.22792481404184" lon="15.55846731186698"><ele>464.0</ele><time>2026-04-26T08:53:36Z</time></trkpt><trkpt lat="40.227743103831735" lon="15.558720427827467"><ele>470.0</ele><time>2026-04-26T08:53:37Z</time></trkpt><trkpt lat="40.22755936224676" lon="15.558973092599501"><ele>470.0</ele><time>2026-04-26T08:53:38Z</time></trkpt><trkpt lat="40.22737424813621" lon="15.559225683244986"><ele>470.0</ele><time>2026-04-26T08:53:39Z</time></trkpt><trkpt lat="40.22718904340031" lon="15.559474005677687"><ele>470.0</ele><time>2026-04-26T08:53:40Z</time></trkpt><trkpt lat="40.227006349872084" lon="15.559724455584917"><ele>470.0</ele><time>2026-04-26T08:53:41Z</time></trkpt><trkpt lat="40.22682479839286" lon="15.559968065857303"><ele>470.0</ele><time>2026-04-26T08:53:42Z</time></trkpt><trkpt lat="40.226645209586636" lon="15.560215703763477"><ele>470.0</ele><time>2026-04-26T08:53:43Z</time></trkpt><trkpt lat="40.22646742889994" lon="15.560457612066607"><ele>465.5</ele><time>2026-04-26T08:53:44Z</time></trkpt><trkpt lat="40.22629150362337" lon="15.560704410853024"><ele>461.0</ele><time>2026-04-26T08:53:45Z</time></trkpt><trkpt lat="40.22611019188606" lon="15.560946956954952"><ele>461.0</ele><time>2026-04-26T08:53:46Z</time></trkpt><trkpt lat="40.22593340524099" lon="15.561187972338145"><ele>461.0</ele><time>2026-04-26T08:53:47Z</time></trkpt><trkpt lat="40.22575815805718" lon="15.561427845200848"><ele>455.5</ele><time>2026-04-26T08:53:48Z</time></trkpt><trkpt lat="40.22557993160715" lon="15.56166732091079"><ele>450.0</ele><time>2026-04-26T08:53:49Z</time></trkpt><trkpt lat="40.2254012080994" lon="15.561909051158828"><ele>457.5</ele><time>2026-04-26T08:53:50Z</time></trkpt><trkpt lat="40.22522130747598" lon="15.562156851226113"><ele>465.0</ele><time>2026-04-26T08:53:51Z</time></trkpt><trkpt lat="40.22503466250818" lon="15.562406079647404"><ele>465.0</ele><time>2026-04-26T08:53:52Z</time></trkpt><trkpt lat="40.22484979078189" lon="15.562657241765818"><ele>465.0</ele><time>2026-04-26T08:53:53Z</time></trkpt><trkpt lat="40.224662291581375" lon="15.562909660099788"><ele>462.0</ele><time>2026-04-26T08:53:54Z</time></trkpt><trkpt lat="40.22447887072059" lon="15.56316685140195"><ele>459.0</ele><time>2026-04-26T08:53:55Z</time></trkpt><trkpt lat="40.22429724178073" lon="15.563418683736266"><ele>459.0</ele><time>2026-04-26T08:53:56Z</time></trkpt><trkpt lat="40.22411692819281" lon="15.563666109596387"><ele>459.0</ele><time>2026-04-26T08:53:57Z</time></trkpt><trkpt lat="40.223937837483035" lon="15.563910359425742"><ele>455.5</ele><time>2026-04-26T08:53:58Z</time></trkpt><trkpt lat="40.22376234611127" lon="15.564156947419358"><ele>452.0</ele><time>2026-04-26T08:53:59Z</time></trkpt><trkpt lat="40.22357450466876" lon="15.564388039220958"><ele>457.5</ele><time>2026-04-26T08:54:00Z</time></trkpt><trkpt lat="40.22339976930449" lon="15.564626315621341"><ele>463.0</ele><time>2026-04-26T08:54:01Z</time></trkpt><trkpt lat="40.22323362105534" lon="15.564853431968466"><ele>454.5</ele><time>2026-04-26T08:54:02Z</time></trkpt><trkpt lat="40.2230694971515" lon="15.565076025599964"><ele>446.0</ele><time>2026-04-26T08:54:03Z</time></trkpt><trkpt lat="40.22290776100596" lon="15.565294146872134"><ele>452.5</ele><time>2026-04-26T08:54:04Z</time></trkpt><trkpt lat="40.22274874687467" lon="15.565510984057045"><ele>459.0</ele><time>2026-04-26T08:54:05Z</time></trkpt><trkpt lat="40.222580625868716" lon="15.565732239780305"><ele>459.0</ele><time>2026-04-26T08:54:06Z</time></trkpt><trkpt lat="40.22240039418454" lon="15.565936163553326"><ele>459.0</ele><time>2026-04-26T08:54:07Z</time></trkpt><trkpt lat="40.22221151859309" lon="15.566122699254294"><ele>456.5</ele><time>2026-04-26T08:54:08Z</time></trkpt><trkpt lat="40.22200103604613" lon="15.566284775149262"><ele>454.0</ele><time>2026-04-26T08:54:09Z</time></trkpt><trkpt lat="40.221779432861375" lon="15.566423818740143"><ele>454.0</ele><time>2026-04-26T08:54:10Z</time></trkpt><trkpt lat="40.221544175562" lon="15.566536601617665"><ele>454.0</ele><time>2026-04-26T08:54:11Z</time></trkpt><trkpt lat="40.22130420644915" lon="15.566623486929736"><ele>447.0</ele><time>2026-04-26T08:54:12Z</time></trkpt><trkpt lat="40.221058429852036" lon="15.566704428751263"><ele>440.0</ele><time>2026-04-26T08:54:13Z</time></trkpt><trkpt lat="40.22079961164386" lon="15.56670514445725"><ele>435.0</ele><time>2026-04-26T08:54:14Z</time></trkpt><trkpt lat="40.22053795490192" lon="15.566722091633705"><ele>430.0</ele><time>2026-04-26T08:54:15Z</time></trkpt><trkpt lat="40.22026898805451" lon="15.56667879135376"><ele>430.0</ele><time>2026-04-26T08:54:16Z</time></trkpt><trkpt lat="40.219996683851555" lon="15.566602589191245"><ele>430.0</ele><time>2026-04-26T08:54:17Z</time></trkpt><trkpt lat="40.2197299178831" lon="15.566479297586525"><ele>427.5</ele><time>2026-04-26T08:54:18Z</time></trkpt><trkpt lat="40.21946893576974" lon="15.566326597301664"><ele>425.0</ele><time>2026-04-26T08:54:19Z</time></trkpt><trkpt lat="40.21921575473446" lon="15.566143524295885"><ele>413.5</ele><time>2026-04-26T08:54:20Z</time></trkpt><trkpt lat="40.218982262228685" lon="15.565913319482963"><ele>402.0</ele><time>2026-04-26T08:54:21Z</time></trkpt><trkpt lat="40.21876923095102" lon="15.565649537752522"><ele>401.0</ele><time>2026-04-26T08:54:22Z</time></trkpt><trkpt lat="40.218578488584434" lon="15.565361265501393"><ele>400.0</ele><time>2026-04-26T08:54:23Z</time></trkpt><trkpt lat="40.21840325334051" lon="15.56506854047024"><ele>400.0</ele><time>2026-04-26T08:54:24Z</time></trkpt><trkpt lat="40.21823079001477" lon="15.564786899176266"><ele>400.0</ele><time>2026-04-26T08:54:25Z</time></trkpt><trkpt lat="40.21805520256616" lon="15.564513265944253"><ele>413.5</ele><time>2026-04-26T08:54:26Z</time></trkpt><trkpt lat="40.2178831671735" lon="15.564245926467535"><ele>427.0</ele><time>2026-04-26T08:54:27Z</time></trkpt><trkpt lat="40.21770976268342" lon="15.56397150537244"><ele>427.0</ele><time>2026-04-26T08:54:28Z</time></trkpt><trkpt lat="40.21753512469138" lon="15.563697903751864"><ele>427.0</ele><time>2026-04-26T08:54:29Z</time></trkpt><trkpt lat="40.21736355515924" lon="15.563427026057015"><ele>431.0</ele><time>2026-04-26T08:54:30Z</time></trkpt><trkpt lat="40.21719652367085" lon="15.563160473235717"><ele>435.0</ele><time>2026-04-26T08:54:31Z</time></trkpt><trkpt lat="40.217027935132805" lon="15.56288777982908"><ele>433.5</ele><time>2026-04-26T08:54:32Z</time></trkpt><trkpt lat="40.216859355246356" lon="15.562614949570746"><ele>432.0</ele><time>2026-04-26T08:54:33Z</time></trkpt><trkpt lat="40.21669911820023" lon="15.562335553019013"><ele>432.0</ele><time>2026-04-26T08:54:34Z</time></trkpt><trkpt lat="40.21654522754253" lon="15.562050341430554"><ele>432.0</ele><time>2026-04-26T08:54:35Z</time></trkpt><trkpt lat="40.21639728324979" lon="15.561756080491476"><ele>432.5</ele><time>2026-04-26T08:54:36Z</time></trkpt><trkpt lat="40.216252121444846" lon="15.561455256526065"><ele>433.0</ele><time>2026-04-26T08:54:37Z</time></trkpt><trkpt lat="40.21611092269002" lon="15.561147492796604"><ele>431.0</ele><time>2026-04-26T08:54:38Z</time></trkpt><trkpt lat="40.215970623267424" lon="15.56083808669337"><ele>429.0</ele><time>2026-04-26T08:54:39Z</time></trkpt><trkpt lat="40.21582876780949" lon="15.560522923150916"><ele>428.0</ele><time>2026-04-26T08:54:40Z</time></trkpt><trkpt lat="40.215686110825715" lon="15.560201100279157"><ele>427.0</ele><time>2026-04-26T08:54:41Z</time></trkpt><trkpt lat="40.21554633266218" lon="15.559873680981202"><ele>422.5</ele><time>2026-04-26T08:54:42Z</time></trkpt><trkpt lat="40.215404894092046" lon="15.559548075498142"><ele>418.0</ele><time>2026-04-26T08:54:43Z</time></trkpt><trkpt lat="40.2152610615231" lon="15.5592282461585"><ele>418.0</ele><time>2026-04-26T08:54:44Z</time></trkpt><trkpt lat="40.215111299855685" lon="15.558914797609944"><ele>418.0</ele><time>2026-04-26T08:54:45Z</time></trkpt><trkpt lat="40.214949178025286" lon="15.558623480970965"><ele>415.0</ele><time>2026-04-26T08:54:46Z</time></trkpt><trkpt lat="40.214768656323265" lon="15.558363735504907"><ele>412.0</ele><time>2026-04-26T08:54:47Z</time></trkpt><trkpt lat="40.214568609258315" lon="15.558130099440051"><ele>412.0</ele><time>2026-04-26T08:54:48Z</time></trkpt><trkpt lat="40.214356428659286" lon="15.557906519213924"><ele>412.0</ele><time>2026-04-26T08:54:49Z</time></trkpt><trkpt lat="40.21412764248505" lon="15.557712424109692"><ele>414.5</ele><time>2026-04-26T08:54:50Z</time></trkpt><trkpt lat="40.213883730572235" lon="15.557537186507643"><ele>417.0</ele><time>2026-04-26T08:54:51Z</time></trkpt><trkpt lat="40.2136389581503" lon="15.557370539211608"><ele>417.0</ele><time>2026-04-26T08:54:52Z</time></trkpt><trkpt lat="40.21338849552253" lon="15.557212619215756"><ele>417.0</ele><time>2026-04-26T08:54:53Z</time></trkpt><trkpt lat="40.21313696934086" lon="15.55705386364276"><ele>420.0</ele><time>2026-04-26T08:54:54Z</time></trkpt><trkpt lat="40.21288426109011" lon="15.556891549363069"><ele>423.0</ele><time>2026-04-26T08:54:55Z</time></trkpt><trkpt lat="40.21263238776435" lon="15.556725614590636"><ele>423.0</ele><time>2026-04-26T08:54:56Z</time></trkpt><trkpt lat="40.21238014349124" lon="15.55656341418864"><ele>423.0</ele><time>2026-04-26T08:54:57Z</time></trkpt><trkpt lat="40.212126700381546" lon="15.556391588292128"><ele>422.0</ele><time>2026-04-26T08:54:58Z</time></trkpt><trkpt lat="40.211873514630035" lon="15.556218864582943"><ele>421.0</ele><time>2026-04-26T08:54:59Z</time></trkpt><trkpt lat="40.211618479330106" lon="15.556047488945417"><ele>420.5</ele><time>2026-04-26T08:55:00Z</time></trkpt><trkpt lat="40.211359779068225" lon="15.55588190829794"><ele>420.0</ele><time>2026-04-26T08:55:01Z</time></trkpt><trkpt lat="40.211099817519305" lon="15.555712160684983"><ele>420.0</ele><time>2026-04-26T08:55:02Z</time></trkpt><trkpt lat="40.210839027663134" lon="15.555543519447733"><ele>420.0</ele><time>2026-04-26T08:55:03Z</time></trkpt><trkpt lat="40.210575728051474" lon="15.555376536965252"><ele>420.0</ele><time>2026-04-26T08:55:04Z</time></trkpt><trkpt lat="40.210322133583844" lon="15.555220464354047"><ele>420.0</ele><time>2026-04-26T08:55:05Z</time></trkpt><trkpt lat="40.21007818951661" lon="15.555067050845429"><ele>420.0</ele><time>2026-04-26T08:55:06Z</time></trkpt><trkpt lat="40.20984571694487" lon="15.554925465053444"><ele>420.0</ele><time>2026-04-26T08:55:07Z</time></trkpt><trkpt lat="40.20962617471487" lon="15.55480368919896"><ele>416.0</ele><time>2026-04-26T08:55:08Z</time></trkpt><trkpt lat="40.209410421733764" lon="15.554691723357609"><ele>412.0</ele><time>2026-04-26T08:55:09Z</time></trkpt><trkpt lat="40.20918884202062" lon="15.554619804684307"><ele>408.0</ele><time>2026-04-26T08:55:10Z</time></trkpt><trkpt lat="40.208959607297196" lon="15.554572814534309"><ele>404.0</ele><time>2026-04-26T08:55:11Z</time></trkpt><trkpt lat="40.208723999173436" lon="15.55454380128253"><ele>404.0</ele><time>2026-04-26T08:55:12Z</time></trkpt><trkpt lat="40.208482956575956" lon="15.554535826200523"><ele>404.0</ele><time>2026-04-26T08:55:13Z</time></trkpt><trkpt lat="40.20823597977948" lon="15.554556552932182"><ele>402.5</ele><time>2026-04-26T08:55:14Z</time></trkpt><trkpt lat="40.2079845095267" lon="15.554591974722321"><ele>401.0</ele><time>2026-04-26T08:55:15Z</time></trkpt><trkpt lat="40.20773604768589" lon="15.55463755697945"><ele>401.0</ele><time>2026-04-26T08:55:16Z</time></trkpt><trkpt lat="40.20748575556759" lon="15.554675790289002"><ele>401.0</ele><time>2026-04-26T08:55:17Z</time></trkpt><trkpt lat="40.207231438590036" lon="15.554714893792347"><ele>408.5</ele><time>2026-04-26T08:55:18Z</time></trkpt><trkpt lat="40.206972521026884" lon="15.5547531215782"><ele>416.0</ele><time>2026-04-26T08:55:19Z</time></trkpt><trkpt lat="40.206709794262835" lon="15.554791869651249"><ele>425.0</ele><time>2026-04-26T08:55:20Z</time></trkpt><trkpt lat="40.20644289281411" lon="15.554829797957694"><ele>434.0</ele><time>2026-04-26T08:55:21Z</time></trkpt><trkpt lat="40.20617301468843" lon="15.554874547949568"><ele>434.0</ele><time>2026-04-26T08:55:22Z</time></trkpt><trkpt lat="40.20590070002467" lon="15.554906955558883"><ele>434.0</ele><time>2026-04-26T08:55:23Z</time></trkpt><trkpt lat="40.205636298652905" lon="15.554929001854793"><ele>438.0</ele><time>2026-04-26T08:55:24Z</time></trkpt><trkpt lat="40.20537859125831" lon="15.554948262365992"><ele>442.0</ele><time>2026-04-26T08:55:25Z</time></trkpt><trkpt lat="40.205123072069576" lon="15.554927741061777"><ele>442.0</ele><time>2026-04-26T08:55:26Z</time></trkpt><trkpt lat="40.20487986241392" lon="15.55484000926838"><ele>442.0</ele><time>2026-04-26T08:55:27.011Z</time></trkpt><trkpt lat="40.20463952431169" lon="15.554761242048412"><ele>436.0</ele><time>2026-04-26T08:55:28.013Z</time></trkpt><trkpt lat="40.204413532535554" lon="15.554649185260768"><ele>430.0</ele><time>2026-04-26T08:55:29Z</time></trkpt><trkpt lat="40.20419129903671" lon="15.554534115120894"><ele>428.5</ele><time>2026-04-26T08:55:30Z</time></trkpt><trkpt lat="40.20398256689804" lon="15.554360381547664"><ele>427.0</ele><time>2026-04-26T08:55:31Z</time></trkpt><trkpt lat="40.20377697481801" lon="15.554165628468276"><ele>427.0</ele><time>2026-04-26T08:55:32Z</time></trkpt><trkpt lat="40.203576880439726" lon="15.553949275307522"><ele>427.0</ele><time>2026-04-26T08:55:33Z</time></trkpt><trkpt lat="40.20337808330463" lon="15.553726060429463"><ele>427.0</ele><time>2026-04-26T08:55:34Z</time></trkpt><trkpt lat="40.20317859125444" lon="15.55349664073009"><ele>427.0</ele><time>2026-04-26T08:55:35Z</time></trkpt><trkpt lat="40.202977380615366" lon="15.553263402229186"><ele>421.0</ele><time>2026-04-26T08:55:36Z</time></trkpt><trkpt lat="40.202774746239434" lon="15.553022325107403"><ele>415.0</ele><time>2026-04-26T08:55:37Z</time></trkpt><trkpt lat="40.20256871181269" lon="15.552781882031422"><ele>415.0</ele><time>2026-04-26T08:55:38Z</time></trkpt><trkpt lat="40.20236450090683" lon="15.552535478060603"><ele>415.0</ele><time>2026-04-26T08:55:39Z</time></trkpt><trkpt lat="40.20215532898874" lon="15.552292331019979"><ele>423.0</ele><time>2026-04-26T08:55:40Z</time></trkpt><trkpt lat="40.20195734476501" lon="15.552032454287039"><ele>431.0</ele><time>2026-04-26T08:55:41Z</time></trkpt><trkpt lat="40.20174894392852" lon="15.551782728995207"><ele>431.0</ele><time>2026-04-26T08:55:42Z</time></trkpt><trkpt lat="40.20154465949019" lon="15.551541963113632"><ele>431.0</ele><time>2026-04-26T08:55:43Z</time></trkpt><trkpt lat="40.20135586755757" lon="15.551300904876083"><ele>429.0</ele><time>2026-04-26T08:55:44Z</time></trkpt><trkpt lat="40.20117806563358" lon="15.551046302830771"><ele>427.0</ele><time>2026-04-26T08:55:45Z</time></trkpt><trkpt lat="40.201026424286056" lon="15.550766394960291"><ele>427.0</ele><time>2026-04-26T08:55:46Z</time></trkpt><trkpt lat="40.20087749471121" lon="15.550482086776062"><ele>427.0</ele><time>2026-04-26T08:55:47Z</time></trkpt><trkpt lat="40.20077204598018" lon="15.55017013737756"><ele>432.0</ele><time>2026-04-26T08:55:48Z</time></trkpt><trkpt lat="40.200679876811" lon="15.549857510822877"><ele>437.0</ele><time>2026-04-26T08:55:49Z</time></trkpt><trkpt lat="40.20059166548526" lon="15.549555126156017"><ele>428.0</ele><time>2026-04-26T08:55:50Z</time></trkpt><trkpt lat="40.20049469580925" lon="15.549277338932573"><ele>419.0</ele><time>2026-04-26T08:55:51Z</time></trkpt><trkpt lat="40.2003752005812" lon="15.549014949298"><ele>419.0</ele><time>2026-04-26T08:55:52Z</time></trkpt><trkpt lat="40.20023567004296" lon="15.548756843043478"><ele>419.0</ele><time>2026-04-26T08:55:53Z</time></trkpt><trkpt lat="40.20007999618107" lon="15.548506460212877"><ele>416.0</ele><time>2026-04-26T08:55:54Z</time></trkpt><trkpt lat="40.19989624661479" lon="15.54827588738043"><ele>413.0</ele><time>2026-04-26T08:55:55Z</time></trkpt><trkpt lat="40.19969773409756" lon="15.548068392006384"><ele>413.0</ele><time>2026-04-26T08:55:56Z</time></trkpt><trkpt lat="40.19948221644341" lon="15.547882368675058"><ele>413.0</ele><time>2026-04-26T08:55:57Z</time></trkpt><trkpt lat="40.199255474090634" lon="15.547727083109837"><ele>418.0</ele><time>2026-04-26T08:55:58Z</time></trkpt><trkpt lat="40.19901557677557" lon="15.54759642743241"><ele>423.0</ele><time>2026-04-26T08:55:59Z</time></trkpt><trkpt lat="40.1987637158128" lon="15.54749109767956"><ele>423.0</ele><time>2026-04-26T08:56:00Z</time></trkpt><trkpt lat="40.1985020657425" lon="15.547425794665056"><ele>423.0</ele><time>2026-04-26T08:56:01Z</time></trkpt><trkpt lat="40.198233514561174" lon="15.547384286984618"><ele>423.0</ele><time>2026-04-26T08:56:02Z</time></trkpt><trkpt lat="40.19796263545804" lon="15.547363711847467"><ele>423.0</ele><time>2026-04-26T08:56:03Z</time></trkpt><trkpt lat="40.19769971924235" lon="15.547340772251399"><ele>423.0</ele><time>2026-04-26T08:56:04Z</time></trkpt><trkpt lat="40.19744641790205" lon="15.54730963488201"><ele>423.0</ele><time>2026-04-26T08:56:05Z</time></trkpt><trkpt lat="40.197198552593974" lon="15.547261328047343"><ele>421.0</ele><time>2026-04-26T08:56:06Z</time></trkpt><trkpt lat="40.196954203033826" lon="15.547164295703718"><ele>419.0</ele><time>2026-04-26T08:56:07Z</time></trkpt><trkpt lat="40.19672336510599" lon="15.547054551881939"><ele>432.5</ele><time>2026-04-26T08:56:08Z</time></trkpt><trkpt lat="40.196498171208844" lon="15.54691692046679"><ele>446.0</ele><time>2026-04-26T08:56:09Z</time></trkpt><trkpt lat="40.1962740616214" lon="15.546786496390181"><ele>446.0</ele><time>2026-04-26T08:56:10Z</time></trkpt><trkpt lat="40.19608082993316" lon="15.546604242343987"><ele>446.0</ele><time>2026-04-26T08:56:11Z</time></trkpt><trkpt lat="40.19590136623625" lon="15.546402241806828"><ele>446.0</ele><time>2026-04-26T08:56:12Z</time></trkpt><trkpt lat="40.19571467724665" lon="15.546236462136452"><ele>446.0</ele><time>2026-04-26T08:56:13Z</time></trkpt><trkpt lat="40.19558965414356" lon="15.545947618078742"><ele>446.0</ele><time>2026-04-26T08:56:14Z</time></trkpt><trkpt lat="40.19545312734789" lon="15.545695239956792"><ele>446.0</ele><time>2026-04-26T08:56:15.011Z</time></trkpt><trkpt lat="40.19533649413845" lon="15.545430807772348"><ele>441.5</ele><time>2026-04-26T08:56:16.012Z</time></trkpt><trkpt lat="40.19524120332328" lon="15.54514496376859"><ele>437.0</ele><time>2026-04-26T08:56:17Z</time></trkpt><trkpt lat="40.195159102244624" lon="15.544832714949587"><ele>439.5</ele><time>2026-04-26T08:56:18Z</time></trkpt><trkpt lat="40.19509295084946" lon="15.544504898585341"><ele>442.0</ele><time>2026-04-26T08:56:19Z</time></trkpt><trkpt lat="40.19503611643758" lon="15.544159208622908"><ele>442.0</ele><time>2026-04-26T08:56:20Z</time></trkpt><trkpt lat="40.19500880479599" lon="15.543803229699153"><ele>442.0</ele><time>2026-04-26T08:56:21Z</time></trkpt><trkpt lat="40.195019006426044" lon="15.54344908439639"><ele>441.0</ele><time>2026-04-26T08:56:22Z</time></trkpt><trkpt lat="40.19505306504967" lon="15.543093065358196"><ele>440.0</ele><time>2026-04-26T08:56:23Z</time></trkpt><trkpt lat="40.195115901303026" lon="15.542739778151617"><ele>436.0</ele><time>2026-04-26T08:56:24Z</time></trkpt><trkpt lat="40.1952091610838" lon="15.542398103157074"><ele>432.0</ele><time>2026-04-26T08:56:25Z</time></trkpt><trkpt lat="40.19530123023758" lon="15.54206905295536"><ele>430.0</ele><time>2026-04-26T08:56:26Z</time></trkpt><trkpt lat="40.19538173124615" lon="15.541761549074133"><ele>428.0</ele><time>2026-04-26T08:56:27Z</time></trkpt><trkpt lat="40.19545467899594" lon="15.541470125952708"><ele>425.5</ele><time>2026-04-26T08:56:28Z</time></trkpt><trkpt lat="40.19552794332752" lon="15.54118059140445"><ele>423.0</ele><time>2026-04-26T08:56:29Z</time></trkpt><trkpt lat="40.195603565940154" lon="15.540885039663591"><ele>428.0</ele><time>2026-04-26T08:56:30Z</time></trkpt><trkpt lat="40.19567255243244" lon="15.54058518491366"><ele>433.0</ele><time>2026-04-26T08:56:31Z</time></trkpt><trkpt lat="40.19572506325648" lon="15.540277149423746"><ele>433.0</ele><time>2026-04-26T08:56:32Z</time></trkpt><trkpt lat="40.19575529715937" lon="15.539963480958953"><ele>433.0</ele><time>2026-04-26T08:56:33Z</time></trkpt><trkpt lat="40.19576473298698" lon="15.539645367231664"><ele>425.5</ele><time>2026-04-26T08:56:34Z</time></trkpt><trkpt lat="40.19575099549363" lon="15.539325650197862"><ele>418.0</ele><time>2026-04-26T08:56:35Z</time></trkpt><trkpt lat="40.19571343302719" lon="15.539002974606515"><ele>411.0</ele><time>2026-04-26T08:56:36Z</time></trkpt><trkpt lat="40.195653483770336" lon="15.53867915602662"><ele>404.0</ele><time>2026-04-26T08:56:37Z</time></trkpt><trkpt lat="40.19556345575978" lon="15.538366378440948"><ele>404.0</ele><time>2026-04-26T08:56:38Z</time></trkpt><trkpt lat="40.195451829174964" lon="15.538074276710649"><ele>404.0</ele><time>2026-04-26T08:56:39Z</time></trkpt><trkpt lat="40.195324038783525" lon="15.537805298825132"><ele>411.5</ele><time>2026-04-26T08:56:40Z</time></trkpt><trkpt lat="40.19517949842031" lon="15.537545191980335"><ele>419.0</ele><time>2026-04-26T08:56:41Z</time></trkpt><trkpt lat="40.19502464356665" lon="15.537299960176156"><ele>419.0</ele><time>2026-04-26T08:56:42Z</time></trkpt><trkpt lat="40.194856637713144" lon="15.537080472497077"><ele>419.0</ele><time>2026-04-26T08:56:43Z</time></trkpt><trkpt lat="40.194673245724154" lon="15.536879582116187"><ele>422.0</ele><time>2026-04-26T08:56:44Z</time></trkpt><trkpt lat="40.19447563178853" lon="15.536699692222534"><ele>425.0</ele><time>2026-04-26T08:56:45Z</time></trkpt><trkpt lat="40.19426261655662" lon="15.536545746160497"><ele>425.0</ele><time>2026-04-26T08:56:46Z</time></trkpt><trkpt lat="40.19403698290653" lon="15.53641306556417"><ele>425.0</ele><time>2026-04-26T08:56:47Z</time></trkpt><trkpt lat="40.193805053009356" lon="15.536308358206805"><ele>423.0</ele><time>2026-04-26T08:56:48Z</time></trkpt><trkpt lat="40.1935654368932" lon="15.536228356461496"><ele>421.0</ele><time>2026-04-26T08:56:49Z</time></trkpt><trkpt lat="40.193320594574786" lon="15.536182785148263"><ele>430.5</ele><time>2026-04-26T08:56:50Z</time></trkpt><trkpt lat="40.193074111920716" lon="15.536163694849977"><ele>440.0</ele><time>2026-04-26T08:56:51Z</time></trkpt><trkpt lat="40.19282552297143" lon="15.536168837633594"><ele>440.0</ele><time>2026-04-26T08:56:52Z</time></trkpt><trkpt lat="40.19257389283188" lon="15.536174494193034"><ele>440.0</ele><time>2026-04-26T08:56:53Z</time></trkpt><trkpt lat="40.192329731746995" lon="15.536175047786752"><ele>441.0</ele><time>2026-04-26T08:56:54Z</time></trkpt><trkpt lat="40.19208986228261" lon="15.53617624779673"><ele>442.0</ele><time>2026-04-26T08:56:55Z</time></trkpt><trkpt lat="40.191857798498944" lon="15.53616912826931"><ele>442.0</ele><time>2026-04-26T08:56:56Z</time></trkpt><trkpt lat="40.191630905918736" lon="15.536150301217914"><ele>442.0</ele><time>2026-04-26T08:56:57Z</time></trkpt><trkpt lat="40.191408044573805" lon="15.536104407347104"><ele>444.0</ele><time>2026-04-26T08:56:58Z</time></trkpt><trkpt lat="40.19118171969608" lon="15.536033646564146"><ele>446.0</ele><time>2026-04-26T08:56:59Z</time></trkpt><trkpt lat="40.19095837445648" lon="15.53593791307135"><ele>446.0</ele><time>2026-04-26T08:57:00Z</time></trkpt><trkpt lat="40.19074396963426" lon="15.535822056802303"><ele>446.0</ele><time>2026-04-26T08:57:01Z</time></trkpt><trkpt lat="40.19054531230773" lon="15.535685190660802"><ele>447.66666666666663</ele><time>2026-04-26T08:57:02Z</time></trkpt><trkpt lat="40.19035797421828" lon="15.535525893960628"><ele>449.33333333333337</ele><time>2026-04-26T08:57:03Z</time></trkpt><trkpt lat="40.19018532000953" lon="15.535348092156193"><ele>451.0</ele><time>2026-04-26T08:57:04Z</time></trkpt><trkpt lat="40.19002633280241" lon="15.535153241471379"><ele>451.0</ele><time>2026-04-26T08:57:05Z</time></trkpt><trkpt lat="40.18988256773853" lon="15.534949241534076"><ele>451.0</ele><time>2026-04-26T08:57:06Z</time></trkpt><trkpt lat="40.18975775795487" lon="15.534743095714616"><ele>451.0</ele><time>2026-04-26T08:57:07Z</time></trkpt><trkpt lat="40.1896416234135" lon="15.534529014393256"><ele>454.33333333333337</ele><time>2026-04-26T08:57:08Z</time></trkpt><trkpt lat="40.18952885306592" lon="15.534316979317632"><ele>457.66666666666663</ele><time>2026-04-26T08:57:09Z</time></trkpt><trkpt lat="40.18940997377627" lon="15.534106163667635"><ele>461.0</ele><time>2026-04-26T08:57:10Z</time></trkpt><trkpt lat="40.18928086435966" lon="15.533878187871492"><ele>463.0</ele><time>2026-04-26T08:57:11.012Z</time></trkpt><trkpt lat="40.18915376944314" lon="15.533644118869622"><ele>465.0</ele><time>2026-04-26T08:57:12.011Z</time></trkpt><trkpt lat="40.18902692938285" lon="15.533411501228573"><ele>467.0</ele><time>2026-04-26T08:57:13.011Z</time></trkpt><trkpt lat="40.188899387173244" lon="15.533174767552293"><ele>467.0</ele><time>2026-04-26T08:57:14.013Z</time></trkpt><trkpt lat="40.18877096812428" lon="15.532937567494862"><ele>467.0</ele><time>2026-04-26T08:57:15.012Z</time></trkpt><trkpt lat="40.18796280030178" lon="15.531587703167956"><ele>457.5</ele><time>2026-04-26T08:57:21Z</time></trkpt><trkpt lat="40.18782171638855" lon="15.531339665680928"><ele>448.0</ele><time>2026-04-26T08:57:22Z</time></trkpt><trkpt lat="40.1876956135975" lon="15.53106528334863"><ele>443.0</ele><time>2026-04-26T08:57:23Z</time></trkpt><trkpt lat="40.187546275149025" lon="15.530810003271258"><ele>438.0</ele><time>2026-04-26T08:57:24Z</time></trkpt><trkpt lat="40.187399266178154" lon="15.530559787796511"><ele>438.0</ele><time>2026-04-26T08:57:25Z</time></trkpt><trkpt lat="40.187254206699635" lon="15.53030799108155"><ele>438.0</ele><time>2026-04-26T08:57:26Z</time></trkpt><trkpt lat="40.18711517965299" lon="15.530060789333861"><ele>438.0</ele><time>2026-04-26T08:57:27Z</time></trkpt><trkpt lat="40.18696943246964" lon="15.529828112138818"><ele>438.0</ele><time>2026-04-26T08:57:28Z</time></trkpt><trkpt lat="40.186843502498114" lon="15.529580595680516"><ele>433.0</ele><time>2026-04-26T08:57:29Z</time></trkpt><trkpt lat="40.18670066920782" lon="15.529335762953519"><ele>428.0</ele><time>2026-04-26T08:57:30Z</time></trkpt><trkpt lat="40.18654963509537" lon="15.529096336511444"><ele>431.0</ele><time>2026-04-26T08:57:31Z</time></trkpt><trkpt lat="40.18638549379111" lon="15.528868861037482"><ele>434.0</ele><time>2026-04-26T08:57:32Z</time></trkpt><trkpt lat="40.18620750546428" lon="15.528641946834933"><ele>426.5</ele><time>2026-04-26T08:57:33Z</time></trkpt><trkpt lat="40.18601776208666" lon="15.528425367276247"><ele>419.0</ele><time>2026-04-26T08:57:34Z</time></trkpt><trkpt lat="40.185824326374316" lon="15.52823536639409"><ele>421.0</ele><time>2026-04-26T08:57:35Z</time></trkpt><trkpt lat="40.18562935697251" lon="15.528059906440161"><ele>423.0</ele><time>2026-04-26T08:57:36Z</time></trkpt><trkpt lat="40.18542337108047" lon="15.527892601638673"><ele>418.0</ele><time>2026-04-26T08:57:37Z</time></trkpt><trkpt lat="40.18520952492173" lon="15.527742893225534"><ele>413.0</ele><time>2026-04-26T08:57:38Z</time></trkpt><trkpt lat="40.184989552016546" lon="15.527607606897384"><ele>415.0</ele><time>2026-04-26T08:57:39Z</time></trkpt><trkpt lat="40.18476778841908" lon="15.527483352779734"><ele>417.0</ele><time>2026-04-26T08:57:40Z</time></trkpt><trkpt lat="40.18453570004406" lon="15.52737583634899"><ele>417.0</ele><time>2026-04-26T08:57:41Z</time></trkpt><trkpt lat="40.18429814959838" lon="15.527288316961105"><ele>417.0</ele><time>2026-04-26T08:57:42Z</time></trkpt><trkpt lat="40.18404928573204" lon="15.527217685109612"><ele>414.0</ele><time>2026-04-26T08:57:43Z</time></trkpt><trkpt lat="40.18380421916047" lon="15.527160307697825"><ele>411.0</ele><time>2026-04-26T08:57:44Z</time></trkpt><trkpt lat="40.18356054447917" lon="15.52711868072961"><ele>411.0</ele><time>2026-04-26T08:57:45Z</time></trkpt><trkpt lat="40.18331734648685" lon="15.527100591978686"><ele>411.0</ele><time>2026-04-26T08:57:46Z</time></trkpt><trkpt lat="40.18307645926382" lon="15.52709627898098"><ele>409.5</ele><time>2026-04-26T08:57:47Z</time></trkpt><trkpt lat="40.182832257175995" lon="15.527131793209122"><ele>408.0</ele><time>2026-04-26T08:57:48Z</time></trkpt><trkpt lat="40.18258604859288" lon="15.527145344579964"><ele>407.0</ele><time>2026-04-26T08:57:49Z</time></trkpt><trkpt lat="40.182342238708394" lon="15.527194109299838"><ele>406.0</ele><time>2026-04-26T08:57:50Z</time></trkpt><trkpt lat="40.182107263145014" lon="15.527279455912883"><ele>406.0</ele><time>2026-04-26T08:57:51Z</time></trkpt><trkpt lat="40.18187321698309" lon="15.527362117856741"><ele>406.0</ele><time>2026-04-26T08:57:52Z</time></trkpt><trkpt lat="40.181654250105574" lon="15.527452175914084"><ele>396.0</ele><time>2026-04-26T08:57:53Z</time></trkpt><trkpt lat="40.181445598166356" lon="15.52755551778213"><ele>386.0</ele><time>2026-04-26T08:57:54Z</time></trkpt><trkpt lat="40.18123545803542" lon="15.527677366061832"><ele>386.0</ele><time>2026-04-26T08:57:55Z</time></trkpt><trkpt lat="40.18101827195387" lon="15.52781842625524"><ele>386.0</ele><time>2026-04-26T08:57:56Z</time></trkpt><trkpt lat="40.18080067358071" lon="15.527990259112151"><ele>382.0</ele><time>2026-04-26T08:57:57Z</time></trkpt><trkpt lat="40.180575973786006" lon="15.528158811790542"><ele>378.0</ele><time>2026-04-26T08:57:58Z</time></trkpt><trkpt lat="40.1803456941406" lon="15.52835293873501"><ele>378.0</ele><time>2026-04-26T08:57:59Z</time></trkpt><trkpt lat="40.18010867467075" lon="15.52854948059914"><ele>378.0</ele><time>2026-04-26T08:58:00Z</time></trkpt><trkpt lat="40.17985554191608" lon="15.528730819752306"><ele>380.0</ele><time>2026-04-26T08:58:01Z</time></trkpt><trkpt lat="40.179625868939446" lon="15.528918220297498"><ele>382.0</ele><time>2026-04-26T08:58:02Z</time></trkpt><trkpt lat="40.179401930073986" lon="15.529100472158518"><ele>382.0</ele><time>2026-04-26T08:58:03Z</time></trkpt><trkpt lat="40.17916812120519" lon="15.52927820921162"><ele>382.0</ele><time>2026-04-26T08:58:04Z</time></trkpt><trkpt lat="40.178943175037986" lon="15.5294815144711"><ele>382.5</ele><time>2026-04-26T08:58:05Z</time></trkpt><trkpt lat="40.17870625377584" lon="15.529633436773635"><ele>383.0</ele><time>2026-04-26T08:58:06Z</time></trkpt><trkpt lat="40.178476625895826" lon="15.529772826426466"><ele>383.0</ele><time>2026-04-26T08:58:07Z</time></trkpt><trkpt lat="40.17826160593818" lon="15.529907021933269"><ele>383.0</ele><time>2026-04-26T08:58:08Z</time></trkpt><trkpt lat="40.17805978516097" lon="15.530039736929334"><ele>380.33333333333337</ele><time>2026-04-26T08:58:09Z</time></trkpt><trkpt lat="40.17786748834823" lon="15.530169595451559"><ele>377.6666666666667</ele><time>2026-04-26T08:58:10Z</time></trkpt><trkpt lat="40.177681364132376" lon="15.530306760967438"><ele>375.0</ele><time>2026-04-26T08:58:11Z</time></trkpt><trkpt lat="40.17749234790912" lon="15.53045719463033"><ele>371.0</ele><time>2026-04-26T08:58:12Z</time></trkpt><trkpt lat="40.17730126294681" lon="15.530629515361195"><ele>367.0</ele><time>2026-04-26T08:58:13Z</time></trkpt><trkpt lat="40.177116022617625" lon="15.530813952857908"><ele>367.0</ele><time>2026-04-26T08:58:14Z</time></trkpt><trkpt lat="40.17694530319848" lon="15.531000063547083"><ele>367.0</ele><time>2026-04-26T08:58:15Z</time></trkpt><trkpt lat="40.17678099218052" lon="15.531182035780908"><ele>367.0</ele><time>2026-04-26T08:58:16Z</time></trkpt><trkpt lat="40.17662668173999" lon="15.531360017482053"><ele>364.3333333333333</ele><time>2026-04-26T08:58:17Z</time></trkpt><trkpt lat="40.17646720696952" lon="15.531532884401058"><ele>361.6666666666667</ele><time>2026-04-26T08:58:18Z</time></trkpt><trkpt lat="40.176304582387296" lon="15.531684369249383"><ele>359.0</ele><time>2026-04-26T08:58:19Z</time></trkpt><trkpt lat="40.1761343634347" lon="15.531836215814806"><ele>359.0</ele><time>2026-04-26T08:58:20Z</time></trkpt><trkpt lat="40.1759415315509" lon="15.531968643291194"><ele>359.0</ele><time>2026-04-26T08:58:21Z</time></trkpt><trkpt lat="40.175741972204506" lon="15.532082921874759"><ele>359.0</ele><time>2026-04-26T08:58:22Z</time></trkpt><trkpt lat="40.17554540996764" lon="15.532179820519898"><ele>357.33333333333337</ele><time>2026-04-26T08:58:23Z</time></trkpt><trkpt lat="40.175353563928326" lon="15.532256924033994"><ele>355.6666666666667</ele><time>2026-04-26T08:58:24Z</time></trkpt><trkpt lat="40.175155040675634" lon="15.532299004356961"><ele>354.0</ele><time>2026-04-26T08:58:25Z</time></trkpt><trkpt lat="40.17495893103374" lon="15.532322606891384"><ele>354.6666666666667</ele><time>2026-04-26T08:58:26Z</time></trkpt><trkpt lat="40.17474717180071" lon="15.532335104296399"><ele>355.33333333333337</ele><time>2026-04-26T08:58:27Z</time></trkpt><trkpt lat="40.174519099714" lon="15.532325215523173"><ele>356.0</ele><time>2026-04-26T08:58:28Z</time></trkpt><trkpt lat="40.174284106519394" lon="15.532298707141761"><ele>356.0</ele><time>2026-04-26T08:58:29Z</time></trkpt><trkpt lat="40.17404461018983" lon="15.532254551540886"><ele>356.0</ele><time>2026-04-26T08:58:30Z</time></trkpt><trkpt lat="40.17381384378623" lon="15.532223779210787"><ele>356.33333333333337</ele><time>2026-04-26T08:58:31Z</time></trkpt><trkpt lat="40.173589942942854" lon="15.532191301197253"><ele>356.6666666666667</ele><time>2026-04-26T08:58:32Z</time></trkpt><trkpt lat="40.17337452694165" lon="15.532167428911537"><ele>357.0</ele><time>2026-04-26T08:58:33Z</time></trkpt><trkpt lat="40.173178253335635" lon="15.532167170594596"><ele>354.6666666666667</ele><time>2026-04-26T08:58:34Z</time></trkpt><trkpt lat="40.172994765702384" lon="15.532187965156398"><ele>352.33333333333337</ele><time>2026-04-26T08:58:35Z</time></trkpt><trkpt lat="40.17281435738472" lon="15.532228009293018"><ele>350.0</ele><time>2026-04-26T08:58:36Z</time></trkpt><trkpt lat="40.17263945697712" lon="15.532286087163865"><ele>350.0</ele><time>2026-04-26T08:58:37Z</time></trkpt><trkpt lat="40.17247838568783" lon="15.532354410897172"><ele>350.0</ele><time>2026-04-26T08:58:38Z</time></trkpt><trkpt lat="40.17232228718706" lon="15.532428069035383"><ele>350.0</ele><time>2026-04-26T08:58:39Z</time></trkpt><trkpt lat="40.172172301954696" lon="15.532505320607362"><ele>348.33333333333337</ele><time>2026-04-26T08:58:40Z</time></trkpt><trkpt lat="40.17202976183164" lon="15.532597121618135"><ele>346.6666666666667</ele><time>2026-04-26T08:58:41Z</time></trkpt><trkpt lat="40.1718865489892" lon="15.532704654265304"><ele>345.0</ele><time>2026-04-26T08:58:42Z</time></trkpt><trkpt lat="40.171732655937724" lon="15.532839001838461"><ele>346.6666666666667</ele><time>2026-04-26T08:58:43.012Z</time></trkpt><trkpt lat="40.1715960148755" lon="15.532978560115664"><ele>348.33333333333337</ele><time>2026-04-26T08:58:44.012Z</time></trkpt><trkpt lat="40.17147210960947" lon="15.533123269224383"><ele>350.0</ele><time>2026-04-26T08:58:45.012Z</time></trkpt><trkpt lat="40.171362786096516" lon="15.533275153587974"><ele>345.75</ele><time>2026-04-26T08:58:46Z</time></trkpt><trkpt lat="40.17127214792803" lon="15.533424899079451"><ele>341.5</ele><time>2026-04-26T08:58:47Z</time></trkpt><trkpt lat="40.171210071395926" lon="15.533590642649939"><ele>337.25</ele><time>2026-04-26T08:58:48Z</time></trkpt><trkpt lat="40.17116953389757" lon="15.533747459205625"><ele>333.0</ele><time>2026-04-26T08:58:49Z</time></trkpt><trkpt lat="40.17112111217662" lon="15.533894655059813"><ele>333.0</ele><time>2026-04-26T08:58:50Z</time></trkpt><trkpt lat="40.171049570014986" lon="15.534060065215465"><ele>333.0</ele><time>2026-04-26T08:58:51Z</time></trkpt><trkpt lat="40.17096699993707" lon="15.534221743696236"><ele>333.0</ele><time>2026-04-26T08:58:52Z</time></trkpt><trkpt lat="40.17086835560451" lon="15.53436750916926"><ele>333.0</ele><time>2026-04-26T08:58:53Z</time></trkpt><trkpt lat="40.1707597155485" lon="15.534493092345722"><ele>331.0</ele><time>2026-04-26T08:58:54Z</time></trkpt><trkpt lat="40.170642133387695" lon="15.534595159478204"><ele>329.0</ele><time>2026-04-26T08:58:55Z</time></trkpt><trkpt lat="40.17052326343318" lon="15.534676808622061"><ele>327.0</ele><time>2026-04-26T08:58:56Z</time></trkpt><trkpt lat="40.17039839914923" lon="15.534732574801705"><ele>325.0</ele><time>2026-04-26T08:58:57Z</time></trkpt><trkpt lat="40.170275194482166" lon="15.534792217711514"><ele>325.0</ele><time>2026-04-26T08:58:58Z</time></trkpt><trkpt lat="40.17016053907862" lon="15.534889847801535"><ele>325.0</ele><time>2026-04-26T08:58:59Z</time></trkpt><trkpt lat="40.1700310051117" lon="15.535013732688423"><ele>325.0</ele><time>2026-04-26T08:59:00Z</time></trkpt><trkpt lat="40.16989026280611" lon="15.535123683170275"><ele>323.3333333333333</ele><time>2026-04-26T08:59:01Z</time></trkpt><trkpt lat="40.16975111582101" lon="15.535220150113924"><ele>321.6666666666667</ele><time>2026-04-26T08:59:02Z</time></trkpt><trkpt lat="40.16960983293459" lon="15.53531461577392"><ele>320.0</ele><time>2026-04-26T08:59:03Z</time></trkpt><trkpt lat="40.16945611516466" lon="15.535395441300572"><ele>320.0</ele><time>2026-04-26T08:59:04Z</time></trkpt><trkpt lat="40.169290044185736" lon="15.535475610996853"><ele>320.0</ele><time>2026-04-26T08:59:05Z</time></trkpt><trkpt lat="40.16911812024414" lon="15.535532744102747"><ele>320.0</ele><time>2026-04-26T08:59:06Z</time></trkpt><trkpt lat="40.16893466764308" lon="15.535573823970951"><ele>320.33333333333337</ele><time>2026-04-26T08:59:07Z</time></trkpt><trkpt lat="40.16874335148935" lon="15.535598592168665"><ele>320.6666666666667</ele><time>2026-04-26T08:59:08Z</time></trkpt><trkpt lat="40.16855140846914" lon="15.535605554435785"><ele>321.0</ele><time>2026-04-26T08:59:09Z</time></trkpt><trkpt lat="40.16836339148464" lon="15.535595476926568"><ele>321.6666666666667</ele><time>2026-04-26T08:59:10Z</time></trkpt><trkpt lat="40.16817523573145" lon="15.535568407624046"><ele>322.33333333333337</ele><time>2026-04-26T08:59:11Z</time></trkpt><trkpt lat="40.16798699860757" lon="15.53552719005333"><ele>323.0</ele><time>2026-04-26T08:59:12Z</time></trkpt><trkpt lat="40.16778913435064" lon="15.535466488520237"><ele>323.0</ele><time>2026-04-26T08:59:13Z</time></trkpt><trkpt lat="40.16758743764125" lon="15.535388076907244"><ele>323.0</ele><time>2026-04-26T08:59:14Z</time></trkpt><trkpt lat="40.16739983119607" lon="15.535303788781219"><ele>323.0</ele><time>2026-04-26T08:59:15Z</time></trkpt><trkpt lat="40.16721053532078" lon="15.535222370054631"><ele>321.0</ele><time>2026-04-26T08:59:16Z</time></trkpt><trkpt lat="40.167008969722225" lon="15.535139086685623"><ele>319.0</ele><time>2026-04-26T08:59:17Z</time></trkpt><trkpt lat="40.16679746118799" lon="15.535052859949927"><ele>317.0</ele><time>2026-04-26T08:59:18Z</time></trkpt><trkpt lat="40.16658110726648" lon="15.534961967205637"><ele>320.5</ele><time>2026-04-26T08:59:19Z</time></trkpt><trkpt lat="40.16635915181327" lon="15.53486519563384"><ele>324.0</ele><time>2026-04-26T08:59:20Z</time></trkpt><trkpt lat="40.166131039908414" lon="15.53476695255924"><ele>324.0</ele><time>2026-04-26T08:59:21Z</time></trkpt><trkpt lat="40.16590065402848" lon="15.53466945759287"><ele>324.0</ele><time>2026-04-26T08:59:22Z</time></trkpt><trkpt lat="40.165673569561285" lon="15.534566074897466"><ele>311.5</ele><time>2026-04-26T08:59:23Z</time></trkpt><trkpt lat="40.16544540696114" lon="15.534463657252934"><ele>299.0</ele><time>2026-04-26T08:59:24Z</time></trkpt><trkpt lat="40.16521568570725" lon="15.534361169774442"><ele>299.0</ele><time>2026-04-26T08:59:25Z</time></trkpt><trkpt lat="40.16498436988627" lon="15.534260167303726"><ele>299.0</ele><time>2026-04-26T08:59:26Z</time></trkpt><trkpt lat="40.16475130811055" lon="15.534160511768604"><ele>305.0</ele><time>2026-04-26T08:59:27Z</time></trkpt><trkpt lat="40.164515542158924" lon="15.534058503397839"><ele>311.0</ele><time>2026-04-26T08:59:28Z</time></trkpt><trkpt lat="40.16427384620262" lon="15.533952802690532"><ele>311.5</ele><time>2026-04-26T08:59:29Z</time></trkpt><trkpt lat="40.164025877873904" lon="15.533849409897417"><ele>312.0</ele><time>2026-04-26T08:59:30Z</time></trkpt><trkpt lat="40.163784406475514" lon="15.533745941589878"><ele>306.5</ele><time>2026-04-26T08:59:31Z</time></trkpt><trkpt lat="40.16354719248165" lon="15.533644154512652"><ele>301.0</ele><time>2026-04-26T08:59:32Z</time></trkpt><trkpt lat="40.16331547198487" lon="15.533543486411862"><ele>300.0</ele><time>2026-04-26T08:59:33Z</time></trkpt><trkpt lat="40.16308710770479" lon="15.533440561841104"><ele>299.0</ele><time>2026-04-26T08:59:34Z</time></trkpt><trkpt lat="40.162863060743774" lon="15.533341508416258"><ele>299.0</ele><time>2026-04-26T08:59:35Z</time></trkpt><trkpt lat="40.16264267387254" lon="15.533240906304808"><ele>299.0</ele><time>2026-04-26T08:59:36Z</time></trkpt><trkpt lat="40.16242562612597" lon="15.533139735358096"><ele>299.5</ele><time>2026-04-26T08:59:37Z</time></trkpt><trkpt lat="40.16221431426482" lon="15.53301404494973"><ele>300.0</ele><time>2026-04-26T08:59:38Z</time></trkpt><trkpt lat="40.16199550383507" lon="15.532918061727795"><ele>292.5</ele><time>2026-04-26T08:59:39Z</time></trkpt><trkpt lat="40.161773439722964" lon="15.532842907347922"><ele>285.0</ele><time>2026-04-26T08:59:40Z</time></trkpt><trkpt lat="40.16156022232132" lon="15.532745588454977"><ele>286.0</ele><time>2026-04-26T08:59:41Z</time></trkpt><trkpt lat="40.161355875038204" lon="15.532652595047823"><ele>287.0</ele><time>2026-04-26T08:59:42Z</time></trkpt><trkpt lat="40.16115836957236" lon="15.53256323908196"><ele>288.0</ele><time>2026-04-26T08:59:43Z</time></trkpt><trkpt lat="40.16096122990482" lon="15.532482304720286"><ele>288.0</ele><time>2026-04-26T08:59:44Z</time></trkpt><trkpt lat="40.16076868734755" lon="15.53240084903002"><ele>288.0</ele><time>2026-04-26T08:59:45Z</time></trkpt><trkpt lat="40.16058615917435" lon="15.532289913028302"><ele>288.0</ele><time>2026-04-26T08:59:46Z</time></trkpt><trkpt lat="40.160401541090415" lon="15.532187005172988"><ele>287.0</ele><time>2026-04-26T08:59:47Z</time></trkpt><trkpt lat="40.16022187192385" lon="15.532063259131025"><ele>286.0</ele><time>2026-04-26T08:59:48Z</time></trkpt><trkpt lat="40.16004977475885" lon="15.531924397769023"><ele>285.0</ele><time>2026-04-26T08:59:49Z</time></trkpt><trkpt lat="40.15988732121652" lon="15.531764823719666"><ele>287.3333333333333</ele><time>2026-04-26T08:59:50Z</time></trkpt><trkpt lat="40.15973236002438" lon="15.531590750554221"><ele>289.66666666666663</ele><time>2026-04-26T08:59:51Z</time></trkpt><trkpt lat="40.15958964486224" lon="15.531404201719619"><ele>292.0</ele><time>2026-04-26T08:59:52Z</time></trkpt><trkpt lat="40.15945686722221" lon="15.531202660515936"><ele>292.0</ele><time>2026-04-26T08:59:53Z</time></trkpt><trkpt lat="40.15933902966649" lon="15.5309942560561"><ele>292.0</ele><time>2026-04-26T08:59:54Z</time></trkpt><trkpt lat="40.15923803992651" lon="15.530778037036544"><ele>292.0</ele><time>2026-04-26T08:59:55Z</time></trkpt><trkpt lat="40.15915142901875" lon="15.530559276975977"><ele>296.66666666666663</ele><time>2026-04-26T08:59:56Z</time></trkpt><trkpt lat="40.15907786721948" lon="15.53034198003905"><ele>301.3333333333333</ele><time>2026-04-26T08:59:57Z</time></trkpt><trkpt lat="40.159014168179304" lon="15.530122708370964"><ele>306.0</ele><time>2026-04-26T08:59:58Z</time></trkpt><trkpt lat="40.15896523342786" lon="15.529898412743519"><ele>306.0</ele><time>2026-04-26T08:59:59Z</time></trkpt><trkpt lat="40.15892060204293" lon="15.529672966192267"><ele>306.0</ele><time>2026-04-26T09:00:00Z</time></trkpt><trkpt lat="40.15887887458471" lon="15.52944662411727"><ele>306.0</ele><time>2026-04-26T09:00:01Z</time></trkpt><trkpt lat="40.15883537908082" lon="15.529207633615272"><ele>301.0</ele><time>2026-04-26T09:00:02Z</time></trkpt><trkpt lat="40.15879070283861" lon="15.528961636381137"><ele>296.0</ele><time>2026-04-26T09:00:03Z</time></trkpt><trkpt lat="40.15874567148445" lon="15.528714641992833"><ele>291.0</ele><time>2026-04-26T09:00:04Z</time></trkpt><trkpt lat="40.15870264185093" lon="15.528479540759934"><ele>288.3333333333333</ele><time>2026-04-26T09:00:05Z</time></trkpt><trkpt lat="40.158659611267126" lon="15.528248606505901"><ele>285.66666666666663</ele><time>2026-04-26T09:00:06Z</time></trkpt><trkpt lat="40.15861624054398" lon="15.528025044364522"><ele>283.0</ele><time>2026-04-26T09:00:07Z</time></trkpt><trkpt lat="40.1585654938799" lon="15.527811592329446"><ele>283.0</ele><time>2026-04-26T09:00:08Z</time></trkpt><trkpt lat="40.15850451429518" lon="15.527606383816705"><ele>283.0</ele><time>2026-04-26T09:00:09Z</time></trkpt><trkpt lat="40.15844197647809" lon="15.527404062350785"><ele>283.0</ele><time>2026-04-26T09:00:10Z</time></trkpt><trkpt lat="40.15837017376838" lon="15.527196898519295"><ele>282.3333333333333</ele><time>2026-04-26T09:00:11.012Z</time></trkpt><trkpt lat="40.158291630901964" lon="15.526993842166826"><ele>281.6666666666667</ele><time>2026-04-26T09:00:12.011Z</time></trkpt><trkpt lat="40.158204048893296" lon="15.52679223903351"><ele>281.0</ele><time>2026-04-26T09:00:13.015Z</time></trkpt><trkpt lat="40.15811316678329" lon="15.526605095373673"><ele>285.0</ele><time>2026-04-26T09:00:14.012Z</time></trkpt><trkpt lat="40.158005576042065" lon="15.526437870924584"><ele>289.0</ele><time>2026-04-26T09:00:15.011Z</time></trkpt><trkpt lat="40.1566213556008" lon="15.524918138995323"><ele>276.0</ele><time>2026-04-26T09:00:26Z</time></trkpt><trkpt lat="40.15644924912809" lon="15.524785561014045"><ele>263.0</ele><time>2026-04-26T09:00:27Z</time></trkpt><trkpt lat="40.15624804381725" lon="15.524578107689683"><ele>256.5</ele><time>2026-04-26T09:00:28Z</time></trkpt><trkpt lat="40.15605373246562" lon="15.524442733639898"><ele>250.0</ele><time>2026-04-26T09:00:29Z</time></trkpt><trkpt lat="40.15583969155048" lon="15.524294881394123"><ele>252.0</ele><time>2026-04-26T09:00:30Z</time></trkpt><trkpt lat="40.15559791005191" lon="15.524128815846037"><ele>254.0</ele><time>2026-04-26T09:00:31Z</time></trkpt><trkpt lat="40.15535177573457" lon="15.523980660944895"><ele>254.0</ele><time>2026-04-26T09:00:32Z</time></trkpt><trkpt lat="40.1551071994859" lon="15.523813842333452"><ele>254.0</ele><time>2026-04-26T09:00:33Z</time></trkpt><trkpt lat="40.154858399513266" lon="15.523620764283876"><ele>250.5</ele><time>2026-04-26T09:00:34Z</time></trkpt><trkpt lat="40.15458956967252" lon="15.523435087554969"><ele>247.0</ele><time>2026-04-26T09:00:35Z</time></trkpt><trkpt lat="40.15432869035273" lon="15.523255337284219"><ele>247.0</ele><time>2026-04-26T09:00:36Z</time></trkpt><trkpt lat="40.15407799560172" lon="15.523088798495209"><ele>247.0</ele><time>2026-04-26T09:00:37Z</time></trkpt><trkpt lat="40.15380664239659" lon="15.52289808657547"><ele>244.0</ele><time>2026-04-26T09:00:38Z</time></trkpt><trkpt lat="40.153569872604095" lon="15.522735858344419"><ele>241.0</ele><time>2026-04-26T09:00:39Z</time></trkpt><trkpt lat="40.15335373189365" lon="15.522587543998544"><ele>248.5</ele><time>2026-04-26T09:00:40Z</time></trkpt><trkpt lat="40.153141596320474" lon="15.522441977895898"><ele>256.0</ele><time>2026-04-26T09:00:41Z</time></trkpt><trkpt lat="40.15292366666481" lon="15.5222924359516"><ele>256.0</ele><time>2026-04-26T09:00:42Z</time></trkpt><trkpt lat="40.15270357118032" lon="15.522141407861579"><ele>256.0</ele><time>2026-04-26T09:00:43Z</time></trkpt><trkpt lat="40.15248171882128" lon="15.521988862761514"><ele>251.5</ele><time>2026-04-26T09:00:44Z</time></trkpt><trkpt lat="40.15226624184379" lon="15.521840454606854"><ele>247.0</ele><time>2026-04-26T09:00:45Z</time></trkpt><trkpt lat="40.152049859143695" lon="15.521691422529821"><ele>247.0</ele><time>2026-04-26T09:00:46Z</time></trkpt><trkpt lat="40.15183539993381" lon="15.521542880219744"><ele>247.0</ele><time>2026-04-26T09:00:47Z</time></trkpt><trkpt lat="40.15162198296242" lon="15.521394517839628"><ele>237.0</ele><time>2026-04-26T09:00:48Z</time></trkpt><trkpt lat="40.151410917925055" lon="15.521247795829494"><ele>227.0</ele><time>2026-04-26T09:00:49Z</time></trkpt><trkpt lat="40.15120283668923" lon="15.521103156680363"><ele>227.0</ele><time>2026-04-26T09:00:50Z</time></trkpt><trkpt lat="40.151002641385425" lon="15.520965009762824"><ele>227.0</ele><time>2026-04-26T09:00:51Z</time></trkpt><trkpt lat="40.15080381486542" lon="15.520828603188216"><ele>233.0</ele><time>2026-04-26T09:00:52Z</time></trkpt><trkpt lat="40.150607867457865" lon="15.520693651619592"><ele>239.0</ele><time>2026-04-26T09:00:53Z</time></trkpt><trkpt lat="40.150413514810566" lon="15.52055254979538"><ele>245.0</ele><time>2026-04-26T09:00:54Z</time></trkpt><trkpt lat="40.15022630193861" lon="15.52040372634407"><ele>243.33333333333334</ele><time>2026-04-26T09:00:55Z</time></trkpt><trkpt lat="40.15004603262328" lon="15.520234162126222"><ele>241.66666666666669</ele><time>2026-04-26T09:00:56Z</time></trkpt><trkpt lat="40.14987355490885" lon="15.520049832041488"><ele>240.0</ele><time>2026-04-26T09:00:57Z</time></trkpt><trkpt lat="40.14971280158548" lon="15.519858899437263"><ele>240.0</ele><time>2026-04-26T09:00:58Z</time></trkpt><trkpt lat="40.14956489064115" lon="15.51965781384689"><ele>240.0</ele><time>2026-04-26T09:00:59Z</time></trkpt><trkpt lat="40.14942622334233" lon="15.519450513288831"><ele>240.0</ele><time>2026-04-26T09:01:00Z</time></trkpt><trkpt lat="40.14930348012539" lon="15.51923440149669"><ele>232.33333333333331</ele><time>2026-04-26T09:01:01Z</time></trkpt><trkpt lat="40.14918737624025" lon="15.519000321104214"><ele>224.66666666666666</ele><time>2026-04-26T09:01:02Z</time></trkpt><trkpt lat="40.14908001693502" lon="15.518757004348732"><ele>217.0</ele><time>2026-04-26T09:01:03Z</time></trkpt><trkpt lat="40.1489791079547" lon="15.518505759613179"><ele>216.0</ele><time>2026-04-26T09:01:04Z</time></trkpt><trkpt lat="40.148892692722754" lon="15.518241615695999"><ele>215.0</ele><time>2026-04-26T09:01:05Z</time></trkpt><trkpt lat="40.14881516194745" lon="15.517956805035498"><ele>212.5</ele><time>2026-04-26T09:01:06Z</time></trkpt><trkpt lat="40.148751048401266" lon="15.517659683965517"><ele>210.0</ele><time>2026-04-26T09:01:07Z</time></trkpt><trkpt lat="40.14868663319652" lon="15.517354498802673"><ele>209.5</ele><time>2026-04-26T09:01:08Z</time></trkpt><trkpt lat="40.14862102711563" lon="15.517057287507841"><ele>209.0</ele><time>2026-04-26T09:01:09Z</time></trkpt><trkpt lat="40.14854164166085" lon="15.516781055574054"><ele>209.0</ele><time>2026-04-26T09:01:10Z</time></trkpt><trkpt lat="40.1484853673316" lon="15.516487247210215"><ele>209.0</ele><time>2026-04-26T09:01:11Z</time></trkpt><trkpt lat="40.14839716878028" lon="15.51621048196803"><ele>209.0</ele><time>2026-04-26T09:01:12Z</time></trkpt><trkpt lat="40.148286646335464" lon="15.515943153607745"><ele>209.0</ele><time>2026-04-26T09:01:13Z</time></trkpt><trkpt lat="40.14815696617793" lon="15.515686169100208"><ele>209.0</ele><time>2026-04-26T09:01:14Z</time></trkpt><trkpt lat="40.14801084639277" lon="15.515444231868418"><ele>209.0</ele><time>2026-04-26T09:01:15Z</time></trkpt><trkpt lat="40.14785319232591" lon="15.515220761081649"><ele>205.0</ele><time>2026-04-26T09:01:16Z</time></trkpt><trkpt lat="40.147700878691296" lon="15.51500765681806"><ele>201.0</ele><time>2026-04-26T09:01:17Z</time></trkpt><trkpt lat="40.147546983350715" lon="15.514792339565064"><ele>197.0</ele><time>2026-04-26T09:01:18Z</time></trkpt><trkpt lat="40.147266329693984" lon="15.51473334217654"><ele>196.5</ele><time>2026-04-26T09:01:19Z</time></trkpt><trkpt lat="40.147059960723396" lon="15.514592381282352"><ele>196.0</ele><time>2026-04-26T09:01:20Z</time></trkpt><trkpt lat="40.14683700796875" lon="15.514469524497269"><ele>193.5</ele><time>2026-04-26T09:01:21Z</time></trkpt><trkpt lat="40.14659868293054" lon="15.514373854857977"><ele>191.0</ele><time>2026-04-26T09:01:22Z</time></trkpt><trkpt lat="40.146360438812714" lon="15.514295227475033"><ele>191.0</ele><time>2026-04-26T09:01:23Z</time></trkpt><trkpt lat="40.1461224368239" lon="15.514251868090549"><ele>191.0</ele><time>2026-04-26T09:01:24Z</time></trkpt><trkpt lat="40.14588092987144" lon="15.514222560985909"><ele>190.5</ele><time>2026-04-26T09:01:25Z</time></trkpt><trkpt lat="40.14564092341578" lon="15.514193898811145"><ele>190.0</ele><time>2026-04-26T09:01:26Z</time></trkpt><trkpt lat="40.145399838475655" lon="15.51415698329347"><ele>190.0</ele><time>2026-04-26T09:01:27Z</time></trkpt><trkpt lat="40.14515778112039" lon="15.514116635562038"><ele>190.0</ele><time>2026-04-26T09:01:28.011Z</time></trkpt><trkpt lat="40.14491931984605" lon="15.514076983521337"><ele>185.0</ele><time>2026-04-26T09:01:29.011Z</time></trkpt><trkpt lat="40.14468166468838" lon="15.514031703535982"><ele>180.0</ele><time>2026-04-26T09:01:30.011Z</time></trkpt><trkpt lat="40.14444470409865" lon="15.513982112901004"><ele>173.0</ele><time>2026-04-26T09:01:31.012Z</time></trkpt><trkpt lat="40.14395039066686" lon="15.51378118807032"><ele>166.5</ele><time>2026-04-26T09:01:33Z</time></trkpt><trkpt lat="40.143681172849256" lon="15.513729663099971"><ele>160.0</ele><time>2026-04-26T09:01:34Z</time></trkpt><trkpt lat="40.14343098335241" lon="15.51364455480342"><ele>162.5</ele><time>2026-04-26T09:01:35Z</time></trkpt><trkpt lat="40.14318569763093" lon="15.513539981582815"><ele>165.0</ele><time>2026-04-26T09:01:36Z</time></trkpt><trkpt lat="40.14293918430373" lon="15.513426187268712"><ele>165.0</ele><time>2026-04-26T09:01:37Z</time></trkpt><trkpt lat="40.14269925400546" lon="15.513308730231612"><ele>165.0</ele><time>2026-04-26T09:01:38Z</time></trkpt><trkpt lat="40.14246288464922" lon="15.513195695110793"><ele>168.5</ele><time>2026-04-26T09:01:39Z</time></trkpt><trkpt lat="40.14223211111514" lon="15.513082440748883"><ele>172.0</ele><time>2026-04-26T09:01:40Z</time></trkpt><trkpt lat="40.1419960782671" lon="15.512982414072264"><ele>165.0</ele><time>2026-04-26T09:01:41Z</time></trkpt><trkpt lat="40.141763063641605" lon="15.51287696140654"><ele>158.0</ele><time>2026-04-26T09:01:42Z</time></trkpt><trkpt lat="40.14153387941486" lon="15.51277312027712"><ele>156.5</ele><time>2026-04-26T09:01:43Z</time></trkpt><trkpt lat="40.14131173625452" lon="15.5126737909792"><ele>155.0</ele><time>2026-04-26T09:01:44Z</time></trkpt><trkpt lat="40.1410938460916" lon="15.512595564698753"><ele>155.0</ele><time>2026-04-26T09:01:45Z</time></trkpt><trkpt lat="40.14087630118349" lon="15.512529723400737"><ele>155.0</ele><time>2026-04-26T09:01:46Z</time></trkpt><trkpt lat="40.14065973822751" lon="15.512481596093814"><ele>155.0</ele><time>2026-04-26T09:01:47Z</time></trkpt><trkpt lat="40.14043544500208" lon="15.512449676645662"><ele>153.0</ele><time>2026-04-26T09:01:48Z</time></trkpt><trkpt lat="40.14020958404025" lon="15.512429564923746"><ele>151.0</ele><time>2026-04-26T09:01:49Z</time></trkpt><trkpt lat="40.139987008107425" lon="15.512427167393032"><ele>149.0</ele><time>2026-04-26T09:01:50Z</time></trkpt><trkpt lat="40.13976642491682" lon="15.512439888726155"><ele>145.33333333333331</ele><time>2026-04-26T09:01:51Z</time></trkpt><trkpt lat="40.13954826654761" lon="15.512459030054698"><ele>141.66666666666666</ele><time>2026-04-26T09:01:52Z</time></trkpt><trkpt lat="40.13932934456061" lon="15.512497377054995"><ele>138.0</ele><time>2026-04-26T09:01:53Z</time></trkpt><trkpt lat="40.139112213188916" lon="15.512549966511507"><ele>133.0</ele><time>2026-04-26T09:01:54Z</time></trkpt><trkpt lat="40.13889125357599" lon="15.512619671435132"><ele>128.0</ele><time>2026-04-26T09:01:55Z</time></trkpt><trkpt lat="40.138663524738796" lon="15.512701165280337"><ele>128.0</ele><time>2026-04-26T09:01:56Z</time></trkpt><trkpt lat="40.138441030337624" lon="15.512783687673485"><ele>128.0</ele><time>2026-04-26T09:01:57Z</time></trkpt><trkpt lat="40.13822618815803" lon="15.512855819418117"><ele>123.33333333333333</ele><time>2026-04-26T09:01:58Z</time></trkpt><trkpt lat="40.138010302519405" lon="15.512928189924102"><ele>118.66666666666666</ele><time>2026-04-26T09:01:59Z</time></trkpt><trkpt lat="40.13779140551662" lon="15.513002974269911"><ele>114.0</ele><time>2026-04-26T09:02:00Z</time></trkpt><trkpt lat="40.1375674104099" lon="15.513079479087471"><ele>121.5</ele><time>2026-04-26T09:02:01Z</time></trkpt><trkpt lat="40.13734543174387" lon="15.513147575726617"><ele>129.0</ele><time>2026-04-26T09:02:02Z</time></trkpt><trkpt lat="40.13712341854656" lon="15.513205136282378"><ele>129.0</ele><time>2026-04-26T09:02:03Z</time></trkpt><trkpt lat="40.13690121722572" lon="15.513238966827913"><ele>129.0</ele><time>2026-04-26T09:02:04Z</time></trkpt><trkpt lat="40.13668133307514" lon="15.513254370012662"><ele>129.0</ele><time>2026-04-26T09:02:05Z</time></trkpt><trkpt lat="40.13646197131507" lon="15.513246774294295"><ele>126.66666666666666</ele><time>2026-04-26T09:02:06Z</time></trkpt><trkpt lat="40.136247169286875" lon="15.513230707256465"><ele>124.33333333333333</ele><time>2026-04-26T09:02:07Z</time></trkpt><trkpt lat="40.136016190915086" lon="15.513229425491222"><ele>122.0</ele><time>2026-04-26T09:02:08Z</time></trkpt><trkpt lat="40.13578668879238" lon="15.513212331000048"><ele>116.5</ele><time>2026-04-26T09:02:09Z</time></trkpt><trkpt lat="40.13556023285101" lon="15.513164820651602"><ele>111.0</ele><time>2026-04-26T09:02:10Z</time></trkpt><trkpt lat="40.13533678490775" lon="15.51309783309881"><ele>111.0</ele><time>2026-04-26T09:02:11Z</time></trkpt><trkpt lat="40.13511535352216" lon="15.513017222697261"><ele>111.0</ele><time>2026-04-26T09:02:12Z</time></trkpt><trkpt lat="40.134886399642596" lon="15.512920813831473"><ele>110.0</ele><time>2026-04-26T09:02:13Z</time></trkpt><trkpt lat="40.13465896820781" lon="15.512809284972816"><ele>109.0</ele><time>2026-04-26T09:02:14Z</time></trkpt><trkpt lat="40.13443575693385" lon="15.51267374225343"><ele>109.0</ele><time>2026-04-26T09:02:15Z</time></trkpt><trkpt lat="40.13421763018588" lon="15.512523702935672"><ele>109.0</ele><time>2026-04-26T09:02:16Z</time></trkpt><trkpt lat="40.13400186721499" lon="15.512358617697748"><ele>105.0</ele><time>2026-04-26T09:02:17Z</time></trkpt><trkpt lat="40.133791595549525" lon="15.512178007626899"><ele>101.0</ele><time>2026-04-26T09:02:18Z</time></trkpt><trkpt lat="40.13358514702257" lon="15.511990150226499"><ele>101.0</ele><time>2026-04-26T09:02:19Z</time></trkpt><trkpt lat="40.133379397131215" lon="15.5117999189688"><ele>101.0</ele><time>2026-04-26T09:02:20Z</time></trkpt><trkpt lat="40.13316645973393" lon="15.51160989579586"><ele>102.0</ele><time>2026-04-26T09:02:21Z</time></trkpt><trkpt lat="40.13295748463981" lon="15.51142183983136"><ele>103.0</ele><time>2026-04-26T09:02:22Z</time></trkpt><trkpt lat="40.13274664361226" lon="15.511238993929657"><ele>100.0</ele><time>2026-04-26T09:02:23Z</time></trkpt><trkpt lat="40.1325368897756" lon="15.511053138758882"><ele>97.0</ele><time>2026-04-26T09:02:24Z</time></trkpt><trkpt lat="40.13234280931045" lon="15.510821033948256"><ele>93.0</ele><time>2026-04-26T09:02:25Z</time></trkpt><trkpt lat="40.13212077484807" lon="15.510640566358978"><ele>89.0</ele><time>2026-04-26T09:02:26Z</time></trkpt><trkpt lat="40.13189685992806" lon="15.5104596410184"><ele>81.5</ele><time>2026-04-26T09:02:27Z</time></trkpt><trkpt lat="40.13168015195865" lon="15.510283993115884"><ele>74.0</ele><time>2026-04-26T09:02:28Z</time></trkpt><trkpt lat="40.13146817514764" lon="15.510112664925353"><ele>67.5</ele><time>2026-04-26T09:02:29Z</time></trkpt><trkpt lat="40.13125564800679" lon="15.509940891931633"><ele>61.0</ele><time>2026-04-26T09:02:30Z</time></trkpt><trkpt lat="40.13104081151908" lon="15.509767252421994"><ele>61.0</ele><time>2026-04-26T09:02:31Z</time></trkpt><trkpt lat="40.13082650220977" lon="15.509594039003455"><ele>61.0</ele><time>2026-04-26T09:02:32Z</time></trkpt><trkpt lat="40.130616177000945" lon="15.509424408826606"><ele>54.5</ele><time>2026-04-26T09:02:33Z</time></trkpt><trkpt lat="40.13040743933289" lon="15.509256069464117"><ele>48.0</ele><time>2026-04-26T09:02:34Z</time></trkpt><trkpt lat="40.130200270857905" lon="15.50908887992572"><ele>48.0</ele><time>2026-04-26T09:02:35Z</time></trkpt><trkpt lat="40.12998891805738" lon="15.508918154059783"><ele>48.0</ele><time>2026-04-26T09:02:36Z</time></trkpt><trkpt lat="40.12977295217" lon="15.50874370186007"><ele>48.0</ele><time>2026-04-26T09:02:37Z</time></trkpt><trkpt lat="40.12955436709879" lon="15.508567313964614"><ele>48.0</ele><time>2026-04-26T09:02:38Z</time></trkpt><trkpt lat="40.12933635135083" lon="15.508391992502027"><ele>48.0</ele><time>2026-04-26T09:02:39Z</time></trkpt><trkpt lat="40.12911717165022" lon="15.508215765842111"><ele>48.0</ele><time>2026-04-26T09:02:40Z</time></trkpt><trkpt lat="40.12889744604944" lon="15.508039138135223"><ele>56.5</ele><time>2026-04-26T09:02:41Z</time></trkpt><trkpt lat="40.12867666923394" lon="15.507861665693222"><ele>65.0</ele><time>2026-04-26T09:02:42Z</time></trkpt><trkpt lat="40.12845354496594" lon="15.50768225297065"><ele>81.0</ele><time>2026-04-26T09:02:43Z</time></trkpt><trkpt lat="40.1282257013945" lon="15.50749909724992"><ele>97.0</ele><time>2026-04-26T09:02:44Z</time></trkpt><trkpt lat="40.12799451767952" lon="15.507313517603361"><ele>97.0</ele><time>2026-04-26T09:02:45Z</time></trkpt><trkpt lat="40.12775999945608" lon="15.507124963880688"><ele>97.0</ele><time>2026-04-26T09:02:46Z</time></trkpt><trkpt lat="40.12752271222252" lon="15.506934177978257"><ele>91.0</ele><time>2026-04-26T09:02:47Z</time></trkpt><trkpt lat="40.12728169004177" lon="15.50674038774785"><ele>85.0</ele><time>2026-04-26T09:02:48Z</time></trkpt><trkpt lat="40.127039382902204" lon="15.50654556432328"><ele>85.0</ele><time>2026-04-26T09:02:49Z</time></trkpt><trkpt lat="40.12679846687131" lon="15.506351859439377"><ele>85.0</ele><time>2026-04-26T09:02:50Z</time></trkpt><trkpt lat="40.12656210517142" lon="15.50616181639144"><ele>80.0</ele><time>2026-04-26T09:02:51Z</time></trkpt><trkpt lat="40.126334959935946" lon="15.505979183663007"><ele>75.0</ele><time>2026-04-26T09:02:52Z</time></trkpt><trkpt lat="40.12611408225845" lon="15.505801590336214"><ele>75.0</ele><time>2026-04-26T09:02:53Z</time></trkpt><trkpt lat="40.12589639991127" lon="15.505626326401883"><ele>75.0</ele><time>2026-04-26T09:02:54Z</time></trkpt><trkpt lat="40.12568376023371" lon="15.505455299208926"><ele>75.0</ele><time>2026-04-26T09:02:55Z</time></trkpt><trkpt lat="40.12547349570529" lon="15.505286577486997"><ele>75.0</ele><time>2026-04-26T09:02:56Z</time></trkpt><trkpt lat="40.12526662408922" lon="15.505120578359994"><ele>75.0</ele><time>2026-04-26T09:02:57Z</time></trkpt><trkpt lat="40.12506008561787" lon="15.5049548465116"><ele>75.0</ele><time>2026-04-26T09:02:58Z</time></trkpt><trkpt lat="40.12485500790872" lon="15.504790279648581"><ele>74.5</ele><time>2026-04-26T09:02:59Z</time></trkpt><trkpt lat="40.12465066662998" lon="15.504626278318929"><ele>74.0</ele><time>2026-04-26T09:03:00Z</time></trkpt><trkpt lat="40.12444919300519" lon="15.504464578534089"><ele>74.0</ele><time>2026-04-26T09:03:01Z</time></trkpt><trkpt lat="40.12424900913725" lon="15.504303306491515"><ele>74.0</ele><time>2026-04-26T09:03:02Z</time></trkpt><trkpt lat="40.124045226931585" lon="15.504138624035859"><ele>82.0</ele><time>2026-04-26T09:03:03Z</time></trkpt><trkpt lat="40.12384071535527" lon="15.503973503891315"><ele>90.0</ele><time>2026-04-26T09:03:04Z</time></trkpt><trkpt lat="40.12363364187632" lon="15.503807382819499"><ele>80.0</ele><time>2026-04-26T09:03:05Z</time></trkpt><trkpt lat="40.123415685061815" lon="15.503632530798054"><ele>70.0</ele><time>2026-04-26T09:03:06Z</time></trkpt><trkpt lat="40.12320561888255" lon="15.50346400889175"><ele>70.0</ele><time>2026-04-26T09:03:07Z</time></trkpt><trkpt lat="40.12299623417708" lon="15.50329603368786"><ele>70.0</ele><time>2026-04-26T09:03:08Z</time></trkpt><trkpt lat="40.1227869094197" lon="15.503128017059902"><ele>70.0</ele><time>2026-04-26T09:03:09Z</time></trkpt><trkpt lat="40.12257856087866" lon="15.502959518378214"><ele>70.0</ele><time>2026-04-26T09:03:10Z</time></trkpt><trkpt lat="40.12237067609959" lon="15.502791393582138"><ele>63.5</ele><time>2026-04-26T09:03:11Z</time></trkpt><trkpt lat="40.12216443894257" lon="15.502624601295597"><ele>57.0</ele><time>2026-04-26T09:03:12Z</time></trkpt><trkpt lat="40.121963102666456" lon="15.502463330462556"><ele>57.0</ele><time>2026-04-26T09:03:13Z</time></trkpt><trkpt lat="40.12176324080984" lon="15.502303740353874"><ele>57.0</ele><time>2026-04-26T09:03:14Z</time></trkpt><trkpt lat="40.121567298945735" lon="15.502142025058568"><ele>59.0</ele><time>2026-04-26T09:03:15Z</time></trkpt><trkpt lat="40.1213758725927" lon="15.50197996876184"><ele>61.0</ele><time>2026-04-26T09:03:16Z</time></trkpt><trkpt lat="40.121193782938725" lon="15.501809387969642"><ele>61.0</ele><time>2026-04-26T09:03:17Z</time></trkpt><trkpt lat="40.12102090719996" lon="15.501627524462469"><ele>61.0</ele><time>2026-04-26T09:03:18Z</time></trkpt><trkpt lat="40.12084213687434" lon="15.501436543663678"><ele>58.0</ele><time>2026-04-26T09:03:19Z</time></trkpt><trkpt lat="40.12065678830462" lon="15.50124317991347"><ele>55.0</ele><time>2026-04-26T09:03:20Z</time></trkpt><trkpt lat="40.120499761892" lon="15.501009441170039"><ele>55.0</ele><time>2026-04-26T09:03:21Z</time></trkpt><trkpt lat="40.1203498184176" lon="15.500767244720276"><ele>55.0</ele><time>2026-04-26T09:03:22Z</time></trkpt><trkpt lat="40.12018794310442" lon="15.50053352353067"><ele>58.5</ele><time>2026-04-26T09:03:23Z</time></trkpt><trkpt lat="40.120026495313745" lon="15.500295151543208"><ele>62.0</ele><time>2026-04-26T09:03:24Z</time></trkpt><trkpt lat="40.11986623088144" lon="15.500054582538876"><ele>62.0</ele><time>2026-04-26T09:03:25Z</time></trkpt><trkpt lat="40.11970462867965" lon="15.499822899377275"><ele>62.0</ele><time>2026-04-26T09:03:26Z</time></trkpt><trkpt lat="40.11954034902208" lon="15.49959154791741"><ele>53.0</ele><time>2026-04-26T09:03:27Z</time></trkpt><trkpt lat="40.11937250061515" lon="15.4993718748079"><ele>44.0</ele><time>2026-04-26T09:03:28Z</time></trkpt><trkpt lat="40.11919307029044" lon="15.499164168935266"><ele>49.5</ele><time>2026-04-26T09:03:29Z</time></trkpt><trkpt lat="40.11900169466649" lon="15.498960938626732"><ele>55.0</ele><time>2026-04-26T09:03:30Z</time></trkpt><trkpt lat="40.11879725583765" lon="15.498773897130466"><ele>46.0</ele><time>2026-04-26T09:03:31Z</time></trkpt><trkpt lat="40.11858460015089" lon="15.498599833989795"><ele>37.0</ele><time>2026-04-26T09:03:32Z</time></trkpt><trkpt lat="40.11836205450551" lon="15.49844384887572"><ele>36.5</ele><time>2026-04-26T09:03:33Z</time></trkpt><trkpt lat="40.118146487301416" lon="15.498292240829556"><ele>36.0</ele><time>2026-04-26T09:03:34Z</time></trkpt><trkpt lat="40.11793445275453" lon="15.498140547421661"><ele>36.0</ele><time>2026-04-26T09:03:35Z</time></trkpt><trkpt lat="40.11772357732265" lon="15.497989845612263"><ele>36.0</ele><time>2026-04-26T09:03:36Z</time></trkpt><trkpt lat="40.117510706235294" lon="15.497837902511705"><ele>36.5</ele><time>2026-04-26T09:03:37Z</time></trkpt><trkpt lat="40.117297980937465" lon="15.497685457454864"><ele>37.0</ele><time>2026-04-26T09:03:38Z</time></trkpt><trkpt lat="40.11708550792792" lon="15.497535061659713"><ele>37.0</ele><time>2026-04-26T09:03:39Z</time></trkpt><trkpt lat="40.116876233690874" lon="15.497389679074708"><ele>37.0</ele><time>2026-04-26T09:03:40Z</time></trkpt><trkpt lat="40.11666733317202" lon="15.497242480825122"><ele>34.5</ele><time>2026-04-26T09:03:41Z</time></trkpt><trkpt lat="40.11645598578199" lon="15.49709401594176"><ele>32.0</ele><time>2026-04-26T09:03:42Z</time></trkpt><trkpt lat="40.116245311637066" lon="15.496943857123256"><ele>32.0</ele><time>2026-04-26T09:03:43Z</time></trkpt><trkpt lat="40.116036560601174" lon="15.496791424297404"><ele>32.0</ele><time>2026-04-26T09:03:44Z</time></trkpt><trkpt lat="40.115829526509536" lon="15.496642791936047"><ele>34.0</ele><time>2026-04-26T09:03:45Z</time></trkpt><trkpt lat="40.11562461665873" lon="15.496494450795229"><ele>36.0</ele><time>2026-04-26T09:03:46Z</time></trkpt><trkpt lat="40.11542329451837" lon="15.496348365251515"><ele>32.0</ele><time>2026-04-26T09:03:47Z</time></trkpt><trkpt lat="40.11522190536285" lon="15.496204809872955"><ele>28.0</ele><time>2026-04-26T09:03:48Z</time></trkpt><trkpt lat="40.11502094337952" lon="15.496057863857366"><ele>29.0</ele><time>2026-04-26T09:03:49Z</time></trkpt><trkpt lat="40.11482509585433" lon="15.495914155447213"><ele>30.0</ele><time>2026-04-26T09:03:50Z</time></trkpt><trkpt lat="40.11462775145098" lon="15.495777151886456"><ele>31.0</ele><time>2026-04-26T09:03:51Z</time></trkpt><trkpt lat="40.114426898387094" lon="15.495645504073252"><ele>31.0</ele><time>2026-04-26T09:03:52Z</time></trkpt><trkpt lat="40.11421797018629" lon="15.495533311142887"><ele>31.0</ele><time>2026-04-26T09:03:53Z</time></trkpt><trkpt lat="40.11400458595458" lon="15.495439528945756"><ele>31.0</ele><time>2026-04-26T09:03:54Z</time></trkpt><trkpt lat="40.11378962308732" lon="15.495362122457863"><ele>31.0</ele><time>2026-04-26T09:03:55Z</time></trkpt><trkpt lat="40.11356531067714" lon="15.49529963364395"><ele>31.0</ele><time>2026-04-26T09:03:56Z</time></trkpt><trkpt lat="40.113337364885275" lon="15.495255036464608"><ele>31.0</ele><time>2026-04-26T09:03:57Z</time></trkpt><trkpt lat="40.11310318444514" lon="15.49523347308554"><ele>31.0</ele><time>2026-04-26T09:03:58Z</time></trkpt><trkpt lat="40.11286798622209" lon="15.495230244245315"><ele>31.0</ele><time>2026-04-26T09:03:59Z</time></trkpt><trkpt lat="40.11263152552346" lon="15.495244335366761"><ele>32.0</ele><time>2026-04-26T09:04:00Z</time></trkpt><trkpt lat="40.11239645136712" lon="15.495282419309614"><ele>33.0</ele><time>2026-04-26T09:04:01Z</time></trkpt><trkpt lat="40.11216352711265" lon="15.495337559642206"><ele>33.0</ele><time>2026-04-26T09:04:02Z</time></trkpt><trkpt lat="40.11193391455772" lon="15.495419658570492"><ele>33.0</ele><time>2026-04-26T09:04:03Z</time></trkpt><trkpt lat="40.11170667281559" lon="15.49551252570517"><ele>37.0</ele><time>2026-04-26T09:04:04Z</time></trkpt><trkpt lat="40.111479463129974" lon="15.495622329989349"><ele>41.0</ele><time>2026-04-26T09:04:05Z</time></trkpt><trkpt lat="40.11125612031602" lon="15.495734378001169"><ele>41.0</ele><time>2026-04-26T09:04:06Z</time></trkpt><trkpt lat="40.111036335505446" lon="15.495845538929563"><ele>41.0</ele><time>2026-04-26T09:04:07Z</time></trkpt><trkpt lat="40.110823817707825" lon="15.495947953645732"><ele>39.33333333333333</ele><time>2026-04-26T09:04:08Z</time></trkpt><trkpt lat="40.11061508270035" lon="15.496044669906597"><ele>37.666666666666664</ele><time>2026-04-26T09:04:09Z</time></trkpt><trkpt lat="40.11040274867261" lon="15.496135750513796"><ele>36.0</ele><time>2026-04-26T09:04:10Z</time></trkpt><trkpt lat="40.11018495617672" lon="15.496219484908973"><ele>40.0</ele><time>2026-04-26T09:04:11Z</time></trkpt><trkpt lat="40.10996106438016" lon="15.49629536774274"><ele>44.0</ele><time>2026-04-26T09:04:12Z</time></trkpt><trkpt lat="40.109734740957975" lon="15.496353801677287"><ele>49.0</ele><time>2026-04-26T09:04:13Z</time></trkpt><trkpt lat="40.10950733602017" lon="15.496412785260771"><ele>54.0</ele><time>2026-04-26T09:04:14Z</time></trkpt><trkpt lat="40.1092805311123" lon="15.496476887344048"><ele>62.5</ele><time>2026-04-26T09:04:15Z</time></trkpt><trkpt lat="40.10905510054093" lon="15.496536556995524"><ele>71.0</ele><time>2026-04-26T09:04:16Z</time></trkpt><trkpt lat="40.10882542002481" lon="15.496595363777725"><ele>71.0</ele><time>2026-04-26T09:04:17Z</time></trkpt><trkpt lat="40.10859283947051" lon="15.49665539112205"><ele>71.0</ele><time>2026-04-26T09:04:18Z</time></trkpt><trkpt lat="40.10835166311269" lon="15.496716550923928"><ele>72.0</ele><time>2026-04-26T09:04:19.013Z</time></trkpt><trkpt lat="40.108110106497016" lon="15.49677980213252"><ele>73.0</ele><time>2026-04-26T09:04:20.011Z</time></trkpt><trkpt lat="40.10786350217088" lon="15.496842931772376"><ele>73.0</ele><time>2026-04-26T09:04:21.013Z</time></trkpt><trkpt lat="40.10762095724013" lon="15.49690433712163"><ele>73.0</ele><time>2026-04-26T09:04:22.01Z</time></trkpt><trkpt lat="40.107380342548765" lon="15.496964561048108"><ele>27.0</ele><time>2026-04-26T09:04:23.011Z</time></trkpt><trkpt lat="40.1055241004006" lon="15.497500933721193"><ele>27.0</ele><time>2026-04-26T09:04:31Z</time></trkpt><trkpt lat="40.10529252498394" lon="15.497562847485597"><ele>27.0</ele><time>2026-04-26T09:04:32Z</time></trkpt><trkpt lat="40.105095382315575" lon="15.49761707341967"><ele>27.0</ele><time>2026-04-26T09:04:33Z</time></trkpt><trkpt lat="40.10487590591483" lon="15.49768152698293"><ele>25.0</ele><time>2026-04-26T09:04:34Z</time></trkpt><trkpt lat="40.10465527187537" lon="15.497781856640948"><ele>23.0</ele><time>2026-04-26T09:04:35Z</time></trkpt><trkpt lat="40.104428821702335" lon="15.497886754332637"><ele>23.5</ele><time>2026-04-26T09:04:36Z</time></trkpt><trkpt lat="40.10419669589306" lon="15.497997202860544"><ele>24.0</ele><time>2026-04-26T09:04:37Z</time></trkpt><trkpt lat="40.10396419974687" lon="15.498113433711387"><ele>24.0</ele><time>2026-04-26T09:04:38Z</time></trkpt><trkpt lat="40.1037250831169" lon="15.498209531840821"><ele>24.0</ele><time>2026-04-26T09:04:39Z</time></trkpt><trkpt lat="40.103488780677885" lon="15.498321366592076"><ele>24.0</ele><time>2026-04-26T09:04:40Z</time></trkpt><trkpt lat="40.10326094619185" lon="15.49844700020994"><ele>24.0</ele><time>2026-04-26T09:04:41Z</time></trkpt><trkpt lat="40.103025059657675" lon="15.498547796591804"><ele>22.5</ele><time>2026-04-26T09:04:42Z</time></trkpt><trkpt lat="40.10279235769492" lon="15.498654430998663"><ele>21.0</ele><time>2026-04-26T09:04:43Z</time></trkpt><trkpt lat="40.102560784018245" lon="15.498763987520357"><ele>24.0</ele><time>2026-04-26T09:04:44Z</time></trkpt><trkpt lat="40.102325468063135" lon="15.49887826134602"><ele>27.0</ele><time>2026-04-26T09:04:45Z</time></trkpt><trkpt lat="40.10209439762115" lon="15.498984113937267"><ele>27.0</ele><time>2026-04-26T09:04:46Z</time></trkpt><trkpt lat="40.101861913900834" lon="15.499093177804998"><ele>27.0</ele><time>2026-04-26T09:04:47Z</time></trkpt><trkpt lat="40.101636292946864" lon="15.499192428632867"><ele>25.5</ele><time>2026-04-26T09:04:48Z</time></trkpt><trkpt lat="40.10140781768874" lon="15.499274238753694"><ele>24.0</ele><time>2026-04-26T09:04:49Z</time></trkpt><trkpt lat="40.10117456013381" lon="15.49933271120482"><ele>24.0</ele><time>2026-04-26T09:04:50Z</time></trkpt><trkpt lat="40.10093926817415" lon="15.499362095650483"><ele>24.0</ele><time>2026-04-26T09:04:51Z</time></trkpt><trkpt lat="40.10070065554551" lon="15.499360606195568"><ele>26.5</ele><time>2026-04-26T09:04:52Z</time></trkpt><trkpt lat="40.10046387923174" lon="15.499338110402643"><ele>29.0</ele><time>2026-04-26T09:04:53Z</time></trkpt><trkpt lat="40.10023109043157" lon="15.499275348681703"><ele>29.0</ele><time>2026-04-26T09:04:54Z</time></trkpt><trkpt lat="40.09999563928562" lon="15.499234437642112"><ele>29.0</ele><time>2026-04-26T09:04:55Z</time></trkpt><trkpt lat="40.099762343603864" lon="15.499173843693926"><ele>28.5</ele><time>2026-04-26T09:04:56Z</time></trkpt><trkpt lat="40.09952839644883" lon="15.49912663551493"><ele>28.0</ele><time>2026-04-26T09:04:57Z</time></trkpt><trkpt lat="40.09929233971714" lon="15.499094255869888"><ele>26.5</ele><time>2026-04-26T09:04:58Z</time></trkpt><trkpt lat="40.099057187586226" lon="15.499082513743145"><ele>25.0</ele><time>2026-04-26T09:04:59Z</time></trkpt><trkpt lat="40.09883536546507" lon="15.499094255488073"><ele>25.0</ele><time>2026-04-26T09:05:00Z</time></trkpt><trkpt lat="40.09861725128574" lon="15.499135316893748"><ele>25.0</ele><time>2026-04-26T09:05:01Z</time></trkpt><trkpt lat="40.098402919164606" lon="15.499197878121027"><ele>25.0</ele><time>2026-04-26T09:05:02Z</time></trkpt><trkpt lat="40.098193072851934" lon="15.499283681296047"><ele>26.0</ele><time>2026-04-26T09:05:03Z</time></trkpt><trkpt lat="40.09798995810787" lon="15.499393393992204"><ele>27.0</ele><time>2026-04-26T09:05:04Z</time></trkpt><trkpt lat="40.097789329979655" lon="15.49952690816147"><ele>28.0</ele><time>2026-04-26T09:05:05Z</time></trkpt><trkpt lat="40.09759426374237" lon="15.499687793030798"><ele>23.5</ele><time>2026-04-26T09:05:06Z</time></trkpt><trkpt lat="40.09740853684441" lon="15.499863571060418"><ele>19.0</ele><time>2026-04-26T09:05:07Z</time></trkpt><trkpt lat="40.097230299134296" lon="15.50006204359197"><ele>19.0</ele><time>2026-04-26T09:05:08Z</time></trkpt><trkpt lat="40.097060900279864" lon="15.500279584914491"><ele>19.0</ele><time>2026-04-26T09:05:09Z</time></trkpt><trkpt lat="40.09689478091276" lon="15.500494852244012"><ele>18.0</ele><time>2026-04-26T09:05:10Z</time></trkpt><trkpt lat="40.09673330013109" lon="15.50070760654678"><ele>17.0</ele><time>2026-04-26T09:05:11Z</time></trkpt><trkpt lat="40.0965700308484" lon="15.500916083758657"><ele>17.0</ele><time>2026-04-26T09:05:12Z</time></trkpt><trkpt lat="40.096389561216725" lon="15.501101014017188"><ele>17.0</ele><time>2026-04-26T09:05:13Z</time></trkpt><trkpt lat="40.09621179199885" lon="15.501290534984447"><ele>20.5</ele><time>2026-04-26T09:05:14Z</time></trkpt><trkpt lat="40.096032733625265" lon="15.501483818911922"><ele>24.0</ele><time>2026-04-26T09:05:15Z</time></trkpt><trkpt lat="40.095823893427536" lon="15.501624700418605"><ele>21.5</ele><time>2026-04-26T09:05:16Z</time></trkpt><trkpt lat="40.09562465819149" lon="15.501789645434815"><ele>19.0</ele><time>2026-04-26T09:05:17Z</time></trkpt><trkpt lat="40.095407647315945" lon="15.501912771127994"><ele>19.0</ele><time>2026-04-26T09:05:18Z</time></trkpt><trkpt lat="40.09517901740403" lon="15.502020200350442"><ele>19.0</ele><time>2026-04-26T09:05:19Z</time></trkpt><trkpt lat="40.09494222058846" lon="15.502109475305701"><ele>22.0</ele><time>2026-04-26T09:05:20Z</time></trkpt><trkpt lat="40.09470038934561" lon="15.502184746929187"><ele>25.0</ele><time>2026-04-26T09:05:21Z</time></trkpt><trkpt lat="40.09445612818848" lon="15.502244723278222"><ele>25.0</ele><time>2026-04-26T09:05:22Z</time></trkpt><trkpt lat="40.09421284749335" lon="15.502300025707184"><ele>25.0</ele><time>2026-04-26T09:05:23Z</time></trkpt><trkpt lat="40.09396868229082" lon="15.502362089318634"><ele>24.0</ele><time>2026-04-26T09:05:24Z</time></trkpt><trkpt lat="40.093725015895956" lon="15.502426146572557"><ele>23.0</ele><time>2026-04-26T09:05:25Z</time></trkpt><trkpt lat="40.09348205121228" lon="15.502482977847503"><ele>29.666666666666668</ele><time>2026-04-26T09:05:26Z</time></trkpt><trkpt lat="40.09324911534354" lon="15.502538877909899"><ele>36.333333333333336</ele><time>2026-04-26T09:05:27Z</time></trkpt><trkpt lat="40.09304747846156" lon="15.502586747850565"><ele>43.0</ele><time>2026-04-26T09:05:28Z</time></trkpt><trkpt lat="40.09288203130119" lon="15.502621703275231"><ele>43.0</ele><time>2026-04-26T09:05:29Z</time></trkpt><trkpt lat="40.092720904726576" lon="15.502656436926847"><ele>43.0</ele><time>2026-04-26T09:05:30Z</time></trkpt><trkpt lat="40.09255718913315" lon="15.502693200636813"><ele>43.0</ele><time>2026-04-26T09:05:31Z</time></trkpt><trkpt lat="40.0923888329084" lon="15.502733812759377"><ele>63.0</ele><time>2026-04-26T09:05:32Z</time></trkpt><trkpt lat="40.09220638058379" lon="15.50277618872182"><ele>83.0</ele><time>2026-04-26T09:05:33.011Z</time></trkpt><trkpt lat="40.09201627676312" lon="15.502818024756614"><ele>103.0</ele><time>2026-04-26T09:05:34.011Z</time></trkpt><trkpt lat="40.09181657686078" lon="15.502859222210557"><ele>103.0</ele><time>2026-04-26T09:05:35.012Z</time></trkpt><trkpt lat="40.091613343062576" lon="15.502900164186505"><ele>103.0</ele><time>2026-04-26T09:05:36.012Z</time></trkpt><trkpt lat="40.087305950038214" lon="15.504097826793327"><ele>62.0</ele><time>2026-04-26T09:05:56Z</time></trkpt><trkpt lat="40.08710793575781" lon="15.504200924220621"><ele>21.0</ele><time>2026-04-26T09:05:57Z</time></trkpt><trkpt lat="40.086884731276406" lon="15.504381120355717"><ele>21.0</ele><time>2026-04-26T09:05:58Z</time></trkpt><trkpt lat="40.08670663450425" lon="15.504545599474808"><ele>21.0</ele><time>2026-04-26T09:05:59Z</time></trkpt><trkpt lat="40.08653001819949" lon="15.504739165553318"><ele>21.0</ele><time>2026-04-26T09:06:00Z</time></trkpt><trkpt lat="40.086368812812516" lon="15.504935030234792"><ele>21.0</ele><time>2026-04-26T09:06:01Z</time></trkpt><trkpt lat="40.08623093985016" lon="15.505164953824558"><ele>21.0</ele><time>2026-04-26T09:06:02Z</time></trkpt><trkpt lat="40.08609774398323" lon="15.505399473107982"><ele>21.0</ele><time>2026-04-26T09:06:03Z</time></trkpt><trkpt lat="40.08596679487547" lon="15.5056289852119"><ele>20.666666666666668</ele><time>2026-04-26T09:06:04Z</time></trkpt><trkpt lat="40.0858379924153" lon="15.505867466260502"><ele>20.333333333333336</ele><time>2026-04-26T09:06:05Z</time></trkpt><trkpt lat="40.08570726694073" lon="15.506101482573134"><ele>20.0</ele><time>2026-04-26T09:06:06Z</time></trkpt><trkpt lat="40.08557611968744" lon="15.506341144442315"><ele>20.0</ele><time>2026-04-26T09:06:07Z</time></trkpt><trkpt lat="40.08544666969382" lon="15.506585090853045"><ele>20.0</ele><time>2026-04-26T09:06:08Z</time></trkpt><trkpt lat="40.085316013626844" lon="15.506823392762563"><ele>20.0</ele><time>2026-04-26T09:06:09Z</time></trkpt><trkpt lat="40.08518547642608" lon="15.50706129511638"><ele>20.0</ele><time>2026-04-26T09:06:10Z</time></trkpt><trkpt lat="40.08505534400197" lon="15.507294770248857"><ele>20.0</ele><time>2026-04-26T09:06:11Z</time></trkpt><trkpt lat="40.08492281765087" lon="15.507529780651227"><ele>20.0</ele><time>2026-04-26T09:06:12Z</time></trkpt><trkpt lat="40.08479492376221" lon="15.507761137794864"><ele>20.0</ele><time>2026-04-26T09:06:13Z</time></trkpt><trkpt lat="40.08467234377992" lon="15.50799106388066"><ele>20.0</ele><time>2026-04-26T09:06:14Z</time></trkpt><trkpt lat="40.08454705526107" lon="15.508222285608642"><ele>20.0</ele><time>2026-04-26T09:06:15Z</time></trkpt><trkpt lat="40.08442321685817" lon="15.508452344173598"><ele>20.0</ele><time>2026-04-26T09:06:16Z</time></trkpt><trkpt lat="40.08429872468967" lon="15.508682343142969"><ele>20.0</ele><time>2026-04-26T09:06:17Z</time></trkpt><trkpt lat="40.084167993746924" lon="15.508910013512642"><ele>18.333333333333336</ele><time>2026-04-26T09:06:18Z</time></trkpt><trkpt lat="40.08404331335864" lon="15.509137432405609"><ele>16.666666666666668</ele><time>2026-04-26T09:06:19Z</time></trkpt><trkpt lat="40.08391139622693" lon="15.509345586260642"><ele>15.0</ele><time>2026-04-26T09:06:20Z</time></trkpt><trkpt lat="40.08376694314061" lon="15.50953192819221"><ele>15.333333333333332</ele><time>2026-04-26T09:06:21Z</time></trkpt><trkpt lat="40.08360680856971" lon="15.509700121348631"><ele>15.666666666666666</ele><time>2026-04-26T09:06:22Z</time></trkpt><trkpt lat="40.08343748355967" lon="15.509855877504002"><ele>16.0</ele><time>2026-04-26T09:06:23Z</time></trkpt><trkpt lat="40.08325721171066" lon="15.509993482844392"><ele>16.0</ele><time>2026-04-26T09:06:24Z</time></trkpt><trkpt lat="40.0830705185147" lon="15.510116324655916"><ele>16.0</ele><time>2026-04-26T09:06:25Z</time></trkpt><trkpt lat="40.08287293960536" lon="15.51021514418341"><ele>16.0</ele><time>2026-04-26T09:06:26Z</time></trkpt><trkpt lat="40.082673144879955" lon="15.51029432347298"><ele>16.0</ele><time>2026-04-26T09:06:27Z</time></trkpt><trkpt lat="40.0824760336148" lon="15.51035551270972"><ele>16.0</ele><time>2026-04-26T09:06:28Z</time></trkpt><trkpt lat="40.082277221175055" lon="15.510398433776523"><ele>16.0</ele><time>2026-04-26T09:06:29Z</time></trkpt><trkpt lat="40.08207723423535" lon="15.51042011961075"><ele>16.333333333333332</ele><time>2026-04-26T09:06:30Z</time></trkpt><trkpt lat="40.08187271044263" lon="15.51042709651645"><ele>16.666666666666668</ele><time>2026-04-26T09:06:31Z</time></trkpt><trkpt lat="40.08166126081655" lon="15.510419972505856"><ele>17.0</ele><time>2026-04-26T09:06:32Z</time></trkpt><trkpt lat="40.08144549418424" lon="15.510400597608871"><ele>16.333333333333336</ele><time>2026-04-26T09:06:33Z</time></trkpt><trkpt lat="40.08124040534732" lon="15.510384928123184"><ele>15.666666666666668</ele><time>2026-04-26T09:06:34Z</time></trkpt><trkpt lat="40.081038718828914" lon="15.51036840392117"><ele>15.0</ele><time>2026-04-26T09:06:35Z</time></trkpt><trkpt lat="40.08084208447851" lon="15.510353817564134"><ele>14.666666666666668</ele><time>2026-04-26T09:06:36Z</time></trkpt><trkpt lat="40.08064750422744" lon="15.510347714500226"><ele>14.333333333333334</ele><time>2026-04-26T09:06:37Z</time></trkpt><trkpt lat="40.08045212243773" lon="15.510348799035528"><ele>14.0</ele><time>2026-04-26T09:06:38Z</time></trkpt><trkpt lat="40.08025509746619" lon="15.510361696767115"><ele>14.0</ele><time>2026-04-26T09:06:39Z</time></trkpt><trkpt lat="40.08005944460728" lon="15.510389380226849"><ele>14.0</ele><time>2026-04-26T09:06:40Z</time></trkpt><trkpt lat="40.079864794433675" lon="15.51042691795794"><ele>14.0</ele><time>2026-04-26T09:06:41Z</time></trkpt><trkpt lat="40.079670146045125" lon="15.510477122586604"><ele>13.333333333333334</ele><time>2026-04-26T09:06:42Z</time></trkpt><trkpt lat="40.079478696743934" lon="15.510551318551599"><ele>12.666666666666668</ele><time>2026-04-26T09:06:43Z</time></trkpt><trkpt lat="40.07929546247458" lon="15.510631604932119"><ele>12.0</ele><time>2026-04-26T09:06:44Z</time></trkpt><trkpt lat="40.07911442912066" lon="15.510720477681703"><ele>11.0</ele><time>2026-04-26T09:06:45Z</time></trkpt><trkpt lat="40.078926388759456" lon="15.510819532456537"><ele>10.0</ele><time>2026-04-26T09:06:46Z</time></trkpt><trkpt lat="40.07873100564429" lon="15.510927112406547"><ele>9.0</ele><time>2026-04-26T09:06:47Z</time></trkpt><trkpt lat="40.078528043896064" lon="15.511037365265004"><ele>9.0</ele><time>2026-04-26T09:06:48Z</time></trkpt><trkpt lat="40.07833448080822" lon="15.511138783337952"><ele>9.0</ele><time>2026-04-26T09:06:49Z</time></trkpt><trkpt lat="40.07814399411708" lon="15.511243352076885"><ele>9.0</ele><time>2026-04-26T09:06:50Z</time></trkpt><trkpt lat="40.077953239750016" lon="15.511344852385848"><ele>8.666666666666666</ele><time>2026-04-26T09:06:51Z</time></trkpt><trkpt lat="40.07775980388758" lon="15.511446280681184"><ele>8.333333333333332</ele><time>2026-04-26T09:06:52Z</time></trkpt><trkpt lat="40.077569975324465" lon="15.51154817661675"><ele>8.0</ele><time>2026-04-26T09:06:53Z</time></trkpt><trkpt lat="40.07737993776996" lon="15.51164792348902"><ele>7.0</ele><time>2026-04-26T09:06:54Z</time></trkpt><trkpt lat="40.077190527613894" lon="15.51175382710202"><ele>6.0</ele><time>2026-04-26T09:06:55Z</time></trkpt><trkpt lat="40.076994116475916" lon="15.511857379919602"><ele>5.0</ele><time>2026-04-26T09:06:56Z</time></trkpt><trkpt lat="40.076792983921415" lon="15.511949786578903"><ele>5.333333333333334</ele><time>2026-04-26T09:06:57Z</time></trkpt><trkpt lat="40.07659464708852" lon="15.512052266054752"><ele>5.666666666666667</ele><time>2026-04-26T09:06:58Z</time></trkpt><trkpt lat="40.07639216724506" lon="15.512151801393866"><ele>6.0</ele><time>2026-04-26T09:06:59Z</time></trkpt><trkpt lat="40.07617919717617" lon="15.512256992878523"><ele>6.0</ele><time>2026-04-26T09:07:00Z</time></trkpt><trkpt lat="40.07596445842673" lon="15.51237015880599"><ele>6.0</ele><time>2026-04-26T09:07:01Z</time></trkpt><trkpt lat="40.0757580289742" lon="15.512475170932886"><ele>5.333333333333333</ele><time>2026-04-26T09:07:02Z</time></trkpt><trkpt lat="40.075568767795495" lon="15.512579663355593"><ele>4.666666666666666</ele><time>2026-04-26T09:07:03Z</time></trkpt><trkpt lat="40.07538558375596" lon="15.512676513598713"><ele>4.0</ele><time>2026-04-26T09:07:04Z</time></trkpt><trkpt lat="40.075212052017065" lon="15.51276740018698"><ele>4.0</ele><time>2026-04-26T09:07:05Z</time></trkpt><trkpt lat="40.07505116567609" lon="15.512847721478595"><ele>4.0</ele><time>2026-04-26T09:07:06Z</time></trkpt><trkpt lat="40.07489544845426" lon="15.512934881105451"><ele>4.0</ele><time>2026-04-26T09:07:07Z</time></trkpt><trkpt lat="40.074744208891765" lon="15.513015453207363"><ele>4.0</ele><time>2026-04-26T09:07:08Z</time></trkpt><trkpt lat="40.07459907543227" lon="15.513094226723624"><ele>4.0</ele><time>2026-04-26T09:07:09Z</time></trkpt><trkpt lat="40.07446076454977" lon="15.513167507115519"><ele>4.0</ele><time>2026-04-26T09:07:10Z</time></trkpt><trkpt lat="40.074329045483275" lon="15.513237987350744"><ele>4.0</ele><time>2026-04-26T09:07:11Z</time></trkpt><trkpt lat="40.0742068176464" lon="15.513309160504356"><ele>3.75</ele><time>2026-04-26T09:07:12Z</time></trkpt><trkpt lat="40.074084115869034" lon="15.513372071473249"><ele>3.5</ele><time>2026-04-26T09:07:13Z</time></trkpt><trkpt lat="40.0739758757535" lon="15.513433270348752"><ele>3.25</ele><time>2026-04-26T09:07:14Z</time></trkpt><trkpt lat="40.07387527643353" lon="15.513488214381077"><ele>3.0</ele><time>2026-04-26T09:07:15Z</time></trkpt><trkpt lat="40.07378016516655" lon="15.513526995279117"><ele>3.0</ele><time>2026-04-26T09:07:16Z</time></trkpt><trkpt lat="40.07369559543328" lon="15.513547946944021"><ele>3.0</ele><time>2026-04-26T09:07:17Z</time></trkpt><trkpt lat="40.07361898222503" lon="15.513546180838986"><ele>3.0</ele><time>2026-04-26T09:07:18Z</time></trkpt><trkpt lat="40.07354456712818" lon="15.51352123538921"><ele>3.0</ele><time>2026-04-26T09:07:19Z</time></trkpt><trkpt lat="40.073473336592926" lon="15.513470490597884"><ele>3.0</ele><time>2026-04-26T09:07:20Z</time></trkpt><trkpt lat="40.07341501863148" lon="15.5133903898544"><ele>3.0</ele><time>2026-04-26T09:07:21Z</time></trkpt><trkpt lat="40.0733530182883" lon="15.513267358534268"><ele>3.0</ele><time>2026-04-26T09:07:22Z</time></trkpt><trkpt lat="40.073284177116676" lon="15.513113672225918"><ele>3.0</ele><time>2026-04-26T09:07:23Z</time></trkpt><trkpt lat="40.07319959770151" lon="15.512944244064478"><ele>3.0</ele><time>2026-04-26T09:07:24Z</time></trkpt><trkpt lat="40.07310905085846" lon="15.512768367717714"><ele>2.75</ele><time>2026-04-26T09:07:25Z</time></trkpt><trkpt lat="40.073025657955746" lon="15.512603567757981"><ele>2.5</ele><time>2026-04-26T09:07:26Z</time></trkpt><trkpt lat="40.07294228645625" lon="15.5124402997465"><ele>2.25</ele><time>2026-04-26T09:07:27Z</time></trkpt><trkpt lat="40.07286271396439" lon="15.512281039494631"><ele>2.0</ele><time>2026-04-26T09:07:28Z</time></trkpt><trkpt lat="40.07277782585489" lon="15.512121191144223"><ele>2.0</ele><time>2026-04-26T09:07:29Z</time></trkpt><trkpt lat="40.072687802075635" lon="15.511944999901784"><ele>2.0</ele><time>2026-04-26T09:07:30Z</time></trkpt><trkpt lat="40.07259432602635" lon="15.511765306801882"><ele>2.0</ele><time>2026-04-26T09:07:31Z</time></trkpt><trkpt lat="40.072500402655095" lon="15.511594191027912"><ele>2.0</ele><time>2026-04-26T09:07:32Z</time></trkpt><trkpt lat="40.07240583507546" lon="15.511424756461032"><ele>2.0</ele><time>2026-04-26T09:07:33Z</time></trkpt><trkpt lat="40.07231761770974" lon="15.511255018780002"><ele>2.0</ele><time>2026-04-26T09:07:34Z</time></trkpt><trkpt lat="40.072234497123254" lon="15.511092814692164"><ele>2.0</ele><time>2026-04-26T09:07:35Z</time></trkpt><trkpt lat="40.072153281725946" lon="15.510926613029689"><ele>2.0</ele><time>2026-04-26T09:07:36Z</time></trkpt><trkpt lat="40.072074982781906" lon="15.510759309457454"><ele>2.0</ele><time>2026-04-26T09:07:37Z</time></trkpt><trkpt lat="40.07200340097441" lon="15.51058746234692"><ele>2.333333333333333</ele><time>2026-04-26T09:07:38Z</time></trkpt><trkpt lat="40.071938440571444" lon="15.510403875039946"><ele>2.6666666666666665</ele><time>2026-04-26T09:07:39Z</time></trkpt><trkpt lat="40.071875007356354" lon="15.510209700656958"><ele>3.0</ele><time>2026-04-26T09:07:40Z</time></trkpt><trkpt lat="40.071815140210035" lon="15.510012528866245"><ele>3.0</ele><time>2026-04-26T09:07:41Z</time></trkpt><trkpt lat="40.071756158665536" lon="15.509816407163118"><ele>3.0</ele><time>2026-04-26T09:07:42Z</time></trkpt><trkpt lat="40.0717043558087" lon="15.509620245104756"><ele>3.0</ele><time>2026-04-26T09:07:43Z</time></trkpt><trkpt lat="40.071654155297594" lon="15.50942052389299"><ele>3.0</ele><time>2026-04-26T09:07:44Z</time></trkpt><trkpt lat="40.07160484820714" lon="15.509224996722137"><ele>3.0</ele><time>2026-04-26T09:07:45Z</time></trkpt><trkpt lat="40.071558108889455" lon="15.509031741613157"><ele>3.0</ele><time>2026-04-26T09:07:46Z</time></trkpt><trkpt lat="40.071509082866825" lon="15.508849060011453"><ele>3.0</ele><time>2026-04-26T09:07:47Z</time></trkpt><trkpt lat="40.071464740917534" lon="15.508672817910877"><ele>3.0</ele><time>2026-04-26T09:07:48Z</time></trkpt><trkpt lat="40.071422985282" lon="15.508503467608087"><ele>3.0</ele><time>2026-04-26T09:07:49Z</time></trkpt><trkpt lat="40.071377055097635" lon="15.508337565012926"><ele>3.0</ele><time>2026-04-26T09:07:50Z</time></trkpt><trkpt lat="40.07133223979621" lon="15.508171592743583"><ele>3.0</ele><time>2026-04-26T09:07:51Z</time></trkpt><trkpt lat="40.071285389565624" lon="15.508003968254362"><ele>3.0</ele><time>2026-04-26T09:07:52Z</time></trkpt><trkpt lat="40.07125262521634" lon="15.507829891729113"><ele>3.0</ele><time>2026-04-26T09:07:53Z</time></trkpt><trkpt lat="40.07120567986458" lon="15.507658418176257"><ele>3.0</ele><time>2026-04-26T09:07:54Z</time></trkpt><trkpt lat="40.071159871949874" lon="15.507487217532347"><ele>3.5</ele><time>2026-04-26T09:07:55Z</time></trkpt><trkpt lat="40.07110500402494" lon="15.507319259336827"><ele>4.0</ele><time>2026-04-26T09:07:56Z</time></trkpt><trkpt lat="40.07104661902924" lon="15.507154593231348"><ele>4.5</ele><time>2026-04-26T09:07:57Z</time></trkpt><trkpt lat="40.07098496177278" lon="15.506996074772793"><ele>5.0</ele><time>2026-04-26T09:07:58Z</time></trkpt><trkpt lat="40.07091323493761" lon="15.506858602106849"><ele>5.5</ele><time>2026-04-26T09:07:59Z</time></trkpt><trkpt lat="40.070843214002856" lon="15.50672824568812"><ele>6.0</ele><time>2026-04-26T09:08:00Z</time></trkpt><trkpt lat="40.07076257857023" lon="15.506610118687291"><ele>6.5</ele><time>2026-04-26T09:08:01Z</time></trkpt><trkpt lat="40.07067377044521" lon="15.506515146347477"><ele>7.0</ele><time>2026-04-26T09:08:02Z</time></trkpt><trkpt lat="40.07056912039061" lon="15.506462024739099"><ele>7.0</ele><time>2026-04-26T09:08:03Z</time></trkpt><trkpt lat="40.07046581269258" lon="15.506424760884503"><ele>6.999999999999999</ele><time>2026-04-26T09:08:04Z</time></trkpt><trkpt lat="40.07036458788073" lon="15.506365471623118"><ele>6.999999999999999</ele><time>2026-04-26T09:08:05Z</time></trkpt><trkpt lat="40.07028069751405" lon="15.506264057467888"><ele>7.0</ele><time>2026-04-26T09:08:06Z</time></trkpt><trkpt lat="40.07021381268656" lon="15.506143274654923"><ele>7.0</ele><time>2026-04-26T09:08:07Z</time></trkpt><trkpt lat="40.070146810083436" lon="15.50602510066958"><ele>6.75</ele><time>2026-04-26T09:08:08Z</time></trkpt><trkpt lat="40.070067609384594" lon="15.505904786752886"><ele>6.5</ele><time>2026-04-26T09:08:09Z</time></trkpt><trkpt lat="40.06999493453827" lon="15.50577155841013"><ele>6.25</ele><time>2026-04-26T09:08:10Z</time></trkpt><trkpt lat="40.06994911599081" lon="15.505646736507043"><ele>6.0</ele><time>2026-04-26T09:08:11Z</time></trkpt><trkpt lat="40.06992927488054" lon="15.505518098914985"><ele>6.8</ele><time>2026-04-26T09:08:12Z</time></trkpt><trkpt lat="40.0699475212481" lon="15.505395524983468"><ele>7.6</ele><time>2026-04-26T09:08:13Z</time></trkpt><trkpt lat="40.070005853653086" lon="15.505293290292906"><ele>8.4</ele><time>2026-04-26T09:08:14Z</time></trkpt><trkpt lat="40.07008072655817" lon="15.505211269003672"><ele>9.2</ele><time>2026-04-26T09:08:15Z</time></trkpt><trkpt lat="40.07017407895304" lon="15.505155575184459"><ele>10.0</ele><time>2026-04-26T09:08:16Z</time></trkpt><trkpt lat="40.07027980691826" lon="15.505120827328199"><ele>10.0</ele><time>2026-04-26T09:08:17Z</time></trkpt><trkpt lat="40.070399726476985" lon="15.505076861622502"><ele>10.0</ele><time>2026-04-26T09:08:18Z</time></trkpt><trkpt lat="40.07050804046741" lon="15.50502342757676"><ele>10.0</ele><time>2026-04-26T09:08:19Z</time></trkpt><trkpt lat="40.070609912463055" lon="15.504953176241727"><ele>10.0</ele><time>2026-04-26T09:08:20Z</time></trkpt><trkpt lat="40.07070755363056" lon="15.504855001201596"><ele>11.0</ele><time>2026-04-26T09:08:21Z</time></trkpt><trkpt lat="40.070794074789234" lon="15.504718640343123"><ele>12.0</ele><time>2026-04-26T09:08:22Z</time></trkpt><trkpt lat="40.0708870271711" lon="15.504579580364757"><ele>13.0</ele><time>2026-04-26T09:08:23Z</time></trkpt><trkpt lat="40.07097984680898" lon="15.504452988831066"><ele>14.0</ele><time>2026-04-26T09:08:24Z</time></trkpt><trkpt lat="40.07107194949043" lon="15.504333704666658"><ele>14.0</ele><time>2026-04-26T09:08:25Z</time></trkpt><trkpt lat="40.0711597552178" lon="15.504218907362658"><ele>13.999999999999998</ele><time>2026-04-26T09:08:26Z</time></trkpt><trkpt lat="40.07123313022153" lon="15.504110255923075"><ele>13.999999999999998</ele><time>2026-04-26T09:08:27Z</time></trkpt><trkpt lat="40.071304940004254" lon="15.504014329569985"><ele>14.0</ele><time>2026-04-26T09:08:28Z</time></trkpt><trkpt lat="40.071374844147414" lon="15.503917981523934"><ele>14.0</ele><time>2026-04-26T09:08:29Z</time></trkpt><trkpt lat="40.071430078935144" lon="15.503845378816008"><ele>13.75</ele><time>2026-04-26T09:08:30Z</time></trkpt><trkpt lat="40.07151752679613" lon="15.503730278829801"><ele>13.5</ele><time>2026-04-26T09:08:32Z</time></trkpt><trkpt lat="40.07159180713884" lon="15.50361960021074"><ele>13.25</ele><time>2026-04-26T09:08:34Z</time></trkpt><trkpt lat="40.071643631359954" lon="15.503538753749636"><ele>13.0</ele><time>2026-04-26T09:08:36Z</time></trkpt><trkpt lat="40.07154850044308" lon="15.503366707208547"><ele>12.999999999999998</ele><time>2026-04-26T09:08:38Z</time></trkpt><trkpt lat="40.07148173650885" lon="15.50333879485821"><ele>13.0</ele><time>2026-04-26T09:08:39Z</time></trkpt><trkpt lat="40.07140175159524" lon="15.503322602699699"><ele>13.0</ele><time>2026-04-26T09:08:40Z</time></trkpt><trkpt lat="40.071313554722025" lon="15.503320088558828"><ele>13.0</ele><time>2026-04-26T09:08:41Z</time></trkpt><trkpt lat="40.071222849620696" lon="15.503309715185049"><ele>12.999999999999998</ele><time>2026-04-26T09:08:42Z</time></trkpt><trkpt lat="40.07112177074135" lon="15.503291325980761"><ele>13.0</ele><time>2026-04-26T09:08:43Z</time></trkpt><trkpt lat="40.07099572042232" lon="15.503267344252878"><ele>13.0</ele><time>2026-04-26T09:08:44Z</time></trkpt><trkpt lat="40.07086097716002" lon="15.503242780995015"><ele>13.0</ele><time>2026-04-26T09:08:45Z</time></trkpt><trkpt lat="40.07072775637846" lon="15.503217719273835"><ele>13.0</ele><time>2026-04-26T09:08:46Z</time></trkpt><trkpt lat="40.070596120920285" lon="15.50318725280406"><ele>13.0</ele><time>2026-04-26T09:08:47Z</time></trkpt><trkpt lat="40.07046531989138" lon="15.503159518846392"><ele>12.75</ele><time>2026-04-26T09:08:48Z</time></trkpt><trkpt lat="40.07033004501165" lon="15.503131497709285"><ele>12.5</ele><time>2026-04-26T09:08:49Z</time></trkpt><trkpt lat="40.07019209136618" lon="15.503102588834055"><ele>12.25</ele><time>2026-04-26T09:08:50Z</time></trkpt><trkpt lat="40.07004778073913" lon="15.50306947110752"><ele>12.0</ele><time>2026-04-26T09:08:51Z</time></trkpt><trkpt lat="40.06989913424829" lon="15.503036423877608"><ele>11.333333333333334</ele><time>2026-04-26T09:08:52Z</time></trkpt><trkpt lat="40.06974525662587" lon="15.50300221539362"><ele>10.666666666666668</ele><time>2026-04-26T09:08:53Z</time></trkpt><trkpt lat="40.069587976549606" lon="15.502967931814231"><ele>10.0</ele><time>2026-04-26T09:08:54Z</time></trkpt><trkpt lat="40.069429982283445" lon="15.502934990691088"><ele>13.666666666666668</ele><time>2026-04-26T09:08:55Z</time></trkpt><trkpt lat="40.06927341180215" lon="15.502902426515323"><ele>17.333333333333332</ele><time>2026-04-26T09:08:56Z</time></trkpt><trkpt lat="40.06912043898781" lon="15.502866988079637"><ele>21.0</ele><time>2026-04-26T09:08:57Z</time></trkpt><trkpt lat="40.0689686084255" lon="15.502831864766192"><ele>21.5</ele><time>2026-04-26T09:08:58Z</time></trkpt><trkpt lat="40.06882647771614" lon="15.50280646863667"><ele>22.0</ele><time>2026-04-26T09:08:59Z</time></trkpt><trkpt lat="40.068689225076405" lon="15.502785526723281"><ele>22.5</ele><time>2026-04-26T09:09:00Z</time></trkpt><trkpt lat="40.068556412025224" lon="15.502796208341143"><ele>23.0</ele><time>2026-04-26T09:09:01Z</time></trkpt><trkpt lat="40.06843126931284" lon="15.50284073152933"><ele>23.0</ele><time>2026-04-26T09:09:02Z</time></trkpt><trkpt lat="40.068312710183214" lon="15.50290915196364"><ele>23.0</ele><time>2026-04-26T09:09:03Z</time></trkpt><trkpt lat="40.06820666472915" lon="15.502990876895254"><ele>23.0</ele><time>2026-04-26T09:09:04Z</time></trkpt><trkpt lat="40.06810123498285" lon="15.503082561346671"><ele>23.0</ele><time>2026-04-26T09:09:05Z</time></trkpt><trkpt lat="40.0679871515776" lon="15.50317900541485"><ele>21.25</ele><time>2026-04-26T09:09:06Z</time></trkpt><trkpt lat="40.06786315685726" lon="15.503280716119015"><ele>19.5</ele><time>2026-04-26T09:09:07Z</time></trkpt><trkpt lat="40.067742544322414" lon="15.503379108083243"><ele>17.75</ele><time>2026-04-26T09:09:08Z</time></trkpt><trkpt lat="40.067625993636646" lon="15.503456999630902"><ele>16.0</ele><time>2026-04-26T09:09:09Z</time></trkpt><trkpt lat="40.0675074202625" lon="15.503494255077332"><ele>15.75</ele><time>2026-04-26T09:09:10Z</time></trkpt><trkpt lat="40.06738497195212" lon="15.503503972500756"><ele>15.5</ele><time>2026-04-26T09:09:11Z</time></trkpt><trkpt lat="40.0672612244827" lon="15.503478921993773"><ele>15.25</ele><time>2026-04-26T09:09:12Z</time></trkpt><trkpt lat="40.067121206987615" lon="15.503443409595915"><ele>15.0</ele><time>2026-04-26T09:09:13Z</time></trkpt><trkpt lat="40.066961386501916" lon="15.503433921777345"><ele>15.0</ele><time>2026-04-26T09:09:14Z</time></trkpt><trkpt lat="40.066812129822374" lon="15.503446171998652"><ele>15.0</ele><time>2026-04-26T09:09:15Z</time></trkpt><trkpt lat="40.06666992082199" lon="15.503479967654949"><ele>15.0</ele><time>2026-04-26T09:09:16Z</time></trkpt><trkpt lat="40.06653203387901" lon="15.503495356626916"><ele>15.0</ele><time>2026-04-26T09:09:17Z</time></trkpt><trkpt lat="40.066397465360346" lon="15.503467117227803"><ele>13.5</ele><time>2026-04-26T09:09:18Z</time></trkpt><trkpt lat="40.06625961393009" lon="15.503413225581241"><ele>12.0</ele><time>2026-04-26T09:09:19Z</time></trkpt><trkpt lat="40.06612160649179" lon="15.50332997530555"><ele>10.5</ele><time>2026-04-26T09:09:20Z</time></trkpt><trkpt lat="40.06599401320427" lon="15.50323178205022"><ele>9.0</ele><time>2026-04-26T09:09:21Z</time></trkpt><trkpt lat="40.06587242007226" lon="15.503125097122766"><ele>9.666666666666666</ele><time>2026-04-26T09:09:22Z</time></trkpt><trkpt lat="40.065752769771066" lon="15.50300596341251"><ele>10.333333333333332</ele><time>2026-04-26T09:09:23Z</time></trkpt><trkpt lat="40.065630991076354" lon="15.50287633110932"><ele>11.0</ele><time>2026-04-26T09:09:24Z</time></trkpt><trkpt lat="40.06550531866474" lon="15.502737403025291"><ele>11.0</ele><time>2026-04-26T09:09:25Z</time></trkpt><trkpt lat="40.065374340122766" lon="15.502599022295188"><ele>11.0</ele><time>2026-04-26T09:09:26Z</time></trkpt><trkpt lat="40.065245081058634" lon="15.502462841838486"><ele>11.0</ele><time>2026-04-26T09:09:27Z</time></trkpt><trkpt lat="40.06512075762971" lon="15.502333325456181"><ele>11.0</ele><time>2026-04-26T09:09:28Z</time></trkpt><trkpt lat="40.065000603464036" lon="15.502204340082459"><ele>11.0</ele><time>2026-04-26T09:09:29Z</time></trkpt><trkpt lat="40.06487610122941" lon="15.50208018172219"><ele>11.0</ele><time>2026-04-26T09:09:30Z</time></trkpt><trkpt lat="40.06474759139793" lon="15.501965624828252"><ele>11.0</ele><time>2026-04-26T09:09:31Z</time></trkpt><trkpt lat="40.06461252841453" lon="15.501864131307823"><ele>11.0</ele><time>2026-04-26T09:09:32Z</time></trkpt><trkpt lat="40.06447212754132" lon="15.50177413739167"><ele>11.0</ele><time>2026-04-26T09:09:33Z</time></trkpt><trkpt lat="40.06433670342477" lon="15.501685888900925"><ele>11.0</ele><time>2026-04-26T09:09:34Z</time></trkpt><trkpt lat="40.06420947296013" lon="15.501607905013863"><ele>11.0</ele><time>2026-04-26T09:09:35Z</time></trkpt><trkpt lat="40.06408906098237" lon="15.5015346668347"><ele>11.0</ele><time>2026-04-26T09:09:36Z</time></trkpt><trkpt lat="40.06397456859705" lon="15.50146820816441"><ele>11.0</ele><time>2026-04-26T09:09:37Z</time></trkpt><trkpt lat="40.06385771093995" lon="15.501421914688972"><ele>9.666666666666666</ele><time>2026-04-26T09:09:38Z</time></trkpt><trkpt lat="40.063723553677804" lon="15.501391380418484"><ele>8.333333333333334</ele><time>2026-04-26T09:09:39Z</time></trkpt><trkpt lat="40.06356518604551" lon="15.501372122171636"><ele>7.0</ele><time>2026-04-26T09:09:40Z</time></trkpt><trkpt lat="40.06339109923054" lon="15.501351540910113"><ele>6.666666666666667</ele><time>2026-04-26T09:09:41Z</time></trkpt><trkpt lat="40.06321456907924" lon="15.501320318770784"><ele>6.333333333333334</ele><time>2026-04-26T09:09:42Z</time></trkpt><trkpt lat="40.06305170282719" lon="15.50127639397291"><ele>6.0</ele><time>2026-04-26T09:09:43Z</time></trkpt><trkpt lat="40.062897969053026" lon="15.50122677010731"><ele>6.0</ele><time>2026-04-26T09:09:44Z</time></trkpt><trkpt lat="40.06274928998564" lon="15.501174914938678"><ele>6.0</ele><time>2026-04-26T09:09:45Z</time></trkpt><trkpt lat="40.062596830920924" lon="15.501129178844401"><ele>6.0</ele><time>2026-04-26T09:09:46Z</time></trkpt><trkpt lat="40.062441597959676" lon="15.50109625738351"><ele>5.333333333333333</ele><time>2026-04-26T09:09:47Z</time></trkpt><trkpt lat="40.0622722933208" lon="15.501077488370049"><ele>4.666666666666666</ele><time>2026-04-26T09:09:48Z</time></trkpt><trkpt lat="40.06208360999563" lon="15.501075606093167"><ele>4.0</ele><time>2026-04-26T09:09:49Z</time></trkpt><trkpt lat="40.06188332361875" lon="15.501092483252545"><ele>4.0</ele><time>2026-04-26T09:09:50Z</time></trkpt><trkpt lat="40.06169325360894" lon="15.501116426402673"><ele>4.0</ele><time>2026-04-26T09:09:51Z</time></trkpt><trkpt lat="40.06151384018394" lon="15.501134461876568"><ele>4.0</ele><time>2026-04-26T09:09:52Z</time></trkpt><trkpt lat="40.0613437191018" lon="15.501152098249726"><ele>5.333333333333333</ele><time>2026-04-26T09:09:53Z</time></trkpt><trkpt lat="40.06117798826099" lon="15.501172455516166"><ele>6.666666666666666</ele><time>2026-04-26T09:09:54Z</time></trkpt><trkpt lat="40.061018072114756" lon="15.501187549358564"><ele>8.0</ele><time>2026-04-26T09:09:55Z</time></trkpt><trkpt lat="40.060867778900864" lon="15.50118913742314"><ele>9.5</ele><time>2026-04-26T09:09:56Z</time></trkpt><trkpt lat="40.06072462000301" lon="15.501179819575487"><ele>11.0</ele><time>2026-04-26T09:09:57Z</time></trkpt><trkpt lat="40.060581883883934" lon="15.501180120260576"><ele>12.5</ele><time>2026-04-26T09:09:58Z</time></trkpt><trkpt lat="40.06044681407315" lon="15.50116634925844"><ele>14.0</ele><time>2026-04-26T09:09:59Z</time></trkpt><trkpt lat="40.060314036843984" lon="15.50114457441867"><ele>14.0</ele><time>2026-04-26T09:10:00Z</time></trkpt><trkpt lat="40.060179316897816" lon="15.501110279716139"><ele>14.0</ele><time>2026-04-26T09:10:01Z</time></trkpt><trkpt lat="40.06003594172265" lon="15.501063103091354"><ele>14.0</ele><time>2026-04-26T09:10:02Z</time></trkpt><trkpt lat="40.05988762254701" lon="15.501008811643953"><ele>14.0</ele><time>2026-04-26T09:10:03Z</time></trkpt><trkpt lat="40.05973694941486" lon="15.500953975103267"><ele>13.0</ele><time>2026-04-26T09:10:04Z</time></trkpt><trkpt lat="40.05958493553988" lon="15.500902666795449"><ele>12.0</ele><time>2026-04-26T09:10:05Z</time></trkpt><trkpt lat="40.05943846856237" lon="15.500848109783435"><ele>11.0</ele><time>2026-04-26T09:10:06Z</time></trkpt><trkpt lat="40.05929967746639" lon="15.500780164234975"><ele>11.0</ele><time>2026-04-26T09:10:07Z</time></trkpt><trkpt lat="40.05916636062762" lon="15.50069250969309"><ele>11.0</ele><time>2026-04-26T09:10:08Z</time></trkpt><trkpt lat="40.05905237224091" lon="15.50055638511322"><ele>11.0</ele><time>2026-04-26T09:10:09Z</time></trkpt><trkpt lat="40.058939460459904" lon="15.500421052104857"><ele>10.666666666666666</ele><time>2026-04-26T09:10:10Z</time></trkpt><trkpt lat="40.05882766136469" lon="15.500280613560276"><ele>10.333333333333334</ele><time>2026-04-26T09:10:11Z</time></trkpt><trkpt lat="40.058714551614564" lon="15.500137751842281"><ele>10.0</ele><time>2026-04-26T09:10:12Z</time></trkpt><trkpt lat="40.05859940026836" lon="15.499994844739735"><ele>10.0</ele><time>2026-04-26T09:10:13Z</time></trkpt><trkpt lat="40.058483009259895" lon="15.49985081435914"><ele>10.0</ele><time>2026-04-26T09:10:14Z</time></trkpt><trkpt lat="40.05836295236198" lon="15.499706050085644"><ele>10.0</ele><time>2026-04-26T09:10:15Z</time></trkpt><trkpt lat="40.058248244847334" lon="15.499559897161996"><ele>8.333333333333334</ele><time>2026-04-26T09:10:16Z</time></trkpt><trkpt lat="40.058138309203805" lon="15.499410320982985"><ele>6.666666666666667</ele><time>2026-04-26T09:10:17Z</time></trkpt><trkpt lat="40.05803681750767" lon="15.499261583981385"><ele>5.0</ele><time>2026-04-26T09:10:18Z</time></trkpt><trkpt lat="40.057954177528785" lon="15.499099184482105"><ele>5.0</ele><time>2026-04-26T09:10:19Z</time></trkpt><trkpt lat="40.05788531694524" lon="15.498933534979475"><ele>5.0</ele><time>2026-04-26T09:10:20Z</time></trkpt><trkpt lat="40.05783898385571" lon="15.498758151745454"><ele>5.0</ele><time>2026-04-26T09:10:21Z</time></trkpt><trkpt lat="40.05779151893903" lon="15.498588286384559"><ele>5.0</ele><time>2026-04-26T09:10:22Z</time></trkpt><trkpt lat="40.0577757973891" lon="15.498409681484281"><ele>6.0</ele><time>2026-04-26T09:10:23Z</time></trkpt><trkpt lat="40.05775875542105" lon="15.498227203926419"><ele>7.0</ele><time>2026-04-26T09:10:24Z</time></trkpt><trkpt lat="40.057732759607184" lon="15.498053551348805"><ele>8.0</ele><time>2026-04-26T09:10:25Z</time></trkpt><trkpt lat="40.05768314182231" lon="15.49789680669141"><ele>9.0</ele><time>2026-04-26T09:10:26Z</time></trkpt><trkpt lat="40.0576089383796" lon="15.497754133119257"><ele>8.75</ele><time>2026-04-26T09:10:27Z</time></trkpt><trkpt lat="40.057513466903956" lon="15.49762079846964"><ele>8.5</ele><time>2026-04-26T09:10:28Z</time></trkpt><trkpt lat="40.05741323989512" lon="15.497501897656285"><ele>8.25</ele><time>2026-04-26T09:10:29Z</time></trkpt><trkpt lat="40.05731763827136" lon="15.497380255535056"><ele>8.0</ele><time>2026-04-26T09:10:30Z</time></trkpt><trkpt lat="40.057226193477156" lon="15.497256517829834"><ele>8.0</ele><time>2026-04-26T09:10:31Z</time></trkpt><trkpt lat="40.05714072631282" lon="15.497131868985687"><ele>8.0</ele><time>2026-04-26T09:10:32Z</time></trkpt><trkpt lat="40.057070826479055" lon="15.497005907448184"><ele>8.0</ele><time>2026-04-26T09:10:33Z</time></trkpt><trkpt lat="40.057009751707" lon="15.496881520325086"><ele>8.0</ele><time>2026-04-26T09:10:34Z</time></trkpt><trkpt lat="40.056954379260205" lon="15.496758917904653"><ele>8.8</ele><time>2026-04-26T09:10:35Z</time></trkpt><trkpt lat="40.05689591787559" lon="15.496632821841033"><ele>9.600000000000001</ele><time>2026-04-26T09:10:36Z</time></trkpt><trkpt lat="40.05684054791847" lon="15.49650570245242"><ele>10.399999999999999</ele><time>2026-04-26T09:10:37Z</time></trkpt><trkpt lat="40.05679493850308" lon="15.49637646564418"><ele>11.2</ele><time>2026-04-26T09:10:38Z</time></trkpt><trkpt lat="40.05676265692943" lon="15.496245999114706"><ele>12.0</ele><time>2026-04-26T09:10:39Z</time></trkpt><trkpt lat="40.05673986783578" lon="15.496115038965545"><ele>12.399999999999999</ele><time>2026-04-26T09:10:40Z</time></trkpt><trkpt lat="40.056731552259684" lon="15.495983838489707"><ele>12.799999999999999</ele><time>2026-04-26T09:10:41Z</time></trkpt><trkpt lat="40.05672438260341" lon="15.495850310758781"><ele>13.2</ele><time>2026-04-26T09:10:42Z</time></trkpt><trkpt lat="40.05670970253243" lon="15.495712050181023"><ele>13.6</ele><time>2026-04-26T09:10:43Z</time></trkpt><trkpt lat="40.056674842540744" lon="15.495554920275628"><ele>14.0</ele><time>2026-04-26T09:10:44Z</time></trkpt><trkpt lat="40.05661847504775" lon="15.495390122207027"><ele>12.75</ele><time>2026-04-26T09:10:45Z</time></trkpt><trkpt lat="40.05655838047281" lon="15.495218721087546"><ele>11.5</ele><time>2026-04-26T09:10:46Z</time></trkpt><trkpt lat="40.05651022652861" lon="15.495047900801447"><ele>10.25</ele><time>2026-04-26T09:10:47Z</time></trkpt><trkpt lat="40.056459123659934" lon="15.494896753600864"><ele>9.0</ele><time>2026-04-26T09:10:48Z</time></trkpt><trkpt lat="40.05640213352196" lon="15.494759514951744"><ele>9.0</ele><time>2026-04-26T09:10:49Z</time></trkpt><trkpt lat="40.05633955312168" lon="15.494647358178392"><ele>9.0</ele><time>2026-04-26T09:10:50Z</time></trkpt><trkpt lat="40.056259953202606" lon="15.494557287807835"><ele>9.0</ele><time>2026-04-26T09:10:51Z</time></trkpt><trkpt lat="40.05617284272357" lon="15.494499641263674"><ele>9.0</ele><time>2026-04-26T09:10:52Z</time></trkpt><trkpt lat="40.056098667855125" lon="15.49443240543104"><ele>9.0</ele><time>2026-04-26T09:10:53Z</time></trkpt><trkpt lat="40.05604289632855" lon="15.494345677689417"><ele>9.666666666666666</ele><time>2026-04-26T09:10:54Z</time></trkpt><trkpt lat="40.05602146180285" lon="15.494238724982914"><ele>10.333333333333332</ele><time>2026-04-26T09:10:55Z</time></trkpt><trkpt lat="40.05603922961407" lon="15.494128502193876"><ele>11.0</ele><time>2026-04-26T09:10:56Z</time></trkpt><trkpt lat="40.056086154310755" lon="15.494041321066419"><ele>11.666666666666666</ele><time>2026-04-26T09:10:57Z</time></trkpt><trkpt lat="40.05616031980187" lon="15.493994662418212"><ele>12.333333333333332</ele><time>2026-04-26T09:10:58Z</time></trkpt><trkpt lat="40.05623296767443" lon="15.493902860031909"><ele>13.0</ele><time>2026-04-26T09:10:59Z</time></trkpt><trkpt lat="40.05631665895909" lon="15.493812069193416"><ele>12.25</ele><time>2026-04-26T09:11:00Z</time></trkpt><trkpt lat="40.05640756267992" lon="15.493714882155912"><ele>11.5</ele><time>2026-04-26T09:11:01Z</time></trkpt><trkpt lat="40.05650754260278" lon="15.493614585774564"><ele>10.75</ele><time>2026-04-26T09:11:02Z</time></trkpt><trkpt lat="40.056600363076946" lon="15.493519740190752"><ele>10.0</ele><time>2026-04-26T09:11:03Z</time></trkpt><trkpt lat="40.05668994807944" lon="15.493428194866627"><ele>11.0</ele><time>2026-04-26T09:11:04Z</time></trkpt><trkpt lat="40.05676534979501" lon="15.493340893183465"><ele>12.0</ele><time>2026-04-26T09:11:05Z</time></trkpt><trkpt lat="40.05681938957401" lon="15.493250060797585"><ele>13.0</ele><time>2026-04-26T09:11:06Z</time></trkpt><trkpt lat="40.056841378260884" lon="15.493153256042573"><ele>14.0</ele><time>2026-04-26T09:11:07Z</time></trkpt><trkpt lat="40.05683186978802" lon="15.493045809153717"><ele>14.999999999999998</ele><time>2026-04-26T09:11:08Z</time></trkpt><trkpt lat="40.056790525005674" lon="15.49295285355262"><ele>16.0</ele><time>2026-04-26T09:11:09Z</time></trkpt><trkpt lat="40.05672915653253" lon="15.492871607664673"><ele>15.8</ele><time>2026-04-26T09:11:10Z</time></trkpt><trkpt lat="40.056648988213716" lon="15.492812566060358"><ele>15.600000000000001</ele><time>2026-04-26T09:11:11Z</time></trkpt><trkpt lat="40.05653983332298" lon="15.492768174145306"><ele>15.4</ele><time>2026-04-26T09:11:12Z</time></trkpt><trkpt lat="40.05641381873295" lon="15.492723623771852"><ele>15.2</ele><time>2026-04-26T09:11:13Z</time></trkpt><trkpt lat="40.056310359090396" lon="15.492673221007284"><ele>15.0</ele><time>2026-04-26T09:11:14Z</time></trkpt><trkpt lat="40.056204354586576" lon="15.492613347140695"><ele>15.0</ele><time>2026-04-26T09:11:15Z</time></trkpt><trkpt lat="40.056091588594995" lon="15.492565264811669"><ele>15.0</ele><time>2026-04-26T09:11:16Z</time></trkpt><trkpt lat="40.05597398165809" lon="15.492513304309519"><ele>15.0</ele><time>2026-04-26T09:11:17Z</time></trkpt><trkpt lat="40.055858530830314" lon="15.492460611458124"><ele>15.0</ele><time>2026-04-26T09:11:18Z</time></trkpt><trkpt lat="40.05574618585872" lon="15.492412524331137"><ele>14.6</ele><time>2026-04-26T09:11:19Z</time></trkpt><trkpt lat="40.05563607311527" lon="15.492363108289155"><ele>14.2</ele><time>2026-04-26T09:11:20Z</time></trkpt><trkpt lat="40.05553174058364" lon="15.492303672781249"><ele>13.8</ele><time>2026-04-26T09:11:21Z</time></trkpt><trkpt lat="40.055440896945726" lon="15.492228196985838"><ele>13.4</ele><time>2026-04-26T09:11:22Z</time></trkpt><trkpt lat="40.05536057888304" lon="15.492127287814997"><ele>13.0</ele><time>2026-04-26T09:11:23Z</time></trkpt><trkpt lat="40.0553005165562" lon="15.492020149825835"><ele>13.0</ele><time>2026-04-26T09:11:24Z</time></trkpt><trkpt lat="40.055219246043336" lon="15.491941937696195"><ele>13.0</ele><time>2026-04-26T09:11:25Z</time></trkpt><trkpt lat="40.05515347559837" lon="15.491851336563176"><ele>13.0</ele><time>2026-04-26T09:11:26Z</time></trkpt><trkpt lat="40.05508821452051" lon="15.491753012047191"><ele>13.0</ele><time>2026-04-26T09:11:27Z</time></trkpt><trkpt lat="40.0550265587942" lon="15.491667087144986"><ele>13.0</ele><time>2026-04-26T09:11:28Z</time></trkpt><trkpt lat="40.054973857498524" lon="15.491597277025452"><ele>12.999999999999998</ele><time>2026-04-26T09:11:29Z</time></trkpt><trkpt lat="40.05492360156003" lon="15.491535820266638"><ele>13.0</ele><time>2026-04-26T09:11:30Z</time></trkpt><trkpt lat="40.05486112910527" lon="15.49144733423342"><ele>13.0</ele><time>2026-04-26T09:11:32Z</time></trkpt><trkpt lat="40.05482811656297" lon="15.491360614039642"><ele>13.0</ele><time>2026-04-26T09:11:35Z</time></trkpt><trkpt lat="40.05488953665916" lon="15.491306028850813"><ele>12.999999999999998</ele><time>2026-04-26T09:11:37Z</time></trkpt><trkpt lat="40.054923440217664" lon="15.491383059339634"><ele>13.0</ele><time>2026-04-26T09:11:38Z</time></trkpt><trkpt lat="40.0550025934995" lon="15.491441047292941"><ele>13.0</ele><time>2026-04-26T09:11:39Z</time></trkpt><trkpt lat="40.0550920982538" lon="15.491506666167572"><ele>13.0</ele><time>2026-04-26T09:11:40Z</time></trkpt><trkpt lat="40.05518795879853" lon="15.491572744392109"><ele>13.0</ele><time>2026-04-26T09:11:41Z</time></trkpt><trkpt lat="40.05529818574969" lon="15.491648168517736"><ele>13.0</ele><time>2026-04-26T09:11:42Z</time></trkpt><trkpt lat="40.0554261261417" lon="15.491734259205469"><ele>13.0</ele><time>2026-04-26T09:11:43Z</time></trkpt><trkpt lat="40.05556611424169" lon="15.491811483589448"><ele>13.0</ele><time>2026-04-26T09:11:44Z</time></trkpt><trkpt lat="40.05567347026936" lon="15.491887832554356"><ele>13.0</ele><time>2026-04-26T09:11:45Z</time></trkpt><trkpt lat="40.05578594183376" lon="15.491941452005447"><ele>13.0</ele><time>2026-04-26T09:11:46Z</time></trkpt><trkpt lat="40.05590841696567" lon="15.491949948454604"><ele>15.25</ele><time>2026-04-26T09:11:47Z</time></trkpt><trkpt lat="40.056025247715986" lon="15.491945901141955"><ele>17.5</ele><time>2026-04-26T09:11:48Z</time></trkpt><trkpt lat="40.056143199869425" lon="15.491940256557786"><ele>19.75</ele><time>2026-04-26T09:11:49Z</time></trkpt><trkpt lat="40.056259817068366" lon="15.49193472899388"><ele>22.0</ele><time>2026-04-26T09:11:50Z</time></trkpt><trkpt lat="40.05637078177144" lon="15.491929469356139"><ele>22.0</ele><time>2026-04-26T09:11:51Z</time></trkpt><trkpt lat="40.05647552146321" lon="15.491924504776536"><ele>22.0</ele><time>2026-04-26T09:11:52Z</time></trkpt><trkpt lat="40.05657656343253" lon="15.491919715463405"><ele>22.0</ele><time>2026-04-26T09:11:53Z</time></trkpt><trkpt lat="40.056658921222365" lon="15.491915811776344"><ele>22.0</ele><time>2026-04-26T09:11:54Z</time></trkpt><trkpt lat="40.05674362061591" lon="15.491903559590394"><ele>22.0</ele><time>2026-04-26T09:11:55Z</time></trkpt><trkpt lat="40.0568114165609" lon="15.491868813974806"><ele>22.0</ele><time>2026-04-26T09:11:56Z</time></trkpt><trkpt lat="40.05686666614288" lon="15.4917691731858"><ele>22.0</ele><time>2026-04-26T09:11:58Z</time></trkpt><trkpt lat="40.05678764796975" lon="15.491625333246393"><ele>22.0</ele><time>2026-04-26T09:12:00Z</time></trkpt><trkpt lat="40.05671117940542" lon="15.491584530274093"><ele>22.0</ele><time>2026-04-26T09:12:01Z</time></trkpt><trkpt lat="40.05662303624706" lon="15.491519844439164"><ele>22.0</ele><time>2026-04-26T09:12:02Z</time></trkpt><trkpt lat="40.05652530471895" lon="15.491431570702536"><ele>22.0</ele><time>2026-04-26T09:12:03Z</time></trkpt><trkpt lat="40.05640769704788" lon="15.49133145378165"><ele>23.6</ele><time>2026-04-26T09:12:04Z</time></trkpt><trkpt lat="40.05630288858058" lon="15.491235413791728"><ele>25.200000000000003</ele><time>2026-04-26T09:12:05Z</time></trkpt><trkpt lat="40.056225124463445" lon="15.491148427072654"><ele>26.8</ele><time>2026-04-26T09:12:06Z</time></trkpt><trkpt lat="40.056170611738075" lon="15.491053666561585"><ele>28.4</ele><time>2026-04-26T09:12:07Z</time></trkpt><trkpt lat="40.0561390730513" lon="15.490952372355967"><ele>30.0</ele><time>2026-04-26T09:12:08Z</time></trkpt><trkpt lat="40.056139482306314" lon="15.490852361331378"><ele>30.0</ele><time>2026-04-26T09:12:09Z</time></trkpt><trkpt lat="40.056173943973384" lon="15.490776865526053"><ele>30.0</ele><time>2026-04-26T09:12:10Z</time></trkpt><trkpt lat="40.05629092202666" lon="15.490726058939332"><ele>30.0</ele><time>2026-04-26T09:12:12Z</time></trkpt><trkpt lat="40.056364529730295" lon="15.490774399487687"><ele>30.0</ele><time>2026-04-26T09:12:13Z</time></trkpt><trkpt lat="40.056455518620794" lon="15.490807231636825"><ele>30.0</ele><time>2026-04-26T09:12:14Z</time></trkpt><trkpt lat="40.05655558481813" lon="15.490845568684614"><ele>31.8</ele><time>2026-04-26T09:12:15Z</time></trkpt><trkpt lat="40.056660252382635" lon="15.490885668613549"><ele>33.6</ele><time>2026-04-26T09:12:16Z</time></trkpt><trkpt lat="40.056757478850834" lon="15.490923537866966"><ele>35.4</ele><time>2026-04-26T09:12:17Z</time></trkpt><trkpt lat="40.056848926436885" lon="15.490956612097353"><ele>37.2</ele><time>2026-04-26T09:12:18Z</time></trkpt><trkpt lat="40.05694205017491" lon="15.490964449438877"><ele>39.0</ele><time>2026-04-26T09:12:19Z</time></trkpt><trkpt lat="40.05703521108674" lon="15.49090722411553"><ele>39.0</ele><time>2026-04-26T09:12:20Z</time></trkpt><trkpt lat="40.05712443163905" lon="15.490824507481253"><ele>39.0</ele><time>2026-04-26T09:12:21Z</time></trkpt><trkpt lat="40.0572038052205" lon="15.49070044497791"><ele>39.0</ele><time>2026-04-26T09:12:22Z</time></trkpt><trkpt lat="40.05730059048605" lon="15.49057542100924"><ele>39.0</ele><time>2026-04-26T09:12:23Z</time></trkpt><trkpt lat="40.05743603095279" lon="15.490515027009211"><ele>39.0</ele><time>2026-04-26T09:12:24Z</time></trkpt><trkpt lat="40.05754415099474" lon="15.490438360549518"><ele>39.0</ele><time>2026-04-26T09:12:25Z</time></trkpt><trkpt lat="40.057636398587455" lon="15.490321000016584"><ele>39.0</ele><time>2026-04-26T09:12:26Z</time></trkpt><trkpt lat="40.05770218945593" lon="15.490164786611416"><ele>39.0</ele><time>2026-04-26T09:12:27Z</time></trkpt><trkpt lat="40.05779246635293" lon="15.490025092390187"><ele>42.33333333333333</ele><time>2026-04-26T09:12:28Z</time></trkpt><trkpt lat="40.057911457296846" lon="15.489919226407421"><ele>45.666666666666664</ele><time>2026-04-26T09:12:29Z</time></trkpt><trkpt lat="40.058056736046446" lon="15.489821156992514"><ele>49.0</ele><time>2026-04-26T09:12:30Z</time></trkpt><trkpt lat="40.0582112255711" lon="15.489720124076221"><ele>48.0</ele><time>2026-04-26T09:12:31Z</time></trkpt><trkpt lat="40.058356971834826" lon="15.489620994906335"><ele>47.0</ele><time>2026-04-26T09:12:32Z</time></trkpt><trkpt lat="40.05849340274842" lon="15.489523909046264"><ele>46.0</ele><time>2026-04-26T09:12:33Z</time></trkpt><trkpt lat="40.05862572757537" lon="15.489430149901931"><ele>49.25</ele><time>2026-04-26T09:12:34Z</time></trkpt><trkpt lat="40.058748618733745" lon="15.48934283281976"><ele>52.5</ele><time>2026-04-26T09:12:35Z</time></trkpt><trkpt lat="40.05886723906024" lon="15.489263014762109"><ele>55.75</ele><time>2026-04-26T09:12:36Z</time></trkpt><trkpt lat="40.05897431699927" lon="15.489191479380597"><ele>59.0</ele><time>2026-04-26T09:12:37Z</time></trkpt><trkpt lat="40.05906795450758" lon="15.489108175348287"><ele>58.75</ele><time>2026-04-26T09:12:38Z</time></trkpt><trkpt lat="40.05915034698808" lon="15.489005863014128"><ele>58.5</ele><time>2026-04-26T09:12:39Z</time></trkpt><trkpt lat="40.05922406523797" lon="15.488881758134077"><ele>58.25</ele><time>2026-04-26T09:12:40Z</time></trkpt><trkpt lat="40.05929278820273" lon="15.488739800554905"><ele>58.0</ele><time>2026-04-26T09:12:41Z</time></trkpt><trkpt lat="40.05936895370319" lon="15.488606384468142"><ele>60.5</ele><time>2026-04-26T09:12:42Z</time></trkpt><trkpt lat="40.05945185309927" lon="15.488482899840543"><ele>63.0</ele><time>2026-04-26T09:12:43Z</time></trkpt><trkpt lat="40.0595592304843" lon="15.488395610106991"><ele>65.5</ele><time>2026-04-26T09:12:44Z</time></trkpt><trkpt lat="40.059670531562844" lon="15.488317486644947"><ele>68.0</ele><time>2026-04-26T09:12:45Z</time></trkpt><trkpt lat="40.05976121731348" lon="15.488210610712413"><ele>68.0</ele><time>2026-04-26T09:12:46Z</time></trkpt><trkpt lat="40.0598512765336" lon="15.488114519833328"><ele>68.0</ele><time>2026-04-26T09:12:47Z</time></trkpt><trkpt lat="40.059934797038956" lon="15.48802082087555"><ele>68.0</ele><time>2026-04-26T09:12:48Z</time></trkpt><trkpt lat="40.0600091580148" lon="15.487930300473332"><ele>68.0</ele><time>2026-04-26T09:12:49Z</time></trkpt><trkpt lat="40.060070579707045" lon="15.487842486743665"><ele>68.0</ele><time>2026-04-26T09:12:50Z</time></trkpt><trkpt lat="40.06013112046835" lon="15.487753155692333"><ele>69.4</ele><time>2026-04-26T09:12:51Z</time></trkpt><trkpt lat="40.06019078443695" lon="15.487674379482549"><ele>70.8</ele><time>2026-04-26T09:12:52Z</time></trkpt><trkpt lat="40.060264075272805" lon="15.487571615441263"><ele>72.2</ele><time>2026-04-26T09:12:53Z</time></trkpt><trkpt lat="40.06032334665262" lon="15.487424607569455"><ele>73.6</ele><time>2026-04-26T09:12:54Z</time></trkpt><trkpt lat="40.06038500442892" lon="15.48728419889762"><ele>75.0</ele><time>2026-04-26T09:12:55Z</time></trkpt><trkpt lat="40.060436381154474" lon="15.48714514443228"><ele>77.75</ele><time>2026-04-26T09:12:56Z</time></trkpt><trkpt lat="40.060492708694454" lon="15.487000233263963"><ele>80.5</ele><time>2026-04-26T09:12:57Z</time></trkpt><trkpt lat="40.06054846122476" lon="15.48684995105217"><ele>83.25</ele><time>2026-04-26T09:12:58Z</time></trkpt><trkpt lat="40.060603341315115" lon="15.486705546687068"><ele>86.0</ele><time>2026-04-26T09:12:59Z</time></trkpt><trkpt lat="40.06066751380777" lon="15.486572840729732"><ele>86.0</ele><time>2026-04-26T09:13:00Z</time></trkpt><trkpt lat="40.06073923555901" lon="15.486453774061587"><ele>86.0</ele><time>2026-04-26T09:13:01Z</time></trkpt><trkpt lat="40.06082179119856" lon="15.48634031362391"><ele>86.0</ele><time>2026-04-26T09:13:02Z</time></trkpt><trkpt lat="40.060914401004055" lon="15.48625630592136"><ele>86.0</ele><time>2026-04-26T09:13:03Z</time></trkpt><trkpt lat="40.061004996664686" lon="15.48616165519359"><ele>86.0</ele><time>2026-04-26T09:13:04Z</time></trkpt><trkpt lat="40.06108476668081" lon="15.486057008991512"><ele>86.0</ele><time>2026-04-26T09:13:05Z</time></trkpt><trkpt lat="40.061127613554575" lon="15.485895536856646"><ele>86.0</ele><time>2026-04-26T09:13:06Z</time></trkpt><trkpt lat="40.061155100062884" lon="15.485752685115024"><ele>86.0</ele><time>2026-04-26T09:13:07Z</time></trkpt><trkpt lat="40.06117553084439" lon="15.485620226739778"><ele>86.0</ele><time>2026-04-26T09:13:08Z</time></trkpt><trkpt lat="40.06121535209036" lon="15.485510821174534"><ele>86.0</ele><time>2026-04-26T09:13:09Z</time></trkpt><trkpt lat="40.061285057128984" lon="15.485444426551435"><ele>86.0</ele><time>2026-04-26T09:13:10Z</time></trkpt><trkpt lat="40.061374463305256" lon="15.48537674106178"><ele>86.0</ele><time>2026-04-26T09:13:11Z</time></trkpt><trkpt lat="40.06147777713099" lon="15.485347657812987"><ele>86.0</ele><time>2026-04-26T09:13:12Z</time></trkpt><trkpt lat="40.06159047184742" lon="15.485319232176067"><ele>87.5</ele><time>2026-04-26T09:13:13Z</time></trkpt><trkpt lat="40.06170528073478" lon="15.485207259892718"><ele>89.0</ele><time>2026-04-26T09:13:14Z</time></trkpt><trkpt lat="40.0618078003897" lon="15.485075867092565"><ele>90.5</ele><time>2026-04-26T09:13:15Z</time></trkpt><trkpt lat="40.06190028324463" lon="15.4849587444548"><ele>92.0</ele><time>2026-04-26T09:13:16Z</time></trkpt><trkpt lat="40.06199361993651" lon="15.484850523548912"><ele>92.0</ele><time>2026-04-26T09:13:17Z</time></trkpt><trkpt lat="40.06209293213044" lon="15.484753530002713"><ele>92.0</ele><time>2026-04-26T09:13:18Z</time></trkpt><trkpt lat="40.062187470345975" lon="15.484661599695853"><ele>92.0</ele><time>2026-04-26T09:13:19Z</time></trkpt><trkpt lat="40.06224779665867" lon="15.484562757623523"><ele>92.0</ele><time>2026-04-26T09:13:20Z</time></trkpt><trkpt lat="40.06228321112888" lon="15.484464464403953"><ele>92.0</ele><time>2026-04-26T09:13:21Z</time></trkpt><trkpt lat="40.062286963901066" lon="15.484355699999782"><ele>94.39999999999999</ele><time>2026-04-26T09:13:22Z</time></trkpt><trkpt lat="40.06225386415467" lon="15.48425250336892"><ele>96.8</ele><time>2026-04-26T09:13:23Z</time></trkpt><trkpt lat="40.062189824566836" lon="15.484172805133847"><ele>99.2</ele><time>2026-04-26T09:13:24Z</time></trkpt><trkpt lat="40.06210505218632" lon="15.484109344497565"><ele>101.6</ele><time>2026-04-26T09:13:25Z</time></trkpt><trkpt lat="40.06200637051639" lon="15.484070456583382"><ele>104.0</ele><time>2026-04-26T09:13:26Z</time></trkpt><trkpt lat="40.061904016642465" lon="15.484048405001458"><ele>104.0</ele><time>2026-04-26T09:13:27Z</time></trkpt><trkpt lat="40.061796490747945" lon="15.484056038335138"><ele>104.0</ele><time>2026-04-26T09:13:28Z</time></trkpt><trkpt lat="40.06167562301348" lon="15.484102684222961"><ele>104.0</ele><time>2026-04-26T09:13:29Z</time></trkpt><trkpt lat="40.061554724609564" lon="15.484179122925644"><ele>104.0</ele><time>2026-04-26T09:13:30Z</time></trkpt><trkpt lat="40.061432895058175" lon="15.484243341545316"><ele>105.75</ele><time>2026-04-26T09:13:31Z</time></trkpt><trkpt lat="40.061303787317755" lon="15.484292732186995"><ele>107.5</ele><time>2026-04-26T09:13:32Z</time></trkpt><trkpt lat="40.061185713344734" lon="15.484354788719903"><ele>109.25</ele><time>2026-04-26T09:13:33Z</time></trkpt><trkpt lat="40.061086041665796" lon="15.484413546303125"><ele>111.0</ele><time>2026-04-26T09:13:34Z</time></trkpt><trkpt lat="40.0609921896516" lon="15.484445639980772"><ele>111.0</ele><time>2026-04-26T09:13:35Z</time></trkpt><trkpt lat="40.060898859853836" lon="15.484413657566495"><ele>111.0</ele><time>2026-04-26T09:13:36Z</time></trkpt><trkpt lat="40.06081269075977" lon="15.484333581323389"><ele>111.0</ele><time>2026-04-26T09:13:37Z</time></trkpt><trkpt lat="40.06076223337581" lon="15.48422856188605"><ele>111.0</ele><time>2026-04-26T09:13:38Z</time></trkpt><trkpt lat="40.06073148860795" lon="15.484090765588158"><ele>111.0</ele><time>2026-04-26T09:13:39Z</time></trkpt><trkpt lat="40.06070361761846" lon="15.483951681211755"><ele>110.25</ele><time>2026-04-26T09:13:40Z</time></trkpt><trkpt lat="40.06062734613259" lon="15.483845405092268"><ele>109.5</ele><time>2026-04-26T09:13:41Z</time></trkpt><trkpt lat="40.06052329553661" lon="15.483771891410996"><ele>108.75</ele><time>2026-04-26T09:13:42Z</time></trkpt><trkpt lat="40.06040729643653" lon="15.483742254844902"><ele>108.0</ele><time>2026-04-26T09:13:43Z</time></trkpt><trkpt lat="40.06029690027171" lon="15.48371825356772"><ele>110.75</ele><time>2026-04-26T09:13:44Z</time></trkpt><trkpt lat="40.060207611133784" lon="15.483622915581753"><ele>113.5</ele><time>2026-04-26T09:13:45Z</time></trkpt><trkpt lat="40.060140719479584" lon="15.483505010318725"><ele>116.25</ele><time>2026-04-26T09:13:46Z</time></trkpt><trkpt lat="40.06007565851954" lon="15.483367594929538"><ele>119.0</ele><time>2026-04-26T09:13:47Z</time></trkpt><trkpt lat="40.06004094608626" lon="15.483218103488912"><ele>119.0</ele><time>2026-04-26T09:13:48Z</time></trkpt><trkpt lat="40.059982930062056" lon="15.483109966606973"><ele>119.0</ele><time>2026-04-26T09:13:49Z</time></trkpt><trkpt lat="40.059902717958764" lon="15.48303918704337"><ele>119.0</ele><time>2026-04-26T09:13:50Z</time></trkpt><trkpt lat="40.05980363793673" lon="15.483006279413011"><ele>119.0</ele><time>2026-04-26T09:13:51Z</time></trkpt><trkpt lat="40.05971282610074" lon="15.482997375184613"><ele>119.0</ele><time>2026-04-26T09:13:52Z</time></trkpt><trkpt lat="40.059614888283726" lon="15.48298464414287"><ele>119.0</ele><time>2026-04-26T09:13:53Z</time></trkpt><trkpt lat="40.059514791608656" lon="15.482950308686917"><ele>119.0</ele><time>2026-04-26T09:13:54Z</time></trkpt><trkpt lat="40.059416815628474" lon="15.482920268573775"><ele>119.0</ele><time>2026-04-26T09:13:55Z</time></trkpt><trkpt lat="40.05933175277521" lon="15.482866087552349"><ele>119.0</ele><time>2026-04-26T09:13:56Z</time></trkpt><trkpt lat="40.05927518053367" lon="15.482772445204798"><ele>119.0</ele><time>2026-04-26T09:13:57Z</time></trkpt><trkpt lat="40.05922702706649" lon="15.482644636664913"><ele>118.5</ele><time>2026-04-26T09:13:58Z</time></trkpt><trkpt lat="40.05916713260917" lon="15.482492253774083"><ele>118.0</ele><time>2026-04-26T09:13:59Z</time></trkpt><trkpt lat="40.059125539358604" lon="15.482304535068387"><ele>117.5</ele><time>2026-04-26T09:14:00Z</time></trkpt><trkpt lat="40.05908235528066" lon="15.482128064029176"><ele>117.0</ele><time>2026-04-26T09:14:01Z</time></trkpt><trkpt lat="40.059044590016285" lon="15.4819578453286"><ele>117.0</ele><time>2026-04-26T09:14:02Z</time></trkpt><trkpt lat="40.05901430681654" lon="15.481788290561017"><ele>116.99999999999999</ele><time>2026-04-26T09:14:03Z</time></trkpt><trkpt lat="40.058993281902204" lon="15.481650085317172"><ele>116.99999999999999</ele><time>2026-04-26T09:14:04Z</time></trkpt><trkpt lat="40.05897609420919" lon="15.481538866094928"><ele>117.0</ele><time>2026-04-26T09:14:05Z</time></trkpt><trkpt lat="40.05896155352812" lon="15.481434960125222"><ele>117.0</ele><time>2026-04-26T09:14:06Z</time></trkpt><trkpt lat="40.05896653053374" lon="15.481327287828377"><ele>116.83333333333333</ele><time>2026-04-26T09:14:07Z</time></trkpt><trkpt lat="40.05901439033784" lon="15.481259066464533"><ele>116.66666666666666</ele><time>2026-04-26T09:14:08Z</time></trkpt><trkpt lat="40.05909301513778" lon="15.48125280477379"><ele>116.5</ele><time>2026-04-26T09:14:09Z</time></trkpt><trkpt lat="40.05916993087587" lon="15.481261025785637"><ele>116.33333333333333</ele><time>2026-04-26T09:14:10Z</time></trkpt><trkpt lat="40.059247981998695" lon="15.481271373493778"><ele>116.16666666666666</ele><time>2026-04-26T09:14:11Z</time></trkpt><trkpt lat="40.059335042879816" lon="15.48134300589106"><ele>116.0</ele><time>2026-04-26T09:14:12Z</time></trkpt><trkpt lat="40.0593949499552" lon="15.481464238814144"><ele>119.19999999999999</ele><time>2026-04-26T09:14:13Z</time></trkpt><trkpt lat="40.0594688753823" lon="15.481576099741833"><ele>122.39999999999999</ele><time>2026-04-26T09:14:14Z</time></trkpt><trkpt lat="40.05953854376597" lon="15.481679976408056"><ele>125.6</ele><time>2026-04-26T09:14:15Z</time></trkpt><trkpt lat="40.05960169410199" lon="15.481772562677245"><ele>128.79999999999998</ele><time>2026-04-26T09:14:16Z</time></trkpt><trkpt lat="40.05967105468143" lon="15.48183740757356"><ele>132.0</ele><time>2026-04-26T09:14:17Z</time></trkpt><trkpt lat="40.05976382407541" lon="15.481827135254184"><ele>132.0</ele><time>2026-04-26T09:14:18Z</time></trkpt><trkpt lat="40.05986363993643" lon="15.481805155822471"><ele>132.0</ele><time>2026-04-26T09:14:19Z</time></trkpt><trkpt lat="40.059975059413276" lon="15.48175740786746"><ele>132.0</ele><time>2026-04-26T09:14:20Z</time></trkpt><trkpt lat="40.06009192129406" lon="15.481727662464854"><ele>132.0</ele><time>2026-04-26T09:14:21Z</time></trkpt><trkpt lat="40.060211625645735" lon="15.48168477547901"><ele>133.79999999999998</ele><time>2026-04-26T09:14:22Z</time></trkpt><trkpt lat="40.0603295783322" lon="15.481642205752898"><ele>135.6</ele><time>2026-04-26T09:14:23Z</time></trkpt><trkpt lat="40.060433733686565" lon="15.481583377458842"><ele>137.39999999999998</ele><time>2026-04-26T09:14:24Z</time></trkpt><trkpt lat="40.0605292793063" lon="15.481527579623155"><ele>139.2</ele><time>2026-04-26T09:14:25Z</time></trkpt><trkpt lat="40.060602515460715" lon="15.481425242403857"><ele>141.0</ele><time>2026-04-26T09:14:26Z</time></trkpt><trkpt lat="40.06064558996099" lon="15.481288184563367"><ele>142.25</ele><time>2026-04-26T09:14:27Z</time></trkpt><trkpt lat="40.06067855028049" lon="15.481138445818155"><ele>143.5</ele><time>2026-04-26T09:14:28Z</time></trkpt><trkpt lat="40.06074075658823" lon="15.480995260940903"><ele>144.75</ele><time>2026-04-26T09:14:29Z</time></trkpt><trkpt lat="40.06085401259841" lon="15.480876446376303"><ele>146.0</ele><time>2026-04-26T09:14:30Z</time></trkpt><trkpt lat="40.06094672805573" lon="15.480749464124246"><ele>147.0</ele><time>2026-04-26T09:14:31Z</time></trkpt><trkpt lat="40.06102400956256" lon="15.480633948263222"><ele>148.0</ele><time>2026-04-26T09:14:32Z</time></trkpt><trkpt lat="40.06106246591688" lon="15.480479097280492"><ele>149.0</ele><time>2026-04-26T09:14:33Z</time></trkpt><trkpt lat="40.06108650832941" lon="15.480323664950568"><ele>150.0</ele><time>2026-04-26T09:14:34Z</time></trkpt><trkpt lat="40.061111025711945" lon="15.48017220486251"><ele>151.6</ele><time>2026-04-26T09:14:35Z</time></trkpt><trkpt lat="40.06113891265819" lon="15.4800370072302"><ele>153.2</ele><time>2026-04-26T09:14:36Z</time></trkpt><trkpt lat="40.06117791768" lon="15.479919353485933"><ele>154.8</ele><time>2026-04-26T09:14:37Z</time></trkpt><trkpt lat="40.061244704294" lon="15.479819533394409"><ele>156.4</ele><time>2026-04-26T09:14:38Z</time></trkpt><trkpt lat="40.06134765496536" lon="15.4797777812026"><ele>158.0</ele><time>2026-04-26T09:14:39Z</time></trkpt><trkpt lat="40.061459002521886" lon="15.479730909527627"><ele>158.0</ele><time>2026-04-26T09:14:40Z</time></trkpt><trkpt lat="40.06159076371322" lon="15.479739623567156"><ele>158.0</ele><time>2026-04-26T09:14:41Z</time></trkpt><trkpt lat="40.06171810741088" lon="15.479738967252958"><ele>158.0</ele><time>2026-04-26T09:14:42Z</time></trkpt><trkpt lat="40.06183682735613" lon="15.479730634921726"><ele>158.0</ele><time>2026-04-26T09:14:43Z</time></trkpt><trkpt lat="40.06193873855733" lon="15.479682488714987"><ele>160.0</ele><time>2026-04-26T09:14:44Z</time></trkpt><trkpt lat="40.06203221079119" lon="15.479592816372309"><ele>162.0</ele><time>2026-04-26T09:14:45Z</time></trkpt><trkpt lat="40.062119620214254" lon="15.479475937059767"><ele>164.0</ele><time>2026-04-26T09:14:46Z</time></trkpt><trkpt lat="40.06221207183099" lon="15.479351029025064"><ele>166.0</ele><time>2026-04-26T09:14:47Z</time></trkpt><trkpt lat="40.062268089705285" lon="15.479204263778321"><ele>166.0</ele><time>2026-04-26T09:14:48Z</time></trkpt><trkpt lat="40.062277468288" lon="15.47904750084127"><ele>166.0</ele><time>2026-04-26T09:14:49Z</time></trkpt><trkpt lat="40.062279344113996" lon="15.478910936930417"><ele>166.0</ele><time>2026-04-26T09:14:50Z</time></trkpt><trkpt lat="40.06227243354019" lon="15.478771399581273"><ele>166.0</ele><time>2026-04-26T09:14:51Z</time></trkpt><trkpt lat="40.062266733289256" lon="15.47861493545916"><ele>167.75</ele><time>2026-04-26T09:14:52Z</time></trkpt><trkpt lat="40.06226977505172" lon="15.478457085759329"><ele>169.5</ele><time>2026-04-26T09:14:53Z</time></trkpt><trkpt lat="40.06227637318763" lon="15.478301532579495"><ele>171.25</ele><time>2026-04-26T09:14:54Z</time></trkpt><trkpt lat="40.06230022137771" lon="15.47812648808543"><ele>173.0</ele><time>2026-04-26T09:14:55Z</time></trkpt><trkpt lat="40.062343015038216" lon="15.477947589984478"><ele>173.0</ele><time>2026-04-26T09:14:56Z</time></trkpt><trkpt lat="40.06239803586224" lon="15.477767789706153"><ele>173.0</ele><time>2026-04-26T09:14:57Z</time></trkpt><trkpt lat="40.06245448216215" lon="15.47758768814789"><ele>173.0</ele><time>2026-04-26T09:14:58Z</time></trkpt><trkpt lat="40.06251996326472" lon="15.47740593895343"><ele>173.0</ele><time>2026-04-26T09:14:59Z</time></trkpt><trkpt lat="40.06256750680431" lon="15.477200387054877"><ele>173.0</ele><time>2026-04-26T09:15:00Z</time></trkpt><trkpt lat="40.062623298732944" lon="15.476984745308132"><ele>173.0</ele><time>2026-04-26T09:15:01Z</time></trkpt><trkpt lat="40.06267986002947" lon="15.476770233156753"><ele>175.0</ele><time>2026-04-26T09:15:02Z</time></trkpt><trkpt lat="40.06273117170939" lon="15.476585976678436"><ele>177.0</ele><time>2026-04-26T09:15:03Z</time></trkpt><trkpt lat="40.062784306708785" lon="15.476401329090292"><ele>179.0</ele><time>2026-04-26T09:15:04Z</time></trkpt><trkpt lat="40.06284880785225" lon="15.476203020318124"><ele>181.33333333333331</ele><time>2026-04-26T09:15:05Z</time></trkpt><trkpt lat="40.06291442225416" lon="15.476008652937672"><ele>183.66666666666666</ele><time>2026-04-26T09:15:06Z</time></trkpt><trkpt lat="40.0629865149761" lon="15.475806051429306"><ele>186.0</ele><time>2026-04-26T09:15:07Z</time></trkpt><trkpt lat="40.06305604660118" lon="15.475601065781747"><ele>187.66666666666666</ele><time>2026-04-26T09:15:08Z</time></trkpt><trkpt lat="40.06312958815929" lon="15.475397864415108"><ele>189.33333333333331</ele><time>2026-04-26T09:15:09Z</time></trkpt><trkpt lat="40.063203221459126" lon="15.475199889803086"><ele>191.0</ele><time>2026-04-26T09:15:10Z</time></trkpt><trkpt lat="40.063274293382335" lon="15.475006361174069"><ele>191.66666666666666</ele><time>2026-04-26T09:15:11Z</time></trkpt><trkpt lat="40.063344476871784" lon="15.474809868622637"><ele>192.33333333333331</ele><time>2026-04-26T09:15:12Z</time></trkpt><trkpt lat="40.06341893832453" lon="15.474599216332596"><ele>193.0</ele><time>2026-04-26T09:15:13Z</time></trkpt><trkpt lat="40.063497375031254" lon="15.474386865064087"><ele>193.0</ele><time>2026-04-26T09:15:14Z</time></trkpt><trkpt lat="40.063567313092825" lon="15.474188853986766"><ele>193.0</ele><time>2026-04-26T09:15:15Z</time></trkpt><trkpt lat="40.063632361936975" lon="15.474005930873124"><ele>193.0</ele><time>2026-04-26T09:15:16Z</time></trkpt><trkpt lat="40.06369142010223" lon="15.473836683298455"><ele>194.5</ele><time>2026-04-26T09:15:17Z</time></trkpt><trkpt lat="40.06374652704797" lon="15.473675674887334"><ele>196.0</ele><time>2026-04-26T09:15:18Z</time></trkpt><trkpt lat="40.063804589922995" lon="15.473524598546598"><ele>197.5</ele><time>2026-04-26T09:15:19Z</time></trkpt><trkpt lat="40.06387864689264" lon="15.47339344987757"><ele>199.0</ele><time>2026-04-26T09:15:20Z</time></trkpt><trkpt lat="40.06396029098376" lon="15.47327890328531"><ele>199.0</ele><time>2026-04-26T09:15:21Z</time></trkpt><trkpt lat="40.06406143999813" lon="15.47317020188355"><ele>199.0</ele><time>2026-04-26T09:15:22Z</time></trkpt><trkpt lat="40.06418096162079" lon="15.473077786522587"><ele>199.0</ele><time>2026-04-26T09:15:23Z</time></trkpt><trkpt lat="40.06431683930449" lon="15.472987476642878"><ele>199.0</ele><time>2026-04-26T09:15:24Z</time></trkpt><trkpt lat="40.06445067086028" lon="15.472870092151071"><ele>202.66666666666666</ele><time>2026-04-26T09:15:25Z</time></trkpt><trkpt lat="40.06458500661515" lon="15.472729765244976"><ele>206.33333333333331</ele><time>2026-04-26T09:15:26Z</time></trkpt><trkpt lat="40.06472561556426" lon="15.472577596752338"><ele>210.0</ele><time>2026-04-26T09:15:27Z</time></trkpt><trkpt lat="40.06486514607236" lon="15.472424427432207"><ele>209.0</ele><time>2026-04-26T09:15:28Z</time></trkpt><trkpt lat="40.06499679250471" lon="15.472279913102176"><ele>208.0</ele><time>2026-04-26T09:15:29Z</time></trkpt><trkpt lat="40.0651141443515" lon="15.472152038364415"><ele>207.0</ele><time>2026-04-26T09:15:30Z</time></trkpt><trkpt lat="40.06523199598391" lon="15.47202364378413"><ele>213.33333333333331</ele><time>2026-04-26T09:15:31Z</time></trkpt><trkpt lat="40.06534583488403" lon="15.471899620662148"><ele>219.66666666666666</ele><time>2026-04-26T09:15:32Z</time></trkpt><trkpt lat="40.065465165414444" lon="15.471771593141998"><ele>226.0</ele><time>2026-04-26T09:15:33Z</time></trkpt><trkpt lat="40.06558407737606" lon="15.471655861447562"><ele>226.0</ele><time>2026-04-26T09:15:34Z</time></trkpt><trkpt lat="40.06570983464766" lon="15.47158151117712"><ele>226.0</ele><time>2026-04-26T09:15:35Z</time></trkpt><trkpt lat="40.065843352339975" lon="15.47151751567533"><ele>226.0</ele><time>2026-04-26T09:15:36Z</time></trkpt><trkpt lat="40.065966551105895" lon="15.471457251631783"><ele>226.0</ele><time>2026-04-26T09:15:37Z</time></trkpt><trkpt lat="40.06608264950417" lon="15.471400460829628"><ele>225.8</ele><time>2026-04-26T09:15:38Z</time></trkpt><trkpt lat="40.06619564678171" lon="15.471341047139388"><ele>225.60000000000002</ele><time>2026-04-26T09:15:39Z</time></trkpt><trkpt lat="40.066291473420705" lon="15.471275276872797"><ele>225.4</ele><time>2026-04-26T09:15:40Z</time></trkpt><trkpt lat="40.06636670056629" lon="15.471189792714988"><ele>225.2</ele><time>2026-04-26T09:15:41Z</time></trkpt><trkpt lat="40.066425030743545" lon="15.471109320478456"><ele>225.0</ele><time>2026-04-26T09:15:42Z</time></trkpt><trkpt lat="40.0664646865032" lon="15.471013348370763"><ele>225.0</ele><time>2026-04-26T09:15:43Z</time></trkpt><trkpt lat="40.066477325183506" lon="15.47090373001901"><ele>225.0</ele><time>2026-04-26T09:15:44Z</time></trkpt><trkpt lat="40.06645854725352" lon="15.470805665093634"><ele>225.0</ele><time>2026-04-26T09:15:45Z</time></trkpt><trkpt lat="40.06640219818719" lon="15.47072644291745"><ele>225.0</ele><time>2026-04-26T09:15:46Z</time></trkpt><trkpt lat="40.066320368498126" lon="15.470660613367372"><ele>225.0</ele><time>2026-04-26T09:15:47Z</time></trkpt><trkpt lat="40.066211231692186" lon="15.470616753719646"><ele>225.0</ele><time>2026-04-26T09:15:48Z</time></trkpt><trkpt lat="40.066083883573285" lon="15.470598870284554"><ele>225.0</ele><time>2026-04-26T09:15:49Z</time></trkpt><trkpt lat="40.06594326809144" lon="15.470576856478448"><ele>225.0</ele><time>2026-04-26T09:15:50Z</time></trkpt><trkpt lat="40.06579380530618" lon="15.470544881439407"><ele>225.0</ele><time>2026-04-26T09:15:51Z</time></trkpt><trkpt lat="40.065632832023205" lon="15.47049317051176"><ele>227.25</ele><time>2026-04-26T09:15:52Z</time></trkpt><trkpt lat="40.065493379923566" lon="15.470446414366805"><ele>229.5</ele><time>2026-04-26T09:15:53Z</time></trkpt><trkpt lat="40.06537490698223" lon="15.470417424611801"><ele>231.75</ele><time>2026-04-26T09:15:54Z</time></trkpt><trkpt lat="40.06525213488086" lon="15.470421238959796"><ele>234.0</ele><time>2026-04-26T09:15:55Z</time></trkpt><trkpt lat="40.06512868025431" lon="15.47044754629366"><ele>234.0</ele><time>2026-04-26T09:15:56Z</time></trkpt><trkpt lat="40.0650221686059" lon="15.470483780096965"><ele>234.0</ele><time>2026-04-26T09:15:57Z</time></trkpt><trkpt lat="40.06490970686557" lon="15.470551953811366"><ele>234.0</ele><time>2026-04-26T09:15:58Z</time></trkpt><trkpt lat="40.06480220576495" lon="15.470614270881653"><ele>234.0</ele><time>2026-04-26T09:15:59Z</time></trkpt><trkpt lat="40.064696855401586" lon="15.470696620196245"><ele>236.75</ele><time>2026-04-26T09:16:00Z</time></trkpt><trkpt lat="40.06460388354536" lon="15.470799481801576"><ele>239.5</ele><time>2026-04-26T09:16:01Z</time></trkpt><trkpt lat="40.06452770899379" lon="15.470928172246575"><ele>242.25</ele><time>2026-04-26T09:16:02Z</time></trkpt><trkpt lat="40.064465003110826" lon="15.4710781582148"><ele>245.0</ele><time>2026-04-26T09:16:03Z</time></trkpt><trkpt lat="40.06440654699137" lon="15.471233472716728"><ele>244.0</ele><time>2026-04-26T09:16:04Z</time></trkpt><trkpt lat="40.06435284136044" lon="15.471350967588789"><ele>243.0</ele><time>2026-04-26T09:16:05Z</time></trkpt><trkpt lat="40.06427597528373" lon="15.471429740844563"><ele>242.0</ele><time>2026-04-26T09:16:06Z</time></trkpt><trkpt lat="40.06416928157197" lon="15.471461285478306"><ele>241.0</ele><time>2026-04-26T09:16:07Z</time></trkpt><trkpt lat="40.06406125143775" lon="15.471480941835303"><ele>240.0</ele><time>2026-04-26T09:16:08Z</time></trkpt><trkpt lat="40.06395318828736" lon="15.471438117359082"><ele>240.0</ele><time>2026-04-26T09:16:09Z</time></trkpt><trkpt lat="40.063855894629114" lon="15.471379443987791"><ele>240.0</ele><time>2026-04-26T09:16:10Z</time></trkpt><trkpt lat="40.06378099705523" lon="15.471284740107592"><ele>240.0</ele><time>2026-04-26T09:16:11Z</time></trkpt><trkpt lat="40.06375653994715" lon="15.471158252447333"><ele>240.0</ele><time>2026-04-26T09:16:12Z</time></trkpt><trkpt lat="40.06376554547973" lon="15.471023137157143"><ele>240.0</ele><time>2026-04-26T09:16:13Z</time></trkpt><trkpt lat="40.06377135796133" lon="15.470853443892006"><ele>240.5</ele><time>2026-04-26T09:16:14Z</time></trkpt><trkpt lat="40.06378582235698" lon="15.470680078251272"><ele>241.0</ele><time>2026-04-26T09:16:15Z</time></trkpt><trkpt lat="40.06379119555273" lon="15.470493188813325"><ele>241.5</ele><time>2026-04-26T09:16:16Z</time></trkpt><trkpt lat="40.06380299117511" lon="15.470297803351155"><ele>242.0</ele><time>2026-04-26T09:16:17Z</time></trkpt><trkpt lat="40.0638167424523" lon="15.470084119735718"><ele>242.0</ele><time>2026-04-26T09:16:18Z</time></trkpt><trkpt lat="40.06383179854584" lon="15.469882867057319"><ele>242.0</ele><time>2026-04-26T09:16:19Z</time></trkpt><trkpt lat="40.06384481933626" lon="15.46971077935471"><ele>242.0</ele><time>2026-04-26T09:16:20Z</time></trkpt><trkpt lat="40.063846520862256" lon="15.469551592538235"><ele>242.0</ele><time>2026-04-26T09:16:21Z</time></trkpt><trkpt lat="40.063816282485405" lon="15.46940510957624"><ele>243.5</ele><time>2026-04-26T09:16:22Z</time></trkpt><trkpt lat="40.06375026868597" lon="15.469264835204479"><ele>245.0</ele><time>2026-04-26T09:16:23Z</time></trkpt><trkpt lat="40.06365928736283" lon="15.46915561709938"><ele>246.5</ele><time>2026-04-26T09:16:24Z</time></trkpt><trkpt lat="40.0635666854071" lon="15.469049472772976"><ele>248.0</ele><time>2026-04-26T09:16:25Z</time></trkpt><trkpt lat="40.063489899616954" lon="15.468939308213587"><ele>248.0</ele><time>2026-04-26T09:16:26Z</time></trkpt><trkpt lat="40.063432973105655" lon="15.468812450119858"><ele>248.0</ele><time>2026-04-26T09:16:27Z</time></trkpt><trkpt lat="40.06339976163554" lon="15.468665887253943"><ele>248.0</ele><time>2026-04-26T09:16:28Z</time></trkpt><trkpt lat="40.06340305829459" lon="15.46851175332792"><ele>248.0</ele><time>2026-04-26T09:16:29Z</time></trkpt><trkpt lat="40.06344173940481" lon="15.468357416251598"><ele>249.5</ele><time>2026-04-26T09:16:30Z</time></trkpt><trkpt lat="40.06350205653584" lon="15.468216680193548"><ele>251.0</ele><time>2026-04-26T09:16:31Z</time></trkpt><trkpt lat="40.06360815319735" lon="15.46811364014618"><ele>252.5</ele><time>2026-04-26T09:16:32Z</time></trkpt><trkpt lat="40.063711441654625" lon="15.467987894158743"><ele>254.0</ele><time>2026-04-26T09:16:33Z</time></trkpt><trkpt lat="40.06381400618994" lon="15.467865285682679"><ele>255.0</ele><time>2026-04-26T09:16:34Z</time></trkpt><trkpt lat="40.06389083883363" lon="15.467716741052584"><ele>255.99999999999997</ele><time>2026-04-26T09:16:35Z</time></trkpt><trkpt lat="40.063940168949784" lon="15.467576282431343"><ele>257.0</ele><time>2026-04-26T09:16:36Z</time></trkpt><trkpt lat="40.06396217466042" lon="15.467450370483506"><ele>258.0</ele><time>2026-04-26T09:16:37Z</time></trkpt><trkpt lat="40.06395024870444" lon="15.467346520557474"><ele>259.0</ele><time>2026-04-26T09:16:38Z</time></trkpt><trkpt lat="40.06390898876845" lon="15.467262998793815"><ele>259.0</ele><time>2026-04-26T09:16:39Z</time></trkpt><trkpt lat="40.06383665480857" lon="15.46719107696231"><ele>259.0</ele><time>2026-04-26T09:16:40Z</time></trkpt><trkpt lat="40.06373335305146" lon="15.467122134155868"><ele>259.0</ele><time>2026-04-26T09:16:41Z</time></trkpt><trkpt lat="40.06364918616977" lon="15.467051333756041"><ele>259.0</ele><time>2026-04-26T09:16:42Z</time></trkpt><trkpt lat="40.06358541419135" lon="15.466956750187462"><ele>259.0</ele><time>2026-04-26T09:16:43Z</time></trkpt><trkpt lat="40.063557535398004" lon="15.466809827430096"><ele>261.0</ele><time>2026-04-26T09:16:44Z</time></trkpt><trkpt lat="40.063545254243245" lon="15.466639751044953"><ele>263.0</ele><time>2026-04-26T09:16:45Z</time></trkpt><trkpt lat="40.063487908956986" lon="15.466468280443404"><ele>265.0</ele><time>2026-04-26T09:16:46Z</time></trkpt><trkpt lat="40.0633956864289" lon="15.46629736869694"><ele>267.0</ele><time>2026-04-26T09:16:47Z</time></trkpt><trkpt lat="40.063294657488164" lon="15.466112243111542"><ele>268.3333333333333</ele><time>2026-04-26T09:16:48Z</time></trkpt><trkpt lat="40.06319949558315" lon="15.46592117723828"><ele>269.66666666666663</ele><time>2026-04-26T09:16:49Z</time></trkpt><trkpt lat="40.063103753707196" lon="15.465730016446022"><ele>271.0</ele><time>2026-04-26T09:16:50Z</time></trkpt><trkpt lat="40.063022477238626" lon="15.465572204144165"><ele>273.0</ele><time>2026-04-26T09:16:51Z</time></trkpt><trkpt lat="40.06295762293402" lon="15.465436752029959"><ele>275.0</ele><time>2026-04-26T09:16:52Z</time></trkpt><trkpt lat="40.06290697171967" lon="15.465323789726238"><ele>277.0</ele><time>2026-04-26T09:16:53Z</time></trkpt><trkpt lat="40.062880613336326" lon="15.4651941990084"><ele>279.0</ele><time>2026-04-26T09:16:54Z</time></trkpt><trkpt lat="40.0628742398552" lon="15.465063301831957"><ele>281.0</ele><time>2026-04-26T09:16:55Z</time></trkpt><trkpt lat="40.0628750038212" lon="15.464935218861415"><ele>281.0</ele><time>2026-04-26T09:16:56Z</time></trkpt><trkpt lat="40.06287190273374" lon="15.46479367619972"><ele>281.0</ele><time>2026-04-26T09:16:57Z</time></trkpt><trkpt lat="40.06285631827228" lon="15.464657658044585"><ele>281.0</ele><time>2026-04-26T09:16:58Z</time></trkpt><trkpt lat="40.06281595232092" lon="15.464546710611023"><ele>281.0</ele><time>2026-04-26T09:16:59Z</time></trkpt><trkpt lat="40.06274665620161" lon="15.464447521536819"><ele>281.0</ele><time>2026-04-26T09:17:00Z</time></trkpt><trkpt lat="40.062653921484035" lon="15.464377141104185"><ele>282.6</ele><time>2026-04-26T09:17:01Z</time></trkpt><trkpt lat="40.062548757867084" lon="15.464306590086133"><ele>284.20000000000005</ele><time>2026-04-26T09:17:02Z</time></trkpt><trkpt lat="40.06246634798606" lon="15.464246752607925"><ele>285.79999999999995</ele><time>2026-04-26T09:17:03Z</time></trkpt><trkpt lat="40.06238604812876" lon="15.464209756618185"><ele>287.4</ele><time>2026-04-26T09:17:04Z</time></trkpt><trkpt lat="40.062297281518724" lon="15.464216084194288"><ele>289.0</ele><time>2026-04-26T09:17:05Z</time></trkpt><trkpt lat="40.06221419470248" lon="15.464258332817609"><ele>289.0</ele><time>2026-04-26T09:17:06Z</time></trkpt><trkpt lat="40.062127478232654" lon="15.464339640139414"><ele>289.0</ele><time>2026-04-26T09:17:07Z</time></trkpt><trkpt lat="40.06202435889402" lon="15.464386185421871"><ele>289.0</ele><time>2026-04-26T09:17:08Z</time></trkpt><trkpt lat="40.06193538904285" lon="15.464442050515423"><ele>289.0</ele><time>2026-04-26T09:17:09Z</time></trkpt><trkpt lat="40.06182699454236" lon="15.464427210827123"><ele>289.0</ele><time>2026-04-26T09:17:10Z</time></trkpt><trkpt lat="40.06171397989241" lon="15.46437244986878"><ele>289.4</ele><time>2026-04-26T09:17:11Z</time></trkpt><trkpt lat="40.06161330458897" lon="15.464300770414166"><ele>289.79999999999995</ele><time>2026-04-26T09:17:12Z</time></trkpt><trkpt lat="40.06151932990232" lon="15.464224282326391"><ele>290.20000000000005</ele><time>2026-04-26T09:17:13Z</time></trkpt><trkpt lat="40.061456654155414" lon="15.464103017449675"><ele>290.6</ele><time>2026-04-26T09:17:14Z</time></trkpt><trkpt lat="40.06141781118638" lon="15.463970632439267"><ele>291.0</ele><time>2026-04-26T09:17:15Z</time></trkpt><trkpt lat="40.06136180846243" lon="15.46382822028159"><ele>292.75</ele><time>2026-04-26T09:17:16Z</time></trkpt><trkpt lat="40.061318917007235" lon="15.46367514257497"><ele>294.5</ele><time>2026-04-26T09:17:17Z</time></trkpt><trkpt lat="40.06126914515065" lon="15.463538952700343"><ele>296.25</ele><time>2026-04-26T09:17:18Z</time></trkpt><trkpt lat="40.061192768547876" lon="15.46344080693213"><ele>298.0</ele><time>2026-04-26T09:17:19Z</time></trkpt><trkpt lat="40.061094213016595" lon="15.463367298068896"><ele>298.0</ele><time>2026-04-26T09:17:20Z</time></trkpt><trkpt lat="40.0609833369727" lon="15.463307061080815"><ele>298.0</ele><time>2026-04-26T09:17:21Z</time></trkpt><trkpt lat="40.060873407294835" lon="15.463262066963669"><ele>298.0</ele><time>2026-04-26T09:17:22Z</time></trkpt><trkpt lat="40.060768180223654" lon="15.46321483529402"><ele>298.0</ele><time>2026-04-26T09:17:23Z</time></trkpt><trkpt lat="40.060678057331224" lon="15.463136450731328"><ele>300.6</ele><time>2026-04-26T09:17:24Z</time></trkpt><trkpt lat="40.06060436093392" lon="15.463038544041716"><ele>303.20000000000005</ele><time>2026-04-26T09:17:25Z</time></trkpt><trkpt lat="40.060533794987634" lon="15.462967549751507"><ele>305.8</ele><time>2026-04-26T09:17:26Z</time></trkpt><trkpt lat="40.06045436888634" lon="15.462953659102313"><ele>308.40000000000003</ele><time>2026-04-26T09:17:27Z</time></trkpt><trkpt lat="40.060372225782515" lon="15.462980122194482"><ele>311.0</ele><time>2026-04-26T09:17:28Z</time></trkpt><trkpt lat="40.060285970759686" lon="15.463051433999874"><ele>311.0</ele><time>2026-04-26T09:17:29Z</time></trkpt><trkpt lat="40.06021029386758" lon="15.463157465637526"><ele>311.0</ele><time>2026-04-26T09:17:30Z</time></trkpt><trkpt lat="40.060151601885735" lon="15.46326779983162"><ele>311.0</ele><time>2026-04-26T09:17:31Z</time></trkpt><trkpt lat="40.06012419103695" lon="15.463403354907376"><ele>311.0</ele><time>2026-04-26T09:17:32Z</time></trkpt><trkpt lat="40.060130219501666" lon="15.463564948688441"><ele>311.0</ele><time>2026-04-26T09:17:33Z</time></trkpt><trkpt lat="40.06014970570762" lon="15.463758488084657"><ele>310.5</ele><time>2026-04-26T09:17:34Z</time></trkpt><trkpt lat="40.06016029179977" lon="15.463959310210367"><ele>310.0</ele><time>2026-04-26T09:17:35Z</time></trkpt><trkpt lat="40.0601638213158" lon="15.464125756573058"><ele>309.5</ele><time>2026-04-26T09:17:36Z</time></trkpt><trkpt lat="40.060140033638994" lon="15.464270160212044"><ele>309.0</ele><time>2026-04-26T09:17:37Z</time></trkpt><trkpt lat="40.060123152743316" lon="15.464392199091956"><ele>309.0</ele><time>2026-04-26T09:17:38Z</time></trkpt><trkpt lat="40.06006384463969" lon="15.46451449976198"><ele>309.0</ele><time>2026-04-26T09:17:39Z</time></trkpt><trkpt lat="40.05997804377876" lon="15.464596802555572"><ele>309.0</ele><time>2026-04-26T09:17:40Z</time></trkpt><trkpt lat="40.059883762363995" lon="15.4646582701593"><ele>309.0</ele><time>2026-04-26T09:17:41Z</time></trkpt><trkpt lat="40.059770554476714" lon="15.464707384685193"><ele>309.0</ele><time>2026-04-26T09:17:42Z</time></trkpt><trkpt lat="40.05964668089062" lon="15.464760816922045"><ele>308.8</ele><time>2026-04-26T09:17:43Z</time></trkpt><trkpt lat="40.05951913079828" lon="15.464824047370026"><ele>308.59999999999997</ele><time>2026-04-26T09:17:44Z</time></trkpt><trkpt lat="40.05941575743648" lon="15.464873549985962"><ele>308.4</ele><time>2026-04-26T09:17:45Z</time></trkpt><trkpt lat="40.059336336039536" lon="15.46488933793563"><ele>308.2</ele><time>2026-04-26T09:17:46Z</time></trkpt><trkpt lat="40.05927394655922" lon="15.46484018435713"><ele>308.0</ele><time>2026-04-26T09:17:47Z</time></trkpt><trkpt lat="40.059241329227234" lon="15.464725705880083"><ele>310.5</ele><time>2026-04-26T09:17:48Z</time></trkpt><trkpt lat="40.059219481361225" lon="15.46461224000115"><ele>313.0</ele><time>2026-04-26T09:17:49Z</time></trkpt><trkpt lat="40.05919179243547" lon="15.46447399759988"><ele>315.5</ele><time>2026-04-26T09:17:50Z</time></trkpt><trkpt lat="40.059212901309486" lon="15.464309533053491"><ele>318.0</ele><time>2026-04-26T09:17:51Z</time></trkpt><trkpt lat="40.059240614636224" lon="15.464130582615352"><ele>318.0</ele><time>2026-04-26T09:17:52Z</time></trkpt><trkpt lat="40.059275772552844" lon="15.463952234407582"><ele>318.0</ele><time>2026-04-26T09:17:53Z</time></trkpt><trkpt lat="40.059324475074156" lon="15.46378663708662"><ele>318.0</ele><time>2026-04-26T09:17:54Z</time></trkpt><trkpt lat="40.05936074120472" lon="15.463641780656184"><ele>318.0</ele><time>2026-04-26T09:17:55Z</time></trkpt><trkpt lat="40.059391026905026" lon="15.463508251555481"><ele>319.1666666666667</ele><time>2026-04-26T09:17:56Z</time></trkpt><trkpt lat="40.059401265232964" lon="15.463392231233684"><ele>320.3333333333333</ele><time>2026-04-26T09:17:57Z</time></trkpt><trkpt lat="40.05937127528439" lon="15.463291392918215"><ele>321.5</ele><time>2026-04-26T09:17:58Z</time></trkpt><trkpt lat="40.05931003560878" lon="15.463224712985"><ele>322.66666666666663</ele><time>2026-04-26T09:17:59Z</time></trkpt><trkpt lat="40.05921725399116" lon="15.463177970200526"><ele>323.8333333333333</ele><time>2026-04-26T09:18:00Z</time></trkpt><trkpt lat="40.059128073415856" lon="15.463126488142532"><ele>325.0</ele><time>2026-04-26T09:18:01Z</time></trkpt><trkpt lat="40.05909162056873" lon="15.463014041754187"><ele>326.75</ele><time>2026-04-26T09:18:02Z</time></trkpt><trkpt lat="40.05907398651303" lon="15.462862867531328"><ele>328.5</ele><time>2026-04-26T09:18:03Z</time></trkpt><trkpt lat="40.05906826693148" lon="15.4626940492317"><ele>330.25</ele><time>2026-04-26T09:18:04Z</time></trkpt><trkpt lat="40.059046899023244" lon="15.462509681864544"><ele>332.0</ele><time>2026-04-26T09:18:05Z</time></trkpt><trkpt lat="40.059010679929294" lon="15.462352403486683"><ele>332.0</ele><time>2026-04-26T09:18:06Z</time></trkpt><trkpt lat="40.05896576617224" lon="15.462227942540952"><ele>332.0</ele><time>2026-04-26T09:18:07Z</time></trkpt><trkpt lat="40.05891232511506" lon="15.46211108313766"><ele>332.0</ele><time>2026-04-26T09:18:08Z</time></trkpt><trkpt lat="40.05884100785019" lon="15.462020652855605"><ele>332.0</ele><time>2026-04-26T09:18:09Z</time></trkpt><trkpt lat="40.05874559250615" lon="15.461975955713292"><ele>332.0</ele><time>2026-04-26T09:18:10Z</time></trkpt><trkpt lat="40.05864700539184" lon="15.4619709668133"><ele>333.5</ele><time>2026-04-26T09:18:11Z</time></trkpt><trkpt lat="40.05854341166113" lon="15.461992235371625"><ele>335.0</ele><time>2026-04-26T09:18:12Z</time></trkpt><trkpt lat="40.05843413004221" lon="15.462010491424872"><ele>336.5</ele><time>2026-04-26T09:18:13Z</time></trkpt><trkpt lat="40.05831526272201" lon="15.461962274495278"><ele>338.0</ele><time>2026-04-26T09:18:14Z</time></trkpt><trkpt lat="40.05820146768807" lon="15.461860498232088"><ele>338.0</ele><time>2026-04-26T09:18:15Z</time></trkpt><trkpt lat="40.05809923237841" lon="15.46172782054634"><ele>338.0</ele><time>2026-04-26T09:18:16Z</time></trkpt><trkpt lat="40.05801572738283" lon="15.461583289855788"><ele>338.0</ele><time>2026-04-26T09:18:17Z</time></trkpt><trkpt lat="40.0579291502109" lon="15.461452525448513"><ele>338.0</ele><time>2026-04-26T09:18:18Z</time></trkpt><trkpt lat="40.05785464778818" lon="15.461336334291849"><ele>340.0</ele><time>2026-04-26T09:18:19Z</time></trkpt><trkpt lat="40.057795327892975" lon="15.461207222993552"><ele>342.0</ele><time>2026-04-26T09:18:20Z</time></trkpt><trkpt lat="40.05779087094796" lon="15.461052487556978"><ele>344.0</ele><time>2026-04-26T09:18:21Z</time></trkpt><trkpt lat="40.05777546744296" lon="15.46088233605961"><ele>346.0</ele><time>2026-04-26T09:18:22Z</time></trkpt><trkpt lat="40.057758747072256" lon="15.460716948221048"><ele>346.0</ele><time>2026-04-26T09:18:23Z</time></trkpt><trkpt lat="40.05773347028053" lon="15.460553278753574"><ele>346.0</ele><time>2026-04-26T09:18:24Z</time></trkpt><trkpt lat="40.057720123803406" lon="15.460383570270958"><ele>346.0</ele><time>2026-04-26T09:18:25Z</time></trkpt><trkpt lat="40.057703408687736" lon="15.46022694170011"><ele>346.0</ele><time>2026-04-26T09:18:26Z</time></trkpt><trkpt lat="40.057692135296186" lon="15.460092787642806"><ele>345.4</ele><time>2026-04-26T09:18:27Z</time></trkpt><trkpt lat="40.05767507685305" lon="15.459968921198644"><ele>344.8</ele><time>2026-04-26T09:18:28Z</time></trkpt><trkpt lat="40.057620606437936" lon="15.459870618759249"><ele>344.2</ele><time>2026-04-26T09:18:29Z</time></trkpt><trkpt lat="40.05754929746396" lon="15.459800435708397"><ele>343.59999999999997</ele><time>2026-04-26T09:18:30Z</time></trkpt><trkpt lat="40.05744652045563" lon="15.459796255778143"><ele>343.0</ele><time>2026-04-26T09:18:31Z</time></trkpt><trkpt lat="40.057355371131116" lon="15.459866785778893"><ele>343.0</ele><time>2026-04-26T09:18:32Z</time></trkpt><trkpt lat="40.05727154171882" lon="15.459944649165612"><ele>343.0</ele><time>2026-04-26T09:18:33Z</time></trkpt><trkpt lat="40.05718337248888" lon="15.46000690361464"><ele>343.0</ele><time>2026-04-26T09:18:34Z</time></trkpt><trkpt lat="40.057095590180275" lon="15.460006233687455"><ele>343.0</ele><time>2026-04-26T09:18:35Z</time></trkpt><trkpt lat="40.057028184747445" lon="15.459941163898971"><ele>343.0</ele><time>2026-04-26T09:18:36Z</time></trkpt><trkpt lat="40.057006026798554" lon="15.45984831088326"><ele>343.0</ele><time>2026-04-26T09:18:37Z</time></trkpt><trkpt lat="40.05701064495572" lon="15.459733486874184"><ele>345.79999999999995</ele><time>2026-04-26T09:18:38Z</time></trkpt><trkpt lat="40.05701985772063" lon="15.459615949611496"><ele>348.6</ele><time>2026-04-26T09:18:39Z</time></trkpt><trkpt lat="40.057005419653755" lon="15.45949221099755"><ele>351.4</ele><time>2026-04-26T09:18:40Z</time></trkpt><trkpt lat="40.05696154777009" lon="15.45937080352376"><ele>354.20000000000005</ele><time>2026-04-26T09:18:41Z</time></trkpt><trkpt lat="40.05688765142317" lon="15.459248350702802"><ele>357.0</ele><time>2026-04-26T09:18:42Z</time></trkpt><trkpt lat="40.0567911983992" lon="15.45914732113545"><ele>357.0</ele><time>2026-04-26T09:18:43Z</time></trkpt><trkpt lat="40.056727773032875" lon="15.45903668021802"><ele>357.0</ele><time>2026-04-26T09:18:44Z</time></trkpt><trkpt lat="40.05673440790986" lon="15.45890469592598"><ele>357.0</ele><time>2026-04-26T09:18:45Z</time></trkpt><trkpt lat="40.05673120415366" lon="15.458764051821271"><ele>357.0</ele><time>2026-04-26T09:18:46Z</time></trkpt><trkpt lat="40.05673639164652" lon="15.458606002296392"><ele>357.0</ele><time>2026-04-26T09:18:47Z</time></trkpt><trkpt lat="40.05672670719577" lon="15.458450843394456"><ele>357.0</ele><time>2026-04-26T09:18:48Z</time></trkpt><trkpt lat="40.05670821029638" lon="15.458305847115666"><ele>357.0</ele><time>2026-04-26T09:18:49Z</time></trkpt><trkpt lat="40.05667187593578" lon="15.458163591418186"><ele>357.0</ele><time>2026-04-26T09:18:50Z</time></trkpt><trkpt lat="40.05662788431706" lon="15.458027619633057"><ele>357.0</ele><time>2026-04-26T09:18:51Z</time></trkpt><trkpt lat="40.056609517952765" lon="15.457891413833314"><ele>357.0</ele><time>2026-04-26T09:18:52Z</time></trkpt><trkpt lat="40.056605389165874" lon="15.457761037021157"><ele>357.0</ele><time>2026-04-26T09:18:53Z</time></trkpt><trkpt lat="40.05659274010507" lon="15.457632072725263"><ele>357.0</ele><time>2026-04-26T09:18:54Z</time></trkpt><trkpt lat="40.056586606690836" lon="15.45749976033842"><ele>357.0</ele><time>2026-04-26T09:18:55Z</time></trkpt><trkpt lat="40.056596022324634" lon="15.45734933705332"><ele>357.0</ele><time>2026-04-26T09:18:56Z</time></trkpt><trkpt lat="40.05662669962561" lon="15.45719582831905"><ele>357.0</ele><time>2026-04-26T09:18:57Z</time></trkpt><trkpt lat="40.056684958926674" lon="15.457056891986833"><ele>361.75</ele><time>2026-04-26T09:18:58Z</time></trkpt><trkpt lat="40.05674372690203" lon="15.456918269129957"><ele>366.5</ele><time>2026-04-26T09:18:59Z</time></trkpt><trkpt lat="40.05678435614897" lon="15.45676733719619"><ele>371.25</ele><time>2026-04-26T09:19:00Z</time></trkpt><trkpt lat="40.05681989926348" lon="15.456618688525552"><ele>376.0</ele><time>2026-04-26T09:19:01Z</time></trkpt><trkpt lat="40.05683272804348" lon="15.456466529674387"><ele>376.0</ele><time>2026-04-26T09:19:02Z</time></trkpt><trkpt lat="40.05683178897695" lon="15.4563237740728"><ele>376.0</ele><time>2026-04-26T09:19:03Z</time></trkpt><trkpt lat="40.05682695564001" lon="15.456202660413952"><ele>376.0</ele><time>2026-04-26T09:19:04Z</time></trkpt><trkpt lat="40.05681566232364" lon="15.456093541599868"><ele>376.0</ele><time>2026-04-26T09:19:05Z</time></trkpt><trkpt lat="40.05677585954979" lon="15.456002149234042"><ele>376.0</ele><time>2026-04-26T09:19:06Z</time></trkpt><trkpt lat="40.05669209187948" lon="15.455950981268186"><ele>375.8333333333333</ele><time>2026-04-26T09:19:07Z</time></trkpt><trkpt lat="40.05660250611243" lon="15.455959497627603"><ele>375.66666666666663</ele><time>2026-04-26T09:19:08Z</time></trkpt><trkpt lat="40.056520583531196" lon="15.456010969920898"><ele>375.5</ele><time>2026-04-26T09:19:09Z</time></trkpt><trkpt lat="40.05645491049957" lon="15.45608467397325"><ele>375.3333333333333</ele><time>2026-04-26T09:19:10Z</time></trkpt><trkpt lat="40.05638777264651" lon="15.456126942323717"><ele>375.1666666666667</ele><time>2026-04-26T09:19:11Z</time></trkpt><trkpt lat="40.05629940839792" lon="15.456195369585387"><ele>375.0</ele><time>2026-04-26T09:19:13Z</time></trkpt><trkpt lat="40.05623448266876" lon="15.456051523367458"><ele>375.0</ele><time>2026-04-26T09:19:15Z</time></trkpt><trkpt lat="40.05625834241908" lon="15.455922064912519"><ele>375.0</ele><time>2026-04-26T09:19:16Z</time></trkpt><trkpt lat="40.05629658767622" lon="15.455821464800406"><ele>375.0</ele><time>2026-04-26T09:19:17Z</time></trkpt><trkpt lat="40.056351619300614" lon="15.455718509475142"><ele>375.0</ele><time>2026-04-26T09:19:18Z</time></trkpt><trkpt lat="40.056412879600956" lon="15.455614817003555"><ele>375.0</ele><time>2026-04-26T09:19:19Z</time></trkpt><trkpt lat="40.05645928908548" lon="15.455514904966483"><ele>376.0</ele><time>2026-04-26T09:19:20Z</time></trkpt><trkpt lat="40.05649616610557" lon="15.455421213321422"><ele>377.0</ele><time>2026-04-26T09:19:21Z</time></trkpt><trkpt lat="40.05652866271577" lon="15.455333018107682"><ele>378.0</ele><time>2026-04-26T09:19:22Z</time></trkpt><trkpt lat="40.056561655857344" lon="15.455244147510738"><ele>379.0</ele><time>2026-04-26T09:19:23Z</time></trkpt><trkpt lat="40.056603917050076" lon="15.45514009743202"><ele>380.0</ele><time>2026-04-26T09:19:24Z</time></trkpt><trkpt lat="40.056648381464704" lon="15.455036920194946"><ele>381.0</ele><time>2026-04-26T09:19:25Z</time></trkpt><trkpt lat="40.05668640197157" lon="15.4549244860882"><ele>383.20000000000005</ele><time>2026-04-26T09:19:26Z</time></trkpt><trkpt lat="40.056716222841914" lon="15.454807980851683"><ele>385.40000000000003</ele><time>2026-04-26T09:19:27Z</time></trkpt><trkpt lat="40.05673497745923" lon="15.454681706906484"><ele>387.6</ele><time>2026-04-26T09:19:28Z</time></trkpt><trkpt lat="40.056748063369255" lon="15.454537043521078"><ele>389.8</ele><time>2026-04-26T09:19:29Z</time></trkpt><trkpt lat="40.056763260024255" lon="15.454376267235093"><ele>392.0</ele><time>2026-04-26T09:19:30Z</time></trkpt><trkpt lat="40.05675620750685" lon="15.454224341841059"><ele>391.40000000000003</ele><time>2026-04-26T09:19:31Z</time></trkpt><trkpt lat="40.056724343254416" lon="15.454084991097767"><ele>390.8</ele><time>2026-04-26T09:19:32Z</time></trkpt><trkpt lat="40.05667943723829" lon="15.453952661455068"><ele>390.2</ele><time>2026-04-26T09:19:33Z</time></trkpt><trkpt lat="40.0566165322505" lon="15.453833740507182"><ele>389.6</ele><time>2026-04-26T09:19:34Z</time></trkpt><trkpt lat="40.05653102360907" lon="15.453739523273988"><ele>389.0</ele><time>2026-04-26T09:19:35Z</time></trkpt><trkpt lat="40.05643415782047" lon="15.453662921015837"><ele>391.5</ele><time>2026-04-26T09:19:36Z</time></trkpt><trkpt lat="40.056338923702974" lon="15.45358465101239"><ele>394.0</ele><time>2026-04-26T09:19:37Z</time></trkpt><trkpt lat="40.05624808497354" lon="15.453496308995591"><ele>396.5</ele><time>2026-04-26T09:19:38Z</time></trkpt><trkpt lat="40.05615815446398" lon="15.453396244511046"><ele>399.0</ele><time>2026-04-26T09:19:39Z</time></trkpt><trkpt lat="40.05606759084386" lon="15.453278177190597"><ele>399.0</ele><time>2026-04-26T09:19:40Z</time></trkpt><trkpt lat="40.05597644231989" lon="15.453150118751282"><ele>399.0</ele><time>2026-04-26T09:19:41Z</time></trkpt><trkpt lat="40.05588032017305" lon="15.453000261659426"><ele>399.0</ele><time>2026-04-26T09:19:42Z</time></trkpt><trkpt lat="40.055789210338105" lon="15.45285998233862"><ele>399.0</ele><time>2026-04-26T09:19:43Z</time></trkpt><trkpt lat="40.05569686740328" lon="15.452722533356622"><ele>400.75</ele><time>2026-04-26T09:19:44Z</time></trkpt><trkpt lat="40.055602695855086" lon="15.452583710559672"><ele>402.5</ele><time>2026-04-26T09:19:45Z</time></trkpt><trkpt lat="40.05550446317992" lon="15.452452151691878"><ele>404.25</ele><time>2026-04-26T09:19:46Z</time></trkpt><trkpt lat="40.055408478947555" lon="15.452328303044188"><ele>406.0</ele><time>2026-04-26T09:19:47Z</time></trkpt><trkpt lat="40.055309937725234" lon="15.452220810130894"><ele>406.0</ele><time>2026-04-26T09:19:48Z</time></trkpt><trkpt lat="40.05520399210718" lon="15.452136599383117"><ele>406.0</ele><time>2026-04-26T09:19:49Z</time></trkpt><trkpt lat="40.05509792070393" lon="15.452057034954445"><ele>406.0</ele><time>2026-04-26T09:19:50Z</time></trkpt><trkpt lat="40.05499153396868" lon="15.451991891441374"><ele>406.0</ele><time>2026-04-26T09:19:51Z</time></trkpt><trkpt lat="40.05489490220281" lon="15.451943431554524"><ele>408.0</ele><time>2026-04-26T09:19:52Z</time></trkpt><trkpt lat="40.05479669643857" lon="15.451921090475532"><ele>410.0</ele><time>2026-04-26T09:19:53Z</time></trkpt><trkpt lat="40.054705342119036" lon="15.451863627974056"><ele>412.0</ele><time>2026-04-26T09:19:54Z</time></trkpt><trkpt lat="40.054602427990105" lon="15.451806786566191"><ele>414.0</ele><time>2026-04-26T09:19:55Z</time></trkpt><trkpt lat="40.054499137845944" lon="15.451744247255853"><ele>416.0</ele><time>2026-04-26T09:19:56Z</time></trkpt><trkpt lat="40.054398598617695" lon="15.451679674405382"><ele>416.0</ele><time>2026-04-26T09:19:57Z</time></trkpt><trkpt lat="40.054298953739924" lon="15.45160339699608"><ele>416.0</ele><time>2026-04-26T09:19:58Z</time></trkpt><trkpt lat="40.05420132614913" lon="15.45153853087368"><ele>416.0</ele><time>2026-04-26T09:19:59Z</time></trkpt><trkpt lat="40.05410980085005" lon="15.451470928396063"><ele>416.0</ele><time>2026-04-26T09:20:00Z</time></trkpt><trkpt lat="40.05402004832656" lon="15.451411833292031"><ele>416.0</ele><time>2026-04-26T09:20:01Z</time></trkpt><trkpt lat="40.053939186523905" lon="15.451358277741884"><ele>415.99999999999994</ele><time>2026-04-26T09:20:02Z</time></trkpt><trkpt lat="40.053860353828135" lon="15.451306764714795"><ele>416.0</ele><time>2026-04-26T09:20:03Z</time></trkpt><trkpt lat="40.05378298074878" lon="15.451256091324668"><ele>416.0</ele><time>2026-04-26T09:20:04Z</time></trkpt><trkpt lat="40.05371275651843" lon="15.451198896614704"><ele>416.0</ele><time>2026-04-26T09:20:05Z</time></trkpt><trkpt lat="40.053631251650444" lon="15.451157498633725"><ele>415.99999999999994</ele><time>2026-04-26T09:20:06Z</time></trkpt><trkpt lat="40.053558977887285" lon="15.451103294281955"><ele>416.0</ele><time>2026-04-26T09:20:07Z</time></trkpt><trkpt lat="40.05348538342461" lon="15.451051321482838"><ele>416.8333333333333</ele><time>2026-04-26T09:20:08Z</time></trkpt><trkpt lat="40.05342493799845" lon="15.450978944319143"><ele>417.66666666666663</ele><time>2026-04-26T09:20:09Z</time></trkpt><trkpt lat="40.05338215326652" lon="15.450888576948834"><ele>418.5</ele><time>2026-04-26T09:20:10Z</time></trkpt><trkpt lat="40.05334954876278" lon="15.450797144779264"><ele>419.33333333333337</ele><time>2026-04-26T09:20:11Z</time></trkpt><trkpt lat="40.05332408143786" lon="15.450704219373693"><ele>420.1666666666667</ele><time>2026-04-26T09:20:12Z</time></trkpt><trkpt lat="40.05330751827503" lon="15.450612826934133"><ele>421.0</ele><time>2026-04-26T09:20:13Z</time></trkpt><trkpt lat="40.05328404408159" lon="15.450534349831397"><ele>423.20000000000005</ele><time>2026-04-26T09:20:14Z</time></trkpt><trkpt lat="40.05325485137419" lon="15.450429950555757"><ele>425.40000000000003</ele><time>2026-04-26T09:20:15Z</time></trkpt><trkpt lat="40.05323625283057" lon="15.450305368189067"><ele>427.6</ele><time>2026-04-26T09:20:16Z</time></trkpt><trkpt lat="40.053201170672665" lon="15.450188321664111"><ele>429.8</ele><time>2026-04-26T09:20:17Z</time></trkpt><trkpt lat="40.05316510932812" lon="15.450060067909055"><ele>432.0</ele><time>2026-04-26T09:20:18Z</time></trkpt><trkpt lat="40.053130543356545" lon="15.449934086834904"><ele>432.0</ele><time>2026-04-26T09:20:19Z</time></trkpt><trkpt lat="40.05310698179019" lon="15.449802763299752"><ele>432.0</ele><time>2026-04-26T09:20:20Z</time></trkpt><trkpt lat="40.05308173148524" lon="15.449674600780883"><ele>432.0</ele><time>2026-04-26T09:20:21Z</time></trkpt><trkpt lat="40.05308906127035" lon="15.449552681161334"><ele>432.0</ele><time>2026-04-26T09:20:22Z</time></trkpt><trkpt lat="40.05306747309817" lon="15.449459110234788"><ele>432.0</ele><time>2026-04-26T09:20:23Z</time></trkpt><trkpt lat="40.05303307114398" lon="15.449370310534762"><ele>432.0</ele><time>2026-04-26T09:20:24Z</time></trkpt><trkpt lat="40.05299373003852" lon="15.449282791413014"><ele>434.3333333333333</ele><time>2026-04-26T09:20:25Z</time></trkpt><trkpt lat="40.05292442591861" lon="15.449203514682416"><ele>436.66666666666663</ele><time>2026-04-26T09:20:26Z</time></trkpt><trkpt lat="40.052842279320245" lon="15.449148573418318"><ele>439.0</ele><time>2026-04-26T09:20:27Z</time></trkpt><trkpt lat="40.052758592438096" lon="15.449122174721358"><ele>441.3333333333333</ele><time>2026-04-26T09:20:28Z</time></trkpt><trkpt lat="40.05267564478318" lon="15.449127835281441"><ele>443.66666666666663</ele><time>2026-04-26T09:20:29Z</time></trkpt><trkpt lat="40.05259420810628" lon="15.449166911651123"><ele>446.0</ele><time>2026-04-26T09:20:30Z</time></trkpt><trkpt lat="40.05251418533893" lon="15.4492506217052"><ele>446.8</ele><time>2026-04-26T09:20:31Z</time></trkpt><trkpt lat="40.052432805138935" lon="15.449357552549627"><ele>447.6</ele><time>2026-04-26T09:20:32Z</time></trkpt><trkpt lat="40.05236103835201" lon="15.449486900279252"><ele>448.4</ele><time>2026-04-26T09:20:33Z</time></trkpt><trkpt lat="40.0523018620975" lon="15.449614010566998"><ele>449.2</ele><time>2026-04-26T09:20:34Z</time></trkpt><trkpt lat="40.05224138659047" lon="15.44971355096002"><ele>450.0</ele><time>2026-04-26T09:20:35Z</time></trkpt><trkpt lat="40.05217972140724" lon="15.44978550629428"><ele>450.0</ele><time>2026-04-26T09:20:36Z</time></trkpt><trkpt lat="40.05212395164676" lon="15.44984637384409"><ele>450.0</ele><time>2026-04-26T09:20:37Z</time></trkpt><trkpt lat="40.052059266867374" lon="15.449900032322958"><ele>450.0</ele><time>2026-04-26T09:20:38Z</time></trkpt><trkpt lat="40.05196943640695" lon="15.449932598982905"><ele>450.0</ele><time>2026-04-26T09:20:39Z</time></trkpt><trkpt lat="40.05188313020966" lon="15.449972941890547"><ele>450.0</ele><time>2026-04-26T09:20:40Z</time></trkpt><trkpt lat="40.05179034850304" lon="15.450013167747269"><ele>450.0</ele><time>2026-04-26T09:20:41Z</time></trkpt><trkpt lat="40.05169149094441" lon="15.450055535304893"><ele>452.0</ele><time>2026-04-26T09:20:42Z</time></trkpt><trkpt lat="40.051604297358026" lon="15.45009181932141"><ele>454.0</ele><time>2026-04-26T09:20:43Z</time></trkpt><trkpt lat="40.05153114333192" lon="15.450121791202838"><ele>456.0</ele><time>2026-04-26T09:20:44Z</time></trkpt><trkpt lat="40.05146603193484" lon="15.450148467853516"><ele>458.0</ele><time>2026-04-26T09:20:45Z</time></trkpt><trkpt lat="40.05140507738076" lon="15.4501734414741"><ele>460.0</ele><time>2026-04-26T09:20:46Z</time></trkpt><trkpt lat="40.051311821567126" lon="15.450233821832203"><ele>462.0</ele><time>2026-04-26T09:20:48Z</time></trkpt><trkpt lat="40.051193368308176" lon="15.450253843364305"><ele>462.0</ele><time>2026-04-26T09:20:50Z</time></trkpt><trkpt lat="40.05108248705837" lon="15.450282662338553"><ele>462.0</ele><time>2026-04-26T09:20:52Z</time></trkpt><trkpt lat="40.0509564141513" lon="15.450307385534838"><ele>462.0</ele><time>2026-04-26T09:20:54Z</time></trkpt><trkpt lat="40.05084875335957" lon="15.450328360026631"><ele>462.0</ele><time>2026-04-26T09:20:56Z</time></trkpt><trkpt lat="40.050742995284054" lon="15.450363530729371"><ele>461.8</ele><time>2026-04-26T09:20:58Z</time></trkpt><trkpt lat="40.05059123463612" lon="15.450389129145098"><ele>461.6</ele><time>2026-04-26T09:21:00Z</time></trkpt><trkpt lat="40.0505137402273" lon="15.45041877290365"><ele>461.40000000000003</ele><time>2026-04-26T09:21:01Z</time></trkpt><trkpt lat="40.050439058261844" lon="15.450430709232068"><ele>461.20000000000005</ele><time>2026-04-26T09:21:02Z</time></trkpt><trkpt lat="40.050358106350544" lon="15.450456935145498"><ele>461.0</ele><time>2026-04-26T09:21:03Z</time></trkpt><trkpt lat="40.05028357574377" lon="15.45047978476491"><ele>460.99999999999994</ele><time>2026-04-26T09:21:04Z</time></trkpt><trkpt lat="40.05021227913294" lon="15.450539205561709"><ele>461.0</ele><time>2026-04-26T09:21:05Z</time></trkpt><trkpt lat="40.05015882498156" lon="15.450641329911765"><ele>461.0</ele><time>2026-04-26T09:21:06Z</time></trkpt><trkpt lat="40.05011053852744" lon="15.45074395959105"><ele>461.0</ele><time>2026-04-26T09:21:07Z</time></trkpt><trkpt lat="40.05008304231672" lon="15.4508543214173"><ele>460.99999999999994</ele><time>2026-04-26T09:21:08Z</time></trkpt><trkpt lat="40.0500691000987" lon="15.450960542846587"><ele>461.0</ele><time>2026-04-26T09:21:09Z</time></trkpt><trkpt lat="40.050062384506504" lon="15.45105897531036"><ele>461.0</ele><time>2026-04-26T09:21:10Z</time></trkpt><trkpt lat="40.050056118803596" lon="15.451157772002537"><ele>461.0</ele><time>2026-04-26T09:21:11Z</time></trkpt><trkpt lat="40.05005162315544" lon="15.451250481897263"><ele>461.0</ele><time>2026-04-26T09:21:12Z</time></trkpt><trkpt lat="40.05004684089885" lon="15.451404274967187"><ele>461.0</ele><time>2026-04-26T09:21:14Z</time></trkpt><trkpt lat="40.05000245020826" lon="15.451552800752694"><ele>461.0</ele><time>2026-04-26T09:21:16Z</time></trkpt><trkpt lat="40.04994206693478" lon="15.45158601130846"><ele>462.66666666666663</ele><time>2026-04-26T09:21:17Z</time></trkpt><trkpt lat="40.04987998243167" lon="15.45160170819848"><ele>464.3333333333333</ele><time>2026-04-26T09:21:18Z</time></trkpt><trkpt lat="40.04981541770058" lon="15.451601024945692"><ele>466.0</ele><time>2026-04-26T09:21:19Z</time></trkpt><trkpt lat="40.049734575685186" lon="15.451486800771141"><ele>467.66666666666663</ele><time>2026-04-26T09:21:21Z</time></trkpt><trkpt lat="40.04971923629788" lon="15.45140127817463"><ele>469.3333333333333</ele><time>2026-04-26T09:21:22Z</time></trkpt><trkpt lat="40.049721481048664" lon="15.451280110439056"><ele>471.0</ele><time>2026-04-26T09:21:23Z</time></trkpt><trkpt lat="40.049742270851816" lon="15.451164745672143"><ele>472.4</ele><time>2026-04-26T09:21:24Z</time></trkpt><trkpt lat="40.04974878444834" lon="15.451043627902418"><ele>473.8</ele><time>2026-04-26T09:21:25Z</time></trkpt><trkpt lat="40.04974986439045" lon="15.450891211701057"><ele>475.19999999999993</ele><time>2026-04-26T09:21:26Z</time></trkpt><trkpt lat="40.04975978976814" lon="15.450753863621776"><ele>476.59999999999997</ele><time>2026-04-26T09:21:27Z</time></trkpt><trkpt lat="40.04975617620142" lon="15.450613431013004"><ele>478.0</ele><time>2026-04-26T09:21:28Z</time></trkpt><trkpt lat="40.049737955365934" lon="15.450500990174257"><ele>479.59999999999997</ele><time>2026-04-26T09:21:29Z</time></trkpt><trkpt lat="40.04971493513538" lon="15.450408444648552"><ele>481.19999999999993</ele><time>2026-04-26T09:21:30Z</time></trkpt><trkpt lat="40.04969765365265" lon="15.450300545327698"><ele>482.8</ele><time>2026-04-26T09:21:31Z</time></trkpt><trkpt lat="40.049692900834714" lon="15.450168464964735"><ele>484.4</ele><time>2026-04-26T09:21:32Z</time></trkpt><trkpt lat="40.04970739041631" lon="15.450032099488375"><ele>486.0</ele><time>2026-04-26T09:21:33Z</time></trkpt><trkpt lat="40.049740929787845" lon="15.449908411828588"><ele>486.0</ele><time>2026-04-26T09:21:34Z</time></trkpt><trkpt lat="40.049805334790285" lon="15.44981122722365"><ele>486.0</ele><time>2026-04-26T09:21:35Z</time></trkpt><trkpt lat="40.049864559942705" lon="15.449730209680476"><ele>486.0</ele><time>2026-04-26T09:21:36Z</time></trkpt><trkpt lat="40.04992349946026" lon="15.449670824124404"><ele>486.0</ele><time>2026-04-26T09:21:37Z</time></trkpt><trkpt lat="40.049999437471925" lon="15.449616589443476"><ele>486.0</ele><time>2026-04-26T09:21:38Z</time></trkpt><trkpt lat="40.05007973476523" lon="15.449583458493853"><ele>486.0</ele><time>2026-04-26T09:21:39Z</time></trkpt><trkpt lat="40.05015657914106" lon="15.449563974577147"><ele>486.8</ele><time>2026-04-26T09:21:40Z</time></trkpt><trkpt lat="40.05025062785962" lon="15.449538785981714"><ele>487.6</ele><time>2026-04-26T09:21:41Z</time></trkpt><trkpt lat="40.05033570030248" lon="15.449504583805854"><ele>488.4</ele><time>2026-04-26T09:21:42Z</time></trkpt><trkpt lat="40.050416357040845" lon="15.449452244870374"><ele>489.2</ele><time>2026-04-26T09:21:43Z</time></trkpt><trkpt lat="40.05048686507808" lon="15.449384960952996"><ele>490.0</ele><time>2026-04-26T09:21:44Z</time></trkpt><trkpt lat="40.050549043192916" lon="15.449300421045862"><ele>490.0</ele><time>2026-04-26T09:21:45Z</time></trkpt><trkpt lat="40.05060977689152" lon="15.449201318462466"><ele>490.0</ele><time>2026-04-26T09:21:46Z</time></trkpt><trkpt lat="40.05065691619395" lon="15.449058620423695"><ele>490.0</ele><time>2026-04-26T09:21:47Z</time></trkpt><trkpt lat="40.05068091012042" lon="15.44891614327617"><ele>490.0</ele><time>2026-04-26T09:21:48Z</time></trkpt><trkpt lat="40.0506880134789" lon="15.448772271808496"><ele>490.0</ele><time>2026-04-26T09:21:49Z</time></trkpt><trkpt lat="40.05069343700772" lon="15.44863803998612"><ele>489.0</ele><time>2026-04-26T09:21:50Z</time></trkpt><trkpt lat="40.05070808628606" lon="15.448506638089471"><ele>488.0</ele><time>2026-04-26T09:21:51Z</time></trkpt><trkpt lat="40.050752010018655" lon="15.448353959983244"><ele>487.0</ele><time>2026-04-26T09:21:52Z</time></trkpt><trkpt lat="40.050829080043165" lon="15.448220747019242"><ele>486.0</ele><time>2026-04-26T09:21:53Z</time></trkpt><trkpt lat="40.05091300536979" lon="15.448124760055808"><ele>486.0</ele><time>2026-04-26T09:21:54Z</time></trkpt><trkpt lat="40.05101494029147" lon="15.448027902782588"><ele>486.0</ele><time>2026-04-26T09:21:55Z</time></trkpt><trkpt lat="40.05112285527811" lon="15.447923176333152"><ele>486.0</ele><time>2026-04-26T09:21:56Z</time></trkpt><trkpt lat="40.05122649533908" lon="15.447833024597617"><ele>486.0</ele><time>2026-04-26T09:21:57Z</time></trkpt><trkpt lat="40.05132626878279" lon="15.447747076683479"><ele>486.0</ele><time>2026-04-26T09:21:58Z</time></trkpt><trkpt lat="40.051418443342506" lon="15.4476711931507"><ele>486.0</ele><time>2026-04-26T09:21:59Z</time></trkpt><trkpt lat="40.05149496935441" lon="15.447599384737101"><ele>486.0</ele><time>2026-04-26T09:22:00Z</time></trkpt><trkpt lat="40.05155178761435" lon="15.447521974059606"><ele>486.0</ele><time>2026-04-26T09:22:01Z</time></trkpt><trkpt lat="40.05159383381661" lon="15.447455492493683"><ele>486.0</ele><time>2026-04-26T09:22:02Z</time></trkpt><trkpt lat="40.0516333928051" lon="15.447365031812812"><ele>486.0</ele><time>2026-04-26T09:22:03Z</time></trkpt><trkpt lat="40.05165657183547" lon="15.44726708508803"><ele>486.0</ele><time>2026-04-26T09:22:04Z</time></trkpt><trkpt lat="40.051665511840504" lon="15.44715661696617"><ele>486.0</ele><time>2026-04-26T09:22:05Z</time></trkpt><trkpt lat="40.05167325761513" lon="15.447027163945956"><ele>486.0</ele><time>2026-04-26T09:22:06Z</time></trkpt><trkpt lat="40.051671736003186" lon="15.446878296122899"><ele>486.0</ele><time>2026-04-26T09:22:07Z</time></trkpt><trkpt lat="40.05166638210461" lon="15.446735001063608"><ele>486.0</ele><time>2026-04-26T09:22:08Z</time></trkpt><trkpt lat="40.05166113339499" lon="15.446595452964393"><ele>487.1666666666667</ele><time>2026-04-26T09:22:09Z</time></trkpt><trkpt lat="40.05162381914983" lon="15.4464641713059"><ele>488.33333333333337</ele><time>2026-04-26T09:22:10Z</time></trkpt><trkpt lat="40.05157600945416" lon="15.446360054345558"><ele>489.5</ele><time>2026-04-26T09:22:11Z</time></trkpt><trkpt lat="40.05153229319927" lon="15.446269106399674"><ele>490.6666666666667</ele><time>2026-04-26T09:22:12Z</time></trkpt><trkpt lat="40.051496849627135" lon="15.446191848430631"><ele>491.83333333333337</ele><time>2026-04-26T09:22:13Z</time></trkpt><trkpt lat="40.051462027227075" lon="15.446114453474106"><ele>493.0</ele><time>2026-04-26T09:22:14Z</time></trkpt><trkpt lat="40.05140955671322" lon="15.446008186294712"><ele>494.59999999999997</ele><time>2026-04-26T09:22:16Z</time></trkpt><trkpt lat="40.0513502363307" lon="15.445895640272894"><ele>496.19999999999993</ele><time>2026-04-26T09:22:18Z</time></trkpt><trkpt lat="40.051316466600916" lon="15.4458127585612"><ele>497.8</ele><time>2026-04-26T09:22:19Z</time></trkpt><trkpt lat="40.05127410432661" lon="15.44572475528516"><ele>499.4</ele><time>2026-04-26T09:22:20Z</time></trkpt><trkpt lat="40.05115595454765" lon="15.445698485920003"><ele>501.0</ele><time>2026-04-26T09:22:21Z</time></trkpt><trkpt lat="40.0511104234134" lon="15.445597876955855"><ele>501.0</ele><time>2026-04-26T09:22:22Z</time></trkpt><trkpt lat="40.05102618480544" lon="15.445521619561866"><ele>501.0</ele><time>2026-04-26T09:22:23Z</time></trkpt><trkpt lat="40.05092661633608" lon="15.445431497389116"><ele>501.0</ele><time>2026-04-26T09:22:24Z</time></trkpt><trkpt lat="40.05079188744935" lon="15.445353546006814"><ele>501.0</ele><time>2026-04-26T09:22:25Z</time></trkpt><trkpt lat="40.05066926232235" lon="15.445292492593877"><ele>499.25</ele><time>2026-04-26T09:22:26Z</time></trkpt><trkpt lat="40.05055188666196" lon="15.445244498344092"><ele>497.5</ele><time>2026-04-26T09:22:27Z</time></trkpt><trkpt lat="40.050425759118355" lon="15.445212150653322"><ele>495.75</ele><time>2026-04-26T09:22:28Z</time></trkpt><trkpt lat="40.0502867549143" lon="15.445199353393066"><ele>494.0</ele><time>2026-04-26T09:22:29Z</time></trkpt><trkpt lat="40.05014074973932" lon="15.445197756329444"><ele>494.0</ele><time>2026-04-26T09:22:30Z</time></trkpt><trkpt lat="40.05000960501757" lon="15.445197146527224"><ele>494.0</ele><time>2026-04-26T09:22:31Z</time></trkpt><trkpt lat="40.049894867669664" lon="15.445156816301774"><ele>494.0</ele><time>2026-04-26T09:22:32Z</time></trkpt><trkpt lat="40.04980145418676" lon="15.445152192362704"><ele>494.0</ele><time>2026-04-26T09:22:33Z</time></trkpt><trkpt lat="40.04972711906744" lon="15.445150121426128"><ele>494.0</ele><time>2026-04-26T09:22:34Z</time></trkpt><trkpt lat="40.049662548436544" lon="15.44515697800955"><ele>494.0</ele><time>2026-04-26T09:22:35Z</time></trkpt><trkpt lat="40.049569574437285" lon="15.445240014686911"><ele>494.0</ele><time>2026-04-26T09:22:37Z</time></trkpt><trkpt lat="40.049525094806405" lon="15.44533967959633"><ele>494.0</ele><time>2026-04-26T09:22:39Z</time></trkpt><trkpt lat="40.04959815309834" lon="15.44543944425189"><ele>494.0</ele><time>2026-04-26T09:22:40Z</time></trkpt><trkpt lat="40.04967099971718" lon="15.44549007738738"><ele>494.0</ele><time>2026-04-26T09:22:41Z</time></trkpt><trkpt lat="40.049749081544775" lon="15.445550239479012"><ele>497.6</ele><time>2026-04-26T09:22:42Z</time></trkpt><trkpt lat="40.04982636742814" lon="15.445623224525031"><ele>501.2</ele><time>2026-04-26T09:22:43Z</time></trkpt><trkpt lat="40.049898784417806" lon="15.445703464119658"><ele>504.80000000000007</ele><time>2026-04-26T09:22:44Z</time></trkpt><trkpt lat="40.049972688130715" lon="15.445798869037741"><ele>508.40000000000003</ele><time>2026-04-26T09:22:45Z</time></trkpt><trkpt lat="40.050045506081005" lon="15.445904364213225"><ele>512.0</ele><time>2026-04-26T09:22:46Z</time></trkpt><trkpt lat="40.050131234140686" lon="15.44602173869322"><ele>512.0</ele><time>2026-04-26T09:22:47Z</time></trkpt><trkpt lat="40.05021196625938" lon="15.446142800202555"><ele>512.0</ele><time>2026-04-26T09:22:48Z</time></trkpt><trkpt lat="40.05029043109436" lon="15.44625364418691"><ele>512.0</ele><time>2026-04-26T09:22:49Z</time></trkpt><trkpt lat="40.05035129879297" lon="15.446372582541837"><ele>512.0</ele><time>2026-04-26T09:22:50Z</time></trkpt><trkpt lat="40.05042143791891" lon="15.446472957827886"><ele>514.6666666666666</ele><time>2026-04-26T09:22:51Z</time></trkpt><trkpt lat="40.0504821872536" lon="15.44656347579991"><ele>517.3333333333333</ele><time>2026-04-26T09:22:52Z</time></trkpt><trkpt lat="40.05053531936793" lon="15.446646802950564"><ele>520.0</ele><time>2026-04-26T09:22:53Z</time></trkpt><trkpt lat="40.05058108351131" lon="15.446728373389595"><ele>522.6666666666666</ele><time>2026-04-26T09:22:54Z</time></trkpt><trkpt lat="40.050620330496706" lon="15.446810321682035"><ele>525.3333333333334</ele><time>2026-04-26T09:22:55Z</time></trkpt><trkpt lat="40.05065258122672" lon="15.446886243792662"><ele>528.0</ele><time>2026-04-26T09:22:56Z</time></trkpt><trkpt lat="40.05068768492873" lon="15.446981198925897"><ele>528.0</ele><time>2026-04-26T09:22:57Z</time></trkpt><trkpt lat="40.050727436857244" lon="15.447105135548668"><ele>528.0</ele><time>2026-04-26T09:22:58Z</time></trkpt><trkpt lat="40.05076936887208" lon="15.44721589841649"><ele>528.0</ele><time>2026-04-26T09:22:59Z</time></trkpt><trkpt lat="40.050780591511966" lon="15.447311484909958"><ele>528.0</ele><time>2026-04-26T09:23:00Z</time></trkpt><trkpt lat="40.05078446895691" lon="15.447465161468227"><ele>528.0</ele><time>2026-04-26T09:23:02Z</time></trkpt><trkpt lat="40.05076510094638" lon="15.44756283920145"><ele>529.3333333333334</ele><time>2026-04-26T09:23:04Z</time></trkpt><trkpt lat="40.05073431503241" lon="15.447651810260066"><ele>530.6666666666666</ele><time>2026-04-26T09:23:07Z</time></trkpt><trkpt lat="40.050667909364655" lon="15.44775126426789"><ele>532.0</ele><time>2026-04-26T09:23:33Z</time></trkpt><trkpt lat="40.05058611292996" lon="15.447841432558151"><ele>533.3333333333333</ele><time>2026-04-26T09:23:35Z</time></trkpt><trkpt lat="40.05052692567159" lon="15.447890384006046"><ele>534.6666666666666</ele><time>2026-04-26T09:23:36Z</time></trkpt><trkpt lat="40.05044585087148" lon="15.447942186824603"><ele>536.0</ele><time>2026-04-26T09:23:37Z</time></trkpt><trkpt lat="40.05036658303819" lon="15.447979977107531"><ele>535.8333333333333</ele><time>2026-04-26T09:23:38Z</time></trkpt><trkpt lat="40.05028979192083" lon="15.448007390840466"><ele>535.6666666666666</ele><time>2026-04-26T09:23:39Z</time></trkpt><trkpt lat="40.050206335163374" lon="15.448028761172871"><ele>535.5</ele><time>2026-04-26T09:23:40Z</time></trkpt><trkpt lat="40.05011484764673" lon="15.448042503462919"><ele>535.3333333333334</ele><time>2026-04-26T09:23:41Z</time></trkpt><trkpt lat="40.0500225296848" lon="15.448048436045134"><ele>535.1666666666667</ele><time>2026-04-26T09:23:42Z</time></trkpt><trkpt lat="40.049935666135205" lon="15.44805370240388"><ele>535.0</ele><time>2026-04-26T09:23:43Z</time></trkpt><trkpt lat="40.049853267296655" lon="15.448065834665996"><ele>535.0</ele><time>2026-04-26T09:23:44Z</time></trkpt><trkpt lat="40.04978194502754" lon="15.44808306848522"><ele>535.0</ele><time>2026-04-26T09:23:45Z</time></trkpt><trkpt lat="40.04971258346486" lon="15.448112899820364"><ele>535.0</ele><time>2026-04-26T09:23:46Z</time></trkpt><trkpt lat="40.049640987940904" lon="15.448163761045832"><ele>535.0</ele><time>2026-04-26T09:23:47Z</time></trkpt><trkpt lat="40.04957097696828" lon="15.448228048141361"><ele>535.0</ele><time>2026-04-26T09:23:48Z</time></trkpt><trkpt lat="40.049500622287944" lon="15.448314451915627"><ele>535.0</ele><time>2026-04-26T09:23:49Z</time></trkpt><trkpt lat="40.04942971492414" lon="15.44844857790082"><ele>535.0</ele><time>2026-04-26T09:23:50Z</time></trkpt><trkpt lat="40.0493556366812" lon="15.448586985085182"><ele>535.0</ele><time>2026-04-26T09:23:51Z</time></trkpt><trkpt lat="40.049288060531474" lon="15.448700197559823"><ele>535.0</ele><time>2026-04-26T09:23:52Z</time></trkpt><trkpt lat="40.04922487870696" lon="15.448798977040505"><ele>535.0</ele><time>2026-04-26T09:23:53Z</time></trkpt><trkpt lat="40.04914989219961" lon="15.448892190950938"><ele>535.0</ele><time>2026-04-26T09:23:54Z</time></trkpt><trkpt lat="40.04906729448711" lon="15.448977924867714"><ele>534.5</ele><time>2026-04-26T09:23:55Z</time></trkpt><trkpt lat="40.048978335233784" lon="15.449062829135212"><ele>534.0</ele><time>2026-04-26T09:23:56Z</time></trkpt><trkpt lat="40.0488805263156" lon="15.449151383406498"><ele>533.5</ele><time>2026-04-26T09:23:57Z</time></trkpt><trkpt lat="40.04878185291559" lon="15.449236245821181"><ele>533.0</ele><time>2026-04-26T09:23:58Z</time></trkpt><trkpt lat="40.048693310507495" lon="15.449323813043963"><ele>533.0</ele><time>2026-04-26T09:23:59Z</time></trkpt><trkpt lat="40.04862249656709" lon="15.449416082694682"><ele>533.0</ele><time>2026-04-26T09:24:00Z</time></trkpt><trkpt lat="40.04855972629235" lon="15.449524611189995"><ele>533.0</ele><time>2026-04-26T09:24:01Z</time></trkpt><trkpt lat="40.048524060956446" lon="15.449652166431758"><ele>533.0</ele><time>2026-04-26T09:24:02Z</time></trkpt><trkpt lat="40.04848700815706" lon="15.449764266435341"><ele>533.0</ele><time>2026-04-26T09:24:03Z</time></trkpt><trkpt lat="40.04846974889338" lon="15.44986694821257"><ele>529.0</ele><time>2026-04-26T09:24:04Z</time></trkpt><trkpt lat="40.04846405408289" lon="15.449957874799464"><ele>525.0</ele><time>2026-04-26T09:24:05Z</time></trkpt><trkpt lat="40.04847896715664" lon="15.450056594085721"><ele>521.0</ele><time>2026-04-26T09:24:06Z</time></trkpt><trkpt lat="40.048504933007415" lon="15.450145206290475"><ele>517.0</ele><time>2026-04-26T09:24:07Z</time></trkpt><trkpt lat="40.04851958842048" lon="15.450257108284214"><ele>513.0</ele><time>2026-04-26T09:24:08Z</time></trkpt><trkpt lat="40.048514594896204" lon="15.450360750296696"><ele>509.0</ele><time>2026-04-26T09:24:09Z</time></trkpt><trkpt lat="40.04848988388491" lon="15.45046237970341"><ele>507.99999999999994</ele><time>2026-04-26T09:24:10Z</time></trkpt><trkpt lat="40.04844782576303" lon="15.450553658183367"><ele>507.0</ele><time>2026-04-26T09:24:11Z</time></trkpt><trkpt lat="40.048396212121695" lon="15.450646778089892"><ele>506.0</ele><time>2026-04-26T09:24:12Z</time></trkpt><trkpt lat="40.04833875598709" lon="15.450751863315947"><ele>505.0</ele><time>2026-04-26T09:24:13Z</time></trkpt><trkpt lat="40.04829176326466" lon="15.450852603875376"><ele>503.99999999999994</ele><time>2026-04-26T09:24:14Z</time></trkpt><trkpt lat="40.048261960568524" lon="15.450952373452013"><ele>503.0</ele><time>2026-04-26T09:24:15Z</time></trkpt><trkpt lat="40.04822544370938" lon="15.451056538622382"><ele>510.79999999999995</ele><time>2026-04-26T09:24:16Z</time></trkpt><trkpt lat="40.04821056798791" lon="15.451177567342503"><ele>518.5999999999999</ele><time>2026-04-26T09:24:17Z</time></trkpt><trkpt lat="40.04820873999425" lon="15.45130673549768"><ele>526.4000000000001</ele><time>2026-04-26T09:24:18Z</time></trkpt><trkpt lat="40.04821744176812" lon="15.451432456570435"><ele>534.2</ele><time>2026-04-26T09:24:19Z</time></trkpt><trkpt lat="40.04819548352151" lon="15.45156329343967"><ele>542.0</ele><time>2026-04-26T09:24:20Z</time></trkpt><trkpt lat="40.04817401132899" lon="15.451706919375047"><ele>542.0</ele><time>2026-04-26T09:24:21Z</time></trkpt><trkpt lat="40.04813316412187" lon="15.451849175541184"><ele>542.0</ele><time>2026-04-26T09:24:22Z</time></trkpt><trkpt lat="40.04808798417879" lon="15.451987612105732"><ele>542.0</ele><time>2026-04-26T09:24:23Z</time></trkpt><trkpt lat="40.04803956273439" lon="15.452131729896196"><ele>542.0</ele><time>2026-04-26T09:24:24Z</time></trkpt><trkpt lat="40.04798224375711" lon="15.45228965838359"><ele>539.5</ele><time>2026-04-26T09:24:25Z</time></trkpt><trkpt lat="40.04792766908518" lon="15.452454218653747"><ele>537.0</ele><time>2026-04-26T09:24:26Z</time></trkpt><trkpt lat="40.04789501131396" lon="15.452602359970495"><ele>534.5</ele><time>2026-04-26T09:24:27Z</time></trkpt><trkpt lat="40.04784808614744" lon="15.452753908658062"><ele>532.0</ele><time>2026-04-26T09:24:28Z</time></trkpt><trkpt lat="40.04779713755552" lon="15.452911312256099"><ele>527.75</ele><time>2026-04-26T09:24:29Z</time></trkpt><trkpt lat="40.04774558494955" lon="15.45306842661048"><ele>523.5</ele><time>2026-04-26T09:24:30Z</time></trkpt><trkpt lat="40.04769963015408" lon="15.453216661497644"><ele>519.25</ele><time>2026-04-26T09:24:31Z</time></trkpt><trkpt lat="40.047651903660565" lon="15.453358387534015"><ele>515.0</ele><time>2026-04-26T09:24:32Z</time></trkpt><trkpt lat="40.04761737416182" lon="15.453514552402332"><ele>515.0</ele><time>2026-04-26T09:24:33Z</time></trkpt><trkpt lat="40.0475843602237" lon="15.453688077998052"><ele>515.0</ele><time>2026-04-26T09:24:34Z</time></trkpt><trkpt lat="40.04756505081389" lon="15.45386865821404"><ele>515.0</ele><time>2026-04-26T09:24:35Z</time></trkpt><trkpt lat="40.047547855386064" lon="15.4540496918545"><ele>515.0</ele><time>2026-04-26T09:24:36Z</time></trkpt><trkpt lat="40.04752951848336" lon="15.454216958120432"><ele>513.0</ele><time>2026-04-26T09:24:37Z</time></trkpt><trkpt lat="40.04752218242391" lon="15.454381469953328"><ele>511.0</ele><time>2026-04-26T09:24:38Z</time></trkpt><trkpt lat="40.047526362517225" lon="15.454544194819714"><ele>509.0</ele><time>2026-04-26T09:24:39Z</time></trkpt><trkpt lat="40.047520783769556" lon="15.454711654569389"><ele>507.0</ele><time>2026-04-26T09:24:40Z</time></trkpt><trkpt lat="40.0475104270073" lon="15.454878168101382"><ele>505.5</ele><time>2026-04-26T09:24:41Z</time></trkpt><trkpt lat="40.047494418573024" lon="15.455038837363807"><ele>504.0</ele><time>2026-04-26T09:24:42Z</time></trkpt><trkpt lat="40.04749823818475" lon="15.455201466928399"><ele>502.5</ele><time>2026-04-26T09:24:43Z</time></trkpt><trkpt lat="40.04749914076092" lon="15.455374000576162"><ele>501.0</ele><time>2026-04-26T09:24:44Z</time></trkpt><trkpt lat="40.04750414798895" lon="15.455548347052245"><ele>498.75</ele><time>2026-04-26T09:24:45Z</time></trkpt><trkpt lat="40.04751078255058" lon="15.455713103380011"><ele>496.5</ele><time>2026-04-26T09:24:46Z</time></trkpt><trkpt lat="40.04750635502648" lon="15.455864384150628"><ele>494.25</ele><time>2026-04-26T09:24:47Z</time></trkpt><trkpt lat="40.047499968496446" lon="15.456025702006661"><ele>492.0</ele><time>2026-04-26T09:24:48Z</time></trkpt><trkpt lat="40.047484041290346" lon="15.456179453485657"><ele>491.8</ele><time>2026-04-26T09:24:49Z</time></trkpt><trkpt lat="40.047472390818164" lon="15.456324821366884"><ele>491.6</ele><time>2026-04-26T09:24:50Z</time></trkpt><trkpt lat="40.04746978083521" lon="15.456458267910609"><ele>491.40000000000003</ele><time>2026-04-26T09:24:51Z</time></trkpt><trkpt lat="40.04747369032728" lon="15.456580359547575"><ele>491.20000000000005</ele><time>2026-04-26T09:24:52Z</time></trkpt><trkpt lat="40.04748000411069" lon="15.456698500821108"><ele>491.0</ele><time>2026-04-26T09:24:53Z</time></trkpt><trkpt lat="40.04749354711738" lon="15.456806417389757"><ele>491.0</ele><time>2026-04-26T09:24:54Z</time></trkpt><trkpt lat="40.04751503362871" lon="15.45692591177585"><ele>491.0</ele><time>2026-04-26T09:24:55Z</time></trkpt><trkpt lat="40.04753853788445" lon="15.457055633845773"><ele>491.0</ele><time>2026-04-26T09:24:56Z</time></trkpt><trkpt lat="40.04755663561556" lon="15.457189492836454"><ele>491.0</ele><time>2026-04-26T09:24:57Z</time></trkpt><trkpt lat="40.04756600052533" lon="15.457329365800724"><ele>491.0</ele><time>2026-04-26T09:24:58Z</time></trkpt><trkpt lat="40.0475813841247" lon="15.457469939235656"><ele>491.0</ele><time>2026-04-26T09:24:59Z</time></trkpt><trkpt lat="40.04761960759059" lon="15.457606523678887"><ele>491.0</ele><time>2026-04-26T09:25:00Z</time></trkpt><trkpt lat="40.04764686492274" lon="15.45773447097909"><ele>491.0</ele><time>2026-04-26T09:25:01Z</time></trkpt><trkpt lat="40.04767025308661" lon="15.45784959977964"><ele>491.0</ele><time>2026-04-26T09:25:02Z</time></trkpt><trkpt lat="40.04769742820827" lon="15.45794734326356"><ele>491.0</ele><time>2026-04-26T09:25:03Z</time></trkpt><trkpt lat="40.047713579983366" lon="15.458036823533623"><ele>491.0</ele><time>2026-04-26T09:25:04Z</time></trkpt><trkpt lat="40.047726874793824" lon="15.45818016326572"><ele>491.0</ele><time>2026-04-26T09:25:06Z</time></trkpt><trkpt lat="40.04769565294782" lon="15.458260696793335"><ele>491.0</ele><time>2026-04-26T09:25:07Z</time></trkpt><trkpt lat="40.04765694766339" lon="15.458432260697489"><ele>491.0</ele><time>2026-04-26T09:25:09Z</time></trkpt><trkpt lat="40.04763524382446" lon="15.458557217360235"><ele>491.0</ele><time>2026-04-26T09:25:10Z</time></trkpt><trkpt lat="40.047605587745934" lon="15.458684034673553"><ele>492.4</ele><time>2026-04-26T09:25:11Z</time></trkpt><trkpt lat="40.0475898623324" lon="15.458797609360682"><ele>493.8</ele><time>2026-04-26T09:25:12Z</time></trkpt><trkpt lat="40.04756030164401" lon="15.45891389639594"><ele>495.19999999999993</ele><time>2026-04-26T09:25:13Z</time></trkpt><trkpt lat="40.04750674254568" lon="15.459031735526606"><ele>496.59999999999997</ele><time>2026-04-26T09:25:14Z</time></trkpt><trkpt lat="40.047452295076525" lon="15.45913468679987"><ele>498.0</ele><time>2026-04-26T09:25:15Z</time></trkpt><trkpt lat="40.04739243848623" lon="15.459203422516858"><ele>498.0</ele><time>2026-04-26T09:25:16Z</time></trkpt><trkpt lat="40.04732655919465" lon="15.459240116278675"><ele>497.99999999999994</ele><time>2026-04-26T09:25:17Z</time></trkpt><trkpt lat="40.04725231015349" lon="15.459273762740601"><ele>497.99999999999994</ele><time>2026-04-26T09:25:18Z</time></trkpt><trkpt lat="40.047160785606344" lon="15.459311871899523"><ele>498.0</ele><time>2026-04-26T09:25:19Z</time></trkpt><trkpt lat="40.04705935325112" lon="15.459329349602822"><ele>498.0</ele><time>2026-04-26T09:25:20Z</time></trkpt><trkpt lat="40.04695086442969" lon="15.459330115696833"><ele>498.0</ele><time>2026-04-26T09:25:21Z</time></trkpt><trkpt lat="40.046839090417265" lon="15.459317757774645"><ele>497.99999999999994</ele><time>2026-04-26T09:25:22Z</time></trkpt><trkpt lat="40.046728679875294" lon="15.459281547737524"><ele>497.99999999999994</ele><time>2026-04-26T09:25:23Z</time></trkpt><trkpt lat="40.04661814141274" lon="15.45927537744529"><ele>498.0</ele><time>2026-04-26T09:25:24Z</time></trkpt><trkpt lat="40.046510385816354" lon="15.459231814780019"><ele>498.0</ele><time>2026-04-26T09:25:25Z</time></trkpt><trkpt lat="40.0464060687775" lon="15.459214806313064"><ele>498.0</ele><time>2026-04-26T09:25:26Z</time></trkpt><trkpt lat="40.04630275821953" lon="15.459183193496255"><ele>497.99999999999994</ele><time>2026-04-26T09:25:27Z</time></trkpt><trkpt lat="40.04619299512316" lon="15.459155448825243"><ele>497.99999999999994</ele><time>2026-04-26T09:25:28Z</time></trkpt><trkpt lat="40.046084686076746" lon="15.45912560140424"><ele>498.0</ele><time>2026-04-26T09:25:29Z</time></trkpt><trkpt lat="40.045972353669136" lon="15.459100819196074"><ele>498.0</ele><time>2026-04-26T09:25:30Z</time></trkpt><trkpt lat="40.04585020680447" lon="15.459079803781439"><ele>495.25</ele><time>2026-04-26T09:25:31Z</time></trkpt><trkpt lat="40.0457272917917" lon="15.459048132134656"><ele>492.5</ele><time>2026-04-26T09:25:32Z</time></trkpt><trkpt lat="40.045606065435756" lon="15.45903236414718"><ele>489.75</ele><time>2026-04-26T09:25:33Z</time></trkpt><trkpt lat="40.0454963306321" lon="15.458998308535921"><ele>487.0</ele><time>2026-04-26T09:25:34Z</time></trkpt><trkpt lat="40.04541586107904" lon="15.458929084367389"><ele>487.0</ele><time>2026-04-26T09:25:35Z</time></trkpt><trkpt lat="40.04534400344588" lon="15.458854725380435"><ele>487.00000000000006</ele><time>2026-04-26T09:25:36Z</time></trkpt><trkpt lat="40.04528685427686" lon="15.458763406162495"><ele>487.00000000000006</ele><time>2026-04-26T09:25:37Z</time></trkpt><trkpt lat="40.045228602838215" lon="15.458672085761696"><ele>487.0</ele><time>2026-04-26T09:25:38Z</time></trkpt><trkpt lat="40.04518842565074" lon="15.458562779850263"><ele>487.0</ele><time>2026-04-26T09:25:39Z</time></trkpt><trkpt lat="40.04514042031932" lon="15.45846113362406"><ele>491.20000000000005</ele><time>2026-04-26T09:25:40Z</time></trkpt><trkpt lat="40.04509133503932" lon="15.458334506304016"><ele>495.40000000000003</ele><time>2026-04-26T09:25:41Z</time></trkpt><trkpt lat="40.0450381144401" lon="15.458193792936735"><ele>499.59999999999997</ele><time>2026-04-26T09:25:42Z</time></trkpt><trkpt lat="40.04501078174153" lon="15.45804892880711"><ele>503.79999999999995</ele><time>2026-04-26T09:25:43Z</time></trkpt><trkpt lat="40.04498478193187" lon="15.457928125221713"><ele>508.0</ele><time>2026-04-26T09:25:44Z</time></trkpt><trkpt lat="40.04495903519409" lon="15.457815029214363"><ele>512.1999999999999</ele><time>2026-04-26T09:25:45Z</time></trkpt><trkpt lat="40.04490537360558" lon="15.457734054458264"><ele>516.4</ele><time>2026-04-26T09:25:46Z</time></trkpt><trkpt lat="40.0448226535341" lon="15.457631425939073"><ele>520.5999999999999</ele><time>2026-04-26T09:25:48Z</time></trkpt><trkpt lat="40.04470746609597" lon="15.457681176939479"><ele>524.8</ele><time>2026-04-26T09:25:50Z</time></trkpt><trkpt lat="40.04465051729976" lon="15.457754697866232"><ele>529.0</ele><time>2026-04-26T09:25:51Z</time></trkpt><trkpt lat="40.04460697945755" lon="15.457843028575596"><ele>529.0</ele><time>2026-04-26T09:25:52Z</time></trkpt><trkpt lat="40.044554734020686" lon="15.45795172209758"><ele>529.0</ele><time>2026-04-26T09:25:53Z</time></trkpt><trkpt lat="40.04451163453706" lon="15.458097456445397"><ele>529.0</ele><time>2026-04-26T09:25:54Z</time></trkpt><trkpt lat="40.04449757218071" lon="15.458215563531997"><ele>529.0</ele><time>2026-04-26T09:25:55Z</time></trkpt><trkpt lat="40.04445724097429" lon="15.458299448830045"><ele>529.0</ele><time>2026-04-26T09:25:56Z</time></trkpt><trkpt lat="40.04439807417281" lon="15.458364399509263"><ele>526.1666666666667</ele><time>2026-04-26T09:25:57Z</time></trkpt><trkpt lat="40.04432550301161" lon="15.458391295172813"><ele>523.3333333333334</ele><time>2026-04-26T09:25:58Z</time></trkpt><trkpt lat="40.04425763047244" lon="15.458382529159852"><ele>520.5</ele><time>2026-04-26T09:25:59Z</time></trkpt><trkpt lat="40.04417901520289" lon="15.458340154405668"><ele>517.6666666666666</ele><time>2026-04-26T09:26:00Z</time></trkpt><trkpt lat="40.04408706923861" lon="15.458289432989396"><ele>514.8333333333333</ele><time>2026-04-26T09:26:01Z</time></trkpt><trkpt lat="40.04399279191597" lon="15.458234466209255"><ele>512.0</ele><time>2026-04-26T09:26:02Z</time></trkpt><trkpt lat="40.043893548586524" lon="15.458175057705825"><ele>512.0</ele><time>2026-04-26T09:26:03Z</time></trkpt><trkpt lat="40.04378789725386" lon="15.458109620460997"><ele>512.0</ele><time>2026-04-26T09:26:04Z</time></trkpt><trkpt lat="40.04367859250226" lon="15.458020203433268"><ele>512.0</ele><time>2026-04-26T09:26:05Z</time></trkpt><trkpt lat="40.0435744441826" lon="15.457926035881629"><ele>512.0</ele><time>2026-04-26T09:26:06Z</time></trkpt><trkpt lat="40.04346389674398" lon="15.45784862791605"><ele>514.6</ele><time>2026-04-26T09:26:07Z</time></trkpt><trkpt lat="40.04334843437576" lon="15.45778005521559"><ele>517.2</ele><time>2026-04-26T09:26:08Z</time></trkpt><trkpt lat="40.04324326786369" lon="15.457713419115425"><ele>519.8</ele><time>2026-04-26T09:26:09Z</time></trkpt><trkpt lat="40.04315609553911" lon="15.45766137238485"><ele>522.4</ele><time>2026-04-26T09:26:10Z</time></trkpt><trkpt lat="40.043073208784485" lon="15.457615451048175"><ele>525.0</ele><time>2026-04-26T09:26:11Z</time></trkpt><trkpt lat="40.04300459082654" lon="15.457566331968836"><ele>525.0</ele><time>2026-04-26T09:26:12Z</time></trkpt><trkpt lat="40.04293616433904" lon="15.457539147882015"><ele>525.0</ele><time>2026-04-26T09:26:13Z</time></trkpt><trkpt lat="40.04287888211773" lon="15.457493961655999"><ele>525.0</ele><time>2026-04-26T09:26:14Z</time></trkpt><trkpt lat="40.042770414279175" lon="15.457495306075272"><ele>525.0</ele><time>2026-04-26T09:26:16Z</time></trkpt><trkpt lat="40.04268657934915" lon="15.457524552880324"><ele>525.0</ele><time>2026-04-26T09:26:18Z</time></trkpt><trkpt lat="40.04263070622731" lon="15.457462971581021"><ele>525.0</ele><time>2026-04-26T09:26:19Z</time></trkpt><trkpt lat="40.04256464205803" lon="15.45742268005595"><ele>525.0</ele><time>2026-04-26T09:26:21Z</time></trkpt><trkpt lat="40.04248625050007" lon="15.457430635277063"><ele>525.0</ele><time>2026-04-26T09:26:23Z</time></trkpt><trkpt lat="40.04241271844968" lon="15.457457718882806"><ele>525.0</ele><time>2026-04-26T09:26:25Z</time></trkpt><trkpt lat="40.04235650348791" lon="15.457531263763524"><ele>525.0</ele><time>2026-04-26T09:26:27Z</time></trkpt><trkpt lat="40.042292269222834" lon="15.457580040838215"><ele>525.0</ele><time>2026-04-26T09:26:29Z</time></trkpt><trkpt lat="40.04220885671803" lon="15.457541932244563"><ele>525.0</ele><time>2026-04-26T09:26:31Z</time></trkpt><trkpt lat="40.042110752874834" lon="15.45751942973564"><ele>526.2</ele><time>2026-04-26T09:26:33Z</time></trkpt><trkpt lat="40.041999176876644" lon="15.457475368038699"><ele>527.4</ele><time>2026-04-26T09:26:35Z</time></trkpt><trkpt lat="40.04190658079325" lon="15.457428490173841"><ele>528.6</ele><time>2026-04-26T09:26:37Z</time></trkpt><trkpt lat="40.04183323704915" lon="15.457397773050392"><ele>529.8</ele><time>2026-04-26T09:26:39Z</time></trkpt><trkpt lat="40.0417500971019" lon="15.457369659473745"><ele>531.0</ele><time>2026-04-26T09:26:41Z</time></trkpt><trkpt lat="40.04165448003293" lon="15.457353063904144"><ele>530.0</ele><time>2026-04-26T09:26:43Z</time></trkpt><trkpt lat="40.04155651530572" lon="15.45734226725319"><ele>529.0</ele><time>2026-04-26T09:26:45Z</time></trkpt><trkpt lat="40.04145728882551" lon="15.457331957042646"><ele>528.0</ele><time>2026-04-26T09:26:47Z</time></trkpt><trkpt lat="40.04136858768936" lon="15.457299930660259"><ele>527.0</ele><time>2026-04-26T09:26:49Z</time></trkpt><trkpt lat="40.04128236687175" lon="15.457288512192962"><ele>526.0</ele><time>2026-04-26T09:26:51Z</time></trkpt><trkpt lat="40.04119242938627" lon="15.45727660147459"><ele>526.0</ele><time>2026-04-26T09:26:53Z</time></trkpt><trkpt lat="40.041120928008155" lon="15.457265083795743"><ele>526.0</ele><time>2026-04-26T09:26:55Z</time></trkpt><trkpt lat="40.041044663906426" lon="15.457243158747785"><ele>526.0</ele><time>2026-04-26T09:26:58Z</time></trkpt><trkpt lat="40.04106967385433" lon="15.457326519639524"><ele>526.0</ele><time>2026-04-26T09:29:13Z</time></trkpt><trkpt lat="40.041045697368304" lon="15.457406753028778"><ele>526.0</ele><time>2026-04-26T09:29:20Z</time></trkpt><trkpt lat="40.04099045953716" lon="15.457446914368415"><ele>526.0</ele><time>2026-04-26T09:29:33Z</time></trkpt><trkpt lat="40.0409278605317" lon="15.457424812401705"><ele>526.0</ele><time>2026-04-26T09:29:40Z</time></trkpt><trkpt lat="40.040862273907386" lon="15.457430438606645"><ele>526.0</ele><time>2026-04-26T09:29:47Z</time></trkpt><trkpt lat="40.04080342518348" lon="15.457461456229423"><ele>526.0</ele><time>2026-04-26T09:29:56Z</time></trkpt></trkseg></trk></gpx>